<?xml version="1.0" encoding="UTF-8" standalone="no" ?>
<gpx xmlns="http://www.topografix.com/GPX/1/1" xmlns:xsi="http://www.w3.org/2001/XMLSchema-instance" xsi:schemaLocation="http://www.topografix.com/GPX/1/1 http://www.topografix.com/GPX/1/1/gpx.xsd" version="1.1" creator="VisuGPX - https://www.visugpx.com">
  <metadata>
    <name>Tramouillon_plus </name>
  </metadata>
  <trk>
    <name><![CDATA[B_Tramouillon_Bis]]></name>
    <trkseg>
      <trkpt lat="44.74195" lon="6.56317">
        <ele>1136</ele>
        <time>2010-01-01T00:00:00Z</time>
      </trkpt>
      <trkpt lat="44.74047" lon="6.56413">
        <ele>1138</ele>
        <time>2010-01-01T00:00:43Z</time>
      </trkpt>
      <trkpt lat="44.74014" lon="6.56419">
        <ele>1134</ele>
        <time>2010-01-01T00:00:52Z</time>
      </trkpt>
      <trkpt lat="44.73994" lon="6.5638">
        <ele>1130</ele>
        <time>2010-01-01T00:01:01Z</time>
      </trkpt>
      <trkpt lat="44.73872" lon="6.56426">
        <ele>1133</ele>
        <time>2010-01-01T00:01:35Z</time>
      </trkpt>
      <trkpt lat="44.73778" lon="6.56378">
        <ele>1130</ele>
        <time>2010-01-01T00:02:01Z</time>
      </trkpt>
      <trkpt lat="44.73773" lon="6.56377">
        <ele>1130</ele>
        <time>2010-01-01T00:02:03Z</time>
      </trkpt>
      <trkpt lat="44.73763" lon="6.56376">
        <ele>1130</ele>
        <time>2010-01-01T00:02:06Z</time>
      </trkpt>
      <trkpt lat="44.73757" lon="6.56375">
        <ele>1130</ele>
        <time>2010-01-01T00:02:07Z</time>
      </trkpt>
      <trkpt lat="44.73731" lon="6.56373">
        <ele>1131</ele>
        <time>2010-01-01T00:02:14Z</time>
      </trkpt>
      <trkpt lat="44.73631" lon="6.56404">
        <ele>1130</ele>
        <time>2010-01-01T00:02:41Z</time>
      </trkpt>
      <trkpt lat="44.73616" lon="6.56412">
        <ele>1132</ele>
        <time>2010-01-01T00:02:46Z</time>
      </trkpt>
      <trkpt lat="44.73607" lon="6.56421">
        <ele>1132</ele>
        <time>2010-01-01T00:02:49Z</time>
      </trkpt>
      <trkpt lat="44.73593" lon="6.56438">
        <ele>1131</ele>
        <time>2010-01-01T00:02:54Z</time>
      </trkpt>
      <trkpt lat="44.73586" lon="6.56449">
        <ele>1130</ele>
        <time>2010-01-01T00:02:56Z</time>
      </trkpt>
      <trkpt lat="44.73572" lon="6.56476">
        <ele>1130</ele>
        <time>2010-01-01T00:03:03Z</time>
      </trkpt>
      <trkpt lat="44.73563" lon="6.56493">
        <ele>1131</ele>
        <time>2010-01-01T00:03:07Z</time>
      </trkpt>
      <trkpt lat="44.73557" lon="6.56504">
        <ele>1131</ele>
        <time>2010-01-01T00:03:09Z</time>
      </trkpt>
      <trkpt lat="44.73555" lon="6.56508">
        <ele>1131</ele>
        <time>2010-01-01T00:03:10Z</time>
      </trkpt>
      <trkpt lat="44.73541" lon="6.56524">
        <ele>1132</ele>
        <time>2010-01-01T00:03:15Z</time>
      </trkpt>
      <trkpt lat="44.73522" lon="6.56527">
        <ele>1134</ele>
        <time>2010-01-01T00:03:20Z</time>
      </trkpt>
      <trkpt lat="44.73515" lon="6.56525">
        <ele>1134</ele>
        <time>2010-01-01T00:03:22Z</time>
      </trkpt>
      <trkpt lat="44.73497" lon="6.56517">
        <ele>1136</ele>
        <time>2010-01-01T00:03:27Z</time>
      </trkpt>
      <trkpt lat="44.73487" lon="6.56516">
        <ele>1137</ele>
        <time>2010-01-01T00:03:30Z</time>
      </trkpt>
      <trkpt lat="44.73477" lon="6.56519">
        <ele>1138</ele>
        <time>2010-01-01T00:03:33Z</time>
      </trkpt>
      <trkpt lat="44.73474" lon="6.56521">
        <ele>1138</ele>
        <time>2010-01-01T00:03:33Z</time>
      </trkpt>
      <trkpt lat="44.73465" lon="6.56533">
        <ele>1139</ele>
        <time>2010-01-01T00:03:37Z</time>
      </trkpt>
      <trkpt lat="44.73462" lon="6.56541">
        <ele>1139</ele>
        <time>2010-01-01T00:03:38Z</time>
      </trkpt>
      <trkpt lat="44.73457" lon="6.56552">
        <ele>1139</ele>
        <time>2010-01-01T00:03:41Z</time>
      </trkpt>
      <trkpt lat="44.73452" lon="6.56567">
        <ele>1139</ele>
        <time>2010-01-01T00:03:44Z</time>
      </trkpt>
      <trkpt lat="44.73446" lon="6.56582">
        <ele>1138</ele>
        <time>2010-01-01T00:03:47Z</time>
      </trkpt>
      <trkpt lat="44.73443" lon="6.56589">
        <ele>1138</ele>
        <time>2010-01-01T00:03:49Z</time>
      </trkpt>
      <trkpt lat="44.73434" lon="6.56611">
        <ele>1138</ele>
        <time>2010-01-01T00:03:54Z</time>
      </trkpt>
      <trkpt lat="44.73433" lon="6.56615">
        <ele>1138</ele>
        <time>2010-01-01T00:03:54Z</time>
      </trkpt>
      <trkpt lat="44.7343" lon="6.56622">
        <ele>1138</ele>
        <time>2010-01-01T00:03:56Z</time>
      </trkpt>
      <trkpt lat="44.73423" lon="6.56637">
        <ele>1139</ele>
        <time>2010-01-01T00:03:59Z</time>
      </trkpt>
      <trkpt lat="44.7342" lon="6.56643">
        <ele>1139</ele>
        <time>2010-01-01T00:04:01Z</time>
      </trkpt>
      <trkpt lat="44.73413" lon="6.56652">
        <ele>1140</ele>
        <time>2010-01-01T00:04:03Z</time>
      </trkpt>
      <trkpt lat="44.73403" lon="6.56661">
        <ele>1141</ele>
        <time>2010-01-01T00:04:06Z</time>
      </trkpt>
      <trkpt lat="44.73396" lon="6.56668">
        <ele>1142</ele>
        <time>2010-01-01T00:04:09Z</time>
      </trkpt>
      <trkpt lat="44.73383" lon="6.56679">
        <ele>1144</ele>
        <time>2010-01-01T00:04:13Z</time>
      </trkpt>
      <trkpt lat="44.73373" lon="6.56687">
        <ele>1146</ele>
        <time>2010-01-01T00:04:16Z</time>
      </trkpt>
      <trkpt lat="44.73356" lon="6.56701">
        <ele>1148</ele>
        <time>2010-01-01T00:04:21Z</time>
      </trkpt>
      <trkpt lat="44.73351" lon="6.56706">
        <ele>1148</ele>
        <time>2010-01-01T00:04:23Z</time>
      </trkpt>
      <trkpt lat="44.73344" lon="6.56713">
        <ele>1149</ele>
        <time>2010-01-01T00:04:25Z</time>
      </trkpt>
      <trkpt lat="44.73336" lon="6.56719">
        <ele>1149</ele>
        <time>2010-01-01T00:04:27Z</time>
      </trkpt>
      <trkpt lat="44.73321" lon="6.56734">
        <ele>1150</ele>
        <time>2010-01-01T00:04:32Z</time>
      </trkpt>
      <trkpt lat="44.73312" lon="6.56742">
        <ele>1150</ele>
        <time>2010-01-01T00:04:35Z</time>
      </trkpt>
      <trkpt lat="44.73294" lon="6.56757">
        <ele>1151</ele>
        <time>2010-01-01T00:04:41Z</time>
      </trkpt>
      <trkpt lat="44.73289" lon="6.56761">
        <ele>1152</ele>
        <time>2010-01-01T00:04:42Z</time>
      </trkpt>
      <trkpt lat="44.73272" lon="6.56776">
        <ele>1152</ele>
        <time>2010-01-01T00:04:48Z</time>
      </trkpt>
      <trkpt lat="44.7326" lon="6.5679">
        <ele>1152</ele>
        <time>2010-01-01T00:04:52Z</time>
      </trkpt>
      <trkpt lat="44.73249" lon="6.56801">
        <ele>1150</ele>
        <time>2010-01-01T00:04:55Z</time>
      </trkpt>
      <trkpt lat="44.73237" lon="6.56809">
        <ele>1150</ele>
        <time>2010-01-01T00:04:59Z</time>
      </trkpt>
      <trkpt lat="44.73231" lon="6.56812">
        <ele>1150</ele>
        <time>2010-01-01T00:05:01Z</time>
      </trkpt>
      <trkpt lat="44.73209" lon="6.5681">
        <ele>1151</ele>
        <time>2010-01-01T00:05:07Z</time>
      </trkpt>
      <trkpt lat="44.73182" lon="6.56803">
        <ele>1152</ele>
        <time>2010-01-01T00:05:14Z</time>
      </trkpt>
      <trkpt lat="44.73146" lon="6.568">
        <ele>1152</ele>
        <time>2010-01-01T00:05:24Z</time>
      </trkpt>
      <trkpt lat="44.73141" lon="6.56801">
        <ele>1152</ele>
        <time>2010-01-01T00:05:25Z</time>
      </trkpt>
      <trkpt lat="44.73119" lon="6.56809">
        <ele>1154</ele>
        <time>2010-01-01T00:05:31Z</time>
      </trkpt>
      <trkpt lat="44.73112" lon="6.56812">
        <ele>1155</ele>
        <time>2010-01-01T00:05:33Z</time>
      </trkpt>
      <trkpt lat="44.7309" lon="6.56823">
        <ele>1154</ele>
        <time>2010-01-01T00:05:39Z</time>
      </trkpt>
      <trkpt lat="44.73074" lon="6.56832">
        <ele>1154</ele>
        <time>2010-01-01T00:05:44Z</time>
      </trkpt>
      <trkpt lat="44.73067" lon="6.56835">
        <ele>1154</ele>
        <time>2010-01-01T00:05:46Z</time>
      </trkpt>
      <trkpt lat="44.7304" lon="6.56846">
        <ele>1154</ele>
        <time>2010-01-01T00:05:53Z</time>
      </trkpt>
      <trkpt lat="44.73036" lon="6.56847">
        <ele>1154</ele>
        <time>2010-01-01T00:05:54Z</time>
      </trkpt>
      <trkpt lat="44.73011" lon="6.56861">
        <ele>1153</ele>
        <time>2010-01-01T00:06:02Z</time>
      </trkpt>
      <trkpt lat="44.72987" lon="6.56882">
        <ele>1152</ele>
        <time>2010-01-01T00:06:09Z</time>
      </trkpt>
      <trkpt lat="44.72983" lon="6.56885">
        <ele>1151</ele>
        <time>2010-01-01T00:06:10Z</time>
      </trkpt>
      <trkpt lat="44.72956" lon="6.56904">
        <ele>1150</ele>
        <time>2010-01-01T00:06:18Z</time>
      </trkpt>
      <trkpt lat="44.72934" lon="6.56913">
        <ele>1152</ele>
        <time>2010-01-01T00:06:24Z</time>
      </trkpt>
      <trkpt lat="44.72923" lon="6.56917">
        <ele>1155</ele>
        <time>2010-01-01T00:06:28Z</time>
      </trkpt>
      <trkpt lat="44.72912" lon="6.56921">
        <ele>1157</ele>
        <time>2010-01-01T00:06:30Z</time>
      </trkpt>
      <trkpt lat="44.72909" lon="6.56922">
        <ele>1157</ele>
        <time>2010-01-01T00:06:31Z</time>
      </trkpt>
      <trkpt lat="44.72896" lon="6.56929">
        <ele>1159</ele>
        <time>2010-01-01T00:06:35Z</time>
      </trkpt>
      <trkpt lat="44.72889" lon="6.56932">
        <ele>1161</ele>
        <time>2010-01-01T00:06:37Z</time>
      </trkpt>
      <trkpt lat="44.72871" lon="6.5694">
        <ele>1161</ele>
        <time>2010-01-01T00:06:42Z</time>
      </trkpt>
      <trkpt lat="44.72863" lon="6.56942">
        <ele>1161</ele>
        <time>2010-01-01T00:06:44Z</time>
      </trkpt>
      <trkpt lat="44.72835" lon="6.56948">
        <ele>1159</ele>
        <time>2010-01-01T00:06:52Z</time>
      </trkpt>
      <trkpt lat="44.72831" lon="6.5695">
        <ele>1159</ele>
        <time>2010-01-01T00:06:53Z</time>
      </trkpt>
      <trkpt lat="44.72815" lon="6.56961">
        <ele>1157</ele>
        <time>2010-01-01T00:06:58Z</time>
      </trkpt>
      <trkpt lat="44.72806" lon="6.56966">
        <ele>1157</ele>
        <time>2010-01-01T00:07:00Z</time>
      </trkpt>
      <trkpt lat="44.72782" lon="6.56983">
        <ele>1156</ele>
        <time>2010-01-01T00:07:07Z</time>
      </trkpt>
      <trkpt lat="44.72762" lon="6.56998">
        <ele>1158</ele>
        <time>2010-01-01T00:07:13Z</time>
      </trkpt>
      <trkpt lat="44.72755" lon="6.57002">
        <ele>1159</ele>
        <time>2010-01-01T00:07:15Z</time>
      </trkpt>
      <trkpt lat="44.72752" lon="6.57004">
        <ele>1160</ele>
        <time>2010-01-01T00:07:16Z</time>
      </trkpt>
      <trkpt lat="44.72743" lon="6.57009">
        <ele>1161</ele>
        <time>2010-01-01T00:07:19Z</time>
      </trkpt>
      <trkpt lat="44.72736" lon="6.57013">
        <ele>1162</ele>
        <time>2010-01-01T00:07:21Z</time>
      </trkpt>
      <trkpt lat="44.72729" lon="6.57015">
        <ele>1163</ele>
        <time>2010-01-01T00:07:23Z</time>
      </trkpt>
      <trkpt lat="44.72724" lon="6.57017">
        <ele>1164</ele>
        <time>2010-01-01T00:07:24Z</time>
      </trkpt>
      <trkpt lat="44.72722" lon="6.57019">
        <ele>1165</ele>
        <time>2010-01-01T00:07:25Z</time>
      </trkpt>
      <trkpt lat="44.72714" lon="6.57025">
        <ele>1165</ele>
        <time>2010-01-01T00:07:27Z</time>
      </trkpt>
      <trkpt lat="44.72703" lon="6.57033">
        <ele>1165</ele>
        <time>2010-01-01T00:07:31Z</time>
      </trkpt>
      <trkpt lat="44.72699" lon="6.57035">
        <ele>1165</ele>
        <time>2010-01-01T00:07:32Z</time>
      </trkpt>
      <trkpt lat="44.72697" lon="6.57037">
        <ele>1165</ele>
        <time>2010-01-01T00:07:32Z</time>
      </trkpt>
      <trkpt lat="44.72691" lon="6.57042">
        <ele>1165</ele>
        <time>2010-01-01T00:07:34Z</time>
      </trkpt>
      <trkpt lat="44.72682" lon="6.57047">
        <ele>1165</ele>
        <time>2010-01-01T00:07:37Z</time>
      </trkpt>
      <trkpt lat="44.72669" lon="6.57055">
        <ele>1166</ele>
        <time>2010-01-01T00:07:41Z</time>
      </trkpt>
      <trkpt lat="44.7266" lon="6.57058">
        <ele>1167</ele>
        <time>2010-01-01T00:07:43Z</time>
      </trkpt>
      <trkpt lat="44.72646" lon="6.57059">
        <ele>1169</ele>
        <time>2010-01-01T00:07:47Z</time>
      </trkpt>
      <trkpt lat="44.72641" lon="6.57059">
        <ele>1169</ele>
        <time>2010-01-01T00:07:48Z</time>
      </trkpt>
      <trkpt lat="44.7263" lon="6.57062">
        <ele>1171</ele>
        <time>2010-01-01T00:07:51Z</time>
      </trkpt>
      <trkpt lat="44.72627" lon="6.57063">
        <ele>1172</ele>
        <time>2010-01-01T00:07:52Z</time>
      </trkpt>
      <trkpt lat="44.72615" lon="6.57067">
        <ele>1174</ele>
        <time>2010-01-01T00:07:55Z</time>
      </trkpt>
      <trkpt lat="44.72608" lon="6.5707">
        <ele>1176</ele>
        <time>2010-01-01T00:07:57Z</time>
      </trkpt>
      <trkpt lat="44.72603" lon="6.57072">
        <ele>1177</ele>
        <time>2010-01-01T00:07:58Z</time>
      </trkpt>
      <trkpt lat="44.72596" lon="6.57075">
        <ele>1178</ele>
        <time>2010-01-01T00:08:01Z</time>
      </trkpt>
      <trkpt lat="44.7259" lon="6.57074">
        <ele>1179</ele>
        <time>2010-01-01T00:08:02Z</time>
      </trkpt>
      <trkpt lat="44.72578" lon="6.57074">
        <ele>1181</ele>
        <time>2010-01-01T00:08:05Z</time>
      </trkpt>
      <trkpt lat="44.72571" lon="6.57074">
        <ele>1182</ele>
        <time>2010-01-01T00:08:07Z</time>
      </trkpt>
      <trkpt lat="44.72567" lon="6.57073">
        <ele>1183</ele>
        <time>2010-01-01T00:08:08Z</time>
      </trkpt>
      <trkpt lat="44.72558" lon="6.57072">
        <ele>1184</ele>
        <time>2010-01-01T00:08:11Z</time>
      </trkpt>
      <trkpt lat="44.72553" lon="6.57073">
        <ele>1185</ele>
        <time>2010-01-01T00:08:12Z</time>
      </trkpt>
      <trkpt lat="44.72549" lon="6.57073">
        <ele>1185</ele>
        <time>2010-01-01T00:08:13Z</time>
      </trkpt>
      <trkpt lat="44.72538" lon="6.57072">
        <ele>1186</ele>
        <time>2010-01-01T00:08:16Z</time>
      </trkpt>
      <trkpt lat="44.72533" lon="6.57072">
        <ele>1187</ele>
        <time>2010-01-01T00:08:17Z</time>
      </trkpt>
      <trkpt lat="44.72529" lon="6.57071">
        <ele>1187</ele>
        <time>2010-01-01T00:08:18Z</time>
      </trkpt>
      <trkpt lat="44.7252" lon="6.57069">
        <ele>1187</ele>
        <time>2010-01-01T00:08:21Z</time>
      </trkpt>
      <trkpt lat="44.72512" lon="6.57069">
        <ele>1188</ele>
        <time>2010-01-01T00:08:23Z</time>
      </trkpt>
      <trkpt lat="44.72502" lon="6.5707">
        <ele>1188</ele>
        <time>2010-01-01T00:08:26Z</time>
      </trkpt>
      <trkpt lat="44.72496" lon="6.57075">
        <ele>1190</ele>
        <time>2010-01-01T00:08:27Z</time>
      </trkpt>
      <trkpt lat="44.72495" lon="6.57077">
        <ele>1191</ele>
        <time>2010-01-01T00:08:28Z</time>
      </trkpt>
      <trkpt lat="44.72491" lon="6.57091">
        <ele>1193</ele>
        <time>2010-01-01T00:08:31Z</time>
      </trkpt>
      <trkpt lat="44.72491" lon="6.57097">
        <ele>1193</ele>
        <time>2010-01-01T00:08:32Z</time>
      </trkpt>
      <trkpt lat="44.72492" lon="6.57109">
        <ele>1194</ele>
        <time>2010-01-01T00:08:34Z</time>
      </trkpt>
      <trkpt lat="44.72491" lon="6.57115">
        <ele>1194</ele>
        <time>2010-01-01T00:08:35Z</time>
      </trkpt>
      <trkpt lat="44.72487" lon="6.5713">
        <ele>1193</ele>
        <time>2010-01-01T00:08:38Z</time>
      </trkpt>
      <trkpt lat="44.72484" lon="6.57134">
        <ele>1193</ele>
        <time>2010-01-01T00:08:40Z</time>
      </trkpt>
      <trkpt lat="44.72476" lon="6.57142">
        <ele>1194</ele>
        <time>2010-01-01T00:08:42Z</time>
      </trkpt>
      <trkpt lat="44.7247" lon="6.57146">
        <ele>1195</ele>
        <time>2010-01-01T00:08:44Z</time>
      </trkpt>
      <trkpt lat="44.72462" lon="6.57149">
        <ele>1195</ele>
        <time>2010-01-01T00:08:46Z</time>
      </trkpt>
      <trkpt lat="44.72449" lon="6.57153">
        <ele>1196</ele>
        <time>2010-01-01T00:08:50Z</time>
      </trkpt>
      <trkpt lat="44.72447" lon="6.57154">
        <ele>1196</ele>
        <time>2010-01-01T00:08:50Z</time>
      </trkpt>
      <trkpt lat="44.72443" lon="6.57155">
        <ele>1197</ele>
        <time>2010-01-01T00:08:51Z</time>
      </trkpt>
      <trkpt lat="44.72434" lon="6.57157">
        <ele>1197</ele>
        <time>2010-01-01T00:08:54Z</time>
      </trkpt>
      <trkpt lat="44.72432" lon="6.57157">
        <ele>1198</ele>
        <time>2010-01-01T00:08:54Z</time>
      </trkpt>
      <trkpt lat="44.72421" lon="6.57155">
        <ele>1200</ele>
        <time>2010-01-01T00:08:57Z</time>
      </trkpt>
      <trkpt lat="44.72409" lon="6.57151">
        <ele>1202</ele>
        <time>2010-01-01T00:09:00Z</time>
      </trkpt>
      <trkpt lat="44.72404" lon="6.57149">
        <ele>1203</ele>
        <time>2010-01-01T00:09:02Z</time>
      </trkpt>
      <trkpt lat="44.72394" lon="6.57152">
        <ele>1204</ele>
        <time>2010-01-01T00:09:05Z</time>
      </trkpt>
      <trkpt lat="44.72389" lon="6.57155">
        <ele>1205</ele>
        <time>2010-01-01T00:09:06Z</time>
      </trkpt>
      <trkpt lat="44.72376" lon="6.57162">
        <ele>1205</ele>
        <time>2010-01-01T00:09:10Z</time>
      </trkpt>
      <trkpt lat="44.72371" lon="6.57165">
        <ele>1205</ele>
        <time>2010-01-01T00:09:11Z</time>
      </trkpt>
      <trkpt lat="44.72366" lon="6.57167">
        <ele>1205</ele>
        <time>2010-01-01T00:09:13Z</time>
      </trkpt>
      <trkpt lat="44.72357" lon="6.57167">
        <ele>1205</ele>
        <time>2010-01-01T00:09:15Z</time>
      </trkpt>
      <trkpt lat="44.72354" lon="6.57166">
        <ele>1205</ele>
        <time>2010-01-01T00:09:16Z</time>
      </trkpt>
      <trkpt lat="44.72339" lon="6.57165">
        <ele>1205</ele>
        <time>2010-01-01T00:09:20Z</time>
      </trkpt>
      <trkpt lat="44.72337" lon="6.57165">
        <ele>1205</ele>
        <time>2010-01-01T00:09:20Z</time>
      </trkpt>
      <trkpt lat="44.72321" lon="6.57166">
        <ele>1205</ele>
        <time>2010-01-01T00:09:25Z</time>
      </trkpt>
      <trkpt lat="44.72317" lon="6.57167">
        <ele>1206</ele>
        <time>2010-01-01T00:09:26Z</time>
      </trkpt>
      <trkpt lat="44.72308" lon="6.57168">
        <ele>1206</ele>
        <time>2010-01-01T00:09:28Z</time>
      </trkpt>
      <trkpt lat="44.72295" lon="6.57165">
        <ele>1206</ele>
        <time>2010-01-01T00:09:32Z</time>
      </trkpt>
      <trkpt lat="44.72282" lon="6.57161">
        <ele>1207</ele>
        <time>2010-01-01T00:09:35Z</time>
      </trkpt>
      <trkpt lat="44.72265" lon="6.57158">
        <ele>1208</ele>
        <time>2010-01-01T00:09:40Z</time>
      </trkpt>
      <trkpt lat="44.72263" lon="6.57158">
        <ele>1208</ele>
        <time>2010-01-01T00:09:41Z</time>
      </trkpt>
      <trkpt lat="44.72243" lon="6.57163">
        <ele>1209</ele>
        <time>2010-01-01T00:09:46Z</time>
      </trkpt>
      <trkpt lat="44.7223" lon="6.57172">
        <ele>1210</ele>
        <time>2010-01-01T00:09:50Z</time>
      </trkpt>
      <trkpt lat="44.72223" lon="6.57179">
        <ele>1211</ele>
        <time>2010-01-01T00:09:52Z</time>
      </trkpt>
      <trkpt lat="44.72216" lon="6.57183">
        <ele>1212</ele>
        <time>2010-01-01T00:09:54Z</time>
      </trkpt>
      <trkpt lat="44.72204" lon="6.57192">
        <ele>1213</ele>
        <time>2010-01-01T00:09:58Z</time>
      </trkpt>
      <trkpt lat="44.72194" lon="6.57199">
        <ele>1214</ele>
        <time>2010-01-01T00:10:01Z</time>
      </trkpt>
      <trkpt lat="44.72187" lon="6.57203">
        <ele>1215</ele>
        <time>2010-01-01T00:10:03Z</time>
      </trkpt>
      <trkpt lat="44.72171" lon="6.57212">
        <ele>1216</ele>
        <time>2010-01-01T00:10:07Z</time>
      </trkpt>
      <trkpt lat="44.72166" lon="6.57215">
        <ele>1216</ele>
        <time>2010-01-01T00:10:09Z</time>
      </trkpt>
      <trkpt lat="44.72157" lon="6.57222">
        <ele>1217</ele>
        <time>2010-01-01T00:10:11Z</time>
      </trkpt>
      <trkpt lat="44.7215" lon="6.57227">
        <ele>1218</ele>
        <time>2010-01-01T00:10:14Z</time>
      </trkpt>
      <trkpt lat="44.72141" lon="6.57234">
        <ele>1219</ele>
        <time>2010-01-01T00:10:16Z</time>
      </trkpt>
      <trkpt lat="44.72132" lon="6.5724">
        <ele>1219</ele>
        <time>2010-01-01T00:10:19Z</time>
      </trkpt>
      <trkpt lat="44.72129" lon="6.57241">
        <ele>1219</ele>
        <time>2010-01-01T00:10:20Z</time>
      </trkpt>
      <trkpt lat="44.72117" lon="6.5724">
        <ele>1220</ele>
        <time>2010-01-01T00:10:23Z</time>
      </trkpt>
      <trkpt lat="44.72115" lon="6.57239">
        <ele>1220</ele>
        <time>2010-01-01T00:10:24Z</time>
      </trkpt>
      <trkpt lat="44.72105" lon="6.57231">
        <ele>1221</ele>
        <time>2010-01-01T00:10:27Z</time>
      </trkpt>
      <trkpt lat="44.72102" lon="6.57226">
        <ele>1221</ele>
        <time>2010-01-01T00:10:28Z</time>
      </trkpt>
      <trkpt lat="44.72094" lon="6.57214">
        <ele>1222</ele>
        <time>2010-01-01T00:10:31Z</time>
      </trkpt>
      <trkpt lat="44.72091" lon="6.57206">
        <ele>1222</ele>
        <time>2010-01-01T00:10:33Z</time>
      </trkpt>
      <trkpt lat="44.72089" lon="6.57201">
        <ele>1222</ele>
        <time>2010-01-01T00:10:34Z</time>
      </trkpt>
      <trkpt lat="44.72081" lon="6.57192">
        <ele>1223</ele>
        <time>2010-01-01T00:10:36Z</time>
      </trkpt>
      <trkpt lat="44.72079" lon="6.57189">
        <ele>1223</ele>
        <time>2010-01-01T00:10:37Z</time>
      </trkpt>
      <trkpt lat="44.72072" lon="6.57175">
        <ele>1224</ele>
        <time>2010-01-01T00:10:40Z</time>
      </trkpt>
      <trkpt lat="44.72071" lon="6.57169">
        <ele>1224</ele>
        <time>2010-01-01T00:10:42Z</time>
      </trkpt>
      <trkpt lat="44.72069" lon="6.57163">
        <ele>1225</ele>
        <time>2010-01-01T00:10:43Z</time>
      </trkpt>
      <trkpt lat="44.72069" lon="6.57153">
        <ele>1226</ele>
        <time>2010-01-01T00:10:45Z</time>
      </trkpt>
      <trkpt lat="44.7207" lon="6.57147">
        <ele>1227</ele>
        <time>2010-01-01T00:10:46Z</time>
      </trkpt>
      <trkpt lat="44.72073" lon="6.57135">
        <ele>1228</ele>
        <time>2010-01-01T00:10:48Z</time>
      </trkpt>
      <trkpt lat="44.72077" lon="6.57125">
        <ele>1229</ele>
        <time>2010-01-01T00:10:50Z</time>
      </trkpt>
      <trkpt lat="44.72091" lon="6.57105">
        <ele>1230</ele>
        <time>2010-01-01T00:10:56Z</time>
      </trkpt>
      <trkpt lat="44.72097" lon="6.57096">
        <ele>1230</ele>
        <time>2010-01-01T00:10:58Z</time>
      </trkpt>
      <trkpt lat="44.72108" lon="6.57083">
        <ele>1230</ele>
        <time>2010-01-01T00:11:02Z</time>
      </trkpt>
      <trkpt lat="44.72121" lon="6.57071">
        <ele>1233</ele>
        <time>2010-01-01T00:11:06Z</time>
      </trkpt>
      <trkpt lat="44.72128" lon="6.57064">
        <ele>1234</ele>
        <time>2010-01-01T00:11:08Z</time>
      </trkpt>
      <trkpt lat="44.72136" lon="6.57055">
        <ele>1235</ele>
        <time>2010-01-01T00:11:11Z</time>
      </trkpt>
      <trkpt lat="44.72143" lon="6.57046">
        <ele>1237</ele>
        <time>2010-01-01T00:11:14Z</time>
      </trkpt>
      <trkpt lat="44.72161" lon="6.57025">
        <ele>1237</ele>
        <time>2010-01-01T00:11:20Z</time>
      </trkpt>
      <trkpt lat="44.72166" lon="6.5702">
        <ele>1237</ele>
        <time>2010-01-01T00:11:22Z</time>
      </trkpt>
      <trkpt lat="44.72182" lon="6.57006">
        <ele>1236</ele>
        <time>2010-01-01T00:11:27Z</time>
      </trkpt>
      <trkpt lat="44.72189" lon="6.57">
        <ele>1235</ele>
        <time>2010-01-01T00:11:29Z</time>
      </trkpt>
      <trkpt lat="44.72202" lon="6.5699">
        <ele>1236</ele>
        <time>2010-01-01T00:11:33Z</time>
      </trkpt>
      <trkpt lat="44.72206" lon="6.56986">
        <ele>1236</ele>
        <time>2010-01-01T00:11:34Z</time>
      </trkpt>
      <trkpt lat="44.72211" lon="6.56977">
        <ele>1237</ele>
        <time>2010-01-01T00:11:36Z</time>
      </trkpt>
      <trkpt lat="44.7221" lon="6.56973">
        <ele>1239</ele>
        <time>2010-01-01T00:11:37Z</time>
      </trkpt>
      <trkpt lat="44.72208" lon="6.56971">
        <ele>1240</ele>
        <time>2010-01-01T00:11:38Z</time>
      </trkpt>
      <trkpt lat="44.72203" lon="6.56973">
        <ele>1241</ele>
        <time>2010-01-01T00:11:39Z</time>
      </trkpt>
      <trkpt lat="44.72198" lon="6.5698">
        <ele>1240</ele>
        <time>2010-01-01T00:11:41Z</time>
      </trkpt>
      <trkpt lat="44.72193" lon="6.56984">
        <ele>1240</ele>
        <time>2010-01-01T00:11:42Z</time>
      </trkpt>
      <trkpt lat="44.72181" lon="6.56993">
        <ele>1241</ele>
        <time>2010-01-01T00:11:46Z</time>
      </trkpt>
      <trkpt lat="44.72173" lon="6.56997">
        <ele>1243</ele>
        <time>2010-01-01T00:11:48Z</time>
      </trkpt>
      <trkpt lat="44.72158" lon="6.57003">
        <ele>1245</ele>
        <time>2010-01-01T00:11:52Z</time>
      </trkpt>
      <trkpt lat="44.72145" lon="6.57011">
        <ele>1247</ele>
        <time>2010-01-01T00:11:56Z</time>
      </trkpt>
      <trkpt lat="44.72138" lon="6.57016">
        <ele>1248</ele>
        <time>2010-01-01T00:11:58Z</time>
      </trkpt>
      <trkpt lat="44.72123" lon="6.57027">
        <ele>1249</ele>
        <time>2010-01-01T00:12:03Z</time>
      </trkpt>
      <trkpt lat="44.72106" lon="6.57039">
        <ele>1250</ele>
        <time>2010-01-01T00:12:08Z</time>
      </trkpt>
      <trkpt lat="44.72101" lon="6.57042">
        <ele>1250</ele>
        <time>2010-01-01T00:12:09Z</time>
      </trkpt>
      <trkpt lat="44.72094" lon="6.57047">
        <ele>1251</ele>
        <time>2010-01-01T00:12:11Z</time>
      </trkpt>
      <trkpt lat="44.72085" lon="6.57052">
        <ele>1251</ele>
        <time>2010-01-01T00:12:14Z</time>
      </trkpt>
      <trkpt lat="44.7208" lon="6.57055">
        <ele>1251</ele>
        <time>2010-01-01T00:12:16Z</time>
      </trkpt>
      <trkpt lat="44.72073" lon="6.57059">
        <ele>1251</ele>
        <time>2010-01-01T00:12:17Z</time>
      </trkpt>
      <trkpt lat="44.72062" lon="6.57063">
        <ele>1252</ele>
        <time>2010-01-01T00:12:21Z</time>
      </trkpt>
      <trkpt lat="44.72048" lon="6.57068">
        <ele>1252</ele>
        <time>2010-01-01T00:12:24Z</time>
      </trkpt>
      <trkpt lat="44.72044" lon="6.57069">
        <ele>1252</ele>
        <time>2010-01-01T00:12:26Z</time>
      </trkpt>
      <trkpt lat="44.72039" lon="6.57071">
        <ele>1253</ele>
        <time>2010-01-01T00:12:27Z</time>
      </trkpt>
      <trkpt lat="44.7203" lon="6.57075">
        <ele>1252</ele>
        <time>2010-01-01T00:12:29Z</time>
      </trkpt>
      <trkpt lat="44.72026" lon="6.57076">
        <ele>1253</ele>
        <time>2010-01-01T00:12:31Z</time>
      </trkpt>
      <trkpt lat="44.72018" lon="6.57079">
        <ele>1254</ele>
        <time>2010-01-01T00:12:33Z</time>
      </trkpt>
      <trkpt lat="44.72009" lon="6.57081">
        <ele>1256</ele>
        <time>2010-01-01T00:12:35Z</time>
      </trkpt>
      <trkpt lat="44.72" lon="6.57083">
        <ele>1258</ele>
        <time>2010-01-01T00:12:38Z</time>
      </trkpt>
      <trkpt lat="44.71988" lon="6.57086">
        <ele>1259</ele>
        <time>2010-01-01T00:12:41Z</time>
      </trkpt>
      <trkpt lat="44.71986" lon="6.57087">
        <ele>1259</ele>
        <time>2010-01-01T00:12:41Z</time>
      </trkpt>
      <trkpt lat="44.71981" lon="6.57088">
        <ele>1260</ele>
        <time>2010-01-01T00:12:43Z</time>
      </trkpt>
      <trkpt lat="44.7197" lon="6.5709">
        <ele>1261</ele>
        <time>2010-01-01T00:12:46Z</time>
      </trkpt>
      <trkpt lat="44.71963" lon="6.57091">
        <ele>1262</ele>
        <time>2010-01-01T00:12:48Z</time>
      </trkpt>
      <trkpt lat="44.71961" lon="6.57092">
        <ele>1262</ele>
        <time>2010-01-01T00:12:48Z</time>
      </trkpt>
      <trkpt lat="44.71946" lon="6.57093">
        <ele>1264</ele>
        <time>2010-01-01T00:12:52Z</time>
      </trkpt>
      <trkpt lat="44.71942" lon="6.57093">
        <ele>1264</ele>
        <time>2010-01-01T00:12:53Z</time>
      </trkpt>
      <trkpt lat="44.7193" lon="6.57096">
        <ele>1265</ele>
        <time>2010-01-01T00:12:57Z</time>
      </trkpt>
      <trkpt lat="44.71923" lon="6.57099">
        <ele>1266</ele>
        <time>2010-01-01T00:12:58Z</time>
      </trkpt>
      <trkpt lat="44.7192" lon="6.57099">
        <ele>1266</ele>
        <time>2010-01-01T00:12:59Z</time>
      </trkpt>
      <trkpt lat="44.71907" lon="6.57104">
        <ele>1269</ele>
        <time>2010-01-01T00:13:03Z</time>
      </trkpt>
      <trkpt lat="44.71905" lon="6.57105">
        <ele>1269</ele>
        <time>2010-01-01T00:13:03Z</time>
      </trkpt>
      <trkpt lat="44.71902" lon="6.57106">
        <ele>1270</ele>
        <time>2010-01-01T00:13:04Z</time>
      </trkpt>
      <trkpt lat="44.71889" lon="6.57111">
        <ele>1272</ele>
        <time>2010-01-01T00:13:08Z</time>
      </trkpt>
      <trkpt lat="44.71882" lon="6.57112">
        <ele>1272</ele>
        <time>2010-01-01T00:13:10Z</time>
      </trkpt>
      <trkpt lat="44.71877" lon="6.57113">
        <ele>1272</ele>
        <time>2010-01-01T00:13:11Z</time>
      </trkpt>
      <trkpt lat="44.71865" lon="6.57116">
        <ele>1272</ele>
        <time>2010-01-01T00:13:14Z</time>
      </trkpt>
      <trkpt lat="44.71857" lon="6.57116">
        <ele>1274</ele>
        <time>2010-01-01T00:13:16Z</time>
      </trkpt>
      <trkpt lat="44.71852" lon="6.57116">
        <ele>1275</ele>
        <time>2010-01-01T00:13:18Z</time>
      </trkpt>
      <trkpt lat="44.71843" lon="6.57116">
        <ele>1277</ele>
        <time>2010-01-01T00:13:20Z</time>
      </trkpt>
      <trkpt lat="44.71833" lon="6.57116">
        <ele>1279</ele>
        <time>2010-01-01T00:13:23Z</time>
      </trkpt>
      <trkpt lat="44.71826" lon="6.57119">
        <ele>1280</ele>
        <time>2010-01-01T00:13:25Z</time>
      </trkpt>
      <trkpt lat="44.71817" lon="6.57123">
        <ele>1281</ele>
        <time>2010-01-01T00:13:27Z</time>
      </trkpt>
      <trkpt lat="44.71814" lon="6.57123">
        <ele>1281</ele>
        <time>2010-01-01T00:13:28Z</time>
      </trkpt>
      <trkpt lat="44.71805" lon="6.57128">
        <ele>1282</ele>
        <time>2010-01-01T00:13:31Z</time>
      </trkpt>
      <trkpt lat="44.71798" lon="6.5713">
        <ele>1282</ele>
        <time>2010-01-01T00:13:32Z</time>
      </trkpt>
      <trkpt lat="44.71793" lon="6.57133">
        <ele>1282</ele>
        <time>2010-01-01T00:13:34Z</time>
      </trkpt>
      <trkpt lat="44.71782" lon="6.57138">
        <ele>1282</ele>
        <time>2010-01-01T00:13:37Z</time>
      </trkpt>
      <trkpt lat="44.71779" lon="6.57138">
        <ele>1282</ele>
        <time>2010-01-01T00:13:38Z</time>
      </trkpt>
      <trkpt lat="44.71772" lon="6.57138">
        <ele>1284</ele>
        <time>2010-01-01T00:13:40Z</time>
      </trkpt>
      <trkpt lat="44.7176" lon="6.5714">
        <ele>1287</ele>
        <time>2010-01-01T00:13:43Z</time>
      </trkpt>
      <trkpt lat="44.71758" lon="6.57139">
        <ele>1287</ele>
        <time>2010-01-01T00:13:44Z</time>
      </trkpt>
      <trkpt lat="44.71748" lon="6.57142">
        <ele>1289</ele>
        <time>2010-01-01T00:13:46Z</time>
      </trkpt>
      <trkpt lat="44.71743" lon="6.57143">
        <ele>1289</ele>
        <time>2010-01-01T00:13:48Z</time>
      </trkpt>
      <trkpt lat="44.71738" lon="6.57145">
        <ele>1290</ele>
        <time>2010-01-01T00:13:49Z</time>
      </trkpt>
      <trkpt lat="44.7173" lon="6.57147">
        <ele>1291</ele>
        <time>2010-01-01T00:13:51Z</time>
      </trkpt>
      <trkpt lat="44.71726" lon="6.57148">
        <ele>1291</ele>
        <time>2010-01-01T00:13:52Z</time>
      </trkpt>
      <trkpt lat="44.71724" lon="6.57148">
        <ele>1292</ele>
        <time>2010-01-01T00:13:53Z</time>
      </trkpt>
      <trkpt lat="44.71711" lon="6.57149">
        <ele>1292</ele>
        <time>2010-01-01T00:13:56Z</time>
      </trkpt>
      <trkpt lat="44.71702" lon="6.57147">
        <ele>1294</ele>
        <time>2010-01-01T00:13:59Z</time>
      </trkpt>
      <trkpt lat="44.71694" lon="6.57144">
        <ele>1295</ele>
        <time>2010-01-01T00:14:01Z</time>
      </trkpt>
      <trkpt lat="44.71688" lon="6.57143">
        <ele>1296</ele>
        <time>2010-01-01T00:14:02Z</time>
      </trkpt>
      <trkpt lat="44.71679" lon="6.57141">
        <ele>1297</ele>
        <time>2010-01-01T00:14:05Z</time>
      </trkpt>
      <trkpt lat="44.71675" lon="6.5714">
        <ele>1297</ele>
        <time>2010-01-01T00:14:06Z</time>
      </trkpt>
      <trkpt lat="44.71674" lon="6.57139">
        <ele>1297</ele>
        <time>2010-01-01T00:14:06Z</time>
      </trkpt>
      <trkpt lat="44.71661" lon="6.57138">
        <ele>1298</ele>
        <time>2010-01-01T00:14:10Z</time>
      </trkpt>
      <trkpt lat="44.7165" lon="6.5714">
        <ele>1297</ele>
        <time>2010-01-01T00:14:13Z</time>
      </trkpt>
      <trkpt lat="44.7164" lon="6.57142">
        <ele>1297</ele>
        <time>2010-01-01T00:14:15Z</time>
      </trkpt>
      <trkpt lat="44.71628" lon="6.57147">
        <ele>1297</ele>
        <time>2010-01-01T00:14:19Z</time>
      </trkpt>
      <trkpt lat="44.71624" lon="6.57148">
        <ele>1297</ele>
        <time>2010-01-01T00:14:20Z</time>
      </trkpt>
      <trkpt lat="44.71622" lon="6.57149">
        <ele>1297</ele>
        <time>2010-01-01T00:14:20Z</time>
      </trkpt>
      <trkpt lat="44.71608" lon="6.57145">
        <ele>1299</ele>
        <time>2010-01-01T00:14:24Z</time>
      </trkpt>
      <trkpt lat="44.71596" lon="6.57137">
        <ele>1302</ele>
        <time>2010-01-01T00:14:28Z</time>
      </trkpt>
      <trkpt lat="44.71591" lon="6.57137">
        <ele>1303</ele>
        <time>2010-01-01T00:14:29Z</time>
      </trkpt>
      <trkpt lat="44.71577" lon="6.57146">
        <ele>1302</ele>
        <time>2010-01-01T00:14:33Z</time>
      </trkpt>
      <trkpt lat="44.71574" lon="6.57151">
        <ele>1301</ele>
        <time>2010-01-01T00:14:34Z</time>
      </trkpt>
      <trkpt lat="44.71569" lon="6.57161">
        <ele>1300</ele>
        <time>2010-01-01T00:14:37Z</time>
      </trkpt>
      <trkpt lat="44.71565" lon="6.57164">
        <ele>1299</ele>
        <time>2010-01-01T00:14:38Z</time>
      </trkpt>
      <trkpt lat="44.71561" lon="6.57166">
        <ele>1299</ele>
        <time>2010-01-01T00:14:39Z</time>
      </trkpt>
      <trkpt lat="44.71554" lon="6.57163">
        <ele>1300</ele>
        <time>2010-01-01T00:14:41Z</time>
      </trkpt>
      <trkpt lat="44.71544" lon="6.57157">
        <ele>1303</ele>
        <time>2010-01-01T00:14:44Z</time>
      </trkpt>
      <trkpt lat="44.71537" lon="6.57153">
        <ele>1305</ele>
        <time>2010-01-01T00:14:46Z</time>
      </trkpt>
      <trkpt lat="44.71528" lon="6.57149">
        <ele>1307</ele>
        <time>2010-01-01T00:14:48Z</time>
      </trkpt>
      <trkpt lat="44.71516" lon="6.57145">
        <ele>1310</ele>
        <time>2010-01-01T00:14:52Z</time>
      </trkpt>
      <trkpt lat="44.71511" lon="6.57144">
        <ele>1311</ele>
        <time>2010-01-01T00:14:53Z</time>
      </trkpt>
      <trkpt lat="44.71499" lon="6.57139">
        <ele>1314</ele>
        <time>2010-01-01T00:14:56Z</time>
      </trkpt>
      <trkpt lat="44.71495" lon="6.57136">
        <ele>1314</ele>
        <time>2010-01-01T00:14:57Z</time>
      </trkpt>
      <trkpt lat="44.7148" lon="6.57129">
        <ele>1318</ele>
        <time>2010-01-01T00:15:02Z</time>
      </trkpt>
      <trkpt lat="44.71469" lon="6.5713">
        <ele>1319</ele>
        <time>2010-01-01T00:15:05Z</time>
      </trkpt>
      <trkpt lat="44.71464" lon="6.57133">
        <ele>1319</ele>
        <time>2010-01-01T00:15:06Z</time>
      </trkpt>
      <trkpt lat="44.71458" lon="6.57138">
        <ele>1318</ele>
        <time>2010-01-01T00:15:08Z</time>
      </trkpt>
      <trkpt lat="44.71451" lon="6.57147">
        <ele>1316</ele>
        <time>2010-01-01T00:15:11Z</time>
      </trkpt>
      <trkpt lat="44.71441" lon="6.57153">
        <ele>1315</ele>
        <time>2010-01-01T00:15:13Z</time>
      </trkpt>
      <trkpt lat="44.71439" lon="6.57154">
        <ele>1315</ele>
        <time>2010-01-01T00:15:14Z</time>
      </trkpt>
      <trkpt lat="44.7143" lon="6.57154">
        <ele>1316</ele>
        <time>2010-01-01T00:15:16Z</time>
      </trkpt>
      <trkpt lat="44.71428" lon="6.57152">
        <ele>1317</ele>
        <time>2010-01-01T00:15:17Z</time>
      </trkpt>
      <trkpt lat="44.71429" lon="6.57142">
        <ele>1321</ele>
        <time>2010-01-01T00:15:19Z</time>
      </trkpt>
      <trkpt lat="44.71433" lon="6.5714">
        <ele>1321</ele>
        <time>2010-01-01T00:15:20Z</time>
      </trkpt>
      <trkpt lat="44.71439" lon="6.57138">
        <ele>1321</ele>
        <time>2010-01-01T00:15:22Z</time>
      </trkpt>
      <trkpt lat="44.71442" lon="6.57136">
        <ele>1321</ele>
        <time>2010-01-01T00:15:23Z</time>
      </trkpt>
      <trkpt lat="44.71445" lon="6.57133">
        <ele>1321</ele>
        <time>2010-01-01T00:15:24Z</time>
      </trkpt>
      <trkpt lat="44.71452" lon="6.57125">
        <ele>1323</ele>
        <time>2010-01-01T00:15:26Z</time>
      </trkpt>
      <trkpt lat="44.71457" lon="6.57116">
        <ele>1326</ele>
        <time>2010-01-01T00:15:28Z</time>
      </trkpt>
      <trkpt lat="44.71462" lon="6.57107">
        <ele>1328</ele>
        <time>2010-01-01T00:15:31Z</time>
      </trkpt>
      <trkpt lat="44.71463" lon="6.57105">
        <ele>1328</ele>
        <time>2010-01-01T00:15:31Z</time>
      </trkpt>
      <trkpt lat="44.71471" lon="6.57093">
        <ele>1330</ele>
        <time>2010-01-01T00:15:34Z</time>
      </trkpt>
      <trkpt lat="44.71476" lon="6.57089">
        <ele>1330</ele>
        <time>2010-01-01T00:15:36Z</time>
      </trkpt>
      <trkpt lat="44.71484" lon="6.57086">
        <ele>1330</ele>
        <time>2010-01-01T00:15:38Z</time>
      </trkpt>
      <trkpt lat="44.71494" lon="6.57087">
        <ele>1328</ele>
        <time>2010-01-01T00:15:40Z</time>
      </trkpt>
      <trkpt lat="44.71498" lon="6.57087">
        <ele>1327</ele>
        <time>2010-01-01T00:15:41Z</time>
      </trkpt>
      <trkpt lat="44.71508" lon="6.57085">
        <ele>1326</ele>
        <time>2010-01-01T00:15:44Z</time>
      </trkpt>
      <trkpt lat="44.71511" lon="6.57083">
        <ele>1326</ele>
        <time>2010-01-01T00:15:45Z</time>
      </trkpt>
      <trkpt lat="44.7152" lon="6.57069">
        <ele>1326</ele>
        <time>2010-01-01T00:15:49Z</time>
      </trkpt>
      <trkpt lat="44.71521" lon="6.57067">
        <ele>1327</ele>
        <time>2010-01-01T00:15:49Z</time>
      </trkpt>
      <trkpt lat="44.7153" lon="6.5705">
        <ele>1328</ele>
        <time>2010-01-01T00:15:53Z</time>
      </trkpt>
      <trkpt lat="44.7154" lon="6.57037">
        <ele>1330</ele>
        <time>2010-01-01T00:15:57Z</time>
      </trkpt>
      <trkpt lat="44.71542" lon="6.57035">
        <ele>1331</ele>
        <time>2010-01-01T00:15:58Z</time>
      </trkpt>
      <trkpt lat="44.71555" lon="6.5703">
        <ele>1332</ele>
        <time>2010-01-01T00:16:01Z</time>
      </trkpt>
      <trkpt lat="44.71557" lon="6.57029">
        <ele>1332</ele>
        <time>2010-01-01T00:16:02Z</time>
      </trkpt>
      <trkpt lat="44.71563" lon="6.57026">
        <ele>1334</ele>
        <time>2010-01-01T00:16:03Z</time>
      </trkpt>
      <trkpt lat="44.71564" lon="6.57024">
        <ele>1334</ele>
        <time>2010-01-01T00:16:04Z</time>
      </trkpt>
      <trkpt lat="44.71566" lon="6.57022">
        <ele>1335</ele>
        <time>2010-01-01T00:16:04Z</time>
      </trkpt>
      <trkpt lat="44.71566" lon="6.57016">
        <ele>1338</ele>
        <time>2010-01-01T00:16:06Z</time>
      </trkpt>
      <trkpt lat="44.71564" lon="6.57011">
        <ele>1339</ele>
        <time>2010-01-01T00:16:07Z</time>
      </trkpt>
      <trkpt lat="44.71557" lon="6.57008">
        <ele>1339</ele>
        <time>2010-01-01T00:16:09Z</time>
      </trkpt>
      <trkpt lat="44.71555" lon="6.57008">
        <ele>1339</ele>
        <time>2010-01-01T00:16:09Z</time>
      </trkpt>
      <trkpt lat="44.71552" lon="6.57008">
        <ele>1339</ele>
        <time>2010-01-01T00:16:10Z</time>
      </trkpt>
      <trkpt lat="44.71539" lon="6.5701">
        <ele>1337</ele>
        <time>2010-01-01T00:16:13Z</time>
      </trkpt>
      <trkpt lat="44.71532" lon="6.57012">
        <ele>1336</ele>
        <time>2010-01-01T00:16:15Z</time>
      </trkpt>
      <trkpt lat="44.71528" lon="6.57012">
        <ele>1336</ele>
        <time>2010-01-01T00:16:16Z</time>
      </trkpt>
      <trkpt lat="44.71519" lon="6.5701">
        <ele>1337</ele>
        <time>2010-01-01T00:16:19Z</time>
      </trkpt>
      <trkpt lat="44.71517" lon="6.57009">
        <ele>1337</ele>
        <time>2010-01-01T00:16:19Z</time>
      </trkpt>
      <trkpt lat="44.71508" lon="6.57006">
        <ele>1338</ele>
        <time>2010-01-01T00:16:22Z</time>
      </trkpt>
      <trkpt lat="44.71498" lon="6.57">
        <ele>1339</ele>
        <time>2010-01-01T00:16:25Z</time>
      </trkpt>
      <trkpt lat="44.71495" lon="6.56999">
        <ele>1340</ele>
        <time>2010-01-01T00:16:25Z</time>
      </trkpt>
      <trkpt lat="44.71477" lon="6.56995">
        <ele>1347</ele>
        <time>2010-01-01T00:16:31Z</time>
      </trkpt>
      <trkpt lat="44.71474" lon="6.56996">
        <ele>1347</ele>
        <time>2010-01-01T00:16:31Z</time>
      </trkpt>
      <trkpt lat="44.71467" lon="6.57003">
        <ele>1349</ele>
        <time>2010-01-01T00:16:34Z</time>
      </trkpt>
      <trkpt lat="44.71465" lon="6.57008">
        <ele>1348</ele>
        <time>2010-01-01T00:16:35Z</time>
      </trkpt>
      <trkpt lat="44.7146" lon="6.57023">
        <ele>1346</ele>
        <time>2010-01-01T00:16:38Z</time>
      </trkpt>
      <trkpt lat="44.71457" lon="6.57031">
        <ele>1345</ele>
        <time>2010-01-01T00:16:40Z</time>
      </trkpt>
      <trkpt lat="44.71452" lon="6.57037">
        <ele>1345</ele>
        <time>2010-01-01T00:16:41Z</time>
      </trkpt>
      <trkpt lat="44.71444" lon="6.57041">
        <ele>1345</ele>
        <time>2010-01-01T00:16:44Z</time>
      </trkpt>
      <trkpt lat="44.71439" lon="6.57042">
        <ele>1346</ele>
        <time>2010-01-01T00:16:45Z</time>
      </trkpt>
      <trkpt lat="44.71431" lon="6.57042">
        <ele>1347</ele>
        <time>2010-01-01T00:16:47Z</time>
      </trkpt>
      <trkpt lat="44.71426" lon="6.57042">
        <ele>1347</ele>
        <time>2010-01-01T00:16:48Z</time>
      </trkpt>
      <trkpt lat="44.71417" lon="6.57039">
        <ele>1349</ele>
        <time>2010-01-01T00:16:51Z</time>
      </trkpt>
      <trkpt lat="44.7141" lon="6.57037">
        <ele>1351</ele>
        <time>2010-01-01T00:16:53Z</time>
      </trkpt>
      <trkpt lat="44.71408" lon="6.57036">
        <ele>1351</ele>
        <time>2010-01-01T00:16:53Z</time>
      </trkpt>
      <trkpt lat="44.71406" lon="6.57035">
        <ele>1352</ele>
        <time>2010-01-01T00:16:54Z</time>
      </trkpt>
      <trkpt lat="44.71395" lon="6.57033">
        <ele>1354</ele>
        <time>2010-01-01T00:16:57Z</time>
      </trkpt>
      <trkpt lat="44.71392" lon="6.57032">
        <ele>1355</ele>
        <time>2010-01-01T00:16:57Z</time>
      </trkpt>
      <trkpt lat="44.71379" lon="6.57031">
        <ele>1357</ele>
        <time>2010-01-01T00:17:01Z</time>
      </trkpt>
      <trkpt lat="44.71375" lon="6.57031">
        <ele>1357</ele>
        <time>2010-01-01T00:17:02Z</time>
      </trkpt>
      <trkpt lat="44.71368" lon="6.57031">
        <ele>1358</ele>
        <time>2010-01-01T00:17:04Z</time>
      </trkpt>
      <trkpt lat="44.71355" lon="6.57031">
        <ele>1359</ele>
        <time>2010-01-01T00:17:07Z</time>
      </trkpt>
      <trkpt lat="44.71353" lon="6.57031">
        <ele>1359</ele>
        <time>2010-01-01T00:17:08Z</time>
      </trkpt>
      <trkpt lat="44.71342" lon="6.57031">
        <ele>1360</ele>
        <time>2010-01-01T00:17:11Z</time>
      </trkpt>
      <trkpt lat="44.71338" lon="6.57031">
        <ele>1360</ele>
        <time>2010-01-01T00:17:12Z</time>
      </trkpt>
      <trkpt lat="44.71332" lon="6.57031">
        <ele>1361</ele>
        <time>2010-01-01T00:17:14Z</time>
      </trkpt>
      <trkpt lat="44.71326" lon="6.57029">
        <ele>1363</ele>
        <time>2010-01-01T00:17:15Z</time>
      </trkpt>
      <trkpt lat="44.71321" lon="6.57027">
        <ele>1364</ele>
        <time>2010-01-01T00:17:16Z</time>
      </trkpt>
      <trkpt lat="44.71313" lon="6.57024">
        <ele>1367</ele>
        <time>2010-01-01T00:17:19Z</time>
      </trkpt>
      <trkpt lat="44.71308" lon="6.57023">
        <ele>1368</ele>
        <time>2010-01-01T00:17:20Z</time>
      </trkpt>
      <trkpt lat="44.71299" lon="6.57023">
        <ele>1368</ele>
        <time>2010-01-01T00:17:23Z</time>
      </trkpt>
      <trkpt lat="44.71292" lon="6.57024">
        <ele>1367</ele>
        <time>2010-01-01T00:17:24Z</time>
      </trkpt>
      <trkpt lat="44.71281" lon="6.57028">
        <ele>1366</ele>
        <time>2010-01-01T00:17:27Z</time>
      </trkpt>
      <trkpt lat="44.71272" lon="6.5703">
        <ele>1365</ele>
        <time>2010-01-01T00:17:30Z</time>
      </trkpt>
      <trkpt lat="44.7127" lon="6.57031">
        <ele>1364</ele>
        <time>2010-01-01T00:17:30Z</time>
      </trkpt>
      <trkpt lat="44.71264" lon="6.57034">
        <ele>1364</ele>
        <time>2010-01-01T00:17:32Z</time>
      </trkpt>
      <trkpt lat="44.71254" lon="6.57036">
        <ele>1363</ele>
        <time>2010-01-01T00:17:35Z</time>
      </trkpt>
      <trkpt lat="44.71252" lon="6.57036">
        <ele>1363</ele>
        <time>2010-01-01T00:17:35Z</time>
      </trkpt>
      <trkpt lat="44.7125" lon="6.57035">
        <ele>1363</ele>
        <time>2010-01-01T00:17:36Z</time>
      </trkpt>
      <trkpt lat="44.71247" lon="6.5703">
        <ele>1366</ele>
        <time>2010-01-01T00:17:37Z</time>
      </trkpt>
      <trkpt lat="44.71247" lon="6.57027">
        <ele>1367</ele>
        <time>2010-01-01T00:17:38Z</time>
      </trkpt>
      <trkpt lat="44.71253" lon="6.5702">
        <ele>1368</ele>
        <time>2010-01-01T00:17:40Z</time>
      </trkpt>
      <trkpt lat="44.71255" lon="6.57018">
        <ele>1369</ele>
        <time>2010-01-01T00:17:40Z</time>
      </trkpt>
      <trkpt lat="44.71266" lon="6.5701">
        <ele>1372</ele>
        <time>2010-01-01T00:17:44Z</time>
      </trkpt>
      <trkpt lat="44.71274" lon="6.57004">
        <ele>1374</ele>
        <time>2010-01-01T00:17:46Z</time>
      </trkpt>
      <trkpt lat="44.71283" lon="6.56997">
        <ele>1377</ele>
        <time>2010-01-01T00:17:49Z</time>
      </trkpt>
      <trkpt lat="44.71287" lon="6.56995">
        <ele>1378</ele>
        <time>2010-01-01T00:17:50Z</time>
      </trkpt>
      <trkpt lat="44.71296" lon="6.56992">
        <ele>1380</ele>
        <time>2010-01-01T00:17:52Z</time>
      </trkpt>
      <trkpt lat="44.71298" lon="6.56992">
        <ele>1380</ele>
        <time>2010-01-01T00:17:53Z</time>
      </trkpt>
      <trkpt lat="44.71309" lon="6.5699">
        <ele>1381</ele>
        <time>2010-01-01T00:17:56Z</time>
      </trkpt>
      <trkpt lat="44.71314" lon="6.5699">
        <ele>1380</ele>
        <time>2010-01-01T00:17:57Z</time>
      </trkpt>
      <trkpt lat="44.71329" lon="6.56983">
        <ele>1381</ele>
        <time>2010-01-01T00:18:02Z</time>
      </trkpt>
      <trkpt lat="44.71331" lon="6.56981">
        <ele>1381</ele>
        <time>2010-01-01T00:18:02Z</time>
      </trkpt>
      <trkpt lat="44.71342" lon="6.56976">
        <ele>1381</ele>
        <time>2010-01-01T00:18:05Z</time>
      </trkpt>
      <trkpt lat="44.71347" lon="6.56974">
        <ele>1381</ele>
        <time>2010-01-01T00:18:07Z</time>
      </trkpt>
      <trkpt lat="44.71355" lon="6.56971">
        <ele>1380</ele>
        <time>2010-01-01T00:18:09Z</time>
      </trkpt>
      <trkpt lat="44.71363" lon="6.56968">
        <ele>1379</ele>
        <time>2010-01-01T00:18:11Z</time>
      </trkpt>
      <trkpt lat="44.71367" lon="6.56967">
        <ele>1379</ele>
        <time>2010-01-01T00:18:12Z</time>
      </trkpt>
      <trkpt lat="44.71383" lon="6.56965">
        <ele>1379</ele>
        <time>2010-01-01T00:18:17Z</time>
      </trkpt>
      <trkpt lat="44.71388" lon="6.56966">
        <ele>1378</ele>
        <time>2010-01-01T00:18:18Z</time>
      </trkpt>
      <trkpt lat="44.71397" lon="6.56966">
        <ele>1377</ele>
        <time>2010-01-01T00:18:20Z</time>
      </trkpt>
      <trkpt lat="44.71406" lon="6.56963">
        <ele>1377</ele>
        <time>2010-01-01T00:18:23Z</time>
      </trkpt>
      <trkpt lat="44.71408" lon="6.5696">
        <ele>1378</ele>
        <time>2010-01-01T00:18:23Z</time>
      </trkpt>
      <trkpt lat="44.71408" lon="6.56954">
        <ele>1379</ele>
        <time>2010-01-01T00:18:25Z</time>
      </trkpt>
      <trkpt lat="44.71407" lon="6.56951">
        <ele>1380</ele>
        <time>2010-01-01T00:18:25Z</time>
      </trkpt>
      <trkpt lat="44.714" lon="6.56947">
        <ele>1384</ele>
        <time>2010-01-01T00:18:27Z</time>
      </trkpt>
      <trkpt lat="44.71395" lon="6.56948">
        <ele>1384</ele>
        <time>2010-01-01T00:18:28Z</time>
      </trkpt>
      <trkpt lat="44.71384" lon="6.56949">
        <ele>1386</ele>
        <time>2010-01-01T00:18:31Z</time>
      </trkpt>
      <trkpt lat="44.71379" lon="6.56949">
        <ele>1386</ele>
        <time>2010-01-01T00:18:33Z</time>
      </trkpt>
      <trkpt lat="44.71375" lon="6.56949">
        <ele>1387</ele>
        <time>2010-01-01T00:18:34Z</time>
      </trkpt>
      <trkpt lat="44.71359" lon="6.56948">
        <ele>1389</ele>
        <time>2010-01-01T00:18:38Z</time>
      </trkpt>
      <trkpt lat="44.71357" lon="6.56947">
        <ele>1389</ele>
        <time>2010-01-01T00:18:39Z</time>
      </trkpt>
      <trkpt lat="44.71346" lon="6.56948">
        <ele>1392</ele>
        <time>2010-01-01T00:18:42Z</time>
      </trkpt>
      <trkpt lat="44.71336" lon="6.56948">
        <ele>1393</ele>
        <time>2010-01-01T00:18:44Z</time>
      </trkpt>
      <trkpt lat="44.71334" lon="6.56948">
        <ele>1394</ele>
        <time>2010-01-01T00:18:45Z</time>
      </trkpt>
      <trkpt lat="44.71312" lon="6.56949">
        <ele>1397</ele>
        <time>2010-01-01T00:18:51Z</time>
      </trkpt>
      <trkpt lat="44.71299" lon="6.56948">
        <ele>1398</ele>
        <time>2010-01-01T00:18:54Z</time>
      </trkpt>
      <trkpt lat="44.71285" lon="6.56949">
        <ele>1399</ele>
        <time>2010-01-01T00:18:58Z</time>
      </trkpt>
      <trkpt lat="44.71282" lon="6.56949">
        <ele>1399</ele>
        <time>2010-01-01T00:18:59Z</time>
      </trkpt>
      <trkpt lat="44.7127" lon="6.56952">
        <ele>1397</ele>
        <time>2010-01-01T00:19:02Z</time>
      </trkpt>
      <trkpt lat="44.71266" lon="6.56954">
        <ele>1397</ele>
        <time>2010-01-01T00:19:03Z</time>
      </trkpt>
      <trkpt lat="44.71255" lon="6.56959">
        <ele>1394</ele>
        <time>2010-01-01T00:19:06Z</time>
      </trkpt>
      <trkpt lat="44.71253" lon="6.5696">
        <ele>1394</ele>
        <time>2010-01-01T00:19:07Z</time>
      </trkpt>
      <trkpt lat="44.71241" lon="6.56962">
        <ele>1395</ele>
        <time>2010-01-01T00:19:10Z</time>
      </trkpt>
      <trkpt lat="44.71238" lon="6.56963">
        <ele>1395</ele>
        <time>2010-01-01T00:19:11Z</time>
      </trkpt>
      <trkpt lat="44.71229" lon="6.56964">
        <ele>1397</ele>
        <time>2010-01-01T00:19:13Z</time>
      </trkpt>
      <trkpt lat="44.71225" lon="6.56963">
        <ele>1399</ele>
        <time>2010-01-01T00:19:14Z</time>
      </trkpt>
      <trkpt lat="44.7122" lon="6.56963">
        <ele>1399</ele>
        <time>2010-01-01T00:19:15Z</time>
      </trkpt>
      <trkpt lat="44.71218" lon="6.56963">
        <ele>1398</ele>
        <time>2010-01-01T00:19:16Z</time>
      </trkpt>
      <trkpt lat="44.71214" lon="6.56963">
        <ele>1397</ele>
        <time>2010-01-01T00:19:17Z</time>
      </trkpt>
      <trkpt lat="44.71211" lon="6.56963">
        <ele>1397</ele>
        <time>2010-01-01T00:19:18Z</time>
      </trkpt>
      <trkpt lat="44.71201" lon="6.56959">
        <ele>1396</ele>
        <time>2010-01-01T00:19:21Z</time>
      </trkpt>
      <trkpt lat="44.71198" lon="6.56954">
        <ele>1396</ele>
        <time>2010-01-01T00:19:22Z</time>
      </trkpt>
      <trkpt lat="44.71199" lon="6.56946">
        <ele>1399</ele>
        <time>2010-01-01T00:19:24Z</time>
      </trkpt>
      <trkpt lat="44.71202" lon="6.56945">
        <ele>1400</ele>
        <time>2010-01-01T00:19:24Z</time>
      </trkpt>
      <trkpt lat="44.71206" lon="6.56944">
        <ele>1401</ele>
        <time>2010-01-01T00:19:25Z</time>
      </trkpt>
      <trkpt lat="44.71214" lon="6.56944">
        <ele>1403</ele>
        <time>2010-01-01T00:19:28Z</time>
      </trkpt>
      <trkpt lat="44.71221" lon="6.56942">
        <ele>1405</ele>
        <time>2010-01-01T00:19:29Z</time>
      </trkpt>
      <trkpt lat="44.71228" lon="6.56937">
        <ele>1406</ele>
        <time>2010-01-01T00:19:32Z</time>
      </trkpt>
      <trkpt lat="44.7123" lon="6.56935">
        <ele>1407</ele>
        <time>2010-01-01T00:19:32Z</time>
      </trkpt>
      <trkpt lat="44.71239" lon="6.56925">
        <ele>1410</ele>
        <time>2010-01-01T00:19:35Z</time>
      </trkpt>
      <trkpt lat="44.71246" lon="6.56919">
        <ele>1413</ele>
        <time>2010-01-01T00:19:37Z</time>
      </trkpt>
      <trkpt lat="44.7125" lon="6.56915">
        <ele>1415</ele>
        <time>2010-01-01T00:19:39Z</time>
      </trkpt>
      <trkpt lat="44.71255" lon="6.56909">
        <ele>1416</ele>
        <time>2010-01-01T00:19:40Z</time>
      </trkpt>
      <trkpt lat="44.7126" lon="6.56905">
        <ele>1418</ele>
        <time>2010-01-01T00:19:42Z</time>
      </trkpt>
      <trkpt lat="44.71264" lon="6.56902">
        <ele>1418</ele>
        <time>2010-01-01T00:19:43Z</time>
      </trkpt>
      <trkpt lat="44.71273" lon="6.569">
        <ele>1419</ele>
        <time>2010-01-01T00:19:46Z</time>
      </trkpt>
      <trkpt lat="44.71275" lon="6.569">
        <ele>1419</ele>
        <time>2010-01-01T00:19:46Z</time>
      </trkpt>
      <trkpt lat="44.71289" lon="6.56896">
        <ele>1418</ele>
        <time>2010-01-01T00:19:50Z</time>
      </trkpt>
      <trkpt lat="44.71302" lon="6.56893">
        <ele>1417</ele>
        <time>2010-01-01T00:19:53Z</time>
      </trkpt>
      <trkpt lat="44.71307" lon="6.56891">
        <ele>1416</ele>
        <time>2010-01-01T00:19:55Z</time>
      </trkpt>
      <trkpt lat="44.71309" lon="6.5689">
        <ele>1417</ele>
        <time>2010-01-01T00:19:56Z</time>
      </trkpt>
      <trkpt lat="44.71323" lon="6.56889">
        <ele>1414</ele>
        <time>2010-01-01T00:19:59Z</time>
      </trkpt>
      <trkpt lat="44.71334" lon="6.56884">
        <ele>1414</ele>
        <time>2010-01-01T00:20:02Z</time>
      </trkpt>
      <trkpt lat="44.71336" lon="6.56882">
        <ele>1414</ele>
        <time>2010-01-01T00:20:03Z</time>
      </trkpt>
      <trkpt lat="44.71344" lon="6.56874">
        <ele>1415</ele>
        <time>2010-01-01T00:20:06Z</time>
      </trkpt>
      <trkpt lat="44.71349" lon="6.56867">
        <ele>1416</ele>
        <time>2010-01-01T00:20:07Z</time>
      </trkpt>
      <trkpt lat="44.71354" lon="6.5686">
        <ele>1417</ele>
        <time>2010-01-01T00:20:09Z</time>
      </trkpt>
      <trkpt lat="44.71358" lon="6.5685">
        <ele>1419</ele>
        <time>2010-01-01T00:20:12Z</time>
      </trkpt>
      <trkpt lat="44.71359" lon="6.56847">
        <ele>1420</ele>
        <time>2010-01-01T00:20:12Z</time>
      </trkpt>
      <trkpt lat="44.71357" lon="6.56835">
        <ele>1423</ele>
        <time>2010-01-01T00:20:15Z</time>
      </trkpt>
      <trkpt lat="44.71354" lon="6.56831">
        <ele>1425</ele>
        <time>2010-01-01T00:20:16Z</time>
      </trkpt>
      <trkpt lat="44.71348" lon="6.56829">
        <ele>1426</ele>
        <time>2010-01-01T00:20:17Z</time>
      </trkpt>
      <trkpt lat="44.71341" lon="6.56831">
        <ele>1426</ele>
        <time>2010-01-01T00:20:19Z</time>
      </trkpt>
      <trkpt lat="44.71339" lon="6.56832">
        <ele>1426</ele>
        <time>2010-01-01T00:20:20Z</time>
      </trkpt>
      <trkpt lat="44.71329" lon="6.56838">
        <ele>1425</ele>
        <time>2010-01-01T00:20:23Z</time>
      </trkpt>
      <trkpt lat="44.7132" lon="6.56842">
        <ele>1425</ele>
        <time>2010-01-01T00:20:25Z</time>
      </trkpt>
      <trkpt lat="44.71314" lon="6.56844">
        <ele>1426</ele>
        <time>2010-01-01T00:20:27Z</time>
      </trkpt>
      <trkpt lat="44.7131" lon="6.56845">
        <ele>1426</ele>
        <time>2010-01-01T00:20:28Z</time>
      </trkpt>
      <trkpt lat="44.71301" lon="6.56844">
        <ele>1428</ele>
        <time>2010-01-01T00:20:30Z</time>
      </trkpt>
      <trkpt lat="44.71294" lon="6.56844">
        <ele>1428</ele>
        <time>2010-01-01T00:20:32Z</time>
      </trkpt>
      <trkpt lat="44.71288" lon="6.56841">
        <ele>1429</ele>
        <time>2010-01-01T00:20:34Z</time>
      </trkpt>
      <trkpt lat="44.7128" lon="6.56838">
        <ele>1430</ele>
        <time>2010-01-01T00:20:36Z</time>
      </trkpt>
      <trkpt lat="44.71278" lon="6.56837">
        <ele>1430</ele>
        <time>2010-01-01T00:20:37Z</time>
      </trkpt>
      <trkpt lat="44.71267" lon="6.56833">
        <ele>1432</ele>
        <time>2010-01-01T00:20:40Z</time>
      </trkpt>
      <trkpt lat="44.7126" lon="6.5683">
        <ele>1433</ele>
        <time>2010-01-01T00:20:42Z</time>
      </trkpt>
      <trkpt lat="44.7125" lon="6.56826">
        <ele>1434</ele>
        <time>2010-01-01T00:20:44Z</time>
      </trkpt>
      <trkpt lat="44.71248" lon="6.56826">
        <ele>1435</ele>
        <time>2010-01-01T00:20:45Z</time>
      </trkpt>
      <trkpt lat="44.71241" lon="6.56824">
        <ele>1435</ele>
        <time>2010-01-01T00:20:47Z</time>
      </trkpt>
      <trkpt lat="44.71231" lon="6.5682">
        <ele>1435</ele>
        <time>2010-01-01T00:20:50Z</time>
      </trkpt>
      <trkpt lat="44.71229" lon="6.5682">
        <ele>1435</ele>
        <time>2010-01-01T00:20:50Z</time>
      </trkpt>
      <trkpt lat="44.71222" lon="6.56819">
        <ele>1435</ele>
        <time>2010-01-01T00:20:52Z</time>
      </trkpt>
      <trkpt lat="44.71216" lon="6.5682">
        <ele>1435</ele>
        <time>2010-01-01T00:20:54Z</time>
      </trkpt>
      <trkpt lat="44.71209" lon="6.56821">
        <ele>1435</ele>
        <time>2010-01-01T00:20:55Z</time>
      </trkpt>
      <trkpt lat="44.71201" lon="6.5682">
        <ele>1435</ele>
        <time>2010-01-01T00:20:58Z</time>
      </trkpt>
      <trkpt lat="44.71198" lon="6.56819">
        <ele>1435</ele>
        <time>2010-01-01T00:20:58Z</time>
      </trkpt>
      <trkpt lat="44.71189" lon="6.56815">
        <ele>1435</ele>
        <time>2010-01-01T00:21:01Z</time>
      </trkpt>
      <trkpt lat="44.71187" lon="6.5681">
        <ele>1436</ele>
        <time>2010-01-01T00:21:02Z</time>
      </trkpt>
      <trkpt lat="44.71183" lon="6.56801">
        <ele>1437</ele>
        <time>2010-01-01T00:21:04Z</time>
      </trkpt>
      <trkpt lat="44.7118" lon="6.56796">
        <ele>1437</ele>
        <time>2010-01-01T00:21:05Z</time>
      </trkpt>
      <trkpt lat="44.71179" lon="6.56794">
        <ele>1438</ele>
        <time>2010-01-01T00:21:06Z</time>
      </trkpt>
      <trkpt lat="44.71171" lon="6.5678">
        <ele>1440</ele>
        <time>2010-01-01T00:21:09Z</time>
      </trkpt>
      <trkpt lat="44.7117" lon="6.56778">
        <ele>1440</ele>
        <time>2010-01-01T00:21:10Z</time>
      </trkpt>
      <trkpt lat="44.71165" lon="6.56768">
        <ele>1442</ele>
        <time>2010-01-01T00:21:12Z</time>
      </trkpt>
      <trkpt lat="44.71159" lon="6.56754">
        <ele>1443</ele>
        <time>2010-01-01T00:21:15Z</time>
      </trkpt>
      <trkpt lat="44.71157" lon="6.56751">
        <ele>1443</ele>
        <time>2010-01-01T00:21:16Z</time>
      </trkpt>
      <trkpt lat="44.71154" lon="6.56739">
        <ele>1445</ele>
        <time>2010-01-01T00:21:18Z</time>
      </trkpt>
      <trkpt lat="44.71153" lon="6.56736">
        <ele>1445</ele>
        <time>2010-01-01T00:21:19Z</time>
      </trkpt>
      <trkpt lat="44.71152" lon="6.56725">
        <ele>1446</ele>
        <time>2010-01-01T00:21:21Z</time>
      </trkpt>
      <trkpt lat="44.71151" lon="6.56718">
        <ele>1447</ele>
        <time>2010-01-01T00:21:22Z</time>
      </trkpt>
      <trkpt lat="44.71149" lon="6.56709">
        <ele>1448</ele>
        <time>2010-01-01T00:21:24Z</time>
      </trkpt>
      <trkpt lat="44.71141" lon="6.56684">
        <ele>1454</ele>
        <time>2010-01-01T00:21:29Z</time>
      </trkpt>
      <trkpt lat="44.71138" lon="6.5668">
        <ele>1455</ele>
        <time>2010-01-01T00:21:31Z</time>
      </trkpt>
      <trkpt lat="44.71132" lon="6.56676">
        <ele>1458</ele>
        <time>2010-01-01T00:21:32Z</time>
      </trkpt>
      <trkpt lat="44.71128" lon="6.56675">
        <ele>1459</ele>
        <time>2010-01-01T00:21:33Z</time>
      </trkpt>
      <trkpt lat="44.71125" lon="6.56677">
        <ele>1459</ele>
        <time>2010-01-01T00:21:34Z</time>
      </trkpt>
      <trkpt lat="44.71124" lon="6.56677">
        <ele>1459</ele>
        <time>2010-01-01T00:21:34Z</time>
      </trkpt>
      <trkpt lat="44.71124" lon="6.56677">
        <ele>1459</ele>
        <time>2010-01-01T00:21:34Z</time>
      </trkpt>
      <trkpt lat="44.71125" lon="6.56678">
        <ele>1458</ele>
        <time>2010-01-01T00:21:35Z</time>
      </trkpt>
      <trkpt lat="44.71124" lon="6.56677">
        <ele>1459</ele>
        <time>2010-01-01T00:21:35Z</time>
      </trkpt>
      <trkpt lat="44.71124" lon="6.56678">
        <ele>1458</ele>
        <time>2010-01-01T00:21:35Z</time>
      </trkpt>
      <trkpt lat="44.7112" lon="6.56684">
        <ele>1457</ele>
        <time>2010-01-01T00:21:37Z</time>
      </trkpt>
      <trkpt lat="44.71112" lon="6.56693">
        <ele>1455</ele>
        <time>2010-01-01T00:21:39Z</time>
      </trkpt>
      <trkpt lat="44.71104" lon="6.56706">
        <ele>1455</ele>
        <time>2010-01-01T00:21:42Z</time>
      </trkpt>
      <trkpt lat="44.71101" lon="6.5671">
        <ele>1455</ele>
        <time>2010-01-01T00:21:44Z</time>
      </trkpt>
      <trkpt lat="44.71098" lon="6.56718">
        <ele>1454</ele>
        <time>2010-01-01T00:21:45Z</time>
      </trkpt>
      <trkpt lat="44.71091" lon="6.5673">
        <ele>1454</ele>
        <time>2010-01-01T00:21:48Z</time>
      </trkpt>
      <trkpt lat="44.7109" lon="6.56732">
        <ele>1454</ele>
        <time>2010-01-01T00:21:49Z</time>
      </trkpt>
      <trkpt lat="44.71083" lon="6.56747">
        <ele>1455</ele>
        <time>2010-01-01T00:21:52Z</time>
      </trkpt>
      <trkpt lat="44.71074" lon="6.56766">
        <ele>1458</ele>
        <time>2010-01-01T00:21:56Z</time>
      </trkpt>
      <trkpt lat="44.71072" lon="6.56768">
        <ele>1459</ele>
        <time>2010-01-01T00:21:57Z</time>
      </trkpt>
      <trkpt lat="44.71066" lon="6.56773">
        <ele>1461</ele>
        <time>2010-01-01T00:21:59Z</time>
      </trkpt>
      <trkpt lat="44.7106" lon="6.56782">
        <ele>1463</ele>
        <time>2010-01-01T00:22:01Z</time>
      </trkpt>
      <trkpt lat="44.71058" lon="6.56784">
        <ele>1463</ele>
        <time>2010-01-01T00:22:02Z</time>
      </trkpt>
      <trkpt lat="44.71048" lon="6.56796">
        <ele>1464</ele>
        <time>2010-01-01T00:22:05Z</time>
      </trkpt>
      <trkpt lat="44.71037" lon="6.56809">
        <ele>1464</ele>
        <time>2010-01-01T00:22:09Z</time>
      </trkpt>
      <trkpt lat="44.71034" lon="6.56812">
        <ele>1464</ele>
        <time>2010-01-01T00:22:10Z</time>
      </trkpt>
      <trkpt lat="44.71028" lon="6.5682">
        <ele>1464</ele>
        <time>2010-01-01T00:22:12Z</time>
      </trkpt>
      <trkpt lat="44.71023" lon="6.56826">
        <ele>1465</ele>
        <time>2010-01-01T00:22:14Z</time>
      </trkpt>
      <trkpt lat="44.71008" lon="6.5685">
        <ele>1465</ele>
        <time>2010-01-01T00:22:20Z</time>
      </trkpt>
      <trkpt lat="44.70969" lon="6.56914">
        <ele>1468</ele>
        <time>2010-01-01T00:22:36Z</time>
      </trkpt>
      <trkpt lat="44.70881" lon="6.56929">
        <ele>1477</ele>
        <time>2010-01-01T00:23:00Z</time>
      </trkpt>
      <trkpt lat="44.70843" lon="6.57025">
        <ele>1472</ele>
        <time>2010-01-01T00:23:21Z</time>
      </trkpt>
      <trkpt lat="44.70757" lon="6.57077">
        <ele>1490</ele>
        <time>2010-01-01T00:23:46Z</time>
      </trkpt>
      <trkpt lat="44.70692" lon="6.57043">
        <ele>1501</ele>
        <time>2010-01-01T00:24:04Z</time>
      </trkpt>
      <trkpt lat="44.70687" lon="6.57003">
        <ele>1506</ele>
        <time>2010-01-01T00:24:12Z</time>
      </trkpt>
      <trkpt lat="44.70683" lon="6.57002">
        <ele>1506</ele>
        <time>2010-01-01T00:24:13Z</time>
      </trkpt>
      <trkpt lat="44.70681" lon="6.57002">
        <ele>1506</ele>
        <time>2010-01-01T00:24:14Z</time>
      </trkpt>
      <trkpt lat="44.70671" lon="6.57003">
        <ele>1505</ele>
        <time>2010-01-01T00:24:16Z</time>
      </trkpt>
      <trkpt lat="44.70669" lon="6.57003">
        <ele>1505</ele>
        <time>2010-01-01T00:24:17Z</time>
      </trkpt>
      <trkpt lat="44.70662" lon="6.57003">
        <ele>1505</ele>
        <time>2010-01-01T00:24:19Z</time>
      </trkpt>
      <trkpt lat="44.70655" lon="6.57002">
        <ele>1506</ele>
        <time>2010-01-01T00:24:21Z</time>
      </trkpt>
      <trkpt lat="44.70652" lon="6.57">
        <ele>1506</ele>
        <time>2010-01-01T00:24:21Z</time>
      </trkpt>
      <trkpt lat="44.70644" lon="6.56995">
        <ele>1507</ele>
        <time>2010-01-01T00:24:24Z</time>
      </trkpt>
      <trkpt lat="44.70633" lon="6.5699">
        <ele>1508</ele>
        <time>2010-01-01T00:24:27Z</time>
      </trkpt>
      <trkpt lat="44.70628" lon="6.56988">
        <ele>1509</ele>
        <time>2010-01-01T00:24:28Z</time>
      </trkpt>
      <trkpt lat="44.70625" lon="6.56986">
        <ele>1510</ele>
        <time>2010-01-01T00:24:29Z</time>
      </trkpt>
      <trkpt lat="44.70616" lon="6.56984">
        <ele>1512</ele>
        <time>2010-01-01T00:24:31Z</time>
      </trkpt>
      <trkpt lat="44.70614" lon="6.56983">
        <ele>1512</ele>
        <time>2010-01-01T00:24:32Z</time>
      </trkpt>
      <trkpt lat="44.70602" lon="6.56978">
        <ele>1515</ele>
        <time>2010-01-01T00:24:35Z</time>
      </trkpt>
      <trkpt lat="44.706" lon="6.56976">
        <ele>1515</ele>
        <time>2010-01-01T00:24:36Z</time>
      </trkpt>
      <trkpt lat="44.70593" lon="6.56969">
        <ele>1518</ele>
        <time>2010-01-01T00:24:38Z</time>
      </trkpt>
      <trkpt lat="44.70591" lon="6.56965">
        <ele>1519</ele>
        <time>2010-01-01T00:24:39Z</time>
      </trkpt>
      <trkpt lat="44.70587" lon="6.56957">
        <ele>1521</ele>
        <time>2010-01-01T00:24:41Z</time>
      </trkpt>
      <trkpt lat="44.70582" lon="6.56949">
        <ele>1523</ele>
        <time>2010-01-01T00:24:43Z</time>
      </trkpt>
      <trkpt lat="44.70576" lon="6.56936">
        <ele>1526</ele>
        <time>2010-01-01T00:24:46Z</time>
      </trkpt>
      <trkpt lat="44.70572" lon="6.56928">
        <ele>1528</ele>
        <time>2010-01-01T00:24:48Z</time>
      </trkpt>
      <trkpt lat="44.7057" lon="6.56926">
        <ele>1529</ele>
        <time>2010-01-01T00:24:49Z</time>
      </trkpt>
      <trkpt lat="44.70564" lon="6.56916">
        <ele>1531</ele>
        <time>2010-01-01T00:24:51Z</time>
      </trkpt>
      <trkpt lat="44.70555" lon="6.56908">
        <ele>1533</ele>
        <time>2010-01-01T00:24:54Z</time>
      </trkpt>
      <trkpt lat="44.70554" lon="6.56907">
        <ele>1533</ele>
        <time>2010-01-01T00:24:54Z</time>
      </trkpt>
      <trkpt lat="44.70541" lon="6.56905">
        <ele>1536</ele>
        <time>2010-01-01T00:24:58Z</time>
      </trkpt>
      <trkpt lat="44.70536" lon="6.56905">
        <ele>1537</ele>
        <time>2010-01-01T00:24:59Z</time>
      </trkpt>
      <trkpt lat="44.70527" lon="6.56906">
        <ele>1538</ele>
        <time>2010-01-01T00:25:01Z</time>
      </trkpt>
      <trkpt lat="44.70521" lon="6.56907">
        <ele>1538</ele>
        <time>2010-01-01T00:25:03Z</time>
      </trkpt>
      <trkpt lat="44.70513" lon="6.56907">
        <ele>1540</ele>
        <time>2010-01-01T00:25:05Z</time>
      </trkpt>
      <trkpt lat="44.70499" lon="6.56912">
        <ele>1540</ele>
        <time>2010-01-01T00:25:09Z</time>
      </trkpt>
      <trkpt lat="44.7049" lon="6.56915">
        <ele>1540</ele>
        <time>2010-01-01T00:25:11Z</time>
      </trkpt>
      <trkpt lat="44.70486" lon="6.56916">
        <ele>1540</ele>
        <time>2010-01-01T00:25:12Z</time>
      </trkpt>
      <trkpt lat="44.70481" lon="6.56917">
        <ele>1540</ele>
        <time>2010-01-01T00:25:14Z</time>
      </trkpt>
      <trkpt lat="44.70475" lon="6.56919">
        <ele>1540</ele>
        <time>2010-01-01T00:25:16Z</time>
      </trkpt>
      <trkpt lat="44.7047" lon="6.56921">
        <ele>1540</ele>
        <time>2010-01-01T00:25:17Z</time>
      </trkpt>
      <trkpt lat="44.70462" lon="6.56926">
        <ele>1540</ele>
        <time>2010-01-01T00:25:19Z</time>
      </trkpt>
      <trkpt lat="44.70453" lon="6.56931">
        <ele>1540</ele>
        <time>2010-01-01T00:25:22Z</time>
      </trkpt>
      <trkpt lat="44.70448" lon="6.56932">
        <ele>1540</ele>
        <time>2010-01-01T00:25:23Z</time>
      </trkpt>
      <trkpt lat="44.70446" lon="6.56932">
        <ele>1540</ele>
        <time>2010-01-01T00:25:24Z</time>
      </trkpt>
      <trkpt lat="44.70443" lon="6.5693">
        <ele>1540</ele>
        <time>2010-01-01T00:25:25Z</time>
      </trkpt>
      <trkpt lat="44.70441" lon="6.56924">
        <ele>1541</ele>
        <time>2010-01-01T00:25:26Z</time>
      </trkpt>
      <trkpt lat="44.70446" lon="6.56916">
        <ele>1544</ele>
        <time>2010-01-01T00:25:28Z</time>
      </trkpt>
      <trkpt lat="44.70449" lon="6.56914">
        <ele>1544</ele>
        <time>2010-01-01T00:25:29Z</time>
      </trkpt>
      <trkpt lat="44.70455" lon="6.5691">
        <ele>1545</ele>
        <time>2010-01-01T00:25:31Z</time>
      </trkpt>
      <trkpt lat="44.70459" lon="6.5691">
        <ele>1545</ele>
        <time>2010-01-01T00:25:32Z</time>
      </trkpt>
      <trkpt lat="44.70464" lon="6.56907">
        <ele>1545</ele>
        <time>2010-01-01T00:25:33Z</time>
      </trkpt>
      <trkpt lat="44.70473" lon="6.56903">
        <ele>1546</ele>
        <time>2010-01-01T00:25:36Z</time>
      </trkpt>
      <trkpt lat="44.70478" lon="6.569">
        <ele>1546</ele>
        <time>2010-01-01T00:25:37Z</time>
      </trkpt>
      <trkpt lat="44.70493" lon="6.56891">
        <ele>1547</ele>
        <time>2010-01-01T00:25:41Z</time>
      </trkpt>
      <trkpt lat="44.70508" lon="6.56882">
        <ele>1548</ele>
        <time>2010-01-01T00:25:46Z</time>
      </trkpt>
      <trkpt lat="44.70513" lon="6.56879">
        <ele>1548</ele>
        <time>2010-01-01T00:25:47Z</time>
      </trkpt>
      <trkpt lat="44.70525" lon="6.56871">
        <ele>1547</ele>
        <time>2010-01-01T00:25:51Z</time>
      </trkpt>
      <trkpt lat="44.70528" lon="6.56869">
        <ele>1546</ele>
        <time>2010-01-01T00:25:52Z</time>
      </trkpt>
      <trkpt lat="44.70543" lon="6.56863">
        <ele>1545</ele>
        <time>2010-01-01T00:25:56Z</time>
      </trkpt>
      <trkpt lat="44.70553" lon="6.56859">
        <ele>1544</ele>
        <time>2010-01-01T00:25:59Z</time>
      </trkpt>
      <trkpt lat="44.70562" lon="6.56854">
        <ele>1546</ele>
        <time>2010-01-01T00:26:01Z</time>
      </trkpt>
      <trkpt lat="44.7058" lon="6.56844">
        <ele>1548</ele>
        <time>2010-01-01T00:26:06Z</time>
      </trkpt>
      <trkpt lat="44.70584" lon="6.56843">
        <ele>1548</ele>
        <time>2010-01-01T00:26:08Z</time>
      </trkpt>
      <trkpt lat="44.70596" lon="6.5684">
        <ele>1548</ele>
        <time>2010-01-01T00:26:11Z</time>
      </trkpt>
      <trkpt lat="44.70599" lon="6.56839">
        <ele>1548</ele>
        <time>2010-01-01T00:26:12Z</time>
      </trkpt>
      <trkpt lat="44.70613" lon="6.56831">
        <ele>1550</ele>
        <time>2010-01-01T00:26:16Z</time>
      </trkpt>
      <trkpt lat="44.70624" lon="6.56817">
        <ele>1553</ele>
        <time>2010-01-01T00:26:20Z</time>
      </trkpt>
      <trkpt lat="44.70627" lon="6.56813">
        <ele>1554</ele>
        <time>2010-01-01T00:26:21Z</time>
      </trkpt>
      <trkpt lat="44.70635" lon="6.56804">
        <ele>1556</ele>
        <time>2010-01-01T00:26:24Z</time>
      </trkpt>
      <trkpt lat="44.70638" lon="6.568">
        <ele>1557</ele>
        <time>2010-01-01T00:26:25Z</time>
      </trkpt>
      <trkpt lat="44.70652" lon="6.5679">
        <ele>1558</ele>
        <time>2010-01-01T00:26:29Z</time>
      </trkpt>
      <trkpt lat="44.70656" lon="6.56787">
        <ele>1558</ele>
        <time>2010-01-01T00:26:30Z</time>
      </trkpt>
      <trkpt lat="44.70662" lon="6.56782">
        <ele>1559</ele>
        <time>2010-01-01T00:26:32Z</time>
      </trkpt>
      <trkpt lat="44.70669" lon="6.56776">
        <ele>1559</ele>
        <time>2010-01-01T00:26:34Z</time>
      </trkpt>
      <trkpt lat="44.70673" lon="6.56772">
        <ele>1559</ele>
        <time>2010-01-01T00:26:35Z</time>
      </trkpt>
      <trkpt lat="44.70683" lon="6.56765">
        <ele>1560</ele>
        <time>2010-01-01T00:26:38Z</time>
      </trkpt>
      <trkpt lat="44.70687" lon="6.56762">
        <ele>1560</ele>
        <time>2010-01-01T00:26:39Z</time>
      </trkpt>
      <trkpt lat="44.70692" lon="6.56757">
        <ele>1560</ele>
        <time>2010-01-01T00:26:41Z</time>
      </trkpt>
      <trkpt lat="44.70698" lon="6.5675">
        <ele>1561</ele>
        <time>2010-01-01T00:26:43Z</time>
      </trkpt>
      <trkpt lat="44.70707" lon="6.56735">
        <ele>1561</ele>
        <time>2010-01-01T00:26:47Z</time>
      </trkpt>
      <trkpt lat="44.70708" lon="6.56733">
        <ele>1561</ele>
        <time>2010-01-01T00:26:47Z</time>
      </trkpt>
      <trkpt lat="44.70713" lon="6.56725">
        <ele>1562</ele>
        <time>2010-01-01T00:26:49Z</time>
      </trkpt>
      <trkpt lat="44.70719" lon="6.56714">
        <ele>1563</ele>
        <time>2010-01-01T00:26:52Z</time>
      </trkpt>
      <trkpt lat="44.70728" lon="6.56702">
        <ele>1564</ele>
        <time>2010-01-01T00:26:55Z</time>
      </trkpt>
      <trkpt lat="44.70729" lon="6.56699">
        <ele>1564</ele>
        <time>2010-01-01T00:26:56Z</time>
      </trkpt>
      <trkpt lat="44.70736" lon="6.56691">
        <ele>1565</ele>
        <time>2010-01-01T00:26:58Z</time>
      </trkpt>
      <trkpt lat="44.70739" lon="6.56686">
        <ele>1567</ele>
        <time>2010-01-01T00:27:00Z</time>
      </trkpt>
      <trkpt lat="44.7074" lon="6.56684">
        <ele>1567</ele>
        <time>2010-01-01T00:27:00Z</time>
      </trkpt>
      <trkpt lat="44.70748" lon="6.56676">
        <ele>1568</ele>
        <time>2010-01-01T00:27:03Z</time>
      </trkpt>
      <trkpt lat="44.70751" lon="6.56672">
        <ele>1568</ele>
        <time>2010-01-01T00:27:04Z</time>
      </trkpt>
      <trkpt lat="44.70755" lon="6.56667">
        <ele>1569</ele>
        <time>2010-01-01T00:27:05Z</time>
      </trkpt>
      <trkpt lat="44.70763" lon="6.5666">
        <ele>1570</ele>
        <time>2010-01-01T00:27:08Z</time>
      </trkpt>
      <trkpt lat="44.70766" lon="6.56656">
        <ele>1571</ele>
        <time>2010-01-01T00:27:09Z</time>
      </trkpt>
      <trkpt lat="44.70774" lon="6.56648">
        <ele>1572</ele>
        <time>2010-01-01T00:27:11Z</time>
      </trkpt>
      <trkpt lat="44.70777" lon="6.56644">
        <ele>1573</ele>
        <time>2010-01-01T00:27:12Z</time>
      </trkpt>
      <trkpt lat="44.70783" lon="6.56635">
        <ele>1574</ele>
        <time>2010-01-01T00:27:15Z</time>
      </trkpt>
      <trkpt lat="44.70791" lon="6.56626">
        <ele>1575</ele>
        <time>2010-01-01T00:27:17Z</time>
      </trkpt>
      <trkpt lat="44.70794" lon="6.56623">
        <ele>1575</ele>
        <time>2010-01-01T00:27:18Z</time>
      </trkpt>
      <trkpt lat="44.708" lon="6.56618">
        <ele>1575</ele>
        <time>2010-01-01T00:27:20Z</time>
      </trkpt>
      <trkpt lat="44.70804" lon="6.56613">
        <ele>1576</ele>
        <time>2010-01-01T00:27:22Z</time>
      </trkpt>
      <trkpt lat="44.70807" lon="6.5661">
        <ele>1576</ele>
        <time>2010-01-01T00:27:23Z</time>
      </trkpt>
      <trkpt lat="44.70815" lon="6.56598">
        <ele>1578</ele>
        <time>2010-01-01T00:27:26Z</time>
      </trkpt>
      <trkpt lat="44.70821" lon="6.56586">
        <ele>1580</ele>
        <time>2010-01-01T00:27:29Z</time>
      </trkpt>
      <trkpt lat="44.70823" lon="6.56583">
        <ele>1580</ele>
        <time>2010-01-01T00:27:30Z</time>
      </trkpt>
      <trkpt lat="44.70827" lon="6.56574">
        <ele>1581</ele>
        <time>2010-01-01T00:27:31Z</time>
      </trkpt>
      <trkpt lat="44.70828" lon="6.56573">
        <ele>1581</ele>
        <time>2010-01-01T00:27:32Z</time>
      </trkpt>
      <trkpt lat="44.7083" lon="6.56571">
        <ele>1581</ele>
        <time>2010-01-01T00:27:32Z</time>
      </trkpt>
      <trkpt lat="44.70832" lon="6.56567">
        <ele>1582</ele>
        <time>2010-01-01T00:27:33Z</time>
      </trkpt>
      <trkpt lat="44.70833" lon="6.56565">
        <ele>1582</ele>
        <time>2010-01-01T00:27:34Z</time>
      </trkpt>
      <trkpt lat="44.70837" lon="6.56558">
        <ele>1583</ele>
        <time>2010-01-01T00:27:36Z</time>
      </trkpt>
      <trkpt lat="44.70839" lon="6.56556">
        <ele>1583</ele>
        <time>2010-01-01T00:27:36Z</time>
      </trkpt>
      <trkpt lat="44.70848" lon="6.56547">
        <ele>1584</ele>
        <time>2010-01-01T00:27:39Z</time>
      </trkpt>
      <trkpt lat="44.70858" lon="6.56537">
        <ele>1584</ele>
        <time>2010-01-01T00:27:42Z</time>
      </trkpt>
      <trkpt lat="44.70864" lon="6.56532">
        <ele>1583</ele>
        <time>2010-01-01T00:27:44Z</time>
      </trkpt>
      <trkpt lat="44.70867" lon="6.56531">
        <ele>1583</ele>
        <time>2010-01-01T00:27:45Z</time>
      </trkpt>
      <trkpt lat="44.70879" lon="6.56517">
        <ele>1583</ele>
        <time>2010-01-01T00:27:49Z</time>
      </trkpt>
      <trkpt lat="44.70881" lon="6.56503">
        <ele>1585</ele>
        <time>2010-01-01T00:27:52Z</time>
      </trkpt>
      <trkpt lat="44.70881" lon="6.56494">
        <ele>1586</ele>
        <time>2010-01-01T00:27:54Z</time>
      </trkpt>
      <trkpt lat="44.70882" lon="6.56485">
        <ele>1588</ele>
        <time>2010-01-01T00:27:55Z</time>
      </trkpt>
      <trkpt lat="44.70884" lon="6.5648">
        <ele>1589</ele>
        <time>2010-01-01T00:27:56Z</time>
      </trkpt>
      <trkpt lat="44.70889" lon="6.56468">
        <ele>1590</ele>
        <time>2010-01-01T00:27:59Z</time>
      </trkpt>
      <trkpt lat="44.7089" lon="6.56464">
        <ele>1591</ele>
        <time>2010-01-01T00:28:00Z</time>
      </trkpt>
      <trkpt lat="44.70895" lon="6.56453">
        <ele>1593</ele>
        <time>2010-01-01T00:28:02Z</time>
      </trkpt>
      <trkpt lat="44.70898" lon="6.56449">
        <ele>1594</ele>
        <time>2010-01-01T00:28:03Z</time>
      </trkpt>
      <trkpt lat="44.70903" lon="6.56439">
        <ele>1595</ele>
        <time>2010-01-01T00:28:06Z</time>
      </trkpt>
      <trkpt lat="44.70904" lon="6.56437">
        <ele>1595</ele>
        <time>2010-01-01T00:28:06Z</time>
      </trkpt>
      <trkpt lat="44.70911" lon="6.56426">
        <ele>1596</ele>
        <time>2010-01-01T00:28:09Z</time>
      </trkpt>
      <trkpt lat="44.70911" lon="6.56423">
        <ele>1596</ele>
        <time>2010-01-01T00:28:09Z</time>
      </trkpt>
      <trkpt lat="44.70909" lon="6.56416">
        <ele>1598</ele>
        <time>2010-01-01T00:28:11Z</time>
      </trkpt>
      <trkpt lat="44.70902" lon="6.56419">
        <ele>1599</ele>
        <time>2010-01-01T00:28:13Z</time>
      </trkpt>
      <trkpt lat="44.70896" lon="6.56426">
        <ele>1599</ele>
        <time>2010-01-01T00:28:15Z</time>
      </trkpt>
      <trkpt lat="44.70893" lon="6.56428">
        <ele>1599</ele>
        <time>2010-01-01T00:28:16Z</time>
      </trkpt>
      <trkpt lat="44.70884" lon="6.56438">
        <ele>1599</ele>
        <time>2010-01-01T00:28:19Z</time>
      </trkpt>
      <trkpt lat="44.70881" lon="6.56442">
        <ele>1599</ele>
        <time>2010-01-01T00:28:20Z</time>
      </trkpt>
      <trkpt lat="44.70874" lon="6.5645">
        <ele>1599</ele>
        <time>2010-01-01T00:28:22Z</time>
      </trkpt>
      <trkpt lat="44.70865" lon="6.56463">
        <ele>1598</ele>
        <time>2010-01-01T00:28:26Z</time>
      </trkpt>
      <trkpt lat="44.70861" lon="6.56468">
        <ele>1598</ele>
        <time>2010-01-01T00:28:27Z</time>
      </trkpt>
      <trkpt lat="44.70856" lon="6.56478">
        <ele>1598</ele>
        <time>2010-01-01T00:28:30Z</time>
      </trkpt>
      <trkpt lat="44.70852" lon="6.56482">
        <ele>1599</ele>
        <time>2010-01-01T00:28:31Z</time>
      </trkpt>
      <trkpt lat="44.70848" lon="6.56483">
        <ele>1600</ele>
        <time>2010-01-01T00:28:32Z</time>
      </trkpt>
      <trkpt lat="44.70847" lon="6.56482">
        <ele>1601</ele>
        <time>2010-01-01T00:28:32Z</time>
      </trkpt>
      <trkpt lat="44.70845" lon="6.56479">
        <ele>1603</ele>
        <time>2010-01-01T00:28:33Z</time>
      </trkpt>
      <trkpt lat="44.70845" lon="6.56473">
        <ele>1604</ele>
        <time>2010-01-01T00:28:34Z</time>
      </trkpt>
      <trkpt lat="44.70849" lon="6.5647">
        <ele>1603</ele>
        <time>2010-01-01T00:28:35Z</time>
      </trkpt>
      <trkpt lat="44.70852" lon="6.56466">
        <ele>1603</ele>
        <time>2010-01-01T00:28:37Z</time>
      </trkpt>
      <trkpt lat="44.70853" lon="6.56464">
        <ele>1602</ele>
        <time>2010-01-01T00:28:37Z</time>
      </trkpt>
      <trkpt lat="44.7086" lon="6.56455">
        <ele>1602</ele>
        <time>2010-01-01T00:28:39Z</time>
      </trkpt>
      <trkpt lat="44.70861" lon="6.56451">
        <ele>1602</ele>
        <time>2010-01-01T00:28:40Z</time>
      </trkpt>
      <trkpt lat="44.70867" lon="6.56437">
        <ele>1604</ele>
        <time>2010-01-01T00:28:43Z</time>
      </trkpt>
      <trkpt lat="44.70868" lon="6.56434">
        <ele>1605</ele>
        <time>2010-01-01T00:28:44Z</time>
      </trkpt>
      <trkpt lat="44.70875" lon="6.56414">
        <ele>1608</ele>
        <time>2010-01-01T00:28:48Z</time>
      </trkpt>
      <trkpt lat="44.70877" lon="6.56409">
        <ele>1609</ele>
        <time>2010-01-01T00:28:49Z</time>
      </trkpt>
      <trkpt lat="44.70882" lon="6.56399">
        <ele>1610</ele>
        <time>2010-01-01T00:28:52Z</time>
      </trkpt>
      <trkpt lat="44.70884" lon="6.56393">
        <ele>1610</ele>
        <time>2010-01-01T00:28:53Z</time>
      </trkpt>
      <trkpt lat="44.7089" lon="6.56379">
        <ele>1612</ele>
        <time>2010-01-01T00:28:56Z</time>
      </trkpt>
      <trkpt lat="44.70897" lon="6.56364">
        <ele>1614</ele>
        <time>2010-01-01T00:28:59Z</time>
      </trkpt>
      <trkpt lat="44.70903" lon="6.56356">
        <ele>1614</ele>
        <time>2010-01-01T00:29:02Z</time>
      </trkpt>
      <trkpt lat="44.70905" lon="6.56347">
        <ele>1615</ele>
        <time>2010-01-01T00:29:03Z</time>
      </trkpt>
      <trkpt lat="44.70908" lon="6.56336">
        <ele>1616</ele>
        <time>2010-01-01T00:29:06Z</time>
      </trkpt>
      <trkpt lat="44.70909" lon="6.56334">
        <ele>1616</ele>
        <time>2010-01-01T00:29:06Z</time>
      </trkpt>
      <trkpt lat="44.70916" lon="6.56314">
        <ele>1617</ele>
        <time>2010-01-01T00:29:10Z</time>
      </trkpt>
      <trkpt lat="44.70917" lon="6.56313">
        <ele>1617</ele>
        <time>2010-01-01T00:29:11Z</time>
      </trkpt>
      <trkpt lat="44.70926" lon="6.56295">
        <ele>1617</ele>
        <time>2010-01-01T00:29:15Z</time>
      </trkpt>
      <trkpt lat="44.7093" lon="6.56285">
        <ele>1618</ele>
        <time>2010-01-01T00:29:17Z</time>
      </trkpt>
      <trkpt lat="44.70932" lon="6.56277">
        <ele>1618</ele>
        <time>2010-01-01T00:29:19Z</time>
      </trkpt>
      <trkpt lat="44.70935" lon="6.56264">
        <ele>1619</ele>
        <time>2010-01-01T00:29:21Z</time>
      </trkpt>
      <trkpt lat="44.70935" lon="6.5626">
        <ele>1620</ele>
        <time>2010-01-01T00:29:22Z</time>
      </trkpt>
      <trkpt lat="44.70938" lon="6.56239">
        <ele>1621</ele>
        <time>2010-01-01T00:29:26Z</time>
      </trkpt>
      <trkpt lat="44.70938" lon="6.56229">
        <ele>1622</ele>
        <time>2010-01-01T00:29:28Z</time>
      </trkpt>
      <trkpt lat="44.7094" lon="6.56217">
        <ele>1623</ele>
        <time>2010-01-01T00:29:30Z</time>
      </trkpt>
      <trkpt lat="44.70942" lon="6.56209">
        <ele>1622</ele>
        <time>2010-01-01T00:29:32Z</time>
      </trkpt>
      <trkpt lat="44.70945" lon="6.56198">
        <ele>1622</ele>
        <time>2010-01-01T00:29:34Z</time>
      </trkpt>
      <trkpt lat="44.70948" lon="6.56185">
        <ele>1623</ele>
        <time>2010-01-01T00:29:37Z</time>
      </trkpt>
      <trkpt lat="44.70948" lon="6.5618">
        <ele>1623</ele>
        <time>2010-01-01T00:29:38Z</time>
      </trkpt>
      <trkpt lat="44.70948" lon="6.56173">
        <ele>1625</ele>
        <time>2010-01-01T00:29:39Z</time>
      </trkpt>
      <trkpt lat="44.70948" lon="6.56168">
        <ele>1625</ele>
        <time>2010-01-01T00:29:40Z</time>
      </trkpt>
      <trkpt lat="44.70947" lon="6.5616">
        <ele>1627</ele>
        <time>2010-01-01T00:29:41Z</time>
      </trkpt>
      <trkpt lat="44.70948" lon="6.5615">
        <ele>1628</ele>
        <time>2010-01-01T00:29:43Z</time>
      </trkpt>
      <trkpt lat="44.70948" lon="6.56144">
        <ele>1628</ele>
        <time>2010-01-01T00:29:45Z</time>
      </trkpt>
      <trkpt lat="44.70949" lon="6.56131">
        <ele>1629</ele>
        <time>2010-01-01T00:29:47Z</time>
      </trkpt>
      <trkpt lat="44.70948" lon="6.56118">
        <ele>1631</ele>
        <time>2010-01-01T00:29:49Z</time>
      </trkpt>
      <trkpt lat="44.70946" lon="6.56111">
        <ele>1633</ele>
        <time>2010-01-01T00:29:51Z</time>
      </trkpt>
      <trkpt lat="44.70944" lon="6.56106">
        <ele>1634</ele>
        <time>2010-01-01T00:29:52Z</time>
      </trkpt>
      <trkpt lat="44.70945" lon="6.56097">
        <ele>1633</ele>
        <time>2010-01-01T00:29:54Z</time>
      </trkpt>
      <trkpt lat="44.70945" lon="6.56087">
        <ele>1633</ele>
        <time>2010-01-01T00:29:55Z</time>
      </trkpt>
      <trkpt lat="44.70946" lon="6.56079">
        <ele>1633</ele>
        <time>2010-01-01T00:29:57Z</time>
      </trkpt>
      <trkpt lat="44.70945" lon="6.56073">
        <ele>1634</ele>
        <time>2010-01-01T00:29:58Z</time>
      </trkpt>
      <trkpt lat="44.70944" lon="6.5607">
        <ele>1635</ele>
        <time>2010-01-01T00:29:59Z</time>
      </trkpt>
      <trkpt lat="44.70942" lon="6.56066">
        <ele>1636</ele>
        <time>2010-01-01T00:30:00Z</time>
      </trkpt>
      <trkpt lat="44.7094" lon="6.56066">
        <ele>1637</ele>
        <time>2010-01-01T00:30:00Z</time>
      </trkpt>
      <trkpt lat="44.70936" lon="6.56066">
        <ele>1639</ele>
        <time>2010-01-01T00:30:01Z</time>
      </trkpt>
      <trkpt lat="44.70933" lon="6.5607">
        <ele>1640</ele>
        <time>2010-01-01T00:30:02Z</time>
      </trkpt>
      <trkpt lat="44.70932" lon="6.56072">
        <ele>1640</ele>
        <time>2010-01-01T00:30:03Z</time>
      </trkpt>
      <trkpt lat="44.70931" lon="6.5608">
        <ele>1641</ele>
        <time>2010-01-01T00:30:04Z</time>
      </trkpt>
      <trkpt lat="44.7093" lon="6.56087">
        <ele>1641</ele>
        <time>2010-01-01T00:30:06Z</time>
      </trkpt>
      <trkpt lat="44.7093" lon="6.56094">
        <ele>1641</ele>
        <time>2010-01-01T00:30:07Z</time>
      </trkpt>
      <trkpt lat="44.70928" lon="6.56106">
        <ele>1642</ele>
        <time>2010-01-01T00:30:09Z</time>
      </trkpt>
      <trkpt lat="44.70923" lon="6.56126">
        <ele>1643</ele>
        <time>2010-01-01T00:30:13Z</time>
      </trkpt>
      <trkpt lat="44.70918" lon="6.56137">
        <ele>1646</ele>
        <time>2010-01-01T00:30:16Z</time>
      </trkpt>
      <trkpt lat="44.70917" lon="6.56139">
        <ele>1646</ele>
        <time>2010-01-01T00:30:16Z</time>
      </trkpt>
      <trkpt lat="44.70914" lon="6.56147">
        <ele>1647</ele>
        <time>2010-01-01T00:30:18Z</time>
      </trkpt>
      <trkpt lat="44.70913" lon="6.56152">
        <ele>1647</ele>
        <time>2010-01-01T00:30:19Z</time>
      </trkpt>
      <trkpt lat="44.70912" lon="6.56155">
        <ele>1647</ele>
        <time>2010-01-01T00:30:20Z</time>
      </trkpt>
      <trkpt lat="44.7091" lon="6.56162">
        <ele>1647</ele>
        <time>2010-01-01T00:30:21Z</time>
      </trkpt>
      <trkpt lat="44.70907" lon="6.56171">
        <ele>1647</ele>
        <time>2010-01-01T00:30:23Z</time>
      </trkpt>
      <trkpt lat="44.70905" lon="6.56179">
        <ele>1647</ele>
        <time>2010-01-01T00:30:25Z</time>
      </trkpt>
      <trkpt lat="44.70901" lon="6.56188">
        <ele>1646</ele>
        <time>2010-01-01T00:30:27Z</time>
      </trkpt>
      <trkpt lat="44.70899" lon="6.56192">
        <ele>1646</ele>
        <time>2010-01-01T00:30:28Z</time>
      </trkpt>
      <trkpt lat="44.70895" lon="6.56204">
        <ele>1646</ele>
        <time>2010-01-01T00:30:30Z</time>
      </trkpt>
      <trkpt lat="44.70891" lon="6.56214">
        <ele>1647</ele>
        <time>2010-01-01T00:30:32Z</time>
      </trkpt>
      <trkpt lat="44.70887" lon="6.56223">
        <ele>1647</ele>
        <time>2010-01-01T00:30:34Z</time>
      </trkpt>
      <trkpt lat="44.70886" lon="6.56226">
        <ele>1647</ele>
        <time>2010-01-01T00:30:35Z</time>
      </trkpt>
      <trkpt lat="44.70878" lon="6.56241">
        <ele>1647</ele>
        <time>2010-01-01T00:30:39Z</time>
      </trkpt>
      <trkpt lat="44.70876" lon="6.56246">
        <ele>1647</ele>
        <time>2010-01-01T00:30:40Z</time>
      </trkpt>
      <trkpt lat="44.70871" lon="6.56256">
        <ele>1646</ele>
        <time>2010-01-01T00:30:42Z</time>
      </trkpt>
      <trkpt lat="44.70869" lon="6.56259">
        <ele>1646</ele>
        <time>2010-01-01T00:30:43Z</time>
      </trkpt>
      <trkpt lat="44.70866" lon="6.5627">
        <ele>1645</ele>
        <time>2010-01-01T00:30:45Z</time>
      </trkpt>
      <trkpt lat="44.70863" lon="6.56278">
        <ele>1644</ele>
        <time>2010-01-01T00:30:47Z</time>
      </trkpt>
      <trkpt lat="44.7086" lon="6.56285">
        <ele>1645</ele>
        <time>2010-01-01T00:30:48Z</time>
      </trkpt>
      <trkpt lat="44.70858" lon="6.56286">
        <ele>1646</ele>
        <time>2010-01-01T00:30:49Z</time>
      </trkpt>
      <trkpt lat="44.70855" lon="6.56289">
        <ele>1648</ele>
        <time>2010-01-01T00:30:50Z</time>
      </trkpt>
      <trkpt lat="44.70853" lon="6.56289">
        <ele>1650</ele>
        <time>2010-01-01T00:30:50Z</time>
      </trkpt>
      <trkpt lat="44.7085" lon="6.56286">
        <ele>1652</ele>
        <time>2010-01-01T00:30:51Z</time>
      </trkpt>
      <trkpt lat="44.7085" lon="6.56283">
        <ele>1653</ele>
        <time>2010-01-01T00:30:52Z</time>
      </trkpt>
      <trkpt lat="44.70852" lon="6.56275">
        <ele>1652</ele>
        <time>2010-01-01T00:30:53Z</time>
      </trkpt>
      <trkpt lat="44.70855" lon="6.5627">
        <ele>1651</ele>
        <time>2010-01-01T00:30:55Z</time>
      </trkpt>
      <trkpt lat="44.70856" lon="6.56267">
        <ele>1651</ele>
        <time>2010-01-01T00:30:55Z</time>
      </trkpt>
      <trkpt lat="44.7086" lon="6.56257">
        <ele>1650</ele>
        <time>2010-01-01T00:30:57Z</time>
      </trkpt>
      <trkpt lat="44.70861" lon="6.56254">
        <ele>1650</ele>
        <time>2010-01-01T00:30:58Z</time>
      </trkpt>
      <trkpt lat="44.70866" lon="6.56235">
        <ele>1653</ele>
        <time>2010-01-01T00:31:02Z</time>
      </trkpt>
      <trkpt lat="44.70868" lon="6.56233">
        <ele>1653</ele>
        <time>2010-01-01T00:31:02Z</time>
      </trkpt>
      <trkpt lat="44.70872" lon="6.56216">
        <ele>1656</ele>
        <time>2010-01-01T00:31:06Z</time>
      </trkpt>
      <trkpt lat="44.70874" lon="6.56211">
        <ele>1656</ele>
        <time>2010-01-01T00:31:07Z</time>
      </trkpt>
      <trkpt lat="44.70876" lon="6.56202">
        <ele>1658</ele>
        <time>2010-01-01T00:31:09Z</time>
      </trkpt>
      <trkpt lat="44.70877" lon="6.56193">
        <ele>1659</ele>
        <time>2010-01-01T00:31:10Z</time>
      </trkpt>
      <trkpt lat="44.70877" lon="6.5619">
        <ele>1660</ele>
        <time>2010-01-01T00:31:11Z</time>
      </trkpt>
      <trkpt lat="44.7088" lon="6.56176">
        <ele>1662</ele>
        <time>2010-01-01T00:31:14Z</time>
      </trkpt>
      <trkpt lat="44.70882" lon="6.56165">
        <ele>1664</ele>
        <time>2010-01-01T00:31:16Z</time>
      </trkpt>
      <trkpt lat="44.70882" lon="6.56163">
        <ele>1664</ele>
        <time>2010-01-01T00:31:16Z</time>
      </trkpt>
      <trkpt lat="44.70884" lon="6.56154">
        <ele>1665</ele>
        <time>2010-01-01T00:31:18Z</time>
      </trkpt>
      <trkpt lat="44.70884" lon="6.56149">
        <ele>1665</ele>
        <time>2010-01-01T00:31:19Z</time>
      </trkpt>
      <trkpt lat="44.70884" lon="6.56135">
        <ele>1667</ele>
        <time>2010-01-01T00:31:22Z</time>
      </trkpt>
      <trkpt lat="44.70883" lon="6.56128">
        <ele>1667</ele>
        <time>2010-01-01T00:31:23Z</time>
      </trkpt>
      <trkpt lat="44.70885" lon="6.5612">
        <ele>1666</ele>
        <time>2010-01-01T00:31:24Z</time>
      </trkpt>
      <trkpt lat="44.70884" lon="6.56118">
        <ele>1667</ele>
        <time>2010-01-01T00:31:25Z</time>
      </trkpt>
      <trkpt lat="44.70883" lon="6.56107">
        <ele>1668</ele>
        <time>2010-01-01T00:31:27Z</time>
      </trkpt>
      <trkpt lat="44.70881" lon="6.56094">
        <ele>1668</ele>
        <time>2010-01-01T00:31:30Z</time>
      </trkpt>
      <trkpt lat="44.7088" lon="6.56089">
        <ele>1669</ele>
        <time>2010-01-01T00:31:31Z</time>
      </trkpt>
      <trkpt lat="44.70879" lon="6.56083">
        <ele>1669</ele>
        <time>2010-01-01T00:31:32Z</time>
      </trkpt>
      <trkpt lat="44.70877" lon="6.56067">
        <ele>1673</ele>
        <time>2010-01-01T00:31:35Z</time>
      </trkpt>
      <trkpt lat="44.70876" lon="6.56062">
        <ele>1673</ele>
        <time>2010-01-01T00:31:36Z</time>
      </trkpt>
      <trkpt lat="44.70876" lon="6.56053">
        <ele>1674</ele>
        <time>2010-01-01T00:31:37Z</time>
      </trkpt>
      <trkpt lat="44.70877" lon="6.5605">
        <ele>1675</ele>
        <time>2010-01-01T00:31:38Z</time>
      </trkpt>
      <trkpt lat="44.70877" lon="6.56047">
        <ele>1675</ele>
        <time>2010-01-01T00:31:39Z</time>
      </trkpt>
      <trkpt lat="44.70876" lon="6.56033">
        <ele>1678</ele>
        <time>2010-01-01T00:31:41Z</time>
      </trkpt>
      <trkpt lat="44.70876" lon="6.56028">
        <ele>1678</ele>
        <time>2010-01-01T00:31:42Z</time>
      </trkpt>
      <trkpt lat="44.70879" lon="6.56015">
        <ele>1678</ele>
        <time>2010-01-01T00:31:45Z</time>
      </trkpt>
      <trkpt lat="44.7088" lon="6.56008">
        <ele>1678</ele>
        <time>2010-01-01T00:31:46Z</time>
      </trkpt>
      <trkpt lat="44.70883" lon="6.56002">
        <ele>1676</ele>
        <time>2010-01-01T00:31:48Z</time>
      </trkpt>
      <trkpt lat="44.70886" lon="6.55996">
        <ele>1675</ele>
        <time>2010-01-01T00:31:49Z</time>
      </trkpt>
      <trkpt lat="44.70887" lon="6.55991">
        <ele>1674</ele>
        <time>2010-01-01T00:31:50Z</time>
      </trkpt>
      <trkpt lat="44.70888" lon="6.55977">
        <ele>1676</ele>
        <time>2010-01-01T00:31:53Z</time>
      </trkpt>
      <trkpt lat="44.70883" lon="6.55959">
        <ele>1678</ele>
        <time>2010-01-01T00:31:56Z</time>
      </trkpt>
      <trkpt lat="44.70882" lon="6.55956">
        <ele>1679</ele>
        <time>2010-01-01T00:31:57Z</time>
      </trkpt>
      <trkpt lat="44.7088" lon="6.55943">
        <ele>1680</ele>
        <time>2010-01-01T00:31:59Z</time>
      </trkpt>
      <trkpt lat="44.7088" lon="6.55941">
        <ele>1681</ele>
        <time>2010-01-01T00:32:00Z</time>
      </trkpt>
      <trkpt lat="44.70878" lon="6.55927">
        <ele>1684</ele>
        <time>2010-01-01T00:32:02Z</time>
      </trkpt>
      <trkpt lat="44.70876" lon="6.55916">
        <ele>1687</ele>
        <time>2010-01-01T00:32:05Z</time>
      </trkpt>
      <trkpt lat="44.70875" lon="6.55906">
        <ele>1688</ele>
        <time>2010-01-01T00:32:07Z</time>
      </trkpt>
      <trkpt lat="44.70876" lon="6.55896">
        <ele>1689</ele>
        <time>2010-01-01T00:32:08Z</time>
      </trkpt>
      <trkpt lat="44.70876" lon="6.55891">
        <ele>1689</ele>
        <time>2010-01-01T00:32:09Z</time>
      </trkpt>
      <trkpt lat="44.70879" lon="6.55878">
        <ele>1688</ele>
        <time>2010-01-01T00:32:12Z</time>
      </trkpt>
      <trkpt lat="44.7088" lon="6.55873">
        <ele>1688</ele>
        <time>2010-01-01T00:32:13Z</time>
      </trkpt>
      <trkpt lat="44.70882" lon="6.5586">
        <ele>1688</ele>
        <time>2010-01-01T00:32:16Z</time>
      </trkpt>
      <trkpt lat="44.70881" lon="6.55841">
        <ele>1688</ele>
        <time>2010-01-01T00:32:19Z</time>
      </trkpt>
      <trkpt lat="44.70881" lon="6.55838">
        <ele>1688</ele>
        <time>2010-01-01T00:32:20Z</time>
      </trkpt>
      <trkpt lat="44.70877" lon="6.55825">
        <ele>1689</ele>
        <time>2010-01-01T00:32:22Z</time>
      </trkpt>
      <trkpt lat="44.70875" lon="6.55821">
        <ele>1690</ele>
        <time>2010-01-01T00:32:23Z</time>
      </trkpt>
      <trkpt lat="44.70871" lon="6.55809">
        <ele>1692</ele>
        <time>2010-01-01T00:32:26Z</time>
      </trkpt>
      <trkpt lat="44.70869" lon="6.55802">
        <ele>1692</ele>
        <time>2010-01-01T00:32:27Z</time>
      </trkpt>
      <trkpt lat="44.70868" lon="6.55797">
        <ele>1692</ele>
        <time>2010-01-01T00:32:28Z</time>
      </trkpt>
      <trkpt lat="44.70864" lon="6.55785">
        <ele>1691</ele>
        <time>2010-01-01T00:32:31Z</time>
      </trkpt>
      <trkpt lat="44.70863" lon="6.55783">
        <ele>1691</ele>
        <time>2010-01-01T00:32:31Z</time>
      </trkpt>
      <trkpt lat="44.7086" lon="6.55771">
        <ele>1691</ele>
        <time>2010-01-01T00:32:34Z</time>
      </trkpt>
      <trkpt lat="44.70857" lon="6.55766">
        <ele>1692</ele>
        <time>2010-01-01T00:32:35Z</time>
      </trkpt>
      <trkpt lat="44.70851" lon="6.55751">
        <ele>1694</ele>
        <time>2010-01-01T00:32:38Z</time>
      </trkpt>
      <trkpt lat="44.70847" lon="6.55737">
        <ele>1695</ele>
        <time>2010-01-01T00:32:41Z</time>
      </trkpt>
      <trkpt lat="44.70845" lon="6.55726">
        <ele>1694</ele>
        <time>2010-01-01T00:32:43Z</time>
      </trkpt>
      <trkpt lat="44.70844" lon="6.55721">
        <ele>1694</ele>
        <time>2010-01-01T00:32:44Z</time>
      </trkpt>
      <trkpt lat="44.70842" lon="6.55716">
        <ele>1694</ele>
        <time>2010-01-01T00:32:45Z</time>
      </trkpt>
      <trkpt lat="44.70838" lon="6.55703">
        <ele>1694</ele>
        <time>2010-01-01T00:32:48Z</time>
      </trkpt>
      <trkpt lat="44.70837" lon="6.55698">
        <ele>1693</ele>
        <time>2010-01-01T00:32:49Z</time>
      </trkpt>
      <trkpt lat="44.70835" lon="6.55691">
        <ele>1694</ele>
        <time>2010-01-01T00:32:50Z</time>
      </trkpt>
      <trkpt lat="44.70834" lon="6.55678">
        <ele>1695</ele>
        <time>2010-01-01T00:32:53Z</time>
      </trkpt>
      <trkpt lat="44.70834" lon="6.55673">
        <ele>1695</ele>
        <time>2010-01-01T00:32:54Z</time>
      </trkpt>
      <trkpt lat="44.70834" lon="6.55663">
        <ele>1696</ele>
        <time>2010-01-01T00:32:56Z</time>
      </trkpt>
      <trkpt lat="44.70834" lon="6.55659">
        <ele>1696</ele>
        <time>2010-01-01T00:32:56Z</time>
      </trkpt>
      <trkpt lat="44.70833" lon="6.55657">
        <ele>1696</ele>
        <time>2010-01-01T00:32:57Z</time>
      </trkpt>
      <trkpt lat="44.70833" lon="6.55652">
        <ele>1697</ele>
        <time>2010-01-01T00:32:58Z</time>
      </trkpt>
      <trkpt lat="44.70832" lon="6.55642">
        <ele>1698</ele>
        <time>2010-01-01T00:33:00Z</time>
      </trkpt>
      <trkpt lat="44.70831" lon="6.55639">
        <ele>1699</ele>
        <time>2010-01-01T00:33:00Z</time>
      </trkpt>
      <trkpt lat="44.70829" lon="6.55629">
        <ele>1701</ele>
        <time>2010-01-01T00:33:02Z</time>
      </trkpt>
      <trkpt lat="44.70827" lon="6.55623">
        <ele>1702</ele>
        <time>2010-01-01T00:33:04Z</time>
      </trkpt>
      <trkpt lat="44.70825" lon="6.55618">
        <ele>1704</ele>
        <time>2010-01-01T00:33:05Z</time>
      </trkpt>
      <trkpt lat="44.70823" lon="6.55609">
        <ele>1704</ele>
        <time>2010-01-01T00:33:07Z</time>
      </trkpt>
      <trkpt lat="44.70822" lon="6.55602">
        <ele>1704</ele>
        <time>2010-01-01T00:33:08Z</time>
      </trkpt>
      <trkpt lat="44.7082" lon="6.55592">
        <ele>1704</ele>
        <time>2010-01-01T00:33:10Z</time>
      </trkpt>
      <trkpt lat="44.70819" lon="6.55587">
        <ele>1705</ele>
        <time>2010-01-01T00:33:11Z</time>
      </trkpt>
      <trkpt lat="44.70818" lon="6.55578">
        <ele>1705</ele>
        <time>2010-01-01T00:33:12Z</time>
      </trkpt>
      <trkpt lat="44.70818" lon="6.55572">
        <ele>1705</ele>
        <time>2010-01-01T00:33:14Z</time>
      </trkpt>
      <trkpt lat="44.70816" lon="6.55563">
        <ele>1707</ele>
        <time>2010-01-01T00:33:15Z</time>
      </trkpt>
      <trkpt lat="44.70815" lon="6.55559">
        <ele>1707</ele>
        <time>2010-01-01T00:33:16Z</time>
      </trkpt>
      <trkpt lat="44.70813" lon="6.5555">
        <ele>1708</ele>
        <time>2010-01-01T00:33:18Z</time>
      </trkpt>
      <trkpt lat="44.70813" lon="6.55547">
        <ele>1709</ele>
        <time>2010-01-01T00:33:18Z</time>
      </trkpt>
      <trkpt lat="44.70813" lon="6.55543">
        <ele>1709</ele>
        <time>2010-01-01T00:33:19Z</time>
      </trkpt>
      <trkpt lat="44.70811" lon="6.55537">
        <ele>1710</ele>
        <time>2010-01-01T00:33:21Z</time>
      </trkpt>
      <trkpt lat="44.70811" lon="6.55534">
        <ele>1710</ele>
        <time>2010-01-01T00:33:21Z</time>
      </trkpt>
      <trkpt lat="44.7081" lon="6.55529">
        <ele>1711</ele>
        <time>2010-01-01T00:33:22Z</time>
      </trkpt>
      <trkpt lat="44.70808" lon="6.55525">
        <ele>1712</ele>
        <time>2010-01-01T00:33:23Z</time>
      </trkpt>
      <trkpt lat="44.70807" lon="6.55522">
        <ele>1713</ele>
        <time>2010-01-01T00:33:24Z</time>
      </trkpt>
      <trkpt lat="44.70807" lon="6.55521">
        <ele>1713</ele>
        <time>2010-01-01T00:33:24Z</time>
      </trkpt>
      <trkpt lat="44.70807" lon="6.5552">
        <ele>1713</ele>
        <time>2010-01-01T00:33:24Z</time>
      </trkpt>
      <trkpt lat="44.70807" lon="6.55518">
        <ele>1713</ele>
        <time>2010-01-01T00:33:24Z</time>
      </trkpt>
      <trkpt lat="44.70805" lon="6.5551">
        <ele>1714</ele>
        <time>2010-01-01T00:33:26Z</time>
      </trkpt>
      <trkpt lat="44.70805" lon="6.55501">
        <ele>1714</ele>
        <time>2010-01-01T00:33:28Z</time>
      </trkpt>
      <trkpt lat="44.70805" lon="6.55497">
        <ele>1715</ele>
        <time>2010-01-01T00:33:28Z</time>
      </trkpt>
      <trkpt lat="44.70805" lon="6.55483">
        <ele>1717</ele>
        <time>2010-01-01T00:33:31Z</time>
      </trkpt>
      <trkpt lat="44.70805" lon="6.55481">
        <ele>1718</ele>
        <time>2010-01-01T00:33:31Z</time>
      </trkpt>
      <trkpt lat="44.70805" lon="6.55475">
        <ele>1718</ele>
        <time>2010-01-01T00:33:33Z</time>
      </trkpt>
      <trkpt lat="44.70806" lon="6.55468">
        <ele>1720</ele>
        <time>2010-01-01T00:33:34Z</time>
      </trkpt>
      <trkpt lat="44.70808" lon="6.55459">
        <ele>1722</ele>
        <time>2010-01-01T00:33:36Z</time>
      </trkpt>
      <trkpt lat="44.7081" lon="6.55452">
        <ele>1724</ele>
        <time>2010-01-01T00:33:37Z</time>
      </trkpt>
      <trkpt lat="44.70813" lon="6.5544">
        <ele>1727</ele>
        <time>2010-01-01T00:33:39Z</time>
      </trkpt>
      <trkpt lat="44.70813" lon="6.55436">
        <ele>1728</ele>
        <time>2010-01-01T00:33:40Z</time>
      </trkpt>
      <trkpt lat="44.70814" lon="6.55428">
        <ele>1729</ele>
        <time>2010-01-01T00:33:42Z</time>
      </trkpt>
      <trkpt lat="44.70815" lon="6.55425">
        <ele>1730</ele>
        <time>2010-01-01T00:33:42Z</time>
      </trkpt>
      <trkpt lat="44.70817" lon="6.55415">
        <ele>1731</ele>
        <time>2010-01-01T00:33:44Z</time>
      </trkpt>
      <trkpt lat="44.70817" lon="6.55413">
        <ele>1732</ele>
        <time>2010-01-01T00:33:45Z</time>
      </trkpt>
      <trkpt lat="44.70817" lon="6.55408">
        <ele>1733</ele>
        <time>2010-01-01T00:33:46Z</time>
      </trkpt>
      <trkpt lat="44.70819" lon="6.55396">
        <ele>1735</ele>
        <time>2010-01-01T00:33:48Z</time>
      </trkpt>
      <trkpt lat="44.70823" lon="6.55383">
        <ele>1736</ele>
        <time>2010-01-01T00:33:51Z</time>
      </trkpt>
      <trkpt lat="44.70824" lon="6.55381">
        <ele>1736</ele>
        <time>2010-01-01T00:33:51Z</time>
      </trkpt>
      <trkpt lat="44.70828" lon="6.55372">
        <ele>1736</ele>
        <time>2010-01-01T00:33:53Z</time>
      </trkpt>
      <trkpt lat="44.70832" lon="6.55361">
        <ele>1737</ele>
        <time>2010-01-01T00:33:56Z</time>
      </trkpt>
      <trkpt lat="44.70834" lon="6.5536">
        <ele>1737</ele>
        <time>2010-01-01T00:33:56Z</time>
      </trkpt>
      <trkpt lat="44.70838" lon="6.55354">
        <ele>1737</ele>
        <time>2010-01-01T00:33:57Z</time>
      </trkpt>
      <trkpt lat="44.70841" lon="6.55352">
        <ele>1736</ele>
        <time>2010-01-01T00:33:59Z</time>
      </trkpt>
      <trkpt lat="44.70847" lon="6.55349">
        <ele>1735</ele>
        <time>2010-01-01T00:34:00Z</time>
      </trkpt>
      <trkpt lat="44.7085" lon="6.55344">
        <ele>1735</ele>
        <time>2010-01-01T00:34:01Z</time>
      </trkpt>
      <trkpt lat="44.70853" lon="6.55342">
        <ele>1735</ele>
        <time>2010-01-01T00:34:02Z</time>
      </trkpt>
      <trkpt lat="44.70856" lon="6.55338">
        <ele>1735</ele>
        <time>2010-01-01T00:34:03Z</time>
      </trkpt>
      <trkpt lat="44.70859" lon="6.55333">
        <ele>1734</ele>
        <time>2010-01-01T00:34:04Z</time>
      </trkpt>
      <trkpt lat="44.70862" lon="6.55328">
        <ele>1734</ele>
        <time>2010-01-01T00:34:06Z</time>
      </trkpt>
      <trkpt lat="44.70866" lon="6.55322">
        <ele>1734</ele>
        <time>2010-01-01T00:34:07Z</time>
      </trkpt>
      <trkpt lat="44.70872" lon="6.55313">
        <ele>1735</ele>
        <time>2010-01-01T00:34:10Z</time>
      </trkpt>
      <trkpt lat="44.70876" lon="6.55309">
        <ele>1735</ele>
        <time>2010-01-01T00:34:11Z</time>
      </trkpt>
      <trkpt lat="44.70878" lon="6.55306">
        <ele>1735</ele>
        <time>2010-01-01T00:34:12Z</time>
      </trkpt>
      <trkpt lat="44.70884" lon="6.55302">
        <ele>1735</ele>
        <time>2010-01-01T00:34:14Z</time>
      </trkpt>
      <trkpt lat="44.7089" lon="6.55298">
        <ele>1735</ele>
        <time>2010-01-01T00:34:15Z</time>
      </trkpt>
      <trkpt lat="44.70895" lon="6.55295">
        <ele>1736</ele>
        <time>2010-01-01T00:34:17Z</time>
      </trkpt>
      <trkpt lat="44.70897" lon="6.55294">
        <ele>1736</ele>
        <time>2010-01-01T00:34:17Z</time>
      </trkpt>
      <trkpt lat="44.70902" lon="6.55287">
        <ele>1737</ele>
        <time>2010-01-01T00:34:19Z</time>
      </trkpt>
      <trkpt lat="44.70903" lon="6.55285">
        <ele>1737</ele>
        <time>2010-01-01T00:34:20Z</time>
      </trkpt>
      <trkpt lat="44.70904" lon="6.55271">
        <ele>1741</ele>
        <time>2010-01-01T00:34:22Z</time>
      </trkpt>
      <trkpt lat="44.70901" lon="6.55266">
        <ele>1743</ele>
        <time>2010-01-01T00:34:24Z</time>
      </trkpt>
      <trkpt lat="44.709" lon="6.55262">
        <ele>1745</ele>
        <time>2010-01-01T00:34:24Z</time>
      </trkpt>
      <trkpt lat="44.70893" lon="6.55254">
        <ele>1749</ele>
        <time>2010-01-01T00:34:27Z</time>
      </trkpt>
      <trkpt lat="44.7089" lon="6.55251">
        <ele>1750</ele>
        <time>2010-01-01T00:34:28Z</time>
      </trkpt>
      <trkpt lat="44.70887" lon="6.55251">
        <ele>1751</ele>
        <time>2010-01-01T00:34:29Z</time>
      </trkpt>
      <trkpt lat="44.70882" lon="6.55251">
        <ele>1752</ele>
        <time>2010-01-01T00:34:30Z</time>
      </trkpt>
      <trkpt lat="44.70879" lon="6.55252">
        <ele>1752</ele>
        <time>2010-01-01T00:34:31Z</time>
      </trkpt>
      <trkpt lat="44.70876" lon="6.55253">
        <ele>1752</ele>
        <time>2010-01-01T00:34:31Z</time>
      </trkpt>
      <trkpt lat="44.70869" lon="6.55258">
        <ele>1752</ele>
        <time>2010-01-01T00:34:34Z</time>
      </trkpt>
      <trkpt lat="44.70861" lon="6.55268">
        <ele>1751</ele>
        <time>2010-01-01T00:34:37Z</time>
      </trkpt>
      <trkpt lat="44.70858" lon="6.55271">
        <ele>1751</ele>
        <time>2010-01-01T00:34:37Z</time>
      </trkpt>
      <trkpt lat="44.7085" lon="6.55279">
        <ele>1753</ele>
        <time>2010-01-01T00:34:40Z</time>
      </trkpt>
      <trkpt lat="44.70842" lon="6.55284">
        <ele>1756</ele>
        <time>2010-01-01T00:34:42Z</time>
      </trkpt>
      <trkpt lat="44.7084" lon="6.55285">
        <ele>1756</ele>
        <time>2010-01-01T00:34:43Z</time>
      </trkpt>
      <trkpt lat="44.70835" lon="6.55287">
        <ele>1757</ele>
        <time>2010-01-01T00:34:44Z</time>
      </trkpt>
      <trkpt lat="44.70832" lon="6.55288">
        <ele>1758</ele>
        <time>2010-01-01T00:34:45Z</time>
      </trkpt>
      <trkpt lat="44.70829" lon="6.55291">
        <ele>1759</ele>
        <time>2010-01-01T00:34:46Z</time>
      </trkpt>
      <trkpt lat="44.70825" lon="6.55295">
        <ele>1759</ele>
        <time>2010-01-01T00:34:47Z</time>
      </trkpt>
      <trkpt lat="44.7082" lon="6.55298">
        <ele>1759</ele>
        <time>2010-01-01T00:34:49Z</time>
      </trkpt>
      <trkpt lat="44.70816" lon="6.55301">
        <ele>1760</ele>
        <time>2010-01-01T00:34:50Z</time>
      </trkpt>
      <trkpt lat="44.70811" lon="6.55304">
        <ele>1760</ele>
        <time>2010-01-01T00:34:52Z</time>
      </trkpt>
      <trkpt lat="44.70808" lon="6.55306">
        <ele>1761</ele>
        <time>2010-01-01T00:34:52Z</time>
      </trkpt>
      <trkpt lat="44.70804" lon="6.55309">
        <ele>1762</ele>
        <time>2010-01-01T00:34:54Z</time>
      </trkpt>
      <trkpt lat="44.70798" lon="6.55313">
        <ele>1765</ele>
        <time>2010-01-01T00:34:55Z</time>
      </trkpt>
      <trkpt lat="44.70795" lon="6.55316">
        <ele>1765</ele>
        <time>2010-01-01T00:34:56Z</time>
      </trkpt>
      <trkpt lat="44.7079" lon="6.55321">
        <ele>1767</ele>
        <time>2010-01-01T00:34:58Z</time>
      </trkpt>
      <trkpt lat="44.70786" lon="6.55325">
        <ele>1768</ele>
        <time>2010-01-01T00:34:59Z</time>
      </trkpt>
      <trkpt lat="44.70781" lon="6.55332">
        <ele>1767</ele>
        <time>2010-01-01T00:35:01Z</time>
      </trkpt>
      <trkpt lat="44.70774" lon="6.55341">
        <ele>1769</ele>
        <time>2010-01-01T00:35:04Z</time>
      </trkpt>
      <trkpt lat="44.70771" lon="6.55344">
        <ele>1771</ele>
        <time>2010-01-01T00:35:05Z</time>
      </trkpt>
      <trkpt lat="44.70765" lon="6.5535">
        <ele>1772</ele>
        <time>2010-01-01T00:35:07Z</time>
      </trkpt>
      <trkpt lat="44.70761" lon="6.55355">
        <ele>1773</ele>
        <time>2010-01-01T00:35:08Z</time>
      </trkpt>
      <trkpt lat="44.7076" lon="6.55356">
        <ele>1773</ele>
        <time>2010-01-01T00:35:08Z</time>
      </trkpt>
      <trkpt lat="44.7075" lon="6.55366">
        <ele>1775</ele>
        <time>2010-01-01T00:35:12Z</time>
      </trkpt>
      <trkpt lat="44.70745" lon="6.55371">
        <ele>1777</ele>
        <time>2010-01-01T00:35:13Z</time>
      </trkpt>
      <trkpt lat="44.70743" lon="6.55374">
        <ele>1778</ele>
        <time>2010-01-01T00:35:14Z</time>
      </trkpt>
      <trkpt lat="44.7074" lon="6.55379">
        <ele>1780</ele>
        <time>2010-01-01T00:35:15Z</time>
      </trkpt>
      <trkpt lat="44.70736" lon="6.55386">
        <ele>1781</ele>
        <time>2010-01-01T00:35:17Z</time>
      </trkpt>
      <trkpt lat="44.70733" lon="6.55391">
        <ele>1782</ele>
        <time>2010-01-01T00:35:18Z</time>
      </trkpt>
      <trkpt lat="44.70729" lon="6.55399">
        <ele>1782</ele>
        <time>2010-01-01T00:35:20Z</time>
      </trkpt>
      <trkpt lat="44.70727" lon="6.55404">
        <ele>1783</ele>
        <time>2010-01-01T00:35:21Z</time>
      </trkpt>
      <trkpt lat="44.70722" lon="6.55418">
        <ele>1782</ele>
        <time>2010-01-01T00:35:24Z</time>
      </trkpt>
      <trkpt lat="44.7072" lon="6.55429">
        <ele>1781</ele>
        <time>2010-01-01T00:35:26Z</time>
      </trkpt>
      <trkpt lat="44.70718" lon="6.55441">
        <ele>1780</ele>
        <time>2010-01-01T00:35:29Z</time>
      </trkpt>
      <trkpt lat="44.70716" lon="6.55449">
        <ele>1781</ele>
        <time>2010-01-01T00:35:30Z</time>
      </trkpt>
      <trkpt lat="44.70714" lon="6.5546">
        <ele>1781</ele>
        <time>2010-01-01T00:35:32Z</time>
      </trkpt>
      <trkpt lat="44.70713" lon="6.55462">
        <ele>1781</ele>
        <time>2010-01-01T00:35:33Z</time>
      </trkpt>
      <trkpt lat="44.70711" lon="6.55479">
        <ele>1782</ele>
        <time>2010-01-01T00:35:36Z</time>
      </trkpt>
      <trkpt lat="44.70711" lon="6.55481">
        <ele>1782</ele>
        <time>2010-01-01T00:35:37Z</time>
      </trkpt>
      <trkpt lat="44.7071" lon="6.55496">
        <ele>1783</ele>
        <time>2010-01-01T00:35:39Z</time>
      </trkpt>
      <trkpt lat="44.70711" lon="6.55499">
        <ele>1783</ele>
        <time>2010-01-01T00:35:40Z</time>
      </trkpt>
      <trkpt lat="44.70712" lon="6.55509">
        <ele>1783</ele>
        <time>2010-01-01T00:35:42Z</time>
      </trkpt>
      <trkpt lat="44.70712" lon="6.55511">
        <ele>1783</ele>
        <time>2010-01-01T00:35:42Z</time>
      </trkpt>
      <trkpt lat="44.70715" lon="6.55524">
        <ele>1783</ele>
        <time>2010-01-01T00:35:45Z</time>
      </trkpt>
      <trkpt lat="44.70716" lon="6.55526">
        <ele>1783</ele>
        <time>2010-01-01T00:35:45Z</time>
      </trkpt>
      <trkpt lat="44.7072" lon="6.55535">
        <ele>1781</ele>
        <time>2010-01-01T00:35:47Z</time>
      </trkpt>
      <trkpt lat="44.70722" lon="6.55539">
        <ele>1781</ele>
        <time>2010-01-01T00:35:48Z</time>
      </trkpt>
      <trkpt lat="44.70724" lon="6.55543">
        <ele>1780</ele>
        <time>2010-01-01T00:35:49Z</time>
      </trkpt>
      <trkpt lat="44.70725" lon="6.55546">
        <ele>1780</ele>
        <time>2010-01-01T00:35:50Z</time>
      </trkpt>
      <trkpt lat="44.70728" lon="6.55558">
        <ele>1779</ele>
        <time>2010-01-01T00:35:52Z</time>
      </trkpt>
      <trkpt lat="44.70728" lon="6.55563">
        <ele>1779</ele>
        <time>2010-01-01T00:35:53Z</time>
      </trkpt>
      <trkpt lat="44.70731" lon="6.55577">
        <ele>1778</ele>
        <time>2010-01-01T00:35:56Z</time>
      </trkpt>
      <trkpt lat="44.70732" lon="6.5559">
        <ele>1779</ele>
        <time>2010-01-01T00:35:58Z</time>
      </trkpt>
      <trkpt lat="44.70733" lon="6.55598">
        <ele>1780</ele>
        <time>2010-01-01T00:36:00Z</time>
      </trkpt>
      <trkpt lat="44.70734" lon="6.55603">
        <ele>1781</ele>
        <time>2010-01-01T00:36:01Z</time>
      </trkpt>
      <trkpt lat="44.70735" lon="6.55616">
        <ele>1783</ele>
        <time>2010-01-01T00:36:03Z</time>
      </trkpt>
      <trkpt lat="44.70736" lon="6.55621">
        <ele>1784</ele>
        <time>2010-01-01T00:36:04Z</time>
      </trkpt>
      <trkpt lat="44.70736" lon="6.55633">
        <ele>1788</ele>
        <time>2010-01-01T00:36:07Z</time>
      </trkpt>
      <trkpt lat="44.70736" lon="6.55636">
        <ele>1789</ele>
        <time>2010-01-01T00:36:07Z</time>
      </trkpt>
      <trkpt lat="44.70735" lon="6.55656">
        <ele>1792</ele>
        <time>2010-01-01T00:36:11Z</time>
      </trkpt>
      <trkpt lat="44.70735" lon="6.55659">
        <ele>1793</ele>
        <time>2010-01-01T00:36:12Z</time>
      </trkpt>
      <trkpt lat="44.70734" lon="6.5567">
        <ele>1794</ele>
        <time>2010-01-01T00:36:14Z</time>
      </trkpt>
      <trkpt lat="44.70734" lon="6.55673">
        <ele>1795</ele>
        <time>2010-01-01T00:36:14Z</time>
      </trkpt>
      <trkpt lat="44.70735" lon="6.55683">
        <ele>1795</ele>
        <time>2010-01-01T00:36:16Z</time>
      </trkpt>
      <trkpt lat="44.70736" lon="6.55695">
        <ele>1795</ele>
        <time>2010-01-01T00:36:19Z</time>
      </trkpt>
      <trkpt lat="44.70736" lon="6.55703">
        <ele>1795</ele>
        <time>2010-01-01T00:36:20Z</time>
      </trkpt>
      <trkpt lat="44.70734" lon="6.55712">
        <ele>1796</ele>
        <time>2010-01-01T00:36:22Z</time>
      </trkpt>
      <trkpt lat="44.7073" lon="6.55723">
        <ele>1797</ele>
        <time>2010-01-01T00:36:24Z</time>
      </trkpt>
      <trkpt lat="44.70729" lon="6.55726">
        <ele>1798</ele>
        <time>2010-01-01T00:36:25Z</time>
      </trkpt>
      <trkpt lat="44.70727" lon="6.55736">
        <ele>1799</ele>
        <time>2010-01-01T00:36:27Z</time>
      </trkpt>
      <trkpt lat="44.70725" lon="6.55742">
        <ele>1800</ele>
        <time>2010-01-01T00:36:28Z</time>
      </trkpt>
      <trkpt lat="44.70722" lon="6.55751">
        <ele>1801</ele>
        <time>2010-01-01T00:36:30Z</time>
      </trkpt>
      <trkpt lat="44.70721" lon="6.55756">
        <ele>1802</ele>
        <time>2010-01-01T00:36:31Z</time>
      </trkpt>
      <trkpt lat="44.70717" lon="6.5577">
        <ele>1804</ele>
        <time>2010-01-01T00:36:34Z</time>
      </trkpt>
      <trkpt lat="44.70714" lon="6.55771">
        <ele>1805</ele>
        <time>2010-01-01T00:36:34Z</time>
      </trkpt>
      <trkpt lat="44.7071" lon="6.55769">
        <ele>1808</ele>
        <time>2010-01-01T00:36:36Z</time>
      </trkpt>
      <trkpt lat="44.7071" lon="6.55763">
        <ele>1808</ele>
        <time>2010-01-01T00:36:37Z</time>
      </trkpt>
      <trkpt lat="44.70711" lon="6.55756">
        <ele>1808</ele>
        <time>2010-01-01T00:36:38Z</time>
      </trkpt>
      <trkpt lat="44.70716" lon="6.55742">
        <ele>1806</ele>
        <time>2010-01-01T00:36:41Z</time>
      </trkpt>
      <trkpt lat="44.70716" lon="6.5574">
        <ele>1805</ele>
        <time>2010-01-01T00:36:41Z</time>
      </trkpt>
      <trkpt lat="44.70718" lon="6.55731">
        <ele>1805</ele>
        <time>2010-01-01T00:36:43Z</time>
      </trkpt>
      <trkpt lat="44.70719" lon="6.55723">
        <ele>1806</ele>
        <time>2010-01-01T00:36:45Z</time>
      </trkpt>
      <trkpt lat="44.7072" lon="6.55715">
        <ele>1805</ele>
        <time>2010-01-01T00:36:46Z</time>
      </trkpt>
      <trkpt lat="44.70721" lon="6.55705">
        <ele>1806</ele>
        <time>2010-01-01T00:36:48Z</time>
      </trkpt>
      <trkpt lat="44.7072" lon="6.55697">
        <ele>1807</ele>
        <time>2010-01-01T00:36:50Z</time>
      </trkpt>
      <trkpt lat="44.70718" lon="6.55689">
        <ele>1807</ele>
        <time>2010-01-01T00:36:51Z</time>
      </trkpt>
      <trkpt lat="44.70714" lon="6.5567">
        <ele>1808</ele>
        <time>2010-01-01T00:36:55Z</time>
      </trkpt>
      <trkpt lat="44.70714" lon="6.55667">
        <ele>1807</ele>
        <time>2010-01-01T00:36:56Z</time>
      </trkpt>
      <trkpt lat="44.70712" lon="6.55657">
        <ele>1807</ele>
        <time>2010-01-01T00:36:57Z</time>
      </trkpt>
      <trkpt lat="44.70711" lon="6.55651">
        <ele>1807</ele>
        <time>2010-01-01T00:36:59Z</time>
      </trkpt>
      <trkpt lat="44.70708" lon="6.55641">
        <ele>1808</ele>
        <time>2010-01-01T00:37:01Z</time>
      </trkpt>
      <trkpt lat="44.70705" lon="6.55638">
        <ele>1809</ele>
        <time>2010-01-01T00:37:02Z</time>
      </trkpt>
      <trkpt lat="44.70701" lon="6.5563">
        <ele>1811</ele>
        <time>2010-01-01T00:37:04Z</time>
      </trkpt>
      <trkpt lat="44.70699" lon="6.55626">
        <ele>1812</ele>
        <time>2010-01-01T00:37:04Z</time>
      </trkpt>
      <trkpt lat="44.70693" lon="6.55617">
        <ele>1814</ele>
        <time>2010-01-01T00:37:07Z</time>
      </trkpt>
      <trkpt lat="44.70692" lon="6.55616">
        <ele>1815</ele>
        <time>2010-01-01T00:37:07Z</time>
      </trkpt>
      <trkpt lat="44.70688" lon="6.55607">
        <ele>1816</ele>
        <time>2010-01-01T00:37:09Z</time>
      </trkpt>
      <trkpt lat="44.70687" lon="6.55602">
        <ele>1816</ele>
        <time>2010-01-01T00:37:10Z</time>
      </trkpt>
      <trkpt lat="44.70684" lon="6.55593">
        <ele>1816</ele>
        <time>2010-01-01T00:37:12Z</time>
      </trkpt>
      <trkpt lat="44.70683" lon="6.55589">
        <ele>1816</ele>
        <time>2010-01-01T00:37:13Z</time>
      </trkpt>
      <trkpt lat="44.7068" lon="6.55584">
        <ele>1817</ele>
        <time>2010-01-01T00:37:14Z</time>
      </trkpt>
      <trkpt lat="44.70676" lon="6.55576">
        <ele>1818</ele>
        <time>2010-01-01T00:37:16Z</time>
      </trkpt>
      <trkpt lat="44.70672" lon="6.55565">
        <ele>1819</ele>
        <time>2010-01-01T00:37:18Z</time>
      </trkpt>
      <trkpt lat="44.7067" lon="6.55561">
        <ele>1819</ele>
        <time>2010-01-01T00:37:19Z</time>
      </trkpt>
      <trkpt lat="44.7067" lon="6.55558">
        <ele>1819</ele>
        <time>2010-01-01T00:37:20Z</time>
      </trkpt>
      <trkpt lat="44.7067" lon="6.5555">
        <ele>1818</ele>
        <time>2010-01-01T00:37:21Z</time>
      </trkpt>
      <trkpt lat="44.7067" lon="6.55547">
        <ele>1817</ele>
        <time>2010-01-01T00:37:22Z</time>
      </trkpt>
      <trkpt lat="44.7067" lon="6.5553">
        <ele>1816</ele>
        <time>2010-01-01T00:37:25Z</time>
      </trkpt>
      <trkpt lat="44.7067" lon="6.55527">
        <ele>1816</ele>
        <time>2010-01-01T00:37:26Z</time>
      </trkpt>
      <trkpt lat="44.70668" lon="6.55511">
        <ele>1816</ele>
        <time>2010-01-01T00:37:29Z</time>
      </trkpt>
      <trkpt lat="44.70667" lon="6.55502">
        <ele>1816</ele>
        <time>2010-01-01T00:37:30Z</time>
      </trkpt>
      <trkpt lat="44.70666" lon="6.5549">
        <ele>1817</ele>
        <time>2010-01-01T00:37:33Z</time>
      </trkpt>
      <trkpt lat="44.70666" lon="6.55469">
        <ele>1816</ele>
        <time>2010-01-01T00:37:37Z</time>
      </trkpt>
      <trkpt lat="44.70668" lon="6.55449">
        <ele>1816</ele>
        <time>2010-01-01T00:37:41Z</time>
      </trkpt>
      <trkpt lat="44.70668" lon="6.55433">
        <ele>1818</ele>
        <time>2010-01-01T00:37:44Z</time>
      </trkpt>
      <trkpt lat="44.70667" lon="6.55427">
        <ele>1818</ele>
        <time>2010-01-01T00:37:45Z</time>
      </trkpt>
      <trkpt lat="44.70665" lon="6.55408">
        <ele>1822</ele>
        <time>2010-01-01T00:37:48Z</time>
      </trkpt>
      <trkpt lat="44.70665" lon="6.55391">
        <ele>1824</ele>
        <time>2010-01-01T00:37:52Z</time>
      </trkpt>
      <trkpt lat="44.70665" lon="6.55382">
        <ele>1825</ele>
        <time>2010-01-01T00:37:53Z</time>
      </trkpt>
      <trkpt lat="44.70666" lon="6.55376">
        <ele>1825</ele>
        <time>2010-01-01T00:37:54Z</time>
      </trkpt>
      <trkpt lat="44.70667" lon="6.55374">
        <ele>1824</ele>
        <time>2010-01-01T00:37:55Z</time>
      </trkpt>
      <trkpt lat="44.70671" lon="6.55357">
        <ele>1824</ele>
        <time>2010-01-01T00:37:58Z</time>
      </trkpt>
      <trkpt lat="44.70675" lon="6.55343">
        <ele>1825</ele>
        <time>2010-01-01T00:38:01Z</time>
      </trkpt>
      <trkpt lat="44.70678" lon="6.55333">
        <ele>1826</ele>
        <time>2010-01-01T00:38:03Z</time>
      </trkpt>
      <trkpt lat="44.70687" lon="6.55312">
        <ele>1829</ele>
        <time>2010-01-01T00:38:08Z</time>
      </trkpt>
      <trkpt lat="44.70697" lon="6.55294">
        <ele>1830</ele>
        <time>2010-01-01T00:38:12Z</time>
      </trkpt>
      <trkpt lat="44.70713" lon="6.55277">
        <ele>1828</ele>
        <time>2010-01-01T00:38:18Z</time>
      </trkpt>
      <trkpt lat="44.70724" lon="6.55267">
        <ele>1826</ele>
        <time>2010-01-01T00:38:21Z</time>
      </trkpt>
      <trkpt lat="44.7073" lon="6.55257">
        <ele>1827</ele>
        <time>2010-01-01T00:38:24Z</time>
      </trkpt>
      <trkpt lat="44.70734" lon="6.55249">
        <ele>1828</ele>
        <time>2010-01-01T00:38:25Z</time>
      </trkpt>
      <trkpt lat="44.70736" lon="6.55243">
        <ele>1830</ele>
        <time>2010-01-01T00:38:27Z</time>
      </trkpt>
      <trkpt lat="44.70741" lon="6.55229">
        <ele>1832</ele>
        <time>2010-01-01T00:38:30Z</time>
      </trkpt>
      <trkpt lat="44.70742" lon="6.55226">
        <ele>1833</ele>
        <time>2010-01-01T00:38:30Z</time>
      </trkpt>
      <trkpt lat="44.70747" lon="6.5521">
        <ele>1834</ele>
        <time>2010-01-01T00:38:34Z</time>
      </trkpt>
      <trkpt lat="44.70748" lon="6.55208">
        <ele>1834</ele>
        <time>2010-01-01T00:38:34Z</time>
      </trkpt>
      <trkpt lat="44.70754" lon="6.55194">
        <ele>1834</ele>
        <time>2010-01-01T00:38:37Z</time>
      </trkpt>
      <trkpt lat="44.70758" lon="6.55181">
        <ele>1834</ele>
        <time>2010-01-01T00:38:40Z</time>
      </trkpt>
      <trkpt lat="44.70762" lon="6.55173">
        <ele>1834</ele>
        <time>2010-01-01T00:38:42Z</time>
      </trkpt>
      <trkpt lat="44.70763" lon="6.5517">
        <ele>1835</ele>
        <time>2010-01-01T00:38:42Z</time>
      </trkpt>
      <trkpt lat="44.70764" lon="6.55167">
        <ele>1835</ele>
        <time>2010-01-01T00:38:43Z</time>
      </trkpt>
      <trkpt lat="44.70768" lon="6.55155">
        <ele>1837</ele>
        <time>2010-01-01T00:38:45Z</time>
      </trkpt>
      <trkpt lat="44.70771" lon="6.55149">
        <ele>1837</ele>
        <time>2010-01-01T00:38:47Z</time>
      </trkpt>
      <trkpt lat="44.70775" lon="6.55142">
        <ele>1838</ele>
        <time>2010-01-01T00:38:49Z</time>
      </trkpt>
      <trkpt lat="44.70779" lon="6.55136">
        <ele>1838</ele>
        <time>2010-01-01T00:38:50Z</time>
      </trkpt>
      <trkpt lat="44.70784" lon="6.55126">
        <ele>1837</ele>
        <time>2010-01-01T00:38:53Z</time>
      </trkpt>
      <trkpt lat="44.70787" lon="6.5512">
        <ele>1838</ele>
        <time>2010-01-01T00:38:54Z</time>
      </trkpt>
      <trkpt lat="44.7079" lon="6.55111">
        <ele>1839</ele>
        <time>2010-01-01T00:38:56Z</time>
      </trkpt>
      <trkpt lat="44.70791" lon="6.55107">
        <ele>1839</ele>
        <time>2010-01-01T00:38:57Z</time>
      </trkpt>
      <trkpt lat="44.70794" lon="6.551">
        <ele>1840</ele>
        <time>2010-01-01T00:38:58Z</time>
      </trkpt>
      <trkpt lat="44.70797" lon="6.5509">
        <ele>1840</ele>
        <time>2010-01-01T00:39:00Z</time>
      </trkpt>
      <trkpt lat="44.70799" lon="6.55086">
        <ele>1840</ele>
        <time>2010-01-01T00:39:01Z</time>
      </trkpt>
      <trkpt lat="44.70802" lon="6.55078">
        <ele>1841</ele>
        <time>2010-01-01T00:39:03Z</time>
      </trkpt>
      <trkpt lat="44.70803" lon="6.55075">
        <ele>1841</ele>
        <time>2010-01-01T00:39:03Z</time>
      </trkpt>
      <trkpt lat="44.70804" lon="6.55072">
        <ele>1842</ele>
        <time>2010-01-01T00:39:04Z</time>
      </trkpt>
      <trkpt lat="44.70805" lon="6.5507">
        <ele>1842</ele>
        <time>2010-01-01T00:39:05Z</time>
      </trkpt>
      <trkpt lat="44.70808" lon="6.55062">
        <ele>1842</ele>
        <time>2010-01-01T00:39:06Z</time>
      </trkpt>
      <trkpt lat="44.7081" lon="6.55055">
        <ele>1843</ele>
        <time>2010-01-01T00:39:08Z</time>
      </trkpt>
      <trkpt lat="44.70811" lon="6.55053">
        <ele>1843</ele>
        <time>2010-01-01T00:39:08Z</time>
      </trkpt>
      <trkpt lat="44.70813" lon="6.55048">
        <ele>1845</ele>
        <time>2010-01-01T00:39:09Z</time>
      </trkpt>
      <trkpt lat="44.70813" lon="6.55046">
        <ele>1845</ele>
        <time>2010-01-01T00:39:10Z</time>
      </trkpt>
      <trkpt lat="44.70813" lon="6.55045">
        <ele>1845</ele>
        <time>2010-01-01T00:39:10Z</time>
      </trkpt>
      <trkpt lat="44.70812" lon="6.55041">
        <ele>1848</ele>
        <time>2010-01-01T00:39:11Z</time>
      </trkpt>
      <trkpt lat="44.70812" lon="6.55037">
        <ele>1850</ele>
        <time>2010-01-01T00:39:11Z</time>
      </trkpt>
      <trkpt lat="44.70813" lon="6.55034">
        <ele>1851</ele>
        <time>2010-01-01T00:39:12Z</time>
      </trkpt>
      <trkpt lat="44.70815" lon="6.55025">
        <ele>1853</ele>
        <time>2010-01-01T00:39:14Z</time>
      </trkpt>
      <trkpt lat="44.70818" lon="6.55017">
        <ele>1854</ele>
        <time>2010-01-01T00:39:15Z</time>
      </trkpt>
      <trkpt lat="44.70821" lon="6.55008">
        <ele>1855</ele>
        <time>2010-01-01T00:39:17Z</time>
      </trkpt>
      <trkpt lat="44.70824" lon="6.55001">
        <ele>1855</ele>
        <time>2010-01-01T00:39:19Z</time>
      </trkpt>
      <trkpt lat="44.70825" lon="6.54996">
        <ele>1855</ele>
        <time>2010-01-01T00:39:20Z</time>
      </trkpt>
      <trkpt lat="44.70829" lon="6.54988">
        <ele>1855</ele>
        <time>2010-01-01T00:39:22Z</time>
      </trkpt>
      <trkpt lat="44.70832" lon="6.5498">
        <ele>1856</ele>
        <time>2010-01-01T00:39:23Z</time>
      </trkpt>
      <trkpt lat="44.70835" lon="6.54973">
        <ele>1856</ele>
        <time>2010-01-01T00:39:25Z</time>
      </trkpt>
      <trkpt lat="44.70836" lon="6.5497">
        <ele>1856</ele>
        <time>2010-01-01T00:39:26Z</time>
      </trkpt>
      <trkpt lat="44.70836" lon="6.54968">
        <ele>1857</ele>
        <time>2010-01-01T00:39:26Z</time>
      </trkpt>
      <trkpt lat="44.70837" lon="6.54964">
        <ele>1858</ele>
        <time>2010-01-01T00:39:27Z</time>
      </trkpt>
      <trkpt lat="44.70838" lon="6.54959">
        <ele>1859</ele>
        <time>2010-01-01T00:39:28Z</time>
      </trkpt>
      <trkpt lat="44.7084" lon="6.54951">
        <ele>1860</ele>
        <time>2010-01-01T00:39:29Z</time>
      </trkpt>
      <trkpt lat="44.70841" lon="6.54947">
        <ele>1860</ele>
        <time>2010-01-01T00:39:30Z</time>
      </trkpt>
      <trkpt lat="44.70843" lon="6.54938">
        <ele>1861</ele>
        <time>2010-01-01T00:39:32Z</time>
      </trkpt>
      <trkpt lat="44.70845" lon="6.54931">
        <ele>1861</ele>
        <time>2010-01-01T00:39:33Z</time>
      </trkpt>
      <trkpt lat="44.70847" lon="6.54923">
        <ele>1862</ele>
        <time>2010-01-01T00:39:35Z</time>
      </trkpt>
      <trkpt lat="44.70849" lon="6.5491">
        <ele>1864</ele>
        <time>2010-01-01T00:39:37Z</time>
      </trkpt>
      <trkpt lat="44.70851" lon="6.54895">
        <ele>1867</ele>
        <time>2010-01-01T00:39:40Z</time>
      </trkpt>
      <trkpt lat="44.70851" lon="6.54889">
        <ele>1870</ele>
        <time>2010-01-01T00:39:41Z</time>
      </trkpt>
      <trkpt lat="44.70853" lon="6.54876">
        <ele>1869</ele>
        <time>2010-01-01T00:39:44Z</time>
      </trkpt>
      <trkpt lat="44.70853" lon="6.54869">
        <ele>1869</ele>
        <time>2010-01-01T00:39:45Z</time>
      </trkpt>
      <trkpt lat="44.70854" lon="6.54862">
        <ele>1868</ele>
        <time>2010-01-01T00:39:47Z</time>
      </trkpt>
      <trkpt lat="44.70855" lon="6.54854">
        <ele>1868</ele>
        <time>2010-01-01T00:39:48Z</time>
      </trkpt>
      <trkpt lat="44.70856" lon="6.54849">
        <ele>1867</ele>
        <time>2010-01-01T00:39:49Z</time>
      </trkpt>
      <trkpt lat="44.70858" lon="6.54835">
        <ele>1866</ele>
        <time>2010-01-01T00:39:52Z</time>
      </trkpt>
      <trkpt lat="44.7086" lon="6.5483">
        <ele>1865</ele>
        <time>2010-01-01T00:39:53Z</time>
      </trkpt>
      <trkpt lat="44.70861" lon="6.54816">
        <ele>1865</ele>
        <time>2010-01-01T00:39:56Z</time>
      </trkpt>
      <trkpt lat="44.70862" lon="6.54814">
        <ele>1865</ele>
        <time>2010-01-01T00:39:56Z</time>
      </trkpt>
      <trkpt lat="44.70865" lon="6.54797">
        <ele>1868</ele>
        <time>2010-01-01T00:39:59Z</time>
      </trkpt>
      <trkpt lat="44.70866" lon="6.54795">
        <ele>1868</ele>
        <time>2010-01-01T00:40:00Z</time>
      </trkpt>
      <trkpt lat="44.70865" lon="6.54776">
        <ele>1872</ele>
        <time>2010-01-01T00:40:03Z</time>
      </trkpt>
      <trkpt lat="44.70867" lon="6.54772">
        <ele>1872</ele>
        <time>2010-01-01T00:40:04Z</time>
      </trkpt>
      <trkpt lat="44.70867" lon="6.54765">
        <ele>1873</ele>
        <time>2010-01-01T00:40:06Z</time>
      </trkpt>
      <trkpt lat="44.70868" lon="6.54759">
        <ele>1874</ele>
        <time>2010-01-01T00:40:07Z</time>
      </trkpt>
      <trkpt lat="44.70869" lon="6.54746">
        <ele>1875</ele>
        <time>2010-01-01T00:40:09Z</time>
      </trkpt>
      <trkpt lat="44.7087" lon="6.54741">
        <ele>1876</ele>
        <time>2010-01-01T00:40:10Z</time>
      </trkpt>
      <trkpt lat="44.7087" lon="6.54728">
        <ele>1877</ele>
        <time>2010-01-01T00:40:13Z</time>
      </trkpt>
      <trkpt lat="44.70871" lon="6.54726">
        <ele>1877</ele>
        <time>2010-01-01T00:40:13Z</time>
      </trkpt>
      <trkpt lat="44.70872" lon="6.54721">
        <ele>1878</ele>
        <time>2010-01-01T00:40:14Z</time>
      </trkpt>
      <trkpt lat="44.70873" lon="6.54717">
        <ele>1879</ele>
        <time>2010-01-01T00:40:15Z</time>
      </trkpt>
      <trkpt lat="44.70872" lon="6.54712">
        <ele>1879</ele>
        <time>2010-01-01T00:40:16Z</time>
      </trkpt>
      <trkpt lat="44.70869" lon="6.5471">
        <ele>1879</ele>
        <time>2010-01-01T00:40:17Z</time>
      </trkpt>
      <trkpt lat="44.70865" lon="6.54713">
        <ele>1878</ele>
        <time>2010-01-01T00:40:18Z</time>
      </trkpt>
      <trkpt lat="44.70863" lon="6.54717">
        <ele>1878</ele>
        <time>2010-01-01T00:40:19Z</time>
      </trkpt>
      <trkpt lat="44.7086" lon="6.54722">
        <ele>1877</ele>
        <time>2010-01-01T00:40:20Z</time>
      </trkpt>
      <trkpt lat="44.70857" lon="6.54727">
        <ele>1877</ele>
        <time>2010-01-01T00:40:21Z</time>
      </trkpt>
      <trkpt lat="44.7085" lon="6.54744">
        <ele>1877</ele>
        <time>2010-01-01T00:40:25Z</time>
      </trkpt>
      <trkpt lat="44.70849" lon="6.54746">
        <ele>1877</ele>
        <time>2010-01-01T00:40:26Z</time>
      </trkpt>
      <trkpt lat="44.70848" lon="6.54757">
        <ele>1877</ele>
        <time>2010-01-01T00:40:28Z</time>
      </trkpt>
      <trkpt lat="44.70846" lon="6.54765">
        <ele>1877</ele>
        <time>2010-01-01T00:40:29Z</time>
      </trkpt>
      <trkpt lat="44.70844" lon="6.54768">
        <ele>1877</ele>
        <time>2010-01-01T00:40:30Z</time>
      </trkpt>
      <trkpt lat="44.70843" lon="6.54768">
        <ele>1877</ele>
        <time>2010-01-01T00:40:30Z</time>
      </trkpt>
      <trkpt lat="44.70841" lon="6.54767">
        <ele>1878</ele>
        <time>2010-01-01T00:40:31Z</time>
      </trkpt>
      <trkpt lat="44.7084" lon="6.5476">
        <ele>1879</ele>
        <time>2010-01-01T00:40:32Z</time>
      </trkpt>
      <trkpt lat="44.70839" lon="6.54758">
        <ele>1879</ele>
        <time>2010-01-01T00:40:33Z</time>
      </trkpt>
      <trkpt lat="44.70839" lon="6.54756">
        <ele>1879</ele>
        <time>2010-01-01T00:40:33Z</time>
      </trkpt>
      <trkpt lat="44.70839" lon="6.54745">
        <ele>1880</ele>
        <time>2010-01-01T00:40:35Z</time>
      </trkpt>
      <trkpt lat="44.7084" lon="6.54734">
        <ele>1880</ele>
        <time>2010-01-01T00:40:37Z</time>
      </trkpt>
      <trkpt lat="44.70841" lon="6.54732">
        <ele>1880</ele>
        <time>2010-01-01T00:40:38Z</time>
      </trkpt>
      <trkpt lat="44.70842" lon="6.5472">
        <ele>1881</ele>
        <time>2010-01-01T00:40:40Z</time>
      </trkpt>
      <trkpt lat="44.70843" lon="6.54716">
        <ele>1882</ele>
        <time>2010-01-01T00:40:41Z</time>
      </trkpt>
      <trkpt lat="44.70845" lon="6.54705">
        <ele>1884</ele>
        <time>2010-01-01T00:40:43Z</time>
      </trkpt>
      <trkpt lat="44.70845" lon="6.54703">
        <ele>1884</ele>
        <time>2010-01-01T00:40:43Z</time>
      </trkpt>
      <trkpt lat="44.70846" lon="6.54697">
        <ele>1885</ele>
        <time>2010-01-01T00:40:44Z</time>
      </trkpt>
      <trkpt lat="44.70848" lon="6.54686">
        <ele>1887</ele>
        <time>2010-01-01T00:40:47Z</time>
      </trkpt>
      <trkpt lat="44.70848" lon="6.54684">
        <ele>1887</ele>
        <time>2010-01-01T00:40:47Z</time>
      </trkpt>
      <trkpt lat="44.70851" lon="6.54673">
        <ele>1889</ele>
        <time>2010-01-01T00:40:49Z</time>
      </trkpt>
      <trkpt lat="44.70855" lon="6.54663">
        <ele>1890</ele>
        <time>2010-01-01T00:40:51Z</time>
      </trkpt>
      <trkpt lat="44.70857" lon="6.54656">
        <ele>1891</ele>
        <time>2010-01-01T00:40:53Z</time>
      </trkpt>
      <trkpt lat="44.70858" lon="6.54652">
        <ele>1892</ele>
        <time>2010-01-01T00:40:54Z</time>
      </trkpt>
      <trkpt lat="44.7086" lon="6.54642">
        <ele>1893</ele>
        <time>2010-01-01T00:40:56Z</time>
      </trkpt>
      <trkpt lat="44.70861" lon="6.54636">
        <ele>1894</ele>
        <time>2010-01-01T00:40:57Z</time>
      </trkpt>
      <trkpt lat="44.70863" lon="6.54632">
        <ele>1894</ele>
        <time>2010-01-01T00:40:58Z</time>
      </trkpt>
      <trkpt lat="44.70863" lon="6.5463">
        <ele>1894</ele>
        <time>2010-01-01T00:40:58Z</time>
      </trkpt>
      <trkpt lat="44.70865" lon="6.54624">
        <ele>1895</ele>
        <time>2010-01-01T00:40:59Z</time>
      </trkpt>
      <trkpt lat="44.70866" lon="6.54617">
        <ele>1895</ele>
        <time>2010-01-01T00:41:01Z</time>
      </trkpt>
      <trkpt lat="44.70867" lon="6.54611">
        <ele>1895</ele>
        <time>2010-01-01T00:41:02Z</time>
      </trkpt>
      <trkpt lat="44.70868" lon="6.54603">
        <ele>1897</ele>
        <time>2010-01-01T00:41:03Z</time>
      </trkpt>
      <trkpt lat="44.70868" lon="6.54601">
        <ele>1897</ele>
        <time>2010-01-01T00:41:04Z</time>
      </trkpt>
      <trkpt lat="44.70869" lon="6.54591">
        <ele>1899</ele>
        <time>2010-01-01T00:41:06Z</time>
      </trkpt>
      <trkpt lat="44.70872" lon="6.54586">
        <ele>1899</ele>
        <time>2010-01-01T00:41:07Z</time>
      </trkpt>
      <trkpt lat="44.70874" lon="6.54579">
        <ele>1899</ele>
        <time>2010-01-01T00:41:08Z</time>
      </trkpt>
      <trkpt lat="44.70876" lon="6.54572">
        <ele>1900</ele>
        <time>2010-01-01T00:41:10Z</time>
      </trkpt>
      <trkpt lat="44.70877" lon="6.54565">
        <ele>1901</ele>
        <time>2010-01-01T00:41:11Z</time>
      </trkpt>
      <trkpt lat="44.70877" lon="6.54556">
        <ele>1902</ele>
        <time>2010-01-01T00:41:13Z</time>
      </trkpt>
      <trkpt lat="44.70876" lon="6.54554">
        <ele>1903</ele>
        <time>2010-01-01T00:41:13Z</time>
      </trkpt>
      <trkpt lat="44.70874" lon="6.54554">
        <ele>1904</ele>
        <time>2010-01-01T00:41:14Z</time>
      </trkpt>
      <trkpt lat="44.70872" lon="6.54557">
        <ele>1903</ele>
        <time>2010-01-01T00:41:14Z</time>
      </trkpt>
      <trkpt lat="44.70872" lon="6.54562">
        <ele>1903</ele>
        <time>2010-01-01T00:41:15Z</time>
      </trkpt>
      <trkpt lat="44.7087" lon="6.54569">
        <ele>1902</ele>
        <time>2010-01-01T00:41:17Z</time>
      </trkpt>
      <trkpt lat="44.70867" lon="6.54575">
        <ele>1902</ele>
        <time>2010-01-01T00:41:18Z</time>
      </trkpt>
      <trkpt lat="44.70866" lon="6.54577">
        <ele>1902</ele>
        <time>2010-01-01T00:41:19Z</time>
      </trkpt>
      <trkpt lat="44.70866" lon="6.54579">
        <ele>1902</ele>
        <time>2010-01-01T00:41:19Z</time>
      </trkpt>
      <trkpt lat="44.70864" lon="6.54584">
        <ele>1901</ele>
        <time>2010-01-01T00:41:20Z</time>
      </trkpt>
      <trkpt lat="44.70863" lon="6.54587">
        <ele>1901</ele>
        <time>2010-01-01T00:41:21Z</time>
      </trkpt>
      <trkpt lat="44.70861" lon="6.5459">
        <ele>1901</ele>
        <time>2010-01-01T00:41:21Z</time>
      </trkpt>
      <trkpt lat="44.70859" lon="6.54592">
        <ele>1902</ele>
        <time>2010-01-01T00:41:22Z</time>
      </trkpt>
      <trkpt lat="44.70852" lon="6.54597">
        <ele>1905</ele>
        <time>2010-01-01T00:41:24Z</time>
      </trkpt>
      <trkpt lat="44.70844" lon="6.54606">
        <ele>1907</ele>
        <time>2010-01-01T00:41:27Z</time>
      </trkpt>
      <trkpt lat="44.7084" lon="6.5461">
        <ele>1907</ele>
        <time>2010-01-01T00:41:28Z</time>
      </trkpt>
      <trkpt lat="44.70835" lon="6.54619">
        <ele>1908</ele>
        <time>2010-01-01T00:41:30Z</time>
      </trkpt>
      <trkpt lat="44.70834" lon="6.5462">
        <ele>1908</ele>
        <time>2010-01-01T00:41:31Z</time>
      </trkpt>
      <trkpt lat="44.70829" lon="6.54631">
        <ele>1910</ele>
        <time>2010-01-01T00:41:33Z</time>
      </trkpt>
      <trkpt lat="44.70826" lon="6.5464">
        <ele>1911</ele>
        <time>2010-01-01T00:41:35Z</time>
      </trkpt>
      <trkpt lat="44.70824" lon="6.54646">
        <ele>1911</ele>
        <time>2010-01-01T00:41:36Z</time>
      </trkpt>
      <trkpt lat="44.70819" lon="6.5465">
        <ele>1915</ele>
        <time>2010-01-01T00:41:38Z</time>
      </trkpt>
      <trkpt lat="44.70817" lon="6.54649">
        <ele>1916</ele>
        <time>2010-01-01T00:41:38Z</time>
      </trkpt>
      <trkpt lat="44.70815" lon="6.54644">
        <ele>1920</ele>
        <time>2010-01-01T00:41:39Z</time>
      </trkpt>
      <trkpt lat="44.70816" lon="6.5464">
        <ele>1920</ele>
        <time>2010-01-01T00:41:40Z</time>
      </trkpt>
      <trkpt lat="44.70817" lon="6.54639">
        <ele>1920</ele>
        <time>2010-01-01T00:41:40Z</time>
      </trkpt>
      <trkpt lat="44.70819" lon="6.54631">
        <ele>1920</ele>
        <time>2010-01-01T00:41:42Z</time>
      </trkpt>
      <trkpt lat="44.70819" lon="6.54629">
        <ele>1920</ele>
        <time>2010-01-01T00:41:42Z</time>
      </trkpt>
      <trkpt lat="44.70821" lon="6.54623">
        <ele>1919</ele>
        <time>2010-01-01T00:41:44Z</time>
      </trkpt>
      <trkpt lat="44.70823" lon="6.54618">
        <ele>1919</ele>
        <time>2010-01-01T00:41:45Z</time>
      </trkpt>
      <trkpt lat="44.70823" lon="6.54615">
        <ele>1919</ele>
        <time>2010-01-01T00:41:45Z</time>
      </trkpt>
      <trkpt lat="44.70823" lon="6.54606">
        <ele>1921</ele>
        <time>2010-01-01T00:41:47Z</time>
      </trkpt>
      <trkpt lat="44.70824" lon="6.54604">
        <ele>1921</ele>
        <time>2010-01-01T00:41:47Z</time>
      </trkpt>
      <trkpt lat="44.70825" lon="6.54596">
        <ele>1922</ele>
        <time>2010-01-01T00:41:49Z</time>
      </trkpt>
      <trkpt lat="44.70825" lon="6.54586">
        <ele>1924</ele>
        <time>2010-01-01T00:41:51Z</time>
      </trkpt>
      <trkpt lat="44.70826" lon="6.54584">
        <ele>1924</ele>
        <time>2010-01-01T00:41:51Z</time>
      </trkpt>
      <trkpt lat="44.70828" lon="6.54575">
        <ele>1925</ele>
        <time>2010-01-01T00:41:53Z</time>
      </trkpt>
      <trkpt lat="44.70829" lon="6.54571">
        <ele>1925</ele>
        <time>2010-01-01T00:41:54Z</time>
      </trkpt>
      <trkpt lat="44.70831" lon="6.54562">
        <ele>1926</ele>
        <time>2010-01-01T00:41:56Z</time>
      </trkpt>
      <trkpt lat="44.70833" lon="6.54558">
        <ele>1926</ele>
        <time>2010-01-01T00:41:56Z</time>
      </trkpt>
      <trkpt lat="44.70835" lon="6.5455">
        <ele>1927</ele>
        <time>2010-01-01T00:41:58Z</time>
      </trkpt>
      <trkpt lat="44.70837" lon="6.5454">
        <ele>1928</ele>
        <time>2010-01-01T00:42:00Z</time>
      </trkpt>
      <trkpt lat="44.70837" lon="6.54538">
        <ele>1929</ele>
        <time>2010-01-01T00:42:00Z</time>
      </trkpt>
      <trkpt lat="44.7084" lon="6.54526">
        <ele>1930</ele>
        <time>2010-01-01T00:42:03Z</time>
      </trkpt>
      <trkpt lat="44.7084" lon="6.54524">
        <ele>1931</ele>
        <time>2010-01-01T00:42:03Z</time>
      </trkpt>
      <trkpt lat="44.70841" lon="6.54517">
        <ele>1933</ele>
        <time>2010-01-01T00:42:05Z</time>
      </trkpt>
      <trkpt lat="44.70842" lon="6.54511">
        <ele>1935</ele>
        <time>2010-01-01T00:42:06Z</time>
      </trkpt>
      <trkpt lat="44.70843" lon="6.54504">
        <ele>1937</ele>
        <time>2010-01-01T00:42:07Z</time>
      </trkpt>
      <trkpt lat="44.70843" lon="6.54498">
        <ele>1939</ele>
        <time>2010-01-01T00:42:08Z</time>
      </trkpt>
      <trkpt lat="44.70845" lon="6.54491">
        <ele>1940</ele>
        <time>2010-01-01T00:42:10Z</time>
      </trkpt>
      <trkpt lat="44.70845" lon="6.54487">
        <ele>1941</ele>
        <time>2010-01-01T00:42:10Z</time>
      </trkpt>
      <trkpt lat="44.70848" lon="6.5448">
        <ele>1941</ele>
        <time>2010-01-01T00:42:12Z</time>
      </trkpt>
      <trkpt lat="44.7085" lon="6.54472">
        <ele>1940</ele>
        <time>2010-01-01T00:42:13Z</time>
      </trkpt>
      <trkpt lat="44.7085" lon="6.54468">
        <ele>1941</ele>
        <time>2010-01-01T00:42:14Z</time>
      </trkpt>
      <trkpt lat="44.70853" lon="6.54464">
        <ele>1941</ele>
        <time>2010-01-01T00:42:15Z</time>
      </trkpt>
      <trkpt lat="44.70854" lon="6.54459">
        <ele>1941</ele>
        <time>2010-01-01T00:42:16Z</time>
      </trkpt>
      <trkpt lat="44.70855" lon="6.54455">
        <ele>1942</ele>
        <time>2010-01-01T00:42:17Z</time>
      </trkpt>
      <trkpt lat="44.70856" lon="6.54452">
        <ele>1943</ele>
        <time>2010-01-01T00:42:18Z</time>
      </trkpt>
      <trkpt lat="44.70857" lon="6.54446">
        <ele>1944</ele>
        <time>2010-01-01T00:42:19Z</time>
      </trkpt>
      <trkpt lat="44.70858" lon="6.54441">
        <ele>1945</ele>
        <time>2010-01-01T00:42:20Z</time>
      </trkpt>
      <trkpt lat="44.70859" lon="6.54432">
        <ele>1946</ele>
        <time>2010-01-01T00:42:22Z</time>
      </trkpt>
      <trkpt lat="44.70859" lon="6.54429">
        <ele>1946</ele>
        <time>2010-01-01T00:42:22Z</time>
      </trkpt>
      <trkpt lat="44.7086" lon="6.54427">
        <ele>1946</ele>
        <time>2010-01-01T00:42:23Z</time>
      </trkpt>
      <trkpt lat="44.7086" lon="6.54424">
        <ele>1946</ele>
        <time>2010-01-01T00:42:23Z</time>
      </trkpt>
      <trkpt lat="44.70862" lon="6.54415">
        <ele>1947</ele>
        <time>2010-01-01T00:42:25Z</time>
      </trkpt>
      <trkpt lat="44.70865" lon="6.54404">
        <ele>1949</ele>
        <time>2010-01-01T00:42:27Z</time>
      </trkpt>
      <trkpt lat="44.70867" lon="6.544">
        <ele>1950</ele>
        <time>2010-01-01T00:42:28Z</time>
      </trkpt>
      <trkpt lat="44.7087" lon="6.54393">
        <ele>1952</ele>
        <time>2010-01-01T00:42:30Z</time>
      </trkpt>
      <trkpt lat="44.70879" lon="6.54381">
        <ele>1952</ele>
        <time>2010-01-01T00:42:33Z</time>
      </trkpt>
      <trkpt lat="44.70883" lon="6.54375">
        <ele>1952</ele>
        <time>2010-01-01T00:42:35Z</time>
      </trkpt>
      <trkpt lat="44.70884" lon="6.54373">
        <ele>1952</ele>
        <time>2010-01-01T00:42:35Z</time>
      </trkpt>
      <trkpt lat="44.70886" lon="6.54368">
        <ele>1953</ele>
        <time>2010-01-01T00:42:36Z</time>
      </trkpt>
      <trkpt lat="44.70889" lon="6.54362">
        <ele>1953</ele>
        <time>2010-01-01T00:42:37Z</time>
      </trkpt>
      <trkpt lat="44.70892" lon="6.54357">
        <ele>1954</ele>
        <time>2010-01-01T00:42:39Z</time>
      </trkpt>
      <trkpt lat="44.70893" lon="6.54355">
        <ele>1954</ele>
        <time>2010-01-01T00:42:39Z</time>
      </trkpt>
      <trkpt lat="44.709" lon="6.54347">
        <ele>1954</ele>
        <time>2010-01-01T00:42:41Z</time>
      </trkpt>
      <trkpt lat="44.70904" lon="6.54342">
        <ele>1954</ele>
        <time>2010-01-01T00:42:43Z</time>
      </trkpt>
      <trkpt lat="44.70906" lon="6.54337">
        <ele>1954</ele>
        <time>2010-01-01T00:42:44Z</time>
      </trkpt>
      <trkpt lat="44.70908" lon="6.54332">
        <ele>1954</ele>
        <time>2010-01-01T00:42:45Z</time>
      </trkpt>
      <trkpt lat="44.70909" lon="6.54331">
        <ele>1954</ele>
        <time>2010-01-01T00:42:46Z</time>
      </trkpt>
      <trkpt lat="44.70913" lon="6.54319">
        <ele>1955</ele>
        <time>2010-01-01T00:42:48Z</time>
      </trkpt>
      <trkpt lat="44.70913" lon="6.54317">
        <ele>1955</ele>
        <time>2010-01-01T00:42:48Z</time>
      </trkpt>
      <trkpt lat="44.70914" lon="6.54301">
        <ele>1957</ele>
        <time>2010-01-01T00:42:51Z</time>
      </trkpt>
      <trkpt lat="44.70915" lon="6.54298">
        <ele>1957</ele>
        <time>2010-01-01T00:42:52Z</time>
      </trkpt>
      <trkpt lat="44.70919" lon="6.54279">
        <ele>1960</ele>
        <time>2010-01-01T00:42:56Z</time>
      </trkpt>
      <trkpt lat="44.70919" lon="6.54276">
        <ele>1960</ele>
        <time>2010-01-01T00:42:56Z</time>
      </trkpt>
      <trkpt lat="44.70922" lon="6.5426">
        <ele>1960</ele>
        <time>2010-01-01T00:42:59Z</time>
      </trkpt>
      <trkpt lat="44.70922" lon="6.54256">
        <ele>1960</ele>
        <time>2010-01-01T00:43:00Z</time>
      </trkpt>
      <trkpt lat="44.70919" lon="6.54245">
        <ele>1959</ele>
        <time>2010-01-01T00:43:02Z</time>
      </trkpt>
      <trkpt lat="44.70918" lon="6.54243">
        <ele>1959</ele>
        <time>2010-01-01T00:43:03Z</time>
      </trkpt>
      <trkpt lat="44.70918" lon="6.5424">
        <ele>1959</ele>
        <time>2010-01-01T00:43:03Z</time>
      </trkpt>
      <trkpt lat="44.70916" lon="6.54235">
        <ele>1960</ele>
        <time>2010-01-01T00:43:04Z</time>
      </trkpt>
      <trkpt lat="44.70915" lon="6.54228">
        <ele>1961</ele>
        <time>2010-01-01T00:43:06Z</time>
      </trkpt>
      <trkpt lat="44.70915" lon="6.54226">
        <ele>1961</ele>
        <time>2010-01-01T00:43:06Z</time>
      </trkpt>
      <trkpt lat="44.70914" lon="6.54218">
        <ele>1962</ele>
        <time>2010-01-01T00:43:08Z</time>
      </trkpt>
      <trkpt lat="44.70913" lon="6.54211">
        <ele>1962</ele>
        <time>2010-01-01T00:43:09Z</time>
      </trkpt>
      <trkpt lat="44.70911" lon="6.54203">
        <ele>1963</ele>
        <time>2010-01-01T00:43:11Z</time>
      </trkpt>
      <trkpt lat="44.70911" lon="6.54194">
        <ele>1964</ele>
        <time>2010-01-01T00:43:12Z</time>
      </trkpt>
      <trkpt lat="44.7091" lon="6.54187">
        <ele>1964</ele>
        <time>2010-01-01T00:43:14Z</time>
      </trkpt>
      <trkpt lat="44.7091" lon="6.54185">
        <ele>1965</ele>
        <time>2010-01-01T00:43:14Z</time>
      </trkpt>
      <trkpt lat="44.70906" lon="6.54171">
        <ele>1966</ele>
        <time>2010-01-01T00:43:17Z</time>
      </trkpt>
      <trkpt lat="44.70905" lon="6.54167">
        <ele>1967</ele>
        <time>2010-01-01T00:43:18Z</time>
      </trkpt>
      <trkpt lat="44.70904" lon="6.54158">
        <ele>1968</ele>
        <time>2010-01-01T00:43:20Z</time>
      </trkpt>
      <trkpt lat="44.70905" lon="6.54147">
        <ele>1968</ele>
        <time>2010-01-01T00:43:22Z</time>
      </trkpt>
      <trkpt lat="44.70911" lon="6.54143">
        <ele>1966</ele>
        <time>2010-01-01T00:43:23Z</time>
      </trkpt>
      <trkpt lat="44.70914" lon="6.54142">
        <ele>1964</ele>
        <time>2010-01-01T00:43:24Z</time>
      </trkpt>
      <trkpt lat="44.70916" lon="6.54142">
        <ele>1964</ele>
        <time>2010-01-01T00:43:25Z</time>
      </trkpt>
      <trkpt lat="44.70921" lon="6.54142">
        <ele>1963</ele>
        <time>2010-01-01T00:43:26Z</time>
      </trkpt>
      <trkpt lat="44.70926" lon="6.54141">
        <ele>1963</ele>
        <time>2010-01-01T00:43:27Z</time>
      </trkpt>
      <trkpt lat="44.70931" lon="6.5414">
        <ele>1963</ele>
        <time>2010-01-01T00:43:29Z</time>
      </trkpt>
      <trkpt lat="44.70938" lon="6.5414">
        <ele>1963</ele>
        <time>2010-01-01T00:43:31Z</time>
      </trkpt>
      <trkpt lat="44.70942" lon="6.54141">
        <ele>1963</ele>
        <time>2010-01-01T00:43:32Z</time>
      </trkpt>
      <trkpt lat="44.70947" lon="6.54143">
        <ele>1964</ele>
        <time>2010-01-01T00:43:33Z</time>
      </trkpt>
      <trkpt lat="44.70951" lon="6.54146">
        <ele>1965</ele>
        <time>2010-01-01T00:43:34Z</time>
      </trkpt>
      <trkpt lat="44.70956" lon="6.54148">
        <ele>1966</ele>
        <time>2010-01-01T00:43:36Z</time>
      </trkpt>
      <trkpt lat="44.70958" lon="6.54148">
        <ele>1967</ele>
        <time>2010-01-01T00:43:36Z</time>
      </trkpt>
      <trkpt lat="44.70958" lon="6.54147">
        <ele>1967</ele>
        <time>2010-01-01T00:43:37Z</time>
      </trkpt>
      <trkpt lat="44.70958" lon="6.54148">
        <ele>1967</ele>
        <time>2010-01-01T00:43:37Z</time>
      </trkpt>
      <trkpt lat="44.70958" lon="6.54151">
        <ele>1967</ele>
        <time>2010-01-01T00:43:37Z</time>
      </trkpt>
      <trkpt lat="44.70958" lon="6.54151">
        <ele>1967</ele>
        <time>2010-01-01T00:43:37Z</time>
      </trkpt>
      <trkpt lat="44.70957" lon="6.54152">
        <ele>1967</ele>
        <time>2010-01-01T00:43:37Z</time>
      </trkpt>
      <trkpt lat="44.70957" lon="6.54153">
        <ele>1967</ele>
        <time>2010-01-01T00:43:38Z</time>
      </trkpt>
      <trkpt lat="44.70957" lon="6.54153">
        <ele>1967</ele>
        <time>2010-01-01T00:43:38Z</time>
      </trkpt>
      <trkpt lat="44.70957" lon="6.54153">
        <ele>1967</ele>
        <time>2010-01-01T00:43:38Z</time>
      </trkpt>
      <trkpt lat="44.70957" lon="6.54153">
        <ele>1967</ele>
        <time>2010-01-01T00:43:38Z</time>
      </trkpt>
      <trkpt lat="44.70957" lon="6.54153">
        <ele>1967</ele>
        <time>2010-01-01T00:43:38Z</time>
      </trkpt>
      <trkpt lat="44.70957" lon="6.54153">
        <ele>1967</ele>
        <time>2010-01-01T00:43:38Z</time>
      </trkpt>
      <trkpt lat="44.70956" lon="6.54153">
        <ele>1966</ele>
        <time>2010-01-01T00:43:38Z</time>
      </trkpt>
      <trkpt lat="44.70956" lon="6.54153">
        <ele>1966</ele>
        <time>2010-01-01T00:43:38Z</time>
      </trkpt>
      <trkpt lat="44.70956" lon="6.54154">
        <ele>1966</ele>
        <time>2010-01-01T00:43:38Z</time>
      </trkpt>
      <trkpt lat="44.70956" lon="6.54153">
        <ele>1966</ele>
        <time>2010-01-01T00:43:38Z</time>
      </trkpt>
      <trkpt lat="44.70956" lon="6.54153">
        <ele>1966</ele>
        <time>2010-01-01T00:43:38Z</time>
      </trkpt>
      <trkpt lat="44.70955" lon="6.54152">
        <ele>1966</ele>
        <time>2010-01-01T00:43:39Z</time>
      </trkpt>
      <trkpt lat="44.70955" lon="6.54152">
        <ele>1966</ele>
        <time>2010-01-01T00:43:39Z</time>
      </trkpt>
      <trkpt lat="44.70955" lon="6.54152">
        <ele>1966</ele>
        <time>2010-01-01T00:43:39Z</time>
      </trkpt>
      <trkpt lat="44.70955" lon="6.54152">
        <ele>1966</ele>
        <time>2010-01-01T00:43:39Z</time>
      </trkpt>
      <trkpt lat="44.70955" lon="6.54152">
        <ele>1966</ele>
        <time>2010-01-01T00:43:39Z</time>
      </trkpt>
      <trkpt lat="44.70955" lon="6.54153">
        <ele>1966</ele>
        <time>2010-01-01T00:43:39Z</time>
      </trkpt>
      <trkpt lat="44.70954" lon="6.54154">
        <ele>1966</ele>
        <time>2010-01-01T00:43:40Z</time>
      </trkpt>
      <trkpt lat="44.70954" lon="6.54154">
        <ele>1966</ele>
        <time>2010-01-01T00:43:40Z</time>
      </trkpt>
      <trkpt lat="44.70954" lon="6.54154">
        <ele>1966</ele>
        <time>2010-01-01T00:43:40Z</time>
      </trkpt>
      <trkpt lat="44.70954" lon="6.54154">
        <ele>1966</ele>
        <time>2010-01-01T00:43:40Z</time>
      </trkpt>
      <trkpt lat="44.70954" lon="6.54154">
        <ele>1966</ele>
        <time>2010-01-01T00:43:40Z</time>
      </trkpt>
      <trkpt lat="44.70954" lon="6.54154">
        <ele>1966</ele>
        <time>2010-01-01T00:43:40Z</time>
      </trkpt>
      <trkpt lat="44.70954" lon="6.54153">
        <ele>1966</ele>
        <time>2010-01-01T00:43:40Z</time>
      </trkpt>
      <trkpt lat="44.70953" lon="6.54153">
        <ele>1966</ele>
        <time>2010-01-01T00:43:40Z</time>
      </trkpt>
      <trkpt lat="44.70955" lon="6.54154">
        <ele>1966</ele>
        <time>2010-01-01T00:43:41Z</time>
      </trkpt>
      <trkpt lat="44.70955" lon="6.54154">
        <ele>1966</ele>
        <time>2010-01-01T00:43:41Z</time>
      </trkpt>
      <trkpt lat="44.70955" lon="6.54154">
        <ele>1966</ele>
        <time>2010-01-01T00:43:41Z</time>
      </trkpt>
      <trkpt lat="44.70956" lon="6.54154">
        <ele>1966</ele>
        <time>2010-01-01T00:43:41Z</time>
      </trkpt>
      <trkpt lat="44.70958" lon="6.54151">
        <ele>1967</ele>
        <time>2010-01-01T00:43:42Z</time>
      </trkpt>
      <trkpt lat="44.70958" lon="6.54141">
        <ele>1967</ele>
        <time>2010-01-01T00:43:44Z</time>
      </trkpt>
      <trkpt lat="44.70958" lon="6.54139">
        <ele>1967</ele>
        <time>2010-01-01T00:43:44Z</time>
      </trkpt>
      <trkpt lat="44.70957" lon="6.54133">
        <ele>1967</ele>
        <time>2010-01-01T00:43:45Z</time>
      </trkpt>
      <trkpt lat="44.70957" lon="6.54128">
        <ele>1967</ele>
        <time>2010-01-01T00:43:46Z</time>
      </trkpt>
      <trkpt lat="44.70955" lon="6.54124">
        <ele>1967</ele>
        <time>2010-01-01T00:43:47Z</time>
      </trkpt>
      <trkpt lat="44.70954" lon="6.5412">
        <ele>1967</ele>
        <time>2010-01-01T00:43:48Z</time>
      </trkpt>
      <trkpt lat="44.70953" lon="6.54119">
        <ele>1967</ele>
        <time>2010-01-01T00:43:48Z</time>
      </trkpt>
      <trkpt lat="44.70953" lon="6.54118">
        <ele>1967</ele>
        <time>2010-01-01T00:43:49Z</time>
      </trkpt>
      <trkpt lat="44.70951" lon="6.54117">
        <ele>1967</ele>
        <time>2010-01-01T00:43:49Z</time>
      </trkpt>
      <trkpt lat="44.70951" lon="6.54114">
        <ele>1967</ele>
        <time>2010-01-01T00:43:49Z</time>
      </trkpt>
      <trkpt lat="44.70953" lon="6.54111">
        <ele>1968</ele>
        <time>2010-01-01T00:43:50Z</time>
      </trkpt>
      <trkpt lat="44.70954" lon="6.54105">
        <ele>1969</ele>
        <time>2010-01-01T00:43:51Z</time>
      </trkpt>
      <trkpt lat="44.70955" lon="6.54103">
        <ele>1969</ele>
        <time>2010-01-01T00:43:52Z</time>
      </trkpt>
      <trkpt lat="44.70956" lon="6.54095">
        <ele>1970</ele>
        <time>2010-01-01T00:43:53Z</time>
      </trkpt>
      <trkpt lat="44.70956" lon="6.54095">
        <ele>1970</ele>
        <time>2010-01-01T00:43:53Z</time>
      </trkpt>
      <trkpt lat="44.70955" lon="6.54094">
        <ele>1970</ele>
        <time>2010-01-01T00:43:54Z</time>
      </trkpt>
      <trkpt lat="44.70951" lon="6.54091">
        <ele>1970</ele>
        <time>2010-01-01T00:43:55Z</time>
      </trkpt>
      <trkpt lat="44.7095" lon="6.5409">
        <ele>1970</ele>
        <time>2010-01-01T00:43:55Z</time>
      </trkpt>
      <trkpt lat="44.70949" lon="6.54085">
        <ele>1970</ele>
        <time>2010-01-01T00:43:56Z</time>
      </trkpt>
      <trkpt lat="44.70948" lon="6.54077">
        <ele>1971</ele>
        <time>2010-01-01T00:43:58Z</time>
      </trkpt>
      <trkpt lat="44.70948" lon="6.54076">
        <ele>1971</ele>
        <time>2010-01-01T00:43:58Z</time>
      </trkpt>
      <trkpt lat="44.70949" lon="6.5407">
        <ele>1972</ele>
        <time>2010-01-01T00:43:59Z</time>
      </trkpt>
      <trkpt lat="44.70949" lon="6.54069">
        <ele>1972</ele>
        <time>2010-01-01T00:43:59Z</time>
      </trkpt>
      <trkpt lat="44.70952" lon="6.54067">
        <ele>1973</ele>
        <time>2010-01-01T00:44:00Z</time>
      </trkpt>
      <trkpt lat="44.70954" lon="6.54065">
        <ele>1974</ele>
        <time>2010-01-01T00:44:01Z</time>
      </trkpt>
      <trkpt lat="44.70955" lon="6.54065">
        <ele>1974</ele>
        <time>2010-01-01T00:44:01Z</time>
      </trkpt>
      <trkpt lat="44.70955" lon="6.54064">
        <ele>1974</ele>
        <time>2010-01-01T00:44:01Z</time>
      </trkpt>
      <trkpt lat="44.70959" lon="6.54061">
        <ele>1975</ele>
        <time>2010-01-01T00:44:02Z</time>
      </trkpt>
      <trkpt lat="44.70963" lon="6.54056">
        <ele>1977</ele>
        <time>2010-01-01T00:44:04Z</time>
      </trkpt>
      <trkpt lat="44.70964" lon="6.54056">
        <ele>1977</ele>
        <time>2010-01-01T00:44:04Z</time>
      </trkpt>
      <trkpt lat="44.70968" lon="6.54051">
        <ele>1979</ele>
        <time>2010-01-01T00:44:05Z</time>
      </trkpt>
      <trkpt lat="44.70969" lon="6.54051">
        <ele>1979</ele>
        <time>2010-01-01T00:44:06Z</time>
      </trkpt>
      <trkpt lat="44.70971" lon="6.54052">
        <ele>1980</ele>
        <time>2010-01-01T00:44:06Z</time>
      </trkpt>
      <trkpt lat="44.70972" lon="6.54052">
        <ele>1980</ele>
        <time>2010-01-01T00:44:06Z</time>
      </trkpt>
      <trkpt lat="44.70974" lon="6.54052">
        <ele>1981</ele>
        <time>2010-01-01T00:44:07Z</time>
      </trkpt>
      <trkpt lat="44.70975" lon="6.54052">
        <ele>1981</ele>
        <time>2010-01-01T00:44:07Z</time>
      </trkpt>
      <trkpt lat="44.70977" lon="6.5405">
        <ele>1982</ele>
        <time>2010-01-01T00:44:08Z</time>
      </trkpt>
      <trkpt lat="44.70978" lon="6.54046">
        <ele>1983</ele>
        <time>2010-01-01T00:44:09Z</time>
      </trkpt>
      <trkpt lat="44.70979" lon="6.54046">
        <ele>1983</ele>
        <time>2010-01-01T00:44:09Z</time>
      </trkpt>
      <trkpt lat="44.7098" lon="6.54044">
        <ele>1984</ele>
        <time>2010-01-01T00:44:09Z</time>
      </trkpt>
      <trkpt lat="44.70982" lon="6.54041">
        <ele>1985</ele>
        <time>2010-01-01T00:44:10Z</time>
      </trkpt>
      <trkpt lat="44.70984" lon="6.54038">
        <ele>1986</ele>
        <time>2010-01-01T00:44:11Z</time>
      </trkpt>
      <trkpt lat="44.70985" lon="6.54036">
        <ele>1987</ele>
        <time>2010-01-01T00:44:11Z</time>
      </trkpt>
      <trkpt lat="44.70988" lon="6.54032">
        <ele>1988</ele>
        <time>2010-01-01T00:44:13Z</time>
      </trkpt>
      <trkpt lat="44.70988" lon="6.54031">
        <ele>1988</ele>
        <time>2010-01-01T00:44:13Z</time>
      </trkpt>
      <trkpt lat="44.70992" lon="6.54028">
        <ele>1990</ele>
        <time>2010-01-01T00:44:14Z</time>
      </trkpt>
      <trkpt lat="44.70992" lon="6.54027">
        <ele>1990</ele>
        <time>2010-01-01T00:44:14Z</time>
      </trkpt>
      <trkpt lat="44.70994" lon="6.54023">
        <ele>1991</ele>
        <time>2010-01-01T00:44:15Z</time>
      </trkpt>
      <trkpt lat="44.70995" lon="6.54022">
        <ele>1992</ele>
        <time>2010-01-01T00:44:15Z</time>
      </trkpt>
      <trkpt lat="44.70997" lon="6.54018">
        <ele>1993</ele>
        <time>2010-01-01T00:44:16Z</time>
      </trkpt>
      <trkpt lat="44.70998" lon="6.54017">
        <ele>1993</ele>
        <time>2010-01-01T00:44:16Z</time>
      </trkpt>
      <trkpt lat="44.70998" lon="6.54017">
        <ele>1993</ele>
        <time>2010-01-01T00:44:17Z</time>
      </trkpt>
      <trkpt lat="44.71" lon="6.54016">
        <ele>1994</ele>
        <time>2010-01-01T00:44:17Z</time>
      </trkpt>
      <trkpt lat="44.71" lon="6.54015">
        <ele>1994</ele>
        <time>2010-01-01T00:44:17Z</time>
      </trkpt>
      <trkpt lat="44.71002" lon="6.54012">
        <ele>1995</ele>
        <time>2010-01-01T00:44:18Z</time>
      </trkpt>
      <trkpt lat="44.71002" lon="6.5401">
        <ele>1995</ele>
        <time>2010-01-01T00:44:18Z</time>
      </trkpt>
      <trkpt lat="44.71002" lon="6.54006">
        <ele>1996</ele>
        <time>2010-01-01T00:44:19Z</time>
      </trkpt>
      <trkpt lat="44.71002" lon="6.54001">
        <ele>1996</ele>
        <time>2010-01-01T00:44:20Z</time>
      </trkpt>
      <trkpt lat="44.71002" lon="6.54">
        <ele>1996</ele>
        <time>2010-01-01T00:44:20Z</time>
      </trkpt>
      <trkpt lat="44.71002" lon="6.53999">
        <ele>1996</ele>
        <time>2010-01-01T00:44:20Z</time>
      </trkpt>
      <trkpt lat="44.71004" lon="6.53998">
        <ele>1997</ele>
        <time>2010-01-01T00:44:21Z</time>
      </trkpt>
      <trkpt lat="44.71007" lon="6.53996">
        <ele>1998</ele>
        <time>2010-01-01T00:44:22Z</time>
      </trkpt>
      <trkpt lat="44.71008" lon="6.53996">
        <ele>1999</ele>
        <time>2010-01-01T00:44:22Z</time>
      </trkpt>
      <trkpt lat="44.71011" lon="6.53995">
        <ele>2000</ele>
        <time>2010-01-01T00:44:23Z</time>
      </trkpt>
      <trkpt lat="44.71011" lon="6.53994">
        <ele>2000</ele>
        <time>2010-01-01T00:44:23Z</time>
      </trkpt>
      <trkpt lat="44.71013" lon="6.53993">
        <ele>2001</ele>
        <time>2010-01-01T00:44:24Z</time>
      </trkpt>
      <trkpt lat="44.71014" lon="6.53992">
        <ele>2002</ele>
        <time>2010-01-01T00:44:24Z</time>
      </trkpt>
      <trkpt lat="44.71015" lon="6.53992">
        <ele>2002</ele>
        <time>2010-01-01T00:44:24Z</time>
      </trkpt>
      <trkpt lat="44.71015" lon="6.53991">
        <ele>2002</ele>
        <time>2010-01-01T00:44:24Z</time>
      </trkpt>
      <trkpt lat="44.71016" lon="6.5399">
        <ele>2002</ele>
        <time>2010-01-01T00:44:24Z</time>
      </trkpt>
      <trkpt lat="44.71017" lon="6.53989">
        <ele>2003</ele>
        <time>2010-01-01T00:44:25Z</time>
      </trkpt>
      <trkpt lat="44.7102" lon="6.5399">
        <ele>2004</ele>
        <time>2010-01-01T00:44:26Z</time>
      </trkpt>
      <trkpt lat="44.71021" lon="6.5399">
        <ele>2004</ele>
        <time>2010-01-01T00:44:26Z</time>
      </trkpt>
      <trkpt lat="44.71022" lon="6.53992">
        <ele>2004</ele>
        <time>2010-01-01T00:44:26Z</time>
      </trkpt>
      <trkpt lat="44.71024" lon="6.53995">
        <ele>2004</ele>
        <time>2010-01-01T00:44:27Z</time>
      </trkpt>
      <trkpt lat="44.71029" lon="6.54001">
        <ele>2005</ele>
        <time>2010-01-01T00:44:29Z</time>
      </trkpt>
      <trkpt lat="44.71029" lon="6.54003">
        <ele>2005</ele>
        <time>2010-01-01T00:44:29Z</time>
      </trkpt>
      <trkpt lat="44.71031" lon="6.54004">
        <ele>2006</ele>
        <time>2010-01-01T00:44:30Z</time>
      </trkpt>
      <trkpt lat="44.71031" lon="6.54005">
        <ele>2006</ele>
        <time>2010-01-01T00:44:30Z</time>
      </trkpt>
      <trkpt lat="44.71032" lon="6.54005">
        <ele>2006</ele>
        <time>2010-01-01T00:44:30Z</time>
      </trkpt>
      <trkpt lat="44.71033" lon="6.54005">
        <ele>2007</ele>
        <time>2010-01-01T00:44:31Z</time>
      </trkpt>
      <trkpt lat="44.71039" lon="6.5401">
        <ele>2009</ele>
        <time>2010-01-01T00:44:32Z</time>
      </trkpt>
      <trkpt lat="44.71047" lon="6.54016">
        <ele>2012</ele>
        <time>2010-01-01T00:44:35Z</time>
      </trkpt>
      <trkpt lat="44.71048" lon="6.54017">
        <ele>2012</ele>
        <time>2010-01-01T00:44:35Z</time>
      </trkpt>
      <trkpt lat="44.7105" lon="6.54019">
        <ele>2013</ele>
        <time>2010-01-01T00:44:36Z</time>
      </trkpt>
      <trkpt lat="44.71054" lon="6.54024">
        <ele>2014</ele>
        <time>2010-01-01T00:44:37Z</time>
      </trkpt>
      <trkpt lat="44.71055" lon="6.54025">
        <ele>2014</ele>
        <time>2010-01-01T00:44:37Z</time>
      </trkpt>
      <trkpt lat="44.71059" lon="6.54029">
        <ele>2015</ele>
        <time>2010-01-01T00:44:39Z</time>
      </trkpt>
      <trkpt lat="44.71061" lon="6.54031">
        <ele>2016</ele>
        <time>2010-01-01T00:44:39Z</time>
      </trkpt>
      <trkpt lat="44.71066" lon="6.5404">
        <ele>2017</ele>
        <time>2010-01-01T00:44:42Z</time>
      </trkpt>
      <trkpt lat="44.71067" lon="6.54048">
        <ele>2016</ele>
        <time>2010-01-01T00:44:43Z</time>
      </trkpt>
      <trkpt lat="44.71067" lon="6.5405">
        <ele>2017</ele>
        <time>2010-01-01T00:44:44Z</time>
      </trkpt>
      <trkpt lat="44.71068" lon="6.54058">
        <ele>2017</ele>
        <time>2010-01-01T00:44:45Z</time>
      </trkpt>
      <trkpt lat="44.71069" lon="6.54062">
        <ele>2017</ele>
        <time>2010-01-01T00:44:46Z</time>
      </trkpt>
      <trkpt lat="44.71069" lon="6.54065">
        <ele>2017</ele>
        <time>2010-01-01T00:44:46Z</time>
      </trkpt>
      <trkpt lat="44.7107" lon="6.54069">
        <ele>2017</ele>
        <time>2010-01-01T00:44:47Z</time>
      </trkpt>
      <trkpt lat="44.7107" lon="6.54073">
        <ele>2018</ele>
        <time>2010-01-01T00:44:48Z</time>
      </trkpt>
      <trkpt lat="44.7107" lon="6.54075">
        <ele>2018</ele>
        <time>2010-01-01T00:44:48Z</time>
      </trkpt>
      <trkpt lat="44.71072" lon="6.54082">
        <ele>2018</ele>
        <time>2010-01-01T00:44:50Z</time>
      </trkpt>
      <trkpt lat="44.71072" lon="6.54087">
        <ele>2019</ele>
        <time>2010-01-01T00:44:51Z</time>
      </trkpt>
      <trkpt lat="44.71073" lon="6.54091">
        <ele>2020</ele>
        <time>2010-01-01T00:44:51Z</time>
      </trkpt>
      <trkpt lat="44.71075" lon="6.54102">
        <ele>2022</ele>
        <time>2010-01-01T00:44:54Z</time>
      </trkpt>
      <trkpt lat="44.71079" lon="6.54114">
        <ele>2025</ele>
        <time>2010-01-01T00:44:56Z</time>
      </trkpt>
      <trkpt lat="44.7108" lon="6.54115">
        <ele>2025</ele>
        <time>2010-01-01T00:44:56Z</time>
      </trkpt>
      <trkpt lat="44.71082" lon="6.5412">
        <ele>2026</ele>
        <time>2010-01-01T00:44:57Z</time>
      </trkpt>
      <trkpt lat="44.71083" lon="6.54124">
        <ele>2027</ele>
        <time>2010-01-01T00:44:58Z</time>
      </trkpt>
      <trkpt lat="44.71086" lon="6.54137">
        <ele>2030</ele>
        <time>2010-01-01T00:45:01Z</time>
      </trkpt>
      <trkpt lat="44.71086" lon="6.54139">
        <ele>2030</ele>
        <time>2010-01-01T00:45:01Z</time>
      </trkpt>
      <trkpt lat="44.71087" lon="6.54146">
        <ele>2029</ele>
        <time>2010-01-01T00:45:03Z</time>
      </trkpt>
      <trkpt lat="44.71088" lon="6.54154">
        <ele>2028</ele>
        <time>2010-01-01T00:45:04Z</time>
      </trkpt>
      <trkpt lat="44.71088" lon="6.54155">
        <ele>2028</ele>
        <time>2010-01-01T00:45:04Z</time>
      </trkpt>
      <trkpt lat="44.7109" lon="6.54152">
        <ele>2029</ele>
        <time>2010-01-01T00:45:05Z</time>
      </trkpt>
      <trkpt lat="44.71091" lon="6.54151">
        <ele>2030</ele>
        <time>2010-01-01T00:45:05Z</time>
      </trkpt>
      <trkpt lat="44.71095" lon="6.54139">
        <ele>2034</ele>
        <time>2010-01-01T00:45:08Z</time>
      </trkpt>
      <trkpt lat="44.71096" lon="6.54135">
        <ele>2035</ele>
        <time>2010-01-01T00:45:09Z</time>
      </trkpt>
      <trkpt lat="44.71098" lon="6.54132">
        <ele>2035</ele>
        <time>2010-01-01T00:45:09Z</time>
      </trkpt>
      <trkpt lat="44.71098" lon="6.54131">
        <ele>2035</ele>
        <time>2010-01-01T00:45:10Z</time>
      </trkpt>
      <trkpt lat="44.71099" lon="6.54129">
        <ele>2036</ele>
        <time>2010-01-01T00:45:10Z</time>
      </trkpt>
      <trkpt lat="44.71101" lon="6.54125">
        <ele>2037</ele>
        <time>2010-01-01T00:45:11Z</time>
      </trkpt>
      <trkpt lat="44.71102" lon="6.54122">
        <ele>2037</ele>
        <time>2010-01-01T00:45:12Z</time>
      </trkpt>
      <trkpt lat="44.71103" lon="6.54118">
        <ele>2038</ele>
        <time>2010-01-01T00:45:12Z</time>
      </trkpt>
      <trkpt lat="44.71105" lon="6.54113">
        <ele>2039</ele>
        <time>2010-01-01T00:45:13Z</time>
      </trkpt>
      <trkpt lat="44.71105" lon="6.54112">
        <ele>2039</ele>
        <time>2010-01-01T00:45:14Z</time>
      </trkpt>
      <trkpt lat="44.71109" lon="6.54104">
        <ele>2039</ele>
        <time>2010-01-01T00:45:15Z</time>
      </trkpt>
      <trkpt lat="44.71111" lon="6.54096">
        <ele>2039</ele>
        <time>2010-01-01T00:45:17Z</time>
      </trkpt>
      <trkpt lat="44.71112" lon="6.54095">
        <ele>2039</ele>
        <time>2010-01-01T00:45:17Z</time>
      </trkpt>
      <trkpt lat="44.71114" lon="6.5409">
        <ele>2040</ele>
        <time>2010-01-01T00:45:18Z</time>
      </trkpt>
      <trkpt lat="44.71115" lon="6.54084">
        <ele>2039</ele>
        <time>2010-01-01T00:45:20Z</time>
      </trkpt>
      <trkpt lat="44.71116" lon="6.54083">
        <ele>2039</ele>
        <time>2010-01-01T00:45:20Z</time>
      </trkpt>
      <trkpt lat="44.71117" lon="6.54081">
        <ele>2040</ele>
        <time>2010-01-01T00:45:20Z</time>
      </trkpt>
      <trkpt lat="44.71117" lon="6.54081">
        <ele>2040</ele>
        <time>2010-01-01T00:45:20Z</time>
      </trkpt>
      <trkpt lat="44.71119" lon="6.54074">
        <ele>2041</ele>
        <time>2010-01-01T00:45:22Z</time>
      </trkpt>
      <trkpt lat="44.7112" lon="6.54072">
        <ele>2041</ele>
        <time>2010-01-01T00:45:22Z</time>
      </trkpt>
      <trkpt lat="44.71122" lon="6.54065">
        <ele>2041</ele>
        <time>2010-01-01T00:45:24Z</time>
      </trkpt>
      <trkpt lat="44.71124" lon="6.54059">
        <ele>2043</ele>
        <time>2010-01-01T00:45:25Z</time>
      </trkpt>
      <trkpt lat="44.71125" lon="6.54058">
        <ele>2043</ele>
        <time>2010-01-01T00:45:25Z</time>
      </trkpt>
      <trkpt lat="44.71126" lon="6.54051">
        <ele>2044</ele>
        <time>2010-01-01T00:45:26Z</time>
      </trkpt>
      <trkpt lat="44.71126" lon="6.5405">
        <ele>2045</ele>
        <time>2010-01-01T00:45:27Z</time>
      </trkpt>
      <trkpt lat="44.71127" lon="6.54049">
        <ele>2045</ele>
        <time>2010-01-01T00:45:27Z</time>
      </trkpt>
      <trkpt lat="44.71127" lon="6.54047">
        <ele>2045</ele>
        <time>2010-01-01T00:45:27Z</time>
      </trkpt>
      <trkpt lat="44.71128" lon="6.54043">
        <ele>2047</ele>
        <time>2010-01-01T00:45:28Z</time>
      </trkpt>
      <trkpt lat="44.71129" lon="6.54039">
        <ele>2048</ele>
        <time>2010-01-01T00:45:29Z</time>
      </trkpt>
      <trkpt lat="44.7113" lon="6.54038">
        <ele>2049</ele>
        <time>2010-01-01T00:45:29Z</time>
      </trkpt>
      <trkpt lat="44.71131" lon="6.54033">
        <ele>2050</ele>
        <time>2010-01-01T00:45:30Z</time>
      </trkpt>
      <trkpt lat="44.71132" lon="6.54031">
        <ele>2051</ele>
        <time>2010-01-01T00:45:31Z</time>
      </trkpt>
      <trkpt lat="44.71132" lon="6.54028">
        <ele>2051</ele>
        <time>2010-01-01T00:45:31Z</time>
      </trkpt>
      <trkpt lat="44.71133" lon="6.54024">
        <ele>2053</ele>
        <time>2010-01-01T00:45:32Z</time>
      </trkpt>
      <trkpt lat="44.71133" lon="6.54021">
        <ele>2054</ele>
        <time>2010-01-01T00:45:33Z</time>
      </trkpt>
      <trkpt lat="44.71133" lon="6.54017">
        <ele>2055</ele>
        <time>2010-01-01T00:45:33Z</time>
      </trkpt>
      <trkpt lat="44.71134" lon="6.54016">
        <ele>2055</ele>
        <time>2010-01-01T00:45:34Z</time>
      </trkpt>
      <trkpt lat="44.71134" lon="6.54011">
        <ele>2057</ele>
        <time>2010-01-01T00:45:35Z</time>
      </trkpt>
      <trkpt lat="44.71134" lon="6.54004">
        <ele>2058</ele>
        <time>2010-01-01T00:45:36Z</time>
      </trkpt>
      <trkpt lat="44.71134" lon="6.54002">
        <ele>2059</ele>
        <time>2010-01-01T00:45:36Z</time>
      </trkpt>
      <trkpt lat="44.71135" lon="6.53998">
        <ele>2060</ele>
        <time>2010-01-01T00:45:37Z</time>
      </trkpt>
      <trkpt lat="44.71135" lon="6.53996">
        <ele>2060</ele>
        <time>2010-01-01T00:45:37Z</time>
      </trkpt>
      <trkpt lat="44.71136" lon="6.53993">
        <ele>2062</ele>
        <time>2010-01-01T00:45:38Z</time>
      </trkpt>
      <trkpt lat="44.71136" lon="6.53991">
        <ele>2062</ele>
        <time>2010-01-01T00:45:38Z</time>
      </trkpt>
      <trkpt lat="44.71136" lon="6.53989">
        <ele>2062</ele>
        <time>2010-01-01T00:45:39Z</time>
      </trkpt>
      <trkpt lat="44.71136" lon="6.53987">
        <ele>2063</ele>
        <time>2010-01-01T00:45:39Z</time>
      </trkpt>
      <trkpt lat="44.71137" lon="6.53983">
        <ele>2065</ele>
        <time>2010-01-01T00:45:40Z</time>
      </trkpt>
      <trkpt lat="44.71138" lon="6.53976">
        <ele>2067</ele>
        <time>2010-01-01T00:45:41Z</time>
      </trkpt>
      <trkpt lat="44.71138" lon="6.53975">
        <ele>2067</ele>
        <time>2010-01-01T00:45:42Z</time>
      </trkpt>
      <trkpt lat="44.7114" lon="6.53967">
        <ele>2068</ele>
        <time>2010-01-01T00:45:43Z</time>
      </trkpt>
      <trkpt lat="44.7114" lon="6.53966">
        <ele>2068</ele>
        <time>2010-01-01T00:45:43Z</time>
      </trkpt>
      <trkpt lat="44.71141" lon="6.53961">
        <ele>2069</ele>
        <time>2010-01-01T00:45:44Z</time>
      </trkpt>
      <trkpt lat="44.71141" lon="6.5396">
        <ele>2069</ele>
        <time>2010-01-01T00:45:45Z</time>
      </trkpt>
      <trkpt lat="44.71143" lon="6.53956">
        <ele>2070</ele>
        <time>2010-01-01T00:45:45Z</time>
      </trkpt>
      <trkpt lat="44.71143" lon="6.53955">
        <ele>2070</ele>
        <time>2010-01-01T00:45:46Z</time>
      </trkpt>
      <trkpt lat="44.71143" lon="6.5395">
        <ele>2070</ele>
        <time>2010-01-01T00:45:47Z</time>
      </trkpt>
      <trkpt lat="44.71143" lon="6.53948">
        <ele>2070</ele>
        <time>2010-01-01T00:45:47Z</time>
      </trkpt>
      <trkpt lat="44.71143" lon="6.53942">
        <ele>2071</ele>
        <time>2010-01-01T00:45:48Z</time>
      </trkpt>
      <trkpt lat="44.71143" lon="6.53941">
        <ele>2071</ele>
        <time>2010-01-01T00:45:48Z</time>
      </trkpt>
      <trkpt lat="44.71143" lon="6.53938">
        <ele>2071</ele>
        <time>2010-01-01T00:45:49Z</time>
      </trkpt>
      <trkpt lat="44.71143" lon="6.53937">
        <ele>2071</ele>
        <time>2010-01-01T00:45:49Z</time>
      </trkpt>
      <trkpt lat="44.71143" lon="6.53932">
        <ele>2072</ele>
        <time>2010-01-01T00:45:50Z</time>
      </trkpt>
      <trkpt lat="44.71143" lon="6.53931">
        <ele>2072</ele>
        <time>2010-01-01T00:45:50Z</time>
      </trkpt>
      <trkpt lat="44.71143" lon="6.5393">
        <ele>2072</ele>
        <time>2010-01-01T00:45:50Z</time>
      </trkpt>
      <trkpt lat="44.71142" lon="6.53924">
        <ele>2072</ele>
        <time>2010-01-01T00:45:52Z</time>
      </trkpt>
      <trkpt lat="44.71142" lon="6.53923">
        <ele>2072</ele>
        <time>2010-01-01T00:45:52Z</time>
      </trkpt>
      <trkpt lat="44.71141" lon="6.53921">
        <ele>2072</ele>
        <time>2010-01-01T00:45:52Z</time>
      </trkpt>
      <trkpt lat="44.71141" lon="6.5392">
        <ele>2072</ele>
        <time>2010-01-01T00:45:52Z</time>
      </trkpt>
      <trkpt lat="44.7114" lon="6.53913">
        <ele>2073</ele>
        <time>2010-01-01T00:45:54Z</time>
      </trkpt>
      <trkpt lat="44.7114" lon="6.53905">
        <ele>2073</ele>
        <time>2010-01-01T00:45:55Z</time>
      </trkpt>
      <trkpt lat="44.7114" lon="6.53902">
        <ele>2074</ele>
        <time>2010-01-01T00:45:56Z</time>
      </trkpt>
      <trkpt lat="44.71139" lon="6.539">
        <ele>2074</ele>
        <time>2010-01-01T00:45:56Z</time>
      </trkpt>
      <trkpt lat="44.71139" lon="6.53895">
        <ele>2075</ele>
        <time>2010-01-01T00:45:57Z</time>
      </trkpt>
      <trkpt lat="44.71139" lon="6.53894">
        <ele>2075</ele>
        <time>2010-01-01T00:45:57Z</time>
      </trkpt>
      <trkpt lat="44.71138" lon="6.53889">
        <ele>2075</ele>
        <time>2010-01-01T00:45:58Z</time>
      </trkpt>
      <trkpt lat="44.71138" lon="6.53888">
        <ele>2075</ele>
        <time>2010-01-01T00:45:58Z</time>
      </trkpt>
      <trkpt lat="44.71137" lon="6.53884">
        <ele>2076</ele>
        <time>2010-01-01T00:45:59Z</time>
      </trkpt>
      <trkpt lat="44.71137" lon="6.53883">
        <ele>2076</ele>
        <time>2010-01-01T00:46:00Z</time>
      </trkpt>
      <trkpt lat="44.71135" lon="6.53877">
        <ele>2076</ele>
        <time>2010-01-01T00:46:01Z</time>
      </trkpt>
      <trkpt lat="44.71134" lon="6.53875">
        <ele>2076</ele>
        <time>2010-01-01T00:46:01Z</time>
      </trkpt>
      <trkpt lat="44.71133" lon="6.53871">
        <ele>2076</ele>
        <time>2010-01-01T00:46:02Z</time>
      </trkpt>
      <trkpt lat="44.71132" lon="6.53869">
        <ele>2076</ele>
        <time>2010-01-01T00:46:02Z</time>
      </trkpt>
      <trkpt lat="44.7113" lon="6.53865">
        <ele>2076</ele>
        <time>2010-01-01T00:46:03Z</time>
      </trkpt>
      <trkpt lat="44.7113" lon="6.53863">
        <ele>2076</ele>
        <time>2010-01-01T00:46:04Z</time>
      </trkpt>
      <trkpt lat="44.71128" lon="6.5386">
        <ele>2076</ele>
        <time>2010-01-01T00:46:05Z</time>
      </trkpt>
      <trkpt lat="44.71127" lon="6.53858">
        <ele>2077</ele>
        <time>2010-01-01T00:46:05Z</time>
      </trkpt>
      <trkpt lat="44.71126" lon="6.53856">
        <ele>2077</ele>
        <time>2010-01-01T00:46:05Z</time>
      </trkpt>
      <trkpt lat="44.71125" lon="6.53851">
        <ele>2078</ele>
        <time>2010-01-01T00:46:06Z</time>
      </trkpt>
      <trkpt lat="44.71124" lon="6.53848">
        <ele>2078</ele>
        <time>2010-01-01T00:46:07Z</time>
      </trkpt>
      <trkpt lat="44.71122" lon="6.53846">
        <ele>2079</ele>
        <time>2010-01-01T00:46:08Z</time>
      </trkpt>
      <trkpt lat="44.7112" lon="6.53841">
        <ele>2080</ele>
        <time>2010-01-01T00:46:09Z</time>
      </trkpt>
      <trkpt lat="44.71119" lon="6.53838">
        <ele>2080</ele>
        <time>2010-01-01T00:46:09Z</time>
      </trkpt>
      <trkpt lat="44.71118" lon="6.53834">
        <ele>2081</ele>
        <time>2010-01-01T00:46:10Z</time>
      </trkpt>
      <trkpt lat="44.71118" lon="6.53832">
        <ele>2082</ele>
        <time>2010-01-01T00:46:11Z</time>
      </trkpt>
      <trkpt lat="44.71117" lon="6.53825">
        <ele>2084</ele>
        <time>2010-01-01T00:46:12Z</time>
      </trkpt>
      <trkpt lat="44.71117" lon="6.53825">
        <ele>2084</ele>
        <time>2010-01-01T00:46:12Z</time>
      </trkpt>
      <trkpt lat="44.71118" lon="6.53825">
        <ele>2084</ele>
        <time>2010-01-01T00:46:12Z</time>
      </trkpt>
      <trkpt lat="44.7112" lon="6.53826">
        <ele>2084</ele>
        <time>2010-01-01T00:46:13Z</time>
      </trkpt>
      <trkpt lat="44.7112" lon="6.53827">
        <ele>2084</ele>
        <time>2010-01-01T00:46:13Z</time>
      </trkpt>
      <trkpt lat="44.71127" lon="6.53834">
        <ele>2084</ele>
        <time>2010-01-01T00:46:15Z</time>
      </trkpt>
      <trkpt lat="44.71128" lon="6.53836">
        <ele>2084</ele>
        <time>2010-01-01T00:46:15Z</time>
      </trkpt>
      <trkpt lat="44.71133" lon="6.5384">
        <ele>2084</ele>
        <time>2010-01-01T00:46:17Z</time>
      </trkpt>
      <trkpt lat="44.71136" lon="6.53843">
        <ele>2084</ele>
        <time>2010-01-01T00:46:18Z</time>
      </trkpt>
      <trkpt lat="44.7114" lon="6.53847">
        <ele>2085</ele>
        <time>2010-01-01T00:46:19Z</time>
      </trkpt>
      <trkpt lat="44.71141" lon="6.53847">
        <ele>2085</ele>
        <time>2010-01-01T00:46:20Z</time>
      </trkpt>
      <trkpt lat="44.71144" lon="6.53849">
        <ele>2086</ele>
        <time>2010-01-01T00:46:20Z</time>
      </trkpt>
      <trkpt lat="44.71154" lon="6.53859">
        <ele>2088</ele>
        <time>2010-01-01T00:46:24Z</time>
      </trkpt>
      <trkpt lat="44.71165" lon="6.53873">
        <ele>2090</ele>
        <time>2010-01-01T00:46:28Z</time>
      </trkpt>
      <trkpt lat="44.71169" lon="6.53883">
        <ele>2089</ele>
        <time>2010-01-01T00:46:30Z</time>
      </trkpt>
      <trkpt lat="44.7117" lon="6.53888">
        <ele>2089</ele>
        <time>2010-01-01T00:46:31Z</time>
      </trkpt>
      <trkpt lat="44.71172" lon="6.53894">
        <ele>2088</ele>
        <time>2010-01-01T00:46:32Z</time>
      </trkpt>
      <trkpt lat="44.71176" lon="6.53904">
        <ele>2088</ele>
        <time>2010-01-01T00:46:34Z</time>
      </trkpt>
      <trkpt lat="44.71178" lon="6.53909">
        <ele>2088</ele>
        <time>2010-01-01T00:46:35Z</time>
      </trkpt>
      <trkpt lat="44.71181" lon="6.53914">
        <ele>2089</ele>
        <time>2010-01-01T00:46:37Z</time>
      </trkpt>
      <trkpt lat="44.71183" lon="6.53916">
        <ele>2089</ele>
        <time>2010-01-01T00:46:37Z</time>
      </trkpt>
      <trkpt lat="44.71189" lon="6.53923">
        <ele>2091</ele>
        <time>2010-01-01T00:46:39Z</time>
      </trkpt>
      <trkpt lat="44.71196" lon="6.53934">
        <ele>2092</ele>
        <time>2010-01-01T00:46:42Z</time>
      </trkpt>
      <trkpt lat="44.71198" lon="6.53937">
        <ele>2092</ele>
        <time>2010-01-01T00:46:43Z</time>
      </trkpt>
      <trkpt lat="44.71199" lon="6.53938">
        <ele>2092</ele>
        <time>2010-01-01T00:46:43Z</time>
      </trkpt>
      <trkpt lat="44.71199" lon="6.5394">
        <ele>2092</ele>
        <time>2010-01-01T00:46:44Z</time>
      </trkpt>
      <trkpt lat="44.71201" lon="6.53949">
        <ele>2092</ele>
        <time>2010-01-01T00:46:45Z</time>
      </trkpt>
      <trkpt lat="44.71202" lon="6.53965">
        <ele>2092</ele>
        <time>2010-01-01T00:46:48Z</time>
      </trkpt>
      <trkpt lat="44.71206" lon="6.53978">
        <ele>2093</ele>
        <time>2010-01-01T00:46:51Z</time>
      </trkpt>
      <trkpt lat="44.71206" lon="6.5398">
        <ele>2093</ele>
        <time>2010-01-01T00:46:51Z</time>
      </trkpt>
      <trkpt lat="44.71212" lon="6.53989">
        <ele>2095</ele>
        <time>2010-01-01T00:46:54Z</time>
      </trkpt>
      <trkpt lat="44.71213" lon="6.5399">
        <ele>2096</ele>
        <time>2010-01-01T00:46:54Z</time>
      </trkpt>
      <trkpt lat="44.71219" lon="6.53999">
        <ele>2098</ele>
        <time>2010-01-01T00:46:56Z</time>
      </trkpt>
      <trkpt lat="44.7122" lon="6.54">
        <ele>2099</ele>
        <time>2010-01-01T00:46:57Z</time>
      </trkpt>
      <trkpt lat="44.71223" lon="6.54006">
        <ele>2100</ele>
        <time>2010-01-01T00:46:58Z</time>
      </trkpt>
      <trkpt lat="44.71223" lon="6.54006">
        <ele>2100</ele>
        <time>2010-01-01T00:46:58Z</time>
      </trkpt>
      <trkpt lat="44.71225" lon="6.5401">
        <ele>2100</ele>
        <time>2010-01-01T00:46:59Z</time>
      </trkpt>
      <trkpt lat="44.71227" lon="6.54015">
        <ele>2101</ele>
        <time>2010-01-01T00:47:00Z</time>
      </trkpt>
      <trkpt lat="44.71228" lon="6.54017">
        <ele>2102</ele>
        <time>2010-01-01T00:47:01Z</time>
      </trkpt>
      <trkpt lat="44.7123" lon="6.5402">
        <ele>2103</ele>
        <time>2010-01-01T00:47:01Z</time>
      </trkpt>
      <trkpt lat="44.7123" lon="6.54021">
        <ele>2103</ele>
        <time>2010-01-01T00:47:01Z</time>
      </trkpt>
      <trkpt lat="44.71233" lon="6.54026">
        <ele>2104</ele>
        <time>2010-01-01T00:47:03Z</time>
      </trkpt>
      <trkpt lat="44.71233" lon="6.54026">
        <ele>2104</ele>
        <time>2010-01-01T00:47:03Z</time>
      </trkpt>
      <trkpt lat="44.71233" lon="6.54026">
        <ele>2104</ele>
        <time>2010-01-01T00:47:03Z</time>
      </trkpt>
      <trkpt lat="44.71232" lon="6.54026">
        <ele>2104</ele>
        <time>2010-01-01T00:47:03Z</time>
      </trkpt>
      <trkpt lat="44.71233" lon="6.54026">
        <ele>2104</ele>
        <time>2010-01-01T00:47:03Z</time>
      </trkpt>
      <trkpt lat="44.71233" lon="6.54026">
        <ele>2104</ele>
        <time>2010-01-01T00:47:03Z</time>
      </trkpt>
      <trkpt lat="44.71233" lon="6.54026">
        <ele>2104</ele>
        <time>2010-01-01T00:47:03Z</time>
      </trkpt>
      <trkpt lat="44.71234" lon="6.54027">
        <ele>2104</ele>
        <time>2010-01-01T00:47:04Z</time>
      </trkpt>
      <trkpt lat="44.71236" lon="6.54026">
        <ele>2105</ele>
        <time>2010-01-01T00:47:04Z</time>
      </trkpt>
      <trkpt lat="44.71239" lon="6.54027">
        <ele>2107</ele>
        <time>2010-01-01T00:47:05Z</time>
      </trkpt>
      <trkpt lat="44.71239" lon="6.54027">
        <ele>2107</ele>
        <time>2010-01-01T00:47:05Z</time>
      </trkpt>
      <trkpt lat="44.7124" lon="6.54027">
        <ele>2108</ele>
        <time>2010-01-01T00:47:05Z</time>
      </trkpt>
      <trkpt lat="44.71241" lon="6.54027">
        <ele>2108</ele>
        <time>2010-01-01T00:47:06Z</time>
      </trkpt>
      <trkpt lat="44.71243" lon="6.54026">
        <ele>2109</ele>
        <time>2010-01-01T00:47:06Z</time>
      </trkpt>
      <trkpt lat="44.71244" lon="6.54026">
        <ele>2110</ele>
        <time>2010-01-01T00:47:06Z</time>
      </trkpt>
      <trkpt lat="44.71245" lon="6.54026">
        <ele>2110</ele>
        <time>2010-01-01T00:47:07Z</time>
      </trkpt>
      <trkpt lat="44.71246" lon="6.54028">
        <ele>2111</ele>
        <time>2010-01-01T00:47:07Z</time>
      </trkpt>
      <trkpt lat="44.71248" lon="6.54027">
        <ele>2112</ele>
        <time>2010-01-01T00:47:08Z</time>
      </trkpt>
      <trkpt lat="44.71249" lon="6.54027">
        <ele>2112</ele>
        <time>2010-01-01T00:47:08Z</time>
      </trkpt>
      <trkpt lat="44.7125" lon="6.54028">
        <ele>2113</ele>
        <time>2010-01-01T00:47:08Z</time>
      </trkpt>
      <trkpt lat="44.71251" lon="6.54029">
        <ele>2113</ele>
        <time>2010-01-01T00:47:09Z</time>
      </trkpt>
      <trkpt lat="44.71252" lon="6.54029">
        <ele>2114</ele>
        <time>2010-01-01T00:47:09Z</time>
      </trkpt>
      <trkpt lat="44.71254" lon="6.54027">
        <ele>2115</ele>
        <time>2010-01-01T00:47:10Z</time>
      </trkpt>
      <trkpt lat="44.71255" lon="6.54027">
        <ele>2116</ele>
        <time>2010-01-01T00:47:10Z</time>
      </trkpt>
      <trkpt lat="44.71256" lon="6.54026">
        <ele>2116</ele>
        <time>2010-01-01T00:47:10Z</time>
      </trkpt>
      <trkpt lat="44.71256" lon="6.54026">
        <ele>2117</ele>
        <time>2010-01-01T00:47:10Z</time>
      </trkpt>
      <trkpt lat="44.71258" lon="6.54025">
        <ele>2117</ele>
        <time>2010-01-01T00:47:11Z</time>
      </trkpt>
      <trkpt lat="44.71258" lon="6.54026">
        <ele>2117</ele>
        <time>2010-01-01T00:47:11Z</time>
      </trkpt>
      <trkpt lat="44.71259" lon="6.54026">
        <ele>2118</ele>
        <time>2010-01-01T00:47:11Z</time>
      </trkpt>
      <trkpt lat="44.71259" lon="6.54026">
        <ele>2118</ele>
        <time>2010-01-01T00:47:11Z</time>
      </trkpt>
      <trkpt lat="44.71261" lon="6.54028">
        <ele>2119</ele>
        <time>2010-01-01T00:47:12Z</time>
      </trkpt>
      <trkpt lat="44.71263" lon="6.54027">
        <ele>2120</ele>
        <time>2010-01-01T00:47:12Z</time>
      </trkpt>
      <trkpt lat="44.71264" lon="6.54026">
        <ele>2121</ele>
        <time>2010-01-01T00:47:12Z</time>
      </trkpt>
      <trkpt lat="44.71267" lon="6.54024">
        <ele>2123</ele>
        <time>2010-01-01T00:47:13Z</time>
      </trkpt>
      <trkpt lat="44.71268" lon="6.54025">
        <ele>2123</ele>
        <time>2010-01-01T00:47:14Z</time>
      </trkpt>
      <trkpt lat="44.71268" lon="6.54028">
        <ele>2124</ele>
        <time>2010-01-01T00:47:14Z</time>
      </trkpt>
      <trkpt lat="44.71269" lon="6.54028">
        <ele>2124</ele>
        <time>2010-01-01T00:47:14Z</time>
      </trkpt>
      <trkpt lat="44.7127" lon="6.54026">
        <ele>2125</ele>
        <time>2010-01-01T00:47:15Z</time>
      </trkpt>
      <trkpt lat="44.71273" lon="6.54023">
        <ele>2126</ele>
        <time>2010-01-01T00:47:16Z</time>
      </trkpt>
      <trkpt lat="44.71274" lon="6.54023">
        <ele>2127</ele>
        <time>2010-01-01T00:47:16Z</time>
      </trkpt>
      <trkpt lat="44.71274" lon="6.54023">
        <ele>2127</ele>
        <time>2010-01-01T00:47:16Z</time>
      </trkpt>
      <trkpt lat="44.71276" lon="6.54023">
        <ele>2128</ele>
        <time>2010-01-01T00:47:17Z</time>
      </trkpt>
      <trkpt lat="44.71277" lon="6.54024">
        <ele>2129</ele>
        <time>2010-01-01T00:47:17Z</time>
      </trkpt>
      <trkpt lat="44.7128" lon="6.54026">
        <ele>2130</ele>
        <time>2010-01-01T00:47:18Z</time>
      </trkpt>
      <trkpt lat="44.7128" lon="6.54027">
        <ele>2130</ele>
        <time>2010-01-01T00:47:18Z</time>
      </trkpt>
      <trkpt lat="44.71281" lon="6.54026">
        <ele>2131</ele>
        <time>2010-01-01T00:47:18Z</time>
      </trkpt>
      <trkpt lat="44.71283" lon="6.54022">
        <ele>2132</ele>
        <time>2010-01-01T00:47:19Z</time>
      </trkpt>
      <trkpt lat="44.71285" lon="6.54022">
        <ele>2133</ele>
        <time>2010-01-01T00:47:20Z</time>
      </trkpt>
      <trkpt lat="44.71286" lon="6.54023">
        <ele>2133</ele>
        <time>2010-01-01T00:47:20Z</time>
      </trkpt>
      <trkpt lat="44.71287" lon="6.54026">
        <ele>2134</ele>
        <time>2010-01-01T00:47:20Z</time>
      </trkpt>
      <trkpt lat="44.71288" lon="6.54029">
        <ele>2134</ele>
        <time>2010-01-01T00:47:21Z</time>
      </trkpt>
      <trkpt lat="44.71288" lon="6.54031">
        <ele>2134</ele>
        <time>2010-01-01T00:47:21Z</time>
      </trkpt>
      <trkpt lat="44.71289" lon="6.54033">
        <ele>2134</ele>
        <time>2010-01-01T00:47:22Z</time>
      </trkpt>
      <trkpt lat="44.7129" lon="6.54034">
        <ele>2135</ele>
        <time>2010-01-01T00:47:22Z</time>
      </trkpt>
      <trkpt lat="44.71291" lon="6.54035">
        <ele>2135</ele>
        <time>2010-01-01T00:47:23Z</time>
      </trkpt>
      <trkpt lat="44.71291" lon="6.54038">
        <ele>2136</ele>
        <time>2010-01-01T00:47:23Z</time>
      </trkpt>
      <trkpt lat="44.71292" lon="6.54041">
        <ele>2136</ele>
        <time>2010-01-01T00:47:24Z</time>
      </trkpt>
      <trkpt lat="44.71294" lon="6.54039">
        <ele>2137</ele>
        <time>2010-01-01T00:47:24Z</time>
      </trkpt>
      <trkpt lat="44.71295" lon="6.54038">
        <ele>2138</ele>
        <time>2010-01-01T00:47:25Z</time>
      </trkpt>
      <trkpt lat="44.71296" lon="6.54038">
        <ele>2138</ele>
        <time>2010-01-01T00:47:25Z</time>
      </trkpt>
      <trkpt lat="44.71296" lon="6.54039">
        <ele>2138</ele>
        <time>2010-01-01T00:47:25Z</time>
      </trkpt>
      <trkpt lat="44.71297" lon="6.5404">
        <ele>2139</ele>
        <time>2010-01-01T00:47:25Z</time>
      </trkpt>
      <trkpt lat="44.71298" lon="6.54039">
        <ele>2139</ele>
        <time>2010-01-01T00:47:26Z</time>
      </trkpt>
      <trkpt lat="44.713" lon="6.54036">
        <ele>2140</ele>
        <time>2010-01-01T00:47:26Z</time>
      </trkpt>
      <trkpt lat="44.71301" lon="6.54036">
        <ele>2140</ele>
        <time>2010-01-01T00:47:26Z</time>
      </trkpt>
      <trkpt lat="44.71302" lon="6.54034">
        <ele>2141</ele>
        <time>2010-01-01T00:47:27Z</time>
      </trkpt>
      <trkpt lat="44.71303" lon="6.54032">
        <ele>2141</ele>
        <time>2010-01-01T00:47:27Z</time>
      </trkpt>
      <trkpt lat="44.71305" lon="6.5403">
        <ele>2142</ele>
        <time>2010-01-01T00:47:28Z</time>
      </trkpt>
      <trkpt lat="44.71307" lon="6.5403">
        <ele>2143</ele>
        <time>2010-01-01T00:47:29Z</time>
      </trkpt>
      <trkpt lat="44.71307" lon="6.54031">
        <ele>2143</ele>
        <time>2010-01-01T00:47:29Z</time>
      </trkpt>
      <trkpt lat="44.71309" lon="6.54029">
        <ele>2144</ele>
        <time>2010-01-01T00:47:29Z</time>
      </trkpt>
      <trkpt lat="44.7131" lon="6.54029">
        <ele>2144</ele>
        <time>2010-01-01T00:47:30Z</time>
      </trkpt>
      <trkpt lat="44.71312" lon="6.54027">
        <ele>2145</ele>
        <time>2010-01-01T00:47:30Z</time>
      </trkpt>
      <trkpt lat="44.71313" lon="6.54026">
        <ele>2145</ele>
        <time>2010-01-01T00:47:31Z</time>
      </trkpt>
      <trkpt lat="44.71314" lon="6.54027">
        <ele>2146</ele>
        <time>2010-01-01T00:47:31Z</time>
      </trkpt>
      <trkpt lat="44.71315" lon="6.54028">
        <ele>2146</ele>
        <time>2010-01-01T00:47:31Z</time>
      </trkpt>
      <trkpt lat="44.71315" lon="6.54031">
        <ele>2146</ele>
        <time>2010-01-01T00:47:32Z</time>
      </trkpt>
      <trkpt lat="44.71315" lon="6.54033">
        <ele>2146</ele>
        <time>2010-01-01T00:47:32Z</time>
      </trkpt>
      <trkpt lat="44.71316" lon="6.54036">
        <ele>2147</ele>
        <time>2010-01-01T00:47:33Z</time>
      </trkpt>
      <trkpt lat="44.71317" lon="6.54037">
        <ele>2147</ele>
        <time>2010-01-01T00:47:33Z</time>
      </trkpt>
      <trkpt lat="44.71319" lon="6.54033">
        <ele>2148</ele>
        <time>2010-01-01T00:47:34Z</time>
      </trkpt>
      <trkpt lat="44.71322" lon="6.54031">
        <ele>2149</ele>
        <time>2010-01-01T00:47:35Z</time>
      </trkpt>
      <trkpt lat="44.71325" lon="6.5403">
        <ele>2150</ele>
        <time>2010-01-01T00:47:36Z</time>
      </trkpt>
      <trkpt lat="44.71327" lon="6.54028">
        <ele>2150</ele>
        <time>2010-01-01T00:47:36Z</time>
      </trkpt>
      <trkpt lat="44.71329" lon="6.54027">
        <ele>2151</ele>
        <time>2010-01-01T00:47:37Z</time>
      </trkpt>
      <trkpt lat="44.71329" lon="6.54026">
        <ele>2151</ele>
        <time>2010-01-01T00:47:37Z</time>
      </trkpt>
      <trkpt lat="44.71333" lon="6.54024">
        <ele>2152</ele>
        <time>2010-01-01T00:47:38Z</time>
      </trkpt>
      <trkpt lat="44.71333" lon="6.54024">
        <ele>2152</ele>
        <time>2010-01-01T00:47:38Z</time>
      </trkpt>
      <trkpt lat="44.71334" lon="6.54023">
        <ele>2152</ele>
        <time>2010-01-01T00:47:38Z</time>
      </trkpt>
      <trkpt lat="44.71335" lon="6.54022">
        <ele>2152</ele>
        <time>2010-01-01T00:47:39Z</time>
      </trkpt>
      <trkpt lat="44.71337" lon="6.54022">
        <ele>2153</ele>
        <time>2010-01-01T00:47:39Z</time>
      </trkpt>
      <trkpt lat="44.71338" lon="6.54021">
        <ele>2153</ele>
        <time>2010-01-01T00:47:40Z</time>
      </trkpt>
      <trkpt lat="44.71341" lon="6.54021">
        <ele>2154</ele>
        <time>2010-01-01T00:47:40Z</time>
      </trkpt>
      <trkpt lat="44.7134" lon="6.54021">
        <ele>2153</ele>
        <time>2010-01-01T00:47:40Z</time>
      </trkpt>
      <trkpt lat="44.71344" lon="6.54019">
        <ele>2154</ele>
        <time>2010-01-01T00:47:41Z</time>
      </trkpt>
      <trkpt lat="44.71344" lon="6.54018">
        <ele>2154</ele>
        <time>2010-01-01T00:47:41Z</time>
      </trkpt>
      <trkpt lat="44.71349" lon="6.54016">
        <ele>2155</ele>
        <time>2010-01-01T00:47:43Z</time>
      </trkpt>
      <trkpt lat="44.71353" lon="6.54012">
        <ele>2156</ele>
        <time>2010-01-01T00:47:44Z</time>
      </trkpt>
      <trkpt lat="44.71355" lon="6.54012">
        <ele>2157</ele>
        <time>2010-01-01T00:47:44Z</time>
      </trkpt>
      <trkpt lat="44.71358" lon="6.54009">
        <ele>2158</ele>
        <time>2010-01-01T00:47:46Z</time>
      </trkpt>
      <trkpt lat="44.71359" lon="6.54008">
        <ele>2158</ele>
        <time>2010-01-01T00:47:46Z</time>
      </trkpt>
      <trkpt lat="44.71363" lon="6.54003">
        <ele>2159</ele>
        <time>2010-01-01T00:47:47Z</time>
      </trkpt>
      <trkpt lat="44.71365" lon="6.54002">
        <ele>2160</ele>
        <time>2010-01-01T00:47:48Z</time>
      </trkpt>
      <trkpt lat="44.71367" lon="6.54001">
        <ele>2160</ele>
        <time>2010-01-01T00:47:49Z</time>
      </trkpt>
      <trkpt lat="44.7137" lon="6.53999">
        <ele>2161</ele>
        <time>2010-01-01T00:47:49Z</time>
      </trkpt>
      <trkpt lat="44.71373" lon="6.53995">
        <ele>2161</ele>
        <time>2010-01-01T00:47:50Z</time>
      </trkpt>
      <trkpt lat="44.71375" lon="6.53992">
        <ele>2162</ele>
        <time>2010-01-01T00:47:51Z</time>
      </trkpt>
      <trkpt lat="44.71381" lon="6.53982">
        <ele>2164</ele>
        <time>2010-01-01T00:47:54Z</time>
      </trkpt>
      <trkpt lat="44.71384" lon="6.53977">
        <ele>2165</ele>
        <time>2010-01-01T00:47:55Z</time>
      </trkpt>
      <trkpt lat="44.71386" lon="6.53974">
        <ele>2166</ele>
        <time>2010-01-01T00:47:56Z</time>
      </trkpt>
      <trkpt lat="44.7139" lon="6.53966">
        <ele>2168</ele>
        <time>2010-01-01T00:47:58Z</time>
      </trkpt>
      <trkpt lat="44.71392" lon="6.53964">
        <ele>2168</ele>
        <time>2010-01-01T00:47:58Z</time>
      </trkpt>
      <trkpt lat="44.71392" lon="6.53964">
        <ele>2168</ele>
        <time>2010-01-01T00:47:58Z</time>
      </trkpt>
      <trkpt lat="44.71395" lon="6.53964">
        <ele>2169</ele>
        <time>2010-01-01T00:47:59Z</time>
      </trkpt>
      <trkpt lat="44.71399" lon="6.53963">
        <ele>2169</ele>
        <time>2010-01-01T00:48:00Z</time>
      </trkpt>
      <trkpt lat="44.71399" lon="6.53962">
        <ele>2170</ele>
        <time>2010-01-01T00:48:00Z</time>
      </trkpt>
      <trkpt lat="44.714" lon="6.53959">
        <ele>2170</ele>
        <time>2010-01-01T00:48:01Z</time>
      </trkpt>
      <trkpt lat="44.71402" lon="6.53954">
        <ele>2170</ele>
        <time>2010-01-01T00:48:02Z</time>
      </trkpt>
      <trkpt lat="44.71403" lon="6.53951">
        <ele>2170</ele>
        <time>2010-01-01T00:48:03Z</time>
      </trkpt>
      <trkpt lat="44.71403" lon="6.53949">
        <ele>2171</ele>
        <time>2010-01-01T00:48:03Z</time>
      </trkpt>
      <trkpt lat="44.71405" lon="6.53944">
        <ele>2171</ele>
        <time>2010-01-01T00:48:04Z</time>
      </trkpt>
      <trkpt lat="44.71406" lon="6.53941">
        <ele>2171</ele>
        <time>2010-01-01T00:48:05Z</time>
      </trkpt>
      <trkpt lat="44.71406" lon="6.53942">
        <ele>2171</ele>
        <time>2010-01-01T00:48:05Z</time>
      </trkpt>
      <trkpt lat="44.71405" lon="6.53941">
        <ele>2171</ele>
        <time>2010-01-01T00:48:05Z</time>
      </trkpt>
      <trkpt lat="44.71406" lon="6.53942">
        <ele>2171</ele>
        <time>2010-01-01T00:48:05Z</time>
      </trkpt>
      <trkpt lat="44.71409" lon="6.5394">
        <ele>2172</ele>
        <time>2010-01-01T00:48:06Z</time>
      </trkpt>
      <trkpt lat="44.71411" lon="6.5394">
        <ele>2173</ele>
        <time>2010-01-01T00:48:06Z</time>
      </trkpt>
      <trkpt lat="44.71413" lon="6.5394">
        <ele>2173</ele>
        <time>2010-01-01T00:48:07Z</time>
      </trkpt>
      <trkpt lat="44.71415" lon="6.53939">
        <ele>2174</ele>
        <time>2010-01-01T00:48:07Z</time>
      </trkpt>
      <trkpt lat="44.71416" lon="6.53938">
        <ele>2174</ele>
        <time>2010-01-01T00:48:08Z</time>
      </trkpt>
      <trkpt lat="44.7142" lon="6.53935">
        <ele>2175</ele>
        <time>2010-01-01T00:48:09Z</time>
      </trkpt>
      <trkpt lat="44.7142" lon="6.53934">
        <ele>2175</ele>
        <time>2010-01-01T00:48:09Z</time>
      </trkpt>
      <trkpt lat="44.71421" lon="6.53933">
        <ele>2176</ele>
        <time>2010-01-01T00:48:09Z</time>
      </trkpt>
      <trkpt lat="44.71422" lon="6.53934">
        <ele>2176</ele>
        <time>2010-01-01T00:48:10Z</time>
      </trkpt>
      <trkpt lat="44.71423" lon="6.53935">
        <ele>2176</ele>
        <time>2010-01-01T00:48:10Z</time>
      </trkpt>
      <trkpt lat="44.71424" lon="6.53935">
        <ele>2177</ele>
        <time>2010-01-01T00:48:10Z</time>
      </trkpt>
      <trkpt lat="44.71425" lon="6.53933">
        <ele>2177</ele>
        <time>2010-01-01T00:48:11Z</time>
      </trkpt>
      <trkpt lat="44.71426" lon="6.53934">
        <ele>2178</ele>
        <time>2010-01-01T00:48:11Z</time>
      </trkpt>
      <trkpt lat="44.71428" lon="6.53933">
        <ele>2178</ele>
        <time>2010-01-01T00:48:11Z</time>
      </trkpt>
      <trkpt lat="44.71429" lon="6.53932">
        <ele>2178</ele>
        <time>2010-01-01T00:48:12Z</time>
      </trkpt>
      <trkpt lat="44.7143" lon="6.53932">
        <ele>2179</ele>
        <time>2010-01-01T00:48:12Z</time>
      </trkpt>
      <trkpt lat="44.7143" lon="6.53933">
        <ele>2179</ele>
        <time>2010-01-01T00:48:12Z</time>
      </trkpt>
      <trkpt lat="44.71431" lon="6.53933">
        <ele>2179</ele>
        <time>2010-01-01T00:48:12Z</time>
      </trkpt>
      <trkpt lat="44.71432" lon="6.53933">
        <ele>2179</ele>
        <time>2010-01-01T00:48:13Z</time>
      </trkpt>
      <trkpt lat="44.71432" lon="6.53934">
        <ele>2180</ele>
        <time>2010-01-01T00:48:13Z</time>
      </trkpt>
      <trkpt lat="44.71434" lon="6.53934">
        <ele>2180</ele>
        <time>2010-01-01T00:48:13Z</time>
      </trkpt>
      <trkpt lat="44.71434" lon="6.53934">
        <ele>2180</ele>
        <time>2010-01-01T00:48:13Z</time>
      </trkpt>
      <trkpt lat="44.71437" lon="6.53934">
        <ele>2181</ele>
        <time>2010-01-01T00:48:14Z</time>
      </trkpt>
      <trkpt lat="44.71437" lon="6.53934">
        <ele>2181</ele>
        <time>2010-01-01T00:48:14Z</time>
      </trkpt>
      <trkpt lat="44.71438" lon="6.53934">
        <ele>2182</ele>
        <time>2010-01-01T00:48:14Z</time>
      </trkpt>
      <trkpt lat="44.71439" lon="6.53936">
        <ele>2182</ele>
        <time>2010-01-01T00:48:15Z</time>
      </trkpt>
      <trkpt lat="44.71441" lon="6.53936">
        <ele>2183</ele>
        <time>2010-01-01T00:48:15Z</time>
      </trkpt>
      <trkpt lat="44.71443" lon="6.53935">
        <ele>2183</ele>
        <time>2010-01-01T00:48:16Z</time>
      </trkpt>
      <trkpt lat="44.71443" lon="6.53933">
        <ele>2183</ele>
        <time>2010-01-01T00:48:16Z</time>
      </trkpt>
      <trkpt lat="44.71445" lon="6.53932">
        <ele>2184</ele>
        <time>2010-01-01T00:48:17Z</time>
      </trkpt>
      <trkpt lat="44.71447" lon="6.53932">
        <ele>2186</ele>
        <time>2010-01-01T00:48:17Z</time>
      </trkpt>
      <trkpt lat="44.71447" lon="6.53933">
        <ele>2186</ele>
        <time>2010-01-01T00:48:18Z</time>
      </trkpt>
      <trkpt lat="44.71447" lon="6.53934">
        <ele>2186</ele>
        <time>2010-01-01T00:48:18Z</time>
      </trkpt>
      <trkpt lat="44.71447" lon="6.53934">
        <ele>2186</ele>
        <time>2010-01-01T00:48:18Z</time>
      </trkpt>
      <trkpt lat="44.71448" lon="6.5393">
        <ele>2186</ele>
        <time>2010-01-01T00:48:19Z</time>
      </trkpt>
      <trkpt lat="44.7145" lon="6.53928">
        <ele>2188</ele>
        <time>2010-01-01T00:48:19Z</time>
      </trkpt>
      <trkpt lat="44.7145" lon="6.53929">
        <ele>2188</ele>
        <time>2010-01-01T00:48:19Z</time>
      </trkpt>
      <trkpt lat="44.71451" lon="6.5393">
        <ele>2188</ele>
        <time>2010-01-01T00:48:19Z</time>
      </trkpt>
      <trkpt lat="44.71452" lon="6.5393">
        <ele>2189</ele>
        <time>2010-01-01T00:48:20Z</time>
      </trkpt>
      <trkpt lat="44.71455" lon="6.53927">
        <ele>2191</ele>
        <time>2010-01-01T00:48:21Z</time>
      </trkpt>
      <trkpt lat="44.71455" lon="6.53927">
        <ele>2191</ele>
        <time>2010-01-01T00:48:21Z</time>
      </trkpt>
      <trkpt lat="44.71455" lon="6.53927">
        <ele>2191</ele>
        <time>2010-01-01T00:48:21Z</time>
      </trkpt>
      <trkpt lat="44.71457" lon="6.53929">
        <ele>2192</ele>
        <time>2010-01-01T00:48:21Z</time>
      </trkpt>
      <trkpt lat="44.71457" lon="6.53928">
        <ele>2192</ele>
        <time>2010-01-01T00:48:21Z</time>
      </trkpt>
      <trkpt lat="44.71458" lon="6.53928">
        <ele>2193</ele>
        <time>2010-01-01T00:48:22Z</time>
      </trkpt>
      <trkpt lat="44.71459" lon="6.53926">
        <ele>2193</ele>
        <time>2010-01-01T00:48:22Z</time>
      </trkpt>
      <trkpt lat="44.71459" lon="6.53925">
        <ele>2194</ele>
        <time>2010-01-01T00:48:22Z</time>
      </trkpt>
      <trkpt lat="44.71461" lon="6.53927">
        <ele>2195</ele>
        <time>2010-01-01T00:48:23Z</time>
      </trkpt>
      <trkpt lat="44.71461" lon="6.53928">
        <ele>2195</ele>
        <time>2010-01-01T00:48:23Z</time>
      </trkpt>
      <trkpt lat="44.71462" lon="6.53929">
        <ele>2196</ele>
        <time>2010-01-01T00:48:23Z</time>
      </trkpt>
      <trkpt lat="44.71462" lon="6.53929">
        <ele>2196</ele>
        <time>2010-01-01T00:48:23Z</time>
      </trkpt>
      <trkpt lat="44.71464" lon="6.53929">
        <ele>2197</ele>
        <time>2010-01-01T00:48:24Z</time>
      </trkpt>
      <trkpt lat="44.71466" lon="6.53927">
        <ele>2198</ele>
        <time>2010-01-01T00:48:25Z</time>
      </trkpt>
      <trkpt lat="44.71467" lon="6.53926">
        <ele>2199</ele>
        <time>2010-01-01T00:48:25Z</time>
      </trkpt>
      <trkpt lat="44.71469" lon="6.53925">
        <ele>2200</ele>
        <time>2010-01-01T00:48:26Z</time>
      </trkpt>
      <trkpt lat="44.71469" lon="6.53925">
        <ele>2200</ele>
        <time>2010-01-01T00:48:26Z</time>
      </trkpt>
      <trkpt lat="44.71469" lon="6.53926">
        <ele>2200</ele>
        <time>2010-01-01T00:48:26Z</time>
      </trkpt>
      <trkpt lat="44.71469" lon="6.53926">
        <ele>2200</ele>
        <time>2010-01-01T00:48:26Z</time>
      </trkpt>
      <trkpt lat="44.7147" lon="6.53929">
        <ele>2201</ele>
        <time>2010-01-01T00:48:26Z</time>
      </trkpt>
      <trkpt lat="44.71472" lon="6.53927">
        <ele>2202</ele>
        <time>2010-01-01T00:48:27Z</time>
      </trkpt>
      <trkpt lat="44.71473" lon="6.53926">
        <ele>2203</ele>
        <time>2010-01-01T00:48:27Z</time>
      </trkpt>
      <trkpt lat="44.71474" lon="6.53926">
        <ele>2203</ele>
        <time>2010-01-01T00:48:28Z</time>
      </trkpt>
      <trkpt lat="44.71474" lon="6.53927">
        <ele>2203</ele>
        <time>2010-01-01T00:48:28Z</time>
      </trkpt>
      <trkpt lat="44.71474" lon="6.5393">
        <ele>2204</ele>
        <time>2010-01-01T00:48:28Z</time>
      </trkpt>
      <trkpt lat="44.71474" lon="6.53931">
        <ele>2204</ele>
        <time>2010-01-01T00:48:28Z</time>
      </trkpt>
      <trkpt lat="44.71476" lon="6.5393">
        <ele>2205</ele>
        <time>2010-01-01T00:48:29Z</time>
      </trkpt>
      <trkpt lat="44.71478" lon="6.53931">
        <ele>2206</ele>
        <time>2010-01-01T00:48:29Z</time>
      </trkpt>
      <trkpt lat="44.71478" lon="6.53932">
        <ele>2207</ele>
        <time>2010-01-01T00:48:30Z</time>
      </trkpt>
      <trkpt lat="44.71479" lon="6.53932">
        <ele>2207</ele>
        <time>2010-01-01T00:48:30Z</time>
      </trkpt>
      <trkpt lat="44.71479" lon="6.53934">
        <ele>2208</ele>
        <time>2010-01-01T00:48:30Z</time>
      </trkpt>
      <trkpt lat="44.7148" lon="6.53937">
        <ele>2208</ele>
        <time>2010-01-01T00:48:31Z</time>
      </trkpt>
      <trkpt lat="44.71481" lon="6.53936">
        <ele>2209</ele>
        <time>2010-01-01T00:48:31Z</time>
      </trkpt>
      <trkpt lat="44.71481" lon="6.53936">
        <ele>2209</ele>
        <time>2010-01-01T00:48:31Z</time>
      </trkpt>
      <trkpt lat="44.71482" lon="6.53937">
        <ele>2210</ele>
        <time>2010-01-01T00:48:32Z</time>
      </trkpt>
      <trkpt lat="44.71483" lon="6.53938">
        <ele>2210</ele>
        <time>2010-01-01T00:48:32Z</time>
      </trkpt>
      <trkpt lat="44.71484" lon="6.53939">
        <ele>2212</ele>
        <time>2010-01-01T00:48:32Z</time>
      </trkpt>
      <trkpt lat="44.71486" lon="6.5394">
        <ele>2212</ele>
        <time>2010-01-01T00:48:33Z</time>
      </trkpt>
      <trkpt lat="44.71487" lon="6.53941">
        <ele>2213</ele>
        <time>2010-01-01T00:48:33Z</time>
      </trkpt>
      <trkpt lat="44.71487" lon="6.53942">
        <ele>2213</ele>
        <time>2010-01-01T00:48:33Z</time>
      </trkpt>
      <trkpt lat="44.71486" lon="6.53943">
        <ele>2213</ele>
        <time>2010-01-01T00:48:33Z</time>
      </trkpt>
      <trkpt lat="44.71486" lon="6.53943">
        <ele>2213</ele>
        <time>2010-01-01T00:48:34Z</time>
      </trkpt>
      <trkpt lat="44.71488" lon="6.53942">
        <ele>2214</ele>
        <time>2010-01-01T00:48:34Z</time>
      </trkpt>
      <trkpt lat="44.7149" lon="6.53942">
        <ele>2215</ele>
        <time>2010-01-01T00:48:35Z</time>
      </trkpt>
      <trkpt lat="44.7149" lon="6.53942">
        <ele>2216</ele>
        <time>2010-01-01T00:48:35Z</time>
      </trkpt>
      <trkpt lat="44.7149" lon="6.53942">
        <ele>2216</ele>
        <time>2010-01-01T00:48:35Z</time>
      </trkpt>
      <trkpt lat="44.71494" lon="6.53939">
        <ele>2218</ele>
        <time>2010-01-01T00:48:36Z</time>
      </trkpt>
      <trkpt lat="44.71494" lon="6.53939">
        <ele>2218</ele>
        <time>2010-01-01T00:48:36Z</time>
      </trkpt>
      <trkpt lat="44.71495" lon="6.53939">
        <ele>2219</ele>
        <time>2010-01-01T00:48:36Z</time>
      </trkpt>
      <trkpt lat="44.71495" lon="6.53942">
        <ele>2219</ele>
        <time>2010-01-01T00:48:37Z</time>
      </trkpt>
      <trkpt lat="44.71495" lon="6.53943">
        <ele>2219</ele>
        <time>2010-01-01T00:48:37Z</time>
      </trkpt>
      <trkpt lat="44.71496" lon="6.53946">
        <ele>2220</ele>
        <time>2010-01-01T00:48:37Z</time>
      </trkpt>
      <trkpt lat="44.71497" lon="6.53946">
        <ele>2220</ele>
        <time>2010-01-01T00:48:38Z</time>
      </trkpt>
      <trkpt lat="44.71498" lon="6.53949">
        <ele>2221</ele>
        <time>2010-01-01T00:48:38Z</time>
      </trkpt>
      <trkpt lat="44.71499" lon="6.53951">
        <ele>2222</ele>
        <time>2010-01-01T00:48:39Z</time>
      </trkpt>
      <trkpt lat="44.71499" lon="6.53951">
        <ele>2222</ele>
        <time>2010-01-01T00:48:39Z</time>
      </trkpt>
      <trkpt lat="44.71499" lon="6.53951">
        <ele>2222</ele>
        <time>2010-01-01T00:48:39Z</time>
      </trkpt>
      <trkpt lat="44.715" lon="6.53951">
        <ele>2223</ele>
        <time>2010-01-01T00:48:39Z</time>
      </trkpt>
      <trkpt lat="44.71501" lon="6.53951">
        <ele>2224</ele>
        <time>2010-01-01T00:48:39Z</time>
      </trkpt>
      <trkpt lat="44.71501" lon="6.53951">
        <ele>2224</ele>
        <time>2010-01-01T00:48:39Z</time>
      </trkpt>
      <trkpt lat="44.71501" lon="6.53951">
        <ele>2224</ele>
        <time>2010-01-01T00:48:39Z</time>
      </trkpt>
      <trkpt lat="44.71501" lon="6.53952">
        <ele>2224</ele>
        <time>2010-01-01T00:48:40Z</time>
      </trkpt>
      <trkpt lat="44.71502" lon="6.53953">
        <ele>2224</ele>
        <time>2010-01-01T00:48:40Z</time>
      </trkpt>
      <trkpt lat="44.71503" lon="6.53957">
        <ele>2226</ele>
        <time>2010-01-01T00:48:41Z</time>
      </trkpt>
      <trkpt lat="44.71505" lon="6.53961">
        <ele>2227</ele>
        <time>2010-01-01T00:48:42Z</time>
      </trkpt>
      <trkpt lat="44.71505" lon="6.53964">
        <ele>2227</ele>
        <time>2010-01-01T00:48:42Z</time>
      </trkpt>
      <trkpt lat="44.71505" lon="6.53967">
        <ele>2228</ele>
        <time>2010-01-01T00:48:43Z</time>
      </trkpt>
      <trkpt lat="44.71506" lon="6.53971">
        <ele>2229</ele>
        <time>2010-01-01T00:48:43Z</time>
      </trkpt>
      <trkpt lat="44.71507" lon="6.53971">
        <ele>2229</ele>
        <time>2010-01-01T00:48:44Z</time>
      </trkpt>
      <trkpt lat="44.71508" lon="6.53974">
        <ele>2230</ele>
        <time>2010-01-01T00:48:44Z</time>
      </trkpt>
      <trkpt lat="44.71508" lon="6.53974">
        <ele>2230</ele>
        <time>2010-01-01T00:48:44Z</time>
      </trkpt>
      <trkpt lat="44.71508" lon="6.53975">
        <ele>2230</ele>
        <time>2010-01-01T00:48:45Z</time>
      </trkpt>
      <trkpt lat="44.71509" lon="6.53978">
        <ele>2231</ele>
        <time>2010-01-01T00:48:45Z</time>
      </trkpt>
      <trkpt lat="44.71509" lon="6.53981">
        <ele>2231</ele>
        <time>2010-01-01T00:48:46Z</time>
      </trkpt>
      <trkpt lat="44.71508" lon="6.53982">
        <ele>2230</ele>
        <time>2010-01-01T00:48:46Z</time>
      </trkpt>
      <trkpt lat="44.71508" lon="6.53986">
        <ele>2230</ele>
        <time>2010-01-01T00:48:46Z</time>
      </trkpt>
      <trkpt lat="44.71509" lon="6.53991">
        <ele>2231</ele>
        <time>2010-01-01T00:48:47Z</time>
      </trkpt>
      <trkpt lat="44.7151" lon="6.53993">
        <ele>2232</ele>
        <time>2010-01-01T00:48:48Z</time>
      </trkpt>
      <trkpt lat="44.71511" lon="6.53998">
        <ele>2233</ele>
        <time>2010-01-01T00:48:49Z</time>
      </trkpt>
      <trkpt lat="44.71511" lon="6.53999">
        <ele>2233</ele>
        <time>2010-01-01T00:48:49Z</time>
      </trkpt>
      <trkpt lat="44.71511" lon="6.54">
        <ele>2233</ele>
        <time>2010-01-01T00:48:49Z</time>
      </trkpt>
      <trkpt lat="44.71513" lon="6.54004">
        <ele>2235</ele>
        <time>2010-01-01T00:48:50Z</time>
      </trkpt>
      <trkpt lat="44.71515" lon="6.54009">
        <ele>2237</ele>
        <time>2010-01-01T00:48:51Z</time>
      </trkpt>
      <trkpt lat="44.71516" lon="6.54011">
        <ele>2237</ele>
        <time>2010-01-01T00:48:52Z</time>
      </trkpt>
      <trkpt lat="44.71517" lon="6.54018">
        <ele>2238</ele>
        <time>2010-01-01T00:48:53Z</time>
      </trkpt>
      <trkpt lat="44.71518" lon="6.54025">
        <ele>2239</ele>
        <time>2010-01-01T00:48:55Z</time>
      </trkpt>
      <trkpt lat="44.71519" lon="6.54031">
        <ele>2240</ele>
        <time>2010-01-01T00:48:56Z</time>
      </trkpt>
      <trkpt lat="44.71519" lon="6.54032">
        <ele>2240</ele>
        <time>2010-01-01T00:48:56Z</time>
      </trkpt>
      <trkpt lat="44.71521" lon="6.54036">
        <ele>2241</ele>
        <time>2010-01-01T00:48:57Z</time>
      </trkpt>
      <trkpt lat="44.71522" lon="6.54039">
        <ele>2242</ele>
        <time>2010-01-01T00:48:57Z</time>
      </trkpt>
      <trkpt lat="44.71523" lon="6.54044">
        <ele>2243</ele>
        <time>2010-01-01T00:48:58Z</time>
      </trkpt>
      <trkpt lat="44.71524" lon="6.54047">
        <ele>2244</ele>
        <time>2010-01-01T00:48:59Z</time>
      </trkpt>
      <trkpt lat="44.71526" lon="6.54052">
        <ele>2245</ele>
        <time>2010-01-01T00:49:00Z</time>
      </trkpt>
      <trkpt lat="44.71527" lon="6.54053">
        <ele>2246</ele>
        <time>2010-01-01T00:49:00Z</time>
      </trkpt>
      <trkpt lat="44.71528" lon="6.54058">
        <ele>2247</ele>
        <time>2010-01-01T00:49:01Z</time>
      </trkpt>
      <trkpt lat="44.71529" lon="6.5406">
        <ele>2247</ele>
        <time>2010-01-01T00:49:02Z</time>
      </trkpt>
      <trkpt lat="44.71531" lon="6.54063">
        <ele>2248</ele>
        <time>2010-01-01T00:49:03Z</time>
      </trkpt>
      <trkpt lat="44.71532" lon="6.54067">
        <ele>2249</ele>
        <time>2010-01-01T00:49:03Z</time>
      </trkpt>
      <trkpt lat="44.71533" lon="6.54068">
        <ele>2249</ele>
        <time>2010-01-01T00:49:04Z</time>
      </trkpt>
      <trkpt lat="44.71533" lon="6.54067">
        <ele>2249</ele>
        <time>2010-01-01T00:49:04Z</time>
      </trkpt>
      <trkpt lat="44.71534" lon="6.54068">
        <ele>2249</ele>
        <time>2010-01-01T00:49:04Z</time>
      </trkpt>
      <trkpt lat="44.71535" lon="6.5407">
        <ele>2250</ele>
        <time>2010-01-01T00:49:05Z</time>
      </trkpt>
      <trkpt lat="44.71537" lon="6.54072">
        <ele>2251</ele>
        <time>2010-01-01T00:49:05Z</time>
      </trkpt>
      <trkpt lat="44.71539" lon="6.54075">
        <ele>2251</ele>
        <time>2010-01-01T00:49:06Z</time>
      </trkpt>
      <trkpt lat="44.7154" lon="6.54077">
        <ele>2252</ele>
        <time>2010-01-01T00:49:07Z</time>
      </trkpt>
      <trkpt lat="44.7154" lon="6.54078">
        <ele>2252</ele>
        <time>2010-01-01T00:49:07Z</time>
      </trkpt>
      <trkpt lat="44.71542" lon="6.5408">
        <ele>2252</ele>
        <time>2010-01-01T00:49:07Z</time>
      </trkpt>
      <trkpt lat="44.71542" lon="6.54083">
        <ele>2252</ele>
        <time>2010-01-01T00:49:08Z</time>
      </trkpt>
      <trkpt lat="44.71543" lon="6.54085">
        <ele>2252</ele>
        <time>2010-01-01T00:49:08Z</time>
      </trkpt>
      <trkpt lat="44.71544" lon="6.54088">
        <ele>2253</ele>
        <time>2010-01-01T00:49:09Z</time>
      </trkpt>
      <trkpt lat="44.71546" lon="6.54089">
        <ele>2253</ele>
        <time>2010-01-01T00:49:09Z</time>
      </trkpt>
      <trkpt lat="44.71547" lon="6.54091">
        <ele>2254</ele>
        <time>2010-01-01T00:49:10Z</time>
      </trkpt>
      <trkpt lat="44.71548" lon="6.54093">
        <ele>2254</ele>
        <time>2010-01-01T00:49:10Z</time>
      </trkpt>
      <trkpt lat="44.71548" lon="6.54093">
        <ele>2254</ele>
        <time>2010-01-01T00:49:11Z</time>
      </trkpt>
      <trkpt lat="44.71551" lon="6.54097">
        <ele>2255</ele>
        <time>2010-01-01T00:49:11Z</time>
      </trkpt>
      <trkpt lat="44.71552" lon="6.54098">
        <ele>2256</ele>
        <time>2010-01-01T00:49:12Z</time>
      </trkpt>
      <trkpt lat="44.71553" lon="6.541">
        <ele>2256</ele>
        <time>2010-01-01T00:49:12Z</time>
      </trkpt>
      <trkpt lat="44.71555" lon="6.54101">
        <ele>2257</ele>
        <time>2010-01-01T00:49:13Z</time>
      </trkpt>
      <trkpt lat="44.71556" lon="6.54103">
        <ele>2257</ele>
        <time>2010-01-01T00:49:13Z</time>
      </trkpt>
      <trkpt lat="44.71558" lon="6.54108">
        <ele>2258</ele>
        <time>2010-01-01T00:49:14Z</time>
      </trkpt>
      <trkpt lat="44.71559" lon="6.54109">
        <ele>2258</ele>
        <time>2010-01-01T00:49:15Z</time>
      </trkpt>
      <trkpt lat="44.71561" lon="6.54113">
        <ele>2259</ele>
        <time>2010-01-01T00:49:16Z</time>
      </trkpt>
      <trkpt lat="44.71564" lon="6.54115">
        <ele>2260</ele>
        <time>2010-01-01T00:49:16Z</time>
      </trkpt>
      <trkpt lat="44.71564" lon="6.54116">
        <ele>2260</ele>
        <time>2010-01-01T00:49:17Z</time>
      </trkpt>
      <trkpt lat="44.71566" lon="6.54121">
        <ele>2262</ele>
        <time>2010-01-01T00:49:18Z</time>
      </trkpt>
      <trkpt lat="44.71568" lon="6.54124">
        <ele>2262</ele>
        <time>2010-01-01T00:49:18Z</time>
      </trkpt>
      <trkpt lat="44.71568" lon="6.54124">
        <ele>2262</ele>
        <time>2010-01-01T00:49:18Z</time>
      </trkpt>
      <trkpt lat="44.71569" lon="6.54127">
        <ele>2263</ele>
        <time>2010-01-01T00:49:19Z</time>
      </trkpt>
      <trkpt lat="44.7157" lon="6.54128">
        <ele>2263</ele>
        <time>2010-01-01T00:49:19Z</time>
      </trkpt>
      <trkpt lat="44.71571" lon="6.5413">
        <ele>2264</ele>
        <time>2010-01-01T00:49:20Z</time>
      </trkpt>
      <trkpt lat="44.71571" lon="6.54131">
        <ele>2264</ele>
        <time>2010-01-01T00:49:20Z</time>
      </trkpt>
      <trkpt lat="44.71572" lon="6.54135">
        <ele>2265</ele>
        <time>2010-01-01T00:49:21Z</time>
      </trkpt>
      <trkpt lat="44.71573" lon="6.54135">
        <ele>2265</ele>
        <time>2010-01-01T00:49:21Z</time>
      </trkpt>
      <trkpt lat="44.71574" lon="6.54137">
        <ele>2265</ele>
        <time>2010-01-01T00:49:21Z</time>
      </trkpt>
      <trkpt lat="44.71574" lon="6.5414">
        <ele>2266</ele>
        <time>2010-01-01T00:49:22Z</time>
      </trkpt>
      <trkpt lat="44.71576" lon="6.54143">
        <ele>2267</ele>
        <time>2010-01-01T00:49:23Z</time>
      </trkpt>
      <trkpt lat="44.71576" lon="6.54143">
        <ele>2267</ele>
        <time>2010-01-01T00:49:23Z</time>
      </trkpt>
      <trkpt lat="44.71576" lon="6.54143">
        <ele>2267</ele>
        <time>2010-01-01T00:49:23Z</time>
      </trkpt>
      <trkpt lat="44.71576" lon="6.54143">
        <ele>2267</ele>
        <time>2010-01-01T00:49:23Z</time>
      </trkpt>
      <trkpt lat="44.71576" lon="6.54143">
        <ele>2267</ele>
        <time>2010-01-01T00:49:23Z</time>
      </trkpt>
      <trkpt lat="44.71576" lon="6.54143">
        <ele>2267</ele>
        <time>2010-01-01T00:49:23Z</time>
      </trkpt>
      <trkpt lat="44.71576" lon="6.54142">
        <ele>2267</ele>
        <time>2010-01-01T00:49:23Z</time>
      </trkpt>
      <trkpt lat="44.71576" lon="6.54142">
        <ele>2267</ele>
        <time>2010-01-01T00:49:23Z</time>
      </trkpt>
      <trkpt lat="44.71576" lon="6.54143">
        <ele>2267</ele>
        <time>2010-01-01T00:49:23Z</time>
      </trkpt>
      <trkpt lat="44.71576" lon="6.54143">
        <ele>2267</ele>
        <time>2010-01-01T00:49:23Z</time>
      </trkpt>
      <trkpt lat="44.71576" lon="6.54143">
        <ele>2267</ele>
        <time>2010-01-01T00:49:23Z</time>
      </trkpt>
      <trkpt lat="44.71576" lon="6.54142">
        <ele>2267</ele>
        <time>2010-01-01T00:49:24Z</time>
      </trkpt>
      <trkpt lat="44.71581" lon="6.54141">
        <ele>2269</ele>
        <time>2010-01-01T00:49:25Z</time>
      </trkpt>
      <trkpt lat="44.71582" lon="6.5414">
        <ele>2269</ele>
        <time>2010-01-01T00:49:25Z</time>
      </trkpt>
      <trkpt lat="44.71586" lon="6.54137">
        <ele>2270</ele>
        <time>2010-01-01T00:49:26Z</time>
      </trkpt>
      <trkpt lat="44.71587" lon="6.54135">
        <ele>2270</ele>
        <time>2010-01-01T00:49:27Z</time>
      </trkpt>
      <trkpt lat="44.7159" lon="6.54133">
        <ele>2271</ele>
        <time>2010-01-01T00:49:28Z</time>
      </trkpt>
      <trkpt lat="44.7159" lon="6.54133">
        <ele>2271</ele>
        <time>2010-01-01T00:49:28Z</time>
      </trkpt>
      <trkpt lat="44.71592" lon="6.54133">
        <ele>2272</ele>
        <time>2010-01-01T00:49:28Z</time>
      </trkpt>
      <trkpt lat="44.71595" lon="6.54135">
        <ele>2272</ele>
        <time>2010-01-01T00:49:29Z</time>
      </trkpt>
      <trkpt lat="44.71597" lon="6.54141">
        <ele>2273</ele>
        <time>2010-01-01T00:49:30Z</time>
      </trkpt>
      <trkpt lat="44.71598" lon="6.54142">
        <ele>2273</ele>
        <time>2010-01-01T00:49:31Z</time>
      </trkpt>
      <trkpt lat="44.716" lon="6.54147">
        <ele>2274</ele>
        <time>2010-01-01T00:49:32Z</time>
      </trkpt>
      <trkpt lat="44.71602" lon="6.54154">
        <ele>2275</ele>
        <time>2010-01-01T00:49:33Z</time>
      </trkpt>
      <trkpt lat="44.71603" lon="6.54156">
        <ele>2276</ele>
        <time>2010-01-01T00:49:34Z</time>
      </trkpt>
      <trkpt lat="44.71603" lon="6.54157">
        <ele>2276</ele>
        <time>2010-01-01T00:49:34Z</time>
      </trkpt>
      <trkpt lat="44.71603" lon="6.54156">
        <ele>2276</ele>
        <time>2010-01-01T00:49:34Z</time>
      </trkpt>
      <trkpt lat="44.71603" lon="6.54156">
        <ele>2276</ele>
        <time>2010-01-01T00:49:34Z</time>
      </trkpt>
      <trkpt lat="44.71603" lon="6.54156">
        <ele>2276</ele>
        <time>2010-01-01T00:49:34Z</time>
      </trkpt>
      <trkpt lat="44.71604" lon="6.54156">
        <ele>2276</ele>
        <time>2010-01-01T00:49:34Z</time>
      </trkpt>
      <trkpt lat="44.71604" lon="6.54156">
        <ele>2276</ele>
        <time>2010-01-01T00:49:34Z</time>
      </trkpt>
      <trkpt lat="44.71604" lon="6.54157">
        <ele>2276</ele>
        <time>2010-01-01T00:49:34Z</time>
      </trkpt>
      <trkpt lat="44.71605" lon="6.54157">
        <ele>2276</ele>
        <time>2010-01-01T00:49:35Z</time>
      </trkpt>
      <trkpt lat="44.71608" lon="6.54161">
        <ele>2277</ele>
        <time>2010-01-01T00:49:36Z</time>
      </trkpt>
      <trkpt lat="44.7161" lon="6.54164">
        <ele>2278</ele>
        <time>2010-01-01T00:49:37Z</time>
      </trkpt>
      <trkpt lat="44.71616" lon="6.54173">
        <ele>2280</ele>
        <time>2010-01-01T00:49:39Z</time>
      </trkpt>
      <trkpt lat="44.71621" lon="6.54182">
        <ele>2282</ele>
        <time>2010-01-01T00:49:41Z</time>
      </trkpt>
      <trkpt lat="44.71622" lon="6.54183">
        <ele>2282</ele>
        <time>2010-01-01T00:49:42Z</time>
      </trkpt>
      <trkpt lat="44.71626" lon="6.54183">
        <ele>2283</ele>
        <time>2010-01-01T00:49:43Z</time>
      </trkpt>
      <trkpt lat="44.71629" lon="6.54182">
        <ele>2284</ele>
        <time>2010-01-01T00:49:43Z</time>
      </trkpt>
      <trkpt lat="44.71629" lon="6.54182">
        <ele>2284</ele>
        <time>2010-01-01T00:49:43Z</time>
      </trkpt>
      <trkpt lat="44.71629" lon="6.54183">
        <ele>2284</ele>
        <time>2010-01-01T00:49:44Z</time>
      </trkpt>
      <trkpt lat="44.71629" lon="6.54182">
        <ele>2284</ele>
        <time>2010-01-01T00:49:44Z</time>
      </trkpt>
      <trkpt lat="44.71629" lon="6.54182">
        <ele>2284</ele>
        <time>2010-01-01T00:49:44Z</time>
      </trkpt>
      <trkpt lat="44.71629" lon="6.54182">
        <ele>2284</ele>
        <time>2010-01-01T00:49:44Z</time>
      </trkpt>
      <trkpt lat="44.71629" lon="6.54183">
        <ele>2284</ele>
        <time>2010-01-01T00:49:44Z</time>
      </trkpt>
      <trkpt lat="44.71629" lon="6.54182">
        <ele>2284</ele>
        <time>2010-01-01T00:49:44Z</time>
      </trkpt>
      <trkpt lat="44.71629" lon="6.54182">
        <ele>2284</ele>
        <time>2010-01-01T00:49:44Z</time>
      </trkpt>
      <trkpt lat="44.71629" lon="6.54182">
        <ele>2284</ele>
        <time>2010-01-01T00:49:44Z</time>
      </trkpt>
      <trkpt lat="44.71629" lon="6.54182">
        <ele>2284</ele>
        <time>2010-01-01T00:49:44Z</time>
      </trkpt>
      <trkpt lat="44.71628" lon="6.54182">
        <ele>2284</ele>
        <time>2010-01-01T00:49:44Z</time>
      </trkpt>
      <trkpt lat="44.71628" lon="6.54182">
        <ele>2284</ele>
        <time>2010-01-01T00:49:44Z</time>
      </trkpt>
      <trkpt lat="44.71629" lon="6.54182">
        <ele>2284</ele>
        <time>2010-01-01T00:49:44Z</time>
      </trkpt>
      <trkpt lat="44.71629" lon="6.54182">
        <ele>2284</ele>
        <time>2010-01-01T00:49:44Z</time>
      </trkpt>
      <trkpt lat="44.71628" lon="6.54182">
        <ele>2284</ele>
        <time>2010-01-01T00:49:45Z</time>
      </trkpt>
      <trkpt lat="44.71629" lon="6.54182">
        <ele>2284</ele>
        <time>2010-01-01T00:49:45Z</time>
      </trkpt>
      <trkpt lat="44.71628" lon="6.54182">
        <ele>2284</ele>
        <time>2010-01-01T00:49:45Z</time>
      </trkpt>
      <trkpt lat="44.71629" lon="6.54181">
        <ele>2284</ele>
        <time>2010-01-01T00:49:45Z</time>
      </trkpt>
      <trkpt lat="44.71629" lon="6.54182">
        <ele>2284</ele>
        <time>2010-01-01T00:49:45Z</time>
      </trkpt>
      <trkpt lat="44.71628" lon="6.54182">
        <ele>2284</ele>
        <time>2010-01-01T00:49:45Z</time>
      </trkpt>
      <trkpt lat="44.71628" lon="6.54182">
        <ele>2284</ele>
        <time>2010-01-01T00:49:45Z</time>
      </trkpt>
      <trkpt lat="44.71628" lon="6.54182">
        <ele>2284</ele>
        <time>2010-01-01T00:49:45Z</time>
      </trkpt>
      <trkpt lat="44.71628" lon="6.54182">
        <ele>2284</ele>
        <time>2010-01-01T00:49:45Z</time>
      </trkpt>
      <trkpt lat="44.71628" lon="6.54182">
        <ele>2284</ele>
        <time>2010-01-01T00:49:45Z</time>
      </trkpt>
      <trkpt lat="44.71628" lon="6.54182">
        <ele>2284</ele>
        <time>2010-01-01T00:49:45Z</time>
      </trkpt>
      <trkpt lat="44.71628" lon="6.54182">
        <ele>2284</ele>
        <time>2010-01-01T00:49:46Z</time>
      </trkpt>
      <trkpt lat="44.71628" lon="6.54182">
        <ele>2284</ele>
        <time>2010-01-01T00:49:46Z</time>
      </trkpt>
      <trkpt lat="44.71628" lon="6.54181">
        <ele>2284</ele>
        <time>2010-01-01T00:49:46Z</time>
      </trkpt>
      <trkpt lat="44.71628" lon="6.54181">
        <ele>2284</ele>
        <time>2010-01-01T00:49:46Z</time>
      </trkpt>
      <trkpt lat="44.71628" lon="6.54182">
        <ele>2284</ele>
        <time>2010-01-01T00:49:46Z</time>
      </trkpt>
      <trkpt lat="44.71628" lon="6.54182">
        <ele>2284</ele>
        <time>2010-01-01T00:49:46Z</time>
      </trkpt>
      <trkpt lat="44.71628" lon="6.54182">
        <ele>2284</ele>
        <time>2010-01-01T00:49:46Z</time>
      </trkpt>
      <trkpt lat="44.71627" lon="6.54181">
        <ele>2283</ele>
        <time>2010-01-01T00:49:46Z</time>
      </trkpt>
      <trkpt lat="44.71628" lon="6.54181">
        <ele>2284</ele>
        <time>2010-01-01T00:49:46Z</time>
      </trkpt>
      <trkpt lat="44.71627" lon="6.54182">
        <ele>2283</ele>
        <time>2010-01-01T00:49:46Z</time>
      </trkpt>
      <trkpt lat="44.71627" lon="6.54182">
        <ele>2284</ele>
        <time>2010-01-01T00:49:47Z</time>
      </trkpt>
      <trkpt lat="44.71628" lon="6.54182">
        <ele>2284</ele>
        <time>2010-01-01T00:49:47Z</time>
      </trkpt>
      <trkpt lat="44.71629" lon="6.54183">
        <ele>2284</ele>
        <time>2010-01-01T00:49:47Z</time>
      </trkpt>
      <trkpt lat="44.71629" lon="6.54182">
        <ele>2284</ele>
        <time>2010-01-01T00:49:47Z</time>
      </trkpt>
      <trkpt lat="44.71629" lon="6.54183">
        <ele>2284</ele>
        <time>2010-01-01T00:49:47Z</time>
      </trkpt>
      <trkpt lat="44.71628" lon="6.54183">
        <ele>2284</ele>
        <time>2010-01-01T00:49:47Z</time>
      </trkpt>
      <trkpt lat="44.71629" lon="6.54184">
        <ele>2284</ele>
        <time>2010-01-01T00:49:47Z</time>
      </trkpt>
      <trkpt lat="44.71629" lon="6.54184">
        <ele>2284</ele>
        <time>2010-01-01T00:49:47Z</time>
      </trkpt>
      <trkpt lat="44.71629" lon="6.54184">
        <ele>2284</ele>
        <time>2010-01-01T00:49:48Z</time>
      </trkpt>
      <trkpt lat="44.71629" lon="6.54185">
        <ele>2284</ele>
        <time>2010-01-01T00:49:48Z</time>
      </trkpt>
      <trkpt lat="44.71629" lon="6.54185">
        <ele>2284</ele>
        <time>2010-01-01T00:49:48Z</time>
      </trkpt>
      <trkpt lat="44.71638" lon="6.54191">
        <ele>2288</ele>
        <time>2010-01-01T00:49:50Z</time>
      </trkpt>
      <trkpt lat="44.71645" lon="6.54194">
        <ele>2287</ele>
        <time>2010-01-01T00:49:52Z</time>
      </trkpt>
      <trkpt lat="44.7165" lon="6.54195">
        <ele>2286</ele>
        <time>2010-01-01T00:49:54Z</time>
      </trkpt>
      <trkpt lat="44.71655" lon="6.54197">
        <ele>2285</ele>
        <time>2010-01-01T00:49:55Z</time>
      </trkpt>
      <trkpt lat="44.7166" lon="6.54199">
        <ele>2283</ele>
        <time>2010-01-01T00:49:56Z</time>
      </trkpt>
      <trkpt lat="44.71672" lon="6.54205">
        <ele>2280</ele>
        <time>2010-01-01T00:50:00Z</time>
      </trkpt>
      <trkpt lat="44.71678" lon="6.54209">
        <ele>2277</ele>
        <time>2010-01-01T00:50:01Z</time>
      </trkpt>
      <trkpt lat="44.71684" lon="6.54213">
        <ele>2274</ele>
        <time>2010-01-01T00:50:03Z</time>
      </trkpt>
      <trkpt lat="44.71697" lon="6.54226">
        <ele>2269</ele>
        <time>2010-01-01T00:50:08Z</time>
      </trkpt>
      <trkpt lat="44.71701" lon="6.54232">
        <ele>2268</ele>
        <time>2010-01-01T00:50:09Z</time>
      </trkpt>
      <trkpt lat="44.71705" lon="6.54236">
        <ele>2267</ele>
        <time>2010-01-01T00:50:10Z</time>
      </trkpt>
      <trkpt lat="44.7171" lon="6.54237">
        <ele>2267</ele>
        <time>2010-01-01T00:50:12Z</time>
      </trkpt>
      <trkpt lat="44.71715" lon="6.54238">
        <ele>2266</ele>
        <time>2010-01-01T00:50:13Z</time>
      </trkpt>
      <trkpt lat="44.71719" lon="6.54242">
        <ele>2266</ele>
        <time>2010-01-01T00:50:14Z</time>
      </trkpt>
      <trkpt lat="44.71721" lon="6.54245">
        <ele>2266</ele>
        <time>2010-01-01T00:50:15Z</time>
      </trkpt>
      <trkpt lat="44.71722" lon="6.54254">
        <ele>2265</ele>
        <time>2010-01-01T00:50:17Z</time>
      </trkpt>
      <trkpt lat="44.71722" lon="6.54258">
        <ele>2265</ele>
        <time>2010-01-01T00:50:18Z</time>
      </trkpt>
      <trkpt lat="44.71723" lon="6.54262">
        <ele>2265</ele>
        <time>2010-01-01T00:50:18Z</time>
      </trkpt>
      <trkpt lat="44.71729" lon="6.5427">
        <ele>2263</ele>
        <time>2010-01-01T00:50:21Z</time>
      </trkpt>
      <trkpt lat="44.71732" lon="6.54274">
        <ele>2262</ele>
        <time>2010-01-01T00:50:22Z</time>
      </trkpt>
      <trkpt lat="44.71735" lon="6.54278">
        <ele>2261</ele>
        <time>2010-01-01T00:50:23Z</time>
      </trkpt>
      <trkpt lat="44.71738" lon="6.54281">
        <ele>2259</ele>
        <time>2010-01-01T00:50:24Z</time>
      </trkpt>
      <trkpt lat="44.71741" lon="6.54284">
        <ele>2257</ele>
        <time>2010-01-01T00:50:25Z</time>
      </trkpt>
      <trkpt lat="44.71744" lon="6.54288">
        <ele>2256</ele>
        <time>2010-01-01T00:50:26Z</time>
      </trkpt>
      <trkpt lat="44.71747" lon="6.54292">
        <ele>2254</ele>
        <time>2010-01-01T00:50:27Z</time>
      </trkpt>
      <trkpt lat="44.71753" lon="6.54297">
        <ele>2251</ele>
        <time>2010-01-01T00:50:29Z</time>
      </trkpt>
      <trkpt lat="44.71756" lon="6.54298">
        <ele>2250</ele>
        <time>2010-01-01T00:50:30Z</time>
      </trkpt>
      <trkpt lat="44.7176" lon="6.54299">
        <ele>2248</ele>
        <time>2010-01-01T00:50:31Z</time>
      </trkpt>
      <trkpt lat="44.71767" lon="6.54298">
        <ele>2246</ele>
        <time>2010-01-01T00:50:33Z</time>
      </trkpt>
      <trkpt lat="44.71769" lon="6.54298">
        <ele>2245</ele>
        <time>2010-01-01T00:50:33Z</time>
      </trkpt>
      <trkpt lat="44.71772" lon="6.54299">
        <ele>2244</ele>
        <time>2010-01-01T00:50:34Z</time>
      </trkpt>
      <trkpt lat="44.71775" lon="6.54298">
        <ele>2243</ele>
        <time>2010-01-01T00:50:35Z</time>
      </trkpt>
      <trkpt lat="44.71777" lon="6.54299">
        <ele>2242</ele>
        <time>2010-01-01T00:50:35Z</time>
      </trkpt>
      <trkpt lat="44.7178" lon="6.54299">
        <ele>2241</ele>
        <time>2010-01-01T00:50:36Z</time>
      </trkpt>
      <trkpt lat="44.71782" lon="6.54301">
        <ele>2240</ele>
        <time>2010-01-01T00:50:37Z</time>
      </trkpt>
      <trkpt lat="44.71783" lon="6.54302">
        <ele>2240</ele>
        <time>2010-01-01T00:50:37Z</time>
      </trkpt>
      <trkpt lat="44.71788" lon="6.54304">
        <ele>2238</ele>
        <time>2010-01-01T00:50:39Z</time>
      </trkpt>
      <trkpt lat="44.71791" lon="6.54304">
        <ele>2237</ele>
        <time>2010-01-01T00:50:39Z</time>
      </trkpt>
      <trkpt lat="44.71796" lon="6.54306">
        <ele>2236</ele>
        <time>2010-01-01T00:50:41Z</time>
      </trkpt>
      <trkpt lat="44.718" lon="6.54309">
        <ele>2234</ele>
        <time>2010-01-01T00:50:42Z</time>
      </trkpt>
      <trkpt lat="44.71804" lon="6.54312">
        <ele>2233</ele>
        <time>2010-01-01T00:50:43Z</time>
      </trkpt>
      <trkpt lat="44.71808" lon="6.54315">
        <ele>2232</ele>
        <time>2010-01-01T00:50:44Z</time>
      </trkpt>
      <trkpt lat="44.71813" lon="6.54318">
        <ele>2231</ele>
        <time>2010-01-01T00:50:46Z</time>
      </trkpt>
      <trkpt lat="44.71817" lon="6.54319">
        <ele>2231</ele>
        <time>2010-01-01T00:50:47Z</time>
      </trkpt>
      <trkpt lat="44.71824" lon="6.54321">
        <ele>2230</ele>
        <time>2010-01-01T00:50:49Z</time>
      </trkpt>
      <trkpt lat="44.71825" lon="6.54322">
        <ele>2230</ele>
        <time>2010-01-01T00:50:49Z</time>
      </trkpt>
      <trkpt lat="44.71828" lon="6.54323">
        <ele>2230</ele>
        <time>2010-01-01T00:50:50Z</time>
      </trkpt>
      <trkpt lat="44.7183" lon="6.54322">
        <ele>2230</ele>
        <time>2010-01-01T00:50:50Z</time>
      </trkpt>
      <trkpt lat="44.71829" lon="6.54317">
        <ele>2231</ele>
        <time>2010-01-01T00:50:51Z</time>
      </trkpt>
      <trkpt lat="44.71828" lon="6.54314">
        <ele>2231</ele>
        <time>2010-01-01T00:50:52Z</time>
      </trkpt>
      <trkpt lat="44.71822" lon="6.54301">
        <ele>2233</ele>
        <time>2010-01-01T00:50:55Z</time>
      </trkpt>
      <trkpt lat="44.7182" lon="6.54292">
        <ele>2233</ele>
        <time>2010-01-01T00:50:57Z</time>
      </trkpt>
      <trkpt lat="44.7182" lon="6.54288">
        <ele>2234</ele>
        <time>2010-01-01T00:50:57Z</time>
      </trkpt>
      <trkpt lat="44.7182" lon="6.54283">
        <ele>2234</ele>
        <time>2010-01-01T00:50:58Z</time>
      </trkpt>
      <trkpt lat="44.7182" lon="6.54277">
        <ele>2234</ele>
        <time>2010-01-01T00:50:59Z</time>
      </trkpt>
      <trkpt lat="44.71819" lon="6.54272">
        <ele>2234</ele>
        <time>2010-01-01T00:51:00Z</time>
      </trkpt>
      <trkpt lat="44.7182" lon="6.5426">
        <ele>2233</ele>
        <time>2010-01-01T00:51:03Z</time>
      </trkpt>
      <trkpt lat="44.71822" lon="6.54248">
        <ele>2232</ele>
        <time>2010-01-01T00:51:05Z</time>
      </trkpt>
      <trkpt lat="44.71825" lon="6.54236">
        <ele>2230</ele>
        <time>2010-01-01T00:51:07Z</time>
      </trkpt>
      <trkpt lat="44.7183" lon="6.54226">
        <ele>2227</ele>
        <time>2010-01-01T00:51:10Z</time>
      </trkpt>
      <trkpt lat="44.71836" lon="6.54216">
        <ele>2224</ele>
        <time>2010-01-01T00:51:12Z</time>
      </trkpt>
      <trkpt lat="44.71845" lon="6.54206">
        <ele>2221</ele>
        <time>2010-01-01T00:51:15Z</time>
      </trkpt>
      <trkpt lat="44.71852" lon="6.54199">
        <ele>2219</ele>
        <time>2010-01-01T00:51:18Z</time>
      </trkpt>
      <trkpt lat="44.71855" lon="6.54194">
        <ele>2218</ele>
        <time>2010-01-01T00:51:19Z</time>
      </trkpt>
      <trkpt lat="44.71856" lon="6.5419">
        <ele>2218</ele>
        <time>2010-01-01T00:51:20Z</time>
      </trkpt>
      <trkpt lat="44.71857" lon="6.54185">
        <ele>2217</ele>
        <time>2010-01-01T00:51:21Z</time>
      </trkpt>
      <trkpt lat="44.71858" lon="6.54177">
        <ele>2216</ele>
        <time>2010-01-01T00:51:22Z</time>
      </trkpt>
      <trkpt lat="44.7186" lon="6.54169">
        <ele>2214</ele>
        <time>2010-01-01T00:51:24Z</time>
      </trkpt>
      <trkpt lat="44.71862" lon="6.54161">
        <ele>2213</ele>
        <time>2010-01-01T00:51:25Z</time>
      </trkpt>
      <trkpt lat="44.71862" lon="6.5415">
        <ele>2212</ele>
        <time>2010-01-01T00:51:27Z</time>
      </trkpt>
      <trkpt lat="44.71864" lon="6.54138">
        <ele>2211</ele>
        <time>2010-01-01T00:51:30Z</time>
      </trkpt>
      <trkpt lat="44.71867" lon="6.54135">
        <ele>2210</ele>
        <time>2010-01-01T00:51:31Z</time>
      </trkpt>
      <trkpt lat="44.7187" lon="6.54133">
        <ele>2209</ele>
        <time>2010-01-01T00:51:32Z</time>
      </trkpt>
      <trkpt lat="44.71881" lon="6.54131">
        <ele>2205</ele>
        <time>2010-01-01T00:51:35Z</time>
      </trkpt>
      <trkpt lat="44.71886" lon="6.54131">
        <ele>2203</ele>
        <time>2010-01-01T00:51:36Z</time>
      </trkpt>
      <trkpt lat="44.71891" lon="6.54131">
        <ele>2202</ele>
        <time>2010-01-01T00:51:37Z</time>
      </trkpt>
      <trkpt lat="44.71895" lon="6.5413">
        <ele>2200</ele>
        <time>2010-01-01T00:51:38Z</time>
      </trkpt>
      <trkpt lat="44.71899" lon="6.54129">
        <ele>2199</ele>
        <time>2010-01-01T00:51:39Z</time>
      </trkpt>
      <trkpt lat="44.71903" lon="6.54127">
        <ele>2197</ele>
        <time>2010-01-01T00:51:41Z</time>
      </trkpt>
      <trkpt lat="44.71908" lon="6.54124">
        <ele>2195</ele>
        <time>2010-01-01T00:51:42Z</time>
      </trkpt>
      <trkpt lat="44.71913" lon="6.5412">
        <ele>2194</ele>
        <time>2010-01-01T00:51:44Z</time>
      </trkpt>
      <trkpt lat="44.71918" lon="6.54117">
        <ele>2192</ele>
        <time>2010-01-01T00:51:45Z</time>
      </trkpt>
      <trkpt lat="44.71923" lon="6.54113">
        <ele>2190</ele>
        <time>2010-01-01T00:51:47Z</time>
      </trkpt>
      <trkpt lat="44.71932" lon="6.54107">
        <ele>2187</ele>
        <time>2010-01-01T00:51:49Z</time>
      </trkpt>
      <trkpt lat="44.71936" lon="6.54105">
        <ele>2186</ele>
        <time>2010-01-01T00:51:50Z</time>
      </trkpt>
      <trkpt lat="44.71944" lon="6.54101">
        <ele>2183</ele>
        <time>2010-01-01T00:51:53Z</time>
      </trkpt>
      <trkpt lat="44.71947" lon="6.54098">
        <ele>2182</ele>
        <time>2010-01-01T00:51:54Z</time>
      </trkpt>
      <trkpt lat="44.71951" lon="6.54095">
        <ele>2180</ele>
        <time>2010-01-01T00:51:55Z</time>
      </trkpt>
      <trkpt lat="44.71952" lon="6.54091">
        <ele>2178</ele>
        <time>2010-01-01T00:51:56Z</time>
      </trkpt>
      <trkpt lat="44.71954" lon="6.54087">
        <ele>2177</ele>
        <time>2010-01-01T00:51:56Z</time>
      </trkpt>
      <trkpt lat="44.71957" lon="6.54083">
        <ele>2176</ele>
        <time>2010-01-01T00:51:57Z</time>
      </trkpt>
      <trkpt lat="44.7196" lon="6.54079">
        <ele>2174</ele>
        <time>2010-01-01T00:51:59Z</time>
      </trkpt>
      <trkpt lat="44.71962" lon="6.54075">
        <ele>2172</ele>
        <time>2010-01-01T00:51:59Z</time>
      </trkpt>
      <trkpt lat="44.71964" lon="6.54071">
        <ele>2171</ele>
        <time>2010-01-01T00:52:00Z</time>
      </trkpt>
      <trkpt lat="44.71966" lon="6.54066">
        <ele>2169</ele>
        <time>2010-01-01T00:52:02Z</time>
      </trkpt>
      <trkpt lat="44.71967" lon="6.54061">
        <ele>2168</ele>
        <time>2010-01-01T00:52:02Z</time>
      </trkpt>
      <trkpt lat="44.71968" lon="6.54056">
        <ele>2167</ele>
        <time>2010-01-01T00:52:04Z</time>
      </trkpt>
      <trkpt lat="44.7197" lon="6.5405">
        <ele>2165</ele>
        <time>2010-01-01T00:52:05Z</time>
      </trkpt>
      <trkpt lat="44.71973" lon="6.54048">
        <ele>2163</ele>
        <time>2010-01-01T00:52:06Z</time>
      </trkpt>
      <trkpt lat="44.71976" lon="6.54049">
        <ele>2161</ele>
        <time>2010-01-01T00:52:07Z</time>
      </trkpt>
      <trkpt lat="44.71984" lon="6.54054">
        <ele>2158</ele>
        <time>2010-01-01T00:52:09Z</time>
      </trkpt>
      <trkpt lat="44.71986" lon="6.54056">
        <ele>2157</ele>
        <time>2010-01-01T00:52:09Z</time>
      </trkpt>
      <trkpt lat="44.71991" lon="6.5406">
        <ele>2155</ele>
        <time>2010-01-01T00:52:11Z</time>
      </trkpt>
      <trkpt lat="44.71995" lon="6.54062">
        <ele>2153</ele>
        <time>2010-01-01T00:52:12Z</time>
      </trkpt>
      <trkpt lat="44.71998" lon="6.54063">
        <ele>2151</ele>
        <time>2010-01-01T00:52:13Z</time>
      </trkpt>
      <trkpt lat="44.72" lon="6.54064">
        <ele>2151</ele>
        <time>2010-01-01T00:52:13Z</time>
      </trkpt>
      <trkpt lat="44.72" lon="6.54064">
        <ele>2150</ele>
        <time>2010-01-01T00:52:14Z</time>
      </trkpt>
      <trkpt lat="44.72002" lon="6.54068">
        <ele>2150</ele>
        <time>2010-01-01T00:52:14Z</time>
      </trkpt>
      <trkpt lat="44.72004" lon="6.54071">
        <ele>2150</ele>
        <time>2010-01-01T00:52:15Z</time>
      </trkpt>
      <trkpt lat="44.72005" lon="6.54072">
        <ele>2150</ele>
        <time>2010-01-01T00:52:15Z</time>
      </trkpt>
      <trkpt lat="44.72007" lon="6.54079">
        <ele>2150</ele>
        <time>2010-01-01T00:52:17Z</time>
      </trkpt>
      <trkpt lat="44.72008" lon="6.54082">
        <ele>2149</ele>
        <time>2010-01-01T00:52:18Z</time>
      </trkpt>
      <trkpt lat="44.72009" lon="6.54084">
        <ele>2149</ele>
        <time>2010-01-01T00:52:18Z</time>
      </trkpt>
      <trkpt lat="44.7201" lon="6.54085">
        <ele>2149</ele>
        <time>2010-01-01T00:52:18Z</time>
      </trkpt>
      <trkpt lat="44.72011" lon="6.54084">
        <ele>2149</ele>
        <time>2010-01-01T00:52:19Z</time>
      </trkpt>
      <trkpt lat="44.72012" lon="6.54079">
        <ele>2148</ele>
        <time>2010-01-01T00:52:20Z</time>
      </trkpt>
      <trkpt lat="44.72014" lon="6.54076">
        <ele>2147</ele>
        <time>2010-01-01T00:52:20Z</time>
      </trkpt>
      <trkpt lat="44.72015" lon="6.54076">
        <ele>2146</ele>
        <time>2010-01-01T00:52:21Z</time>
      </trkpt>
      <trkpt lat="44.72018" lon="6.54078">
        <ele>2146</ele>
        <time>2010-01-01T00:52:22Z</time>
      </trkpt>
      <trkpt lat="44.72019" lon="6.54079">
        <ele>2145</ele>
        <time>2010-01-01T00:52:22Z</time>
      </trkpt>
      <trkpt lat="44.72019" lon="6.5408">
        <ele>2145</ele>
        <time>2010-01-01T00:52:22Z</time>
      </trkpt>
      <trkpt lat="44.72019" lon="6.5408">
        <ele>2145</ele>
        <time>2010-01-01T00:52:22Z</time>
      </trkpt>
      <trkpt lat="44.72021" lon="6.54082">
        <ele>2145</ele>
        <time>2010-01-01T00:52:23Z</time>
      </trkpt>
      <trkpt lat="44.72022" lon="6.54084">
        <ele>2145</ele>
        <time>2010-01-01T00:52:23Z</time>
      </trkpt>
      <trkpt lat="44.72024" lon="6.54085">
        <ele>2144</ele>
        <time>2010-01-01T00:52:24Z</time>
      </trkpt>
      <trkpt lat="44.72026" lon="6.54085">
        <ele>2143</ele>
        <time>2010-01-01T00:52:24Z</time>
      </trkpt>
      <trkpt lat="44.72029" lon="6.54086">
        <ele>2142</ele>
        <time>2010-01-01T00:52:25Z</time>
      </trkpt>
      <trkpt lat="44.72032" lon="6.54085">
        <ele>2141</ele>
        <time>2010-01-01T00:52:26Z</time>
      </trkpt>
      <trkpt lat="44.72036" lon="6.54086">
        <ele>2140</ele>
        <time>2010-01-01T00:52:27Z</time>
      </trkpt>
      <trkpt lat="44.72038" lon="6.54085">
        <ele>2140</ele>
        <time>2010-01-01T00:52:27Z</time>
      </trkpt>
      <trkpt lat="44.72039" lon="6.54085">
        <ele>2139</ele>
        <time>2010-01-01T00:52:28Z</time>
      </trkpt>
      <trkpt lat="44.72045" lon="6.54088">
        <ele>2137</ele>
        <time>2010-01-01T00:52:29Z</time>
      </trkpt>
      <trkpt lat="44.72049" lon="6.54089">
        <ele>2136</ele>
        <time>2010-01-01T00:52:31Z</time>
      </trkpt>
      <trkpt lat="44.72052" lon="6.54088">
        <ele>2135</ele>
        <time>2010-01-01T00:52:32Z</time>
      </trkpt>
      <trkpt lat="44.72057" lon="6.54087">
        <ele>2134</ele>
        <time>2010-01-01T00:52:33Z</time>
      </trkpt>
      <trkpt lat="44.72063" lon="6.54085">
        <ele>2132</ele>
        <time>2010-01-01T00:52:34Z</time>
      </trkpt>
      <trkpt lat="44.72065" lon="6.54086">
        <ele>2131</ele>
        <time>2010-01-01T00:52:35Z</time>
      </trkpt>
      <trkpt lat="44.72068" lon="6.54088">
        <ele>2130</ele>
        <time>2010-01-01T00:52:36Z</time>
      </trkpt>
      <trkpt lat="44.72077" lon="6.5409">
        <ele>2127</ele>
        <time>2010-01-01T00:52:38Z</time>
      </trkpt>
      <trkpt lat="44.72079" lon="6.54088">
        <ele>2127</ele>
        <time>2010-01-01T00:52:39Z</time>
      </trkpt>
      <trkpt lat="44.72083" lon="6.54083">
        <ele>2127</ele>
        <time>2010-01-01T00:52:41Z</time>
      </trkpt>
      <trkpt lat="44.7209" lon="6.54074">
        <ele>2128</ele>
        <time>2010-01-01T00:52:43Z</time>
      </trkpt>
      <trkpt lat="44.72091" lon="6.54073">
        <ele>2128</ele>
        <time>2010-01-01T00:52:43Z</time>
      </trkpt>
      <trkpt lat="44.72091" lon="6.5407">
        <ele>2128</ele>
        <time>2010-01-01T00:52:44Z</time>
      </trkpt>
      <trkpt lat="44.72092" lon="6.54066">
        <ele>2129</ele>
        <time>2010-01-01T00:52:45Z</time>
      </trkpt>
      <trkpt lat="44.72091" lon="6.54063">
        <ele>2130</ele>
        <time>2010-01-01T00:52:45Z</time>
      </trkpt>
      <trkpt lat="44.72091" lon="6.5406">
        <ele>2130</ele>
        <time>2010-01-01T00:52:46Z</time>
      </trkpt>
      <trkpt lat="44.72091" lon="6.54057">
        <ele>2131</ele>
        <time>2010-01-01T00:52:46Z</time>
      </trkpt>
      <trkpt lat="44.72092" lon="6.54053">
        <ele>2131</ele>
        <time>2010-01-01T00:52:47Z</time>
      </trkpt>
      <trkpt lat="44.72094" lon="6.5405">
        <ele>2131</ele>
        <time>2010-01-01T00:52:48Z</time>
      </trkpt>
      <trkpt lat="44.72095" lon="6.54044">
        <ele>2132</ele>
        <time>2010-01-01T00:52:49Z</time>
      </trkpt>
      <trkpt lat="44.72095" lon="6.5404">
        <ele>2133</ele>
        <time>2010-01-01T00:52:50Z</time>
      </trkpt>
      <trkpt lat="44.72095" lon="6.54036">
        <ele>2133</ele>
        <time>2010-01-01T00:52:51Z</time>
      </trkpt>
      <trkpt lat="44.72095" lon="6.54029">
        <ele>2134</ele>
        <time>2010-01-01T00:52:52Z</time>
      </trkpt>
      <trkpt lat="44.72095" lon="6.54025">
        <ele>2135</ele>
        <time>2010-01-01T00:52:53Z</time>
      </trkpt>
      <trkpt lat="44.72095" lon="6.54022">
        <ele>2135</ele>
        <time>2010-01-01T00:52:53Z</time>
      </trkpt>
      <trkpt lat="44.72094" lon="6.54021">
        <ele>2136</ele>
        <time>2010-01-01T00:52:53Z</time>
      </trkpt>
      <trkpt lat="44.72097" lon="6.54016">
        <ele>2137</ele>
        <time>2010-01-01T00:52:55Z</time>
      </trkpt>
      <trkpt lat="44.721" lon="6.54006">
        <ele>2139</ele>
        <time>2010-01-01T00:52:57Z</time>
      </trkpt>
      <trkpt lat="44.72101" lon="6.54004">
        <ele>2139</ele>
        <time>2010-01-01T00:52:57Z</time>
      </trkpt>
      <trkpt lat="44.72102" lon="6.53999">
        <ele>2140</ele>
        <time>2010-01-01T00:52:58Z</time>
      </trkpt>
      <trkpt lat="44.72104" lon="6.53997">
        <ele>2140</ele>
        <time>2010-01-01T00:52:59Z</time>
      </trkpt>
      <trkpt lat="44.72105" lon="6.53995">
        <ele>2141</ele>
        <time>2010-01-01T00:52:59Z</time>
      </trkpt>
      <trkpt lat="44.72107" lon="6.53992">
        <ele>2141</ele>
        <time>2010-01-01T00:53:00Z</time>
      </trkpt>
      <trkpt lat="44.72107" lon="6.53992">
        <ele>2141</ele>
        <time>2010-01-01T00:53:00Z</time>
      </trkpt>
      <trkpt lat="44.72109" lon="6.53989">
        <ele>2142</ele>
        <time>2010-01-01T00:53:01Z</time>
      </trkpt>
      <trkpt lat="44.72112" lon="6.53986">
        <ele>2143</ele>
        <time>2010-01-01T00:53:02Z</time>
      </trkpt>
      <trkpt lat="44.72113" lon="6.53985">
        <ele>2143</ele>
        <time>2010-01-01T00:53:02Z</time>
      </trkpt>
      <trkpt lat="44.72114" lon="6.53984">
        <ele>2143</ele>
        <time>2010-01-01T00:53:02Z</time>
      </trkpt>
      <trkpt lat="44.72115" lon="6.53983">
        <ele>2144</ele>
        <time>2010-01-01T00:53:03Z</time>
      </trkpt>
      <trkpt lat="44.72116" lon="6.53982">
        <ele>2144</ele>
        <time>2010-01-01T00:53:03Z</time>
      </trkpt>
      <trkpt lat="44.72119" lon="6.53978">
        <ele>2146</ele>
        <time>2010-01-01T00:53:04Z</time>
      </trkpt>
      <trkpt lat="44.7212" lon="6.53975">
        <ele>2147</ele>
        <time>2010-01-01T00:53:05Z</time>
      </trkpt>
      <trkpt lat="44.72121" lon="6.53974">
        <ele>2147</ele>
        <time>2010-01-01T00:53:05Z</time>
      </trkpt>
      <trkpt lat="44.72122" lon="6.53971">
        <ele>2148</ele>
        <time>2010-01-01T00:53:06Z</time>
      </trkpt>
      <trkpt lat="44.72127" lon="6.5397">
        <ele>2150</ele>
        <time>2010-01-01T00:53:07Z</time>
      </trkpt>
      <trkpt lat="44.72128" lon="6.5397">
        <ele>2150</ele>
        <time>2010-01-01T00:53:07Z</time>
      </trkpt>
      <trkpt lat="44.7213" lon="6.53973">
        <ele>2149</ele>
        <time>2010-01-01T00:53:08Z</time>
      </trkpt>
      <trkpt lat="44.72135" lon="6.53975">
        <ele>2150</ele>
        <time>2010-01-01T00:53:09Z</time>
      </trkpt>
      <trkpt lat="44.72136" lon="6.53975">
        <ele>2150</ele>
        <time>2010-01-01T00:53:10Z</time>
      </trkpt>
      <trkpt lat="44.7214" lon="6.53973">
        <ele>2152</ele>
        <time>2010-01-01T00:53:11Z</time>
      </trkpt>
      <trkpt lat="44.72141" lon="6.53972">
        <ele>2152</ele>
        <time>2010-01-01T00:53:11Z</time>
      </trkpt>
      <trkpt lat="44.72146" lon="6.53973">
        <ele>2153</ele>
        <time>2010-01-01T00:53:12Z</time>
      </trkpt>
      <trkpt lat="44.72149" lon="6.53974">
        <ele>2154</ele>
        <time>2010-01-01T00:53:13Z</time>
      </trkpt>
      <trkpt lat="44.7215" lon="6.53975">
        <ele>2154</ele>
        <time>2010-01-01T00:53:14Z</time>
      </trkpt>
      <trkpt lat="44.72155" lon="6.53977">
        <ele>2155</ele>
        <time>2010-01-01T00:53:15Z</time>
      </trkpt>
      <trkpt lat="44.72157" lon="6.53978">
        <ele>2155</ele>
        <time>2010-01-01T00:53:15Z</time>
      </trkpt>
      <trkpt lat="44.72161" lon="6.53979">
        <ele>2156</ele>
        <time>2010-01-01T00:53:17Z</time>
      </trkpt>
      <trkpt lat="44.72165" lon="6.53979">
        <ele>2157</ele>
        <time>2010-01-01T00:53:18Z</time>
      </trkpt>
      <trkpt lat="44.72166" lon="6.5398">
        <ele>2157</ele>
        <time>2010-01-01T00:53:18Z</time>
      </trkpt>
      <trkpt lat="44.72168" lon="6.53981">
        <ele>2157</ele>
        <time>2010-01-01T00:53:19Z</time>
      </trkpt>
      <trkpt lat="44.72171" lon="6.53983">
        <ele>2157</ele>
        <time>2010-01-01T00:53:19Z</time>
      </trkpt>
      <trkpt lat="44.72172" lon="6.53984">
        <ele>2157</ele>
        <time>2010-01-01T00:53:20Z</time>
      </trkpt>
      <trkpt lat="44.72176" lon="6.53988">
        <ele>2156</ele>
        <time>2010-01-01T00:53:21Z</time>
      </trkpt>
      <trkpt lat="44.72177" lon="6.53989">
        <ele>2156</ele>
        <time>2010-01-01T00:53:22Z</time>
      </trkpt>
      <trkpt lat="44.72183" lon="6.54">
        <ele>2154</ele>
        <time>2010-01-01T00:53:24Z</time>
      </trkpt>
      <trkpt lat="44.72183" lon="6.54001">
        <ele>2154</ele>
        <time>2010-01-01T00:53:24Z</time>
      </trkpt>
      <trkpt lat="44.72184" lon="6.54002">
        <ele>2154</ele>
        <time>2010-01-01T00:53:25Z</time>
      </trkpt>
      <trkpt lat="44.72188" lon="6.54007">
        <ele>2153</ele>
        <time>2010-01-01T00:53:26Z</time>
      </trkpt>
      <trkpt lat="44.7219" lon="6.5401">
        <ele>2153</ele>
        <time>2010-01-01T00:53:27Z</time>
      </trkpt>
      <trkpt lat="44.72199" lon="6.54019">
        <ele>2152</ele>
        <time>2010-01-01T00:53:30Z</time>
      </trkpt>
      <trkpt lat="44.722" lon="6.5402">
        <ele>2152</ele>
        <time>2010-01-01T00:53:30Z</time>
      </trkpt>
      <trkpt lat="44.7221" lon="6.54028">
        <ele>2151</ele>
        <time>2010-01-01T00:53:33Z</time>
      </trkpt>
      <trkpt lat="44.72216" lon="6.54034">
        <ele>2150</ele>
        <time>2010-01-01T00:53:35Z</time>
      </trkpt>
      <trkpt lat="44.72222" lon="6.54039">
        <ele>2150</ele>
        <time>2010-01-01T00:53:37Z</time>
      </trkpt>
      <trkpt lat="44.72223" lon="6.5404">
        <ele>2150</ele>
        <time>2010-01-01T00:53:37Z</time>
      </trkpt>
      <trkpt lat="44.72233" lon="6.54046">
        <ele>2150</ele>
        <time>2010-01-01T00:53:40Z</time>
      </trkpt>
      <trkpt lat="44.72242" lon="6.54053">
        <ele>2150</ele>
        <time>2010-01-01T00:53:43Z</time>
      </trkpt>
      <trkpt lat="44.72248" lon="6.54058">
        <ele>2150</ele>
        <time>2010-01-01T00:53:45Z</time>
      </trkpt>
      <trkpt lat="44.7225" lon="6.54058">
        <ele>2150</ele>
        <time>2010-01-01T00:53:45Z</time>
      </trkpt>
      <trkpt lat="44.72252" lon="6.54056">
        <ele>2151</ele>
        <time>2010-01-01T00:53:46Z</time>
      </trkpt>
      <trkpt lat="44.72253" lon="6.54055">
        <ele>2151</ele>
        <time>2010-01-01T00:53:46Z</time>
      </trkpt>
      <trkpt lat="44.72254" lon="6.54054">
        <ele>2151</ele>
        <time>2010-01-01T00:53:47Z</time>
      </trkpt>
      <trkpt lat="44.72255" lon="6.54053">
        <ele>2152</ele>
        <time>2010-01-01T00:53:47Z</time>
      </trkpt>
      <trkpt lat="44.72254" lon="6.54053">
        <ele>2151</ele>
        <time>2010-01-01T00:53:47Z</time>
      </trkpt>
      <trkpt lat="44.72254" lon="6.54053">
        <ele>2151</ele>
        <time>2010-01-01T00:53:47Z</time>
      </trkpt>
      <trkpt lat="44.72254" lon="6.54053">
        <ele>2151</ele>
        <time>2010-01-01T00:53:47Z</time>
      </trkpt>
      <trkpt lat="44.72254" lon="6.54053">
        <ele>2151</ele>
        <time>2010-01-01T00:53:47Z</time>
      </trkpt>
      <trkpt lat="44.72255" lon="6.54053">
        <ele>2152</ele>
        <time>2010-01-01T00:53:48Z</time>
      </trkpt>
      <trkpt lat="44.72255" lon="6.54049">
        <ele>2152</ele>
        <time>2010-01-01T00:53:48Z</time>
      </trkpt>
      <trkpt lat="44.72258" lon="6.54043">
        <ele>2153</ele>
        <time>2010-01-01T00:53:50Z</time>
      </trkpt>
      <trkpt lat="44.7226" lon="6.54038">
        <ele>2154</ele>
        <time>2010-01-01T00:53:51Z</time>
      </trkpt>
      <trkpt lat="44.72263" lon="6.54034">
        <ele>2154</ele>
        <time>2010-01-01T00:53:52Z</time>
      </trkpt>
      <trkpt lat="44.72269" lon="6.54024">
        <ele>2156</ele>
        <time>2010-01-01T00:53:54Z</time>
      </trkpt>
      <trkpt lat="44.72277" lon="6.5401">
        <ele>2158</ele>
        <time>2010-01-01T00:53:58Z</time>
      </trkpt>
      <trkpt lat="44.72278" lon="6.54009">
        <ele>2158</ele>
        <time>2010-01-01T00:53:58Z</time>
      </trkpt>
      <trkpt lat="44.72278" lon="6.54009">
        <ele>2158</ele>
        <time>2010-01-01T00:53:58Z</time>
      </trkpt>
      <trkpt lat="44.72279" lon="6.54009">
        <ele>2158</ele>
        <time>2010-01-01T00:53:58Z</time>
      </trkpt>
      <trkpt lat="44.7228" lon="6.54007">
        <ele>2158</ele>
        <time>2010-01-01T00:53:59Z</time>
      </trkpt>
      <trkpt lat="44.72289" lon="6.53992">
        <ele>2159</ele>
        <time>2010-01-01T00:54:02Z</time>
      </trkpt>
      <trkpt lat="44.72292" lon="6.53986">
        <ele>2159</ele>
        <time>2010-01-01T00:54:04Z</time>
      </trkpt>
      <trkpt lat="44.72297" lon="6.53972">
        <ele>2159</ele>
        <time>2010-01-01T00:54:07Z</time>
      </trkpt>
      <trkpt lat="44.72302" lon="6.53958">
        <ele>2156</ele>
        <time>2010-01-01T00:54:10Z</time>
      </trkpt>
      <trkpt lat="44.72306" lon="6.53937">
        <ele>2150</ele>
        <time>2010-01-01T00:54:14Z</time>
      </trkpt>
      <trkpt lat="44.72307" lon="6.53926">
        <ele>2147</ele>
        <time>2010-01-01T00:54:16Z</time>
      </trkpt>
      <trkpt lat="44.72307" lon="6.53924">
        <ele>2146</ele>
        <time>2010-01-01T00:54:16Z</time>
      </trkpt>
      <trkpt lat="44.72308" lon="6.53917">
        <ele>2144</ele>
        <time>2010-01-01T00:54:18Z</time>
      </trkpt>
      <trkpt lat="44.72306" lon="6.53913">
        <ele>2144</ele>
        <time>2010-01-01T00:54:19Z</time>
      </trkpt>
      <trkpt lat="44.723" lon="6.53904">
        <ele>2143</ele>
        <time>2010-01-01T00:54:21Z</time>
      </trkpt>
      <trkpt lat="44.72294" lon="6.53895">
        <ele>2143</ele>
        <time>2010-01-01T00:54:23Z</time>
      </trkpt>
      <trkpt lat="44.72291" lon="6.5389">
        <ele>2144</ele>
        <time>2010-01-01T00:54:25Z</time>
      </trkpt>
      <trkpt lat="44.72289" lon="6.53886">
        <ele>2143</ele>
        <time>2010-01-01T00:54:25Z</time>
      </trkpt>
      <trkpt lat="44.72287" lon="6.53881">
        <ele>2143</ele>
        <time>2010-01-01T00:54:27Z</time>
      </trkpt>
      <trkpt lat="44.72283" lon="6.53872">
        <ele>2142</ele>
        <time>2010-01-01T00:54:29Z</time>
      </trkpt>
      <trkpt lat="44.72281" lon="6.53868">
        <ele>2142</ele>
        <time>2010-01-01T00:54:30Z</time>
      </trkpt>
      <trkpt lat="44.72279" lon="6.53864">
        <ele>2142</ele>
        <time>2010-01-01T00:54:31Z</time>
      </trkpt>
      <trkpt lat="44.72278" lon="6.5386">
        <ele>2141</ele>
        <time>2010-01-01T00:54:31Z</time>
      </trkpt>
      <trkpt lat="44.72277" lon="6.53856">
        <ele>2141</ele>
        <time>2010-01-01T00:54:32Z</time>
      </trkpt>
      <trkpt lat="44.72274" lon="6.53849">
        <ele>2140</ele>
        <time>2010-01-01T00:54:34Z</time>
      </trkpt>
      <trkpt lat="44.72274" lon="6.53844">
        <ele>2139</ele>
        <time>2010-01-01T00:54:34Z</time>
      </trkpt>
      <trkpt lat="44.72276" lon="6.53845">
        <ele>2138</ele>
        <time>2010-01-01T00:54:35Z</time>
      </trkpt>
      <trkpt lat="44.72279" lon="6.53847">
        <ele>2138</ele>
        <time>2010-01-01T00:54:36Z</time>
      </trkpt>
      <trkpt lat="44.72284" lon="6.53846">
        <ele>2136</ele>
        <time>2010-01-01T00:54:37Z</time>
      </trkpt>
      <trkpt lat="44.72284" lon="6.53841">
        <ele>2135</ele>
        <time>2010-01-01T00:54:38Z</time>
      </trkpt>
      <trkpt lat="44.72284" lon="6.53838">
        <ele>2134</ele>
        <time>2010-01-01T00:54:39Z</time>
      </trkpt>
      <trkpt lat="44.72283" lon="6.53835">
        <ele>2134</ele>
        <time>2010-01-01T00:54:39Z</time>
      </trkpt>
      <trkpt lat="44.72283" lon="6.53834">
        <ele>2133</ele>
        <time>2010-01-01T00:54:40Z</time>
      </trkpt>
      <trkpt lat="44.72282" lon="6.53831">
        <ele>2133</ele>
        <time>2010-01-01T00:54:40Z</time>
      </trkpt>
      <trkpt lat="44.72281" lon="6.53828">
        <ele>2132</ele>
        <time>2010-01-01T00:54:41Z</time>
      </trkpt>
      <trkpt lat="44.72279" lon="6.53821">
        <ele>2131</ele>
        <time>2010-01-01T00:54:42Z</time>
      </trkpt>
      <trkpt lat="44.72278" lon="6.53817">
        <ele>2130</ele>
        <time>2010-01-01T00:54:43Z</time>
      </trkpt>
      <trkpt lat="44.72277" lon="6.53813">
        <ele>2129</ele>
        <time>2010-01-01T00:54:44Z</time>
      </trkpt>
      <trkpt lat="44.72276" lon="6.53808">
        <ele>2129</ele>
        <time>2010-01-01T00:54:45Z</time>
      </trkpt>
      <trkpt lat="44.72276" lon="6.53803">
        <ele>2128</ele>
        <time>2010-01-01T00:54:46Z</time>
      </trkpt>
      <trkpt lat="44.72275" lon="6.53796">
        <ele>2127</ele>
        <time>2010-01-01T00:54:47Z</time>
      </trkpt>
      <trkpt lat="44.72275" lon="6.5379">
        <ele>2125</ele>
        <time>2010-01-01T00:54:48Z</time>
      </trkpt>
      <trkpt lat="44.72275" lon="6.53783">
        <ele>2124</ele>
        <time>2010-01-01T00:54:50Z</time>
      </trkpt>
      <trkpt lat="44.72275" lon="6.53776">
        <ele>2123</ele>
        <time>2010-01-01T00:54:51Z</time>
      </trkpt>
      <trkpt lat="44.72275" lon="6.53768">
        <ele>2123</ele>
        <time>2010-01-01T00:54:53Z</time>
      </trkpt>
      <trkpt lat="44.72279" lon="6.53773">
        <ele>2121</ele>
        <time>2010-01-01T00:54:54Z</time>
      </trkpt>
      <trkpt lat="44.72282" lon="6.53777">
        <ele>2121</ele>
        <time>2010-01-01T00:54:55Z</time>
      </trkpt>
      <trkpt lat="44.72285" lon="6.5378">
        <ele>2120</ele>
        <time>2010-01-01T00:54:56Z</time>
      </trkpt>
      <trkpt lat="44.72288" lon="6.53781">
        <ele>2120</ele>
        <time>2010-01-01T00:54:57Z</time>
      </trkpt>
      <trkpt lat="44.72292" lon="6.5378">
        <ele>2119</ele>
        <time>2010-01-01T00:54:58Z</time>
      </trkpt>
      <trkpt lat="44.72297" lon="6.53781">
        <ele>2118</ele>
        <time>2010-01-01T00:54:59Z</time>
      </trkpt>
      <trkpt lat="44.72303" lon="6.53781">
        <ele>2117</ele>
        <time>2010-01-01T00:55:01Z</time>
      </trkpt>
      <trkpt lat="44.72308" lon="6.53781">
        <ele>2115</ele>
        <time>2010-01-01T00:55:02Z</time>
      </trkpt>
      <trkpt lat="44.72315" lon="6.5378">
        <ele>2113</ele>
        <time>2010-01-01T00:55:04Z</time>
      </trkpt>
      <trkpt lat="44.72321" lon="6.53778">
        <ele>2111</ele>
        <time>2010-01-01T00:55:06Z</time>
      </trkpt>
      <trkpt lat="44.72327" lon="6.53775">
        <ele>2109</ele>
        <time>2010-01-01T00:55:07Z</time>
      </trkpt>
      <trkpt lat="44.72333" lon="6.53774">
        <ele>2108</ele>
        <time>2010-01-01T00:55:09Z</time>
      </trkpt>
      <trkpt lat="44.7234" lon="6.53774">
        <ele>2105</ele>
        <time>2010-01-01T00:55:11Z</time>
      </trkpt>
      <trkpt lat="44.72348" lon="6.53774">
        <ele>2103</ele>
        <time>2010-01-01T00:55:13Z</time>
      </trkpt>
      <trkpt lat="44.72357" lon="6.53773">
        <ele>2100</ele>
        <time>2010-01-01T00:55:15Z</time>
      </trkpt>
      <trkpt lat="44.72366" lon="6.53773">
        <ele>2097</ele>
        <time>2010-01-01T00:55:18Z</time>
      </trkpt>
      <trkpt lat="44.7238" lon="6.53774">
        <ele>2094</ele>
        <time>2010-01-01T00:55:22Z</time>
      </trkpt>
      <trkpt lat="44.72385" lon="6.53772">
        <ele>2093</ele>
        <time>2010-01-01T00:55:23Z</time>
      </trkpt>
      <trkpt lat="44.72394" lon="6.53772">
        <ele>2091</ele>
        <time>2010-01-01T00:55:25Z</time>
      </trkpt>
      <trkpt lat="44.72404" lon="6.53773">
        <ele>2090</ele>
        <time>2010-01-01T00:55:28Z</time>
      </trkpt>
      <trkpt lat="44.72414" lon="6.53771">
        <ele>2089</ele>
        <time>2010-01-01T00:55:31Z</time>
      </trkpt>
      <trkpt lat="44.72424" lon="6.5377">
        <ele>2087</ele>
        <time>2010-01-01T00:55:33Z</time>
      </trkpt>
      <trkpt lat="44.72434" lon="6.53768">
        <ele>2084</ele>
        <time>2010-01-01T00:55:36Z</time>
      </trkpt>
      <trkpt lat="44.72438" lon="6.53766">
        <ele>2083</ele>
        <time>2010-01-01T00:55:37Z</time>
      </trkpt>
      <trkpt lat="44.72443" lon="6.53766">
        <ele>2082</ele>
        <time>2010-01-01T00:55:39Z</time>
      </trkpt>
      <trkpt lat="44.72456" lon="6.53766">
        <ele>2080</ele>
        <time>2010-01-01T00:55:42Z</time>
      </trkpt>
      <trkpt lat="44.72464" lon="6.5377">
        <ele>2079</ele>
        <time>2010-01-01T00:55:44Z</time>
      </trkpt>
      <trkpt lat="44.72469" lon="6.5377">
        <ele>2078</ele>
        <time>2010-01-01T00:55:46Z</time>
      </trkpt>
      <trkpt lat="44.72475" lon="6.5377">
        <ele>2077</ele>
        <time>2010-01-01T00:55:47Z</time>
      </trkpt>
      <trkpt lat="44.72487" lon="6.5377">
        <ele>2075</ele>
        <time>2010-01-01T00:55:51Z</time>
      </trkpt>
      <trkpt lat="44.72489" lon="6.5377">
        <ele>2075</ele>
        <time>2010-01-01T00:55:51Z</time>
      </trkpt>
      <trkpt lat="44.72489" lon="6.53769">
        <ele>2075</ele>
        <time>2010-01-01T00:55:51Z</time>
      </trkpt>
      <trkpt lat="44.72492" lon="6.53766">
        <ele>2075</ele>
        <time>2010-01-01T00:55:52Z</time>
      </trkpt>
      <trkpt lat="44.72497" lon="6.53764">
        <ele>2074</ele>
        <time>2010-01-01T00:55:53Z</time>
      </trkpt>
      <trkpt lat="44.72504" lon="6.53763">
        <ele>2073</ele>
        <time>2010-01-01T00:55:55Z</time>
      </trkpt>
      <trkpt lat="44.72512" lon="6.53767">
        <ele>2071</ele>
        <time>2010-01-01T00:55:58Z</time>
      </trkpt>
      <trkpt lat="44.72516" lon="6.53768">
        <ele>2070</ele>
        <time>2010-01-01T00:55:59Z</time>
      </trkpt>
      <trkpt lat="44.72526" lon="6.53773">
        <ele>2068</ele>
        <time>2010-01-01T00:56:02Z</time>
      </trkpt>
      <trkpt lat="44.72532" lon="6.53776">
        <ele>2068</ele>
        <time>2010-01-01T00:56:03Z</time>
      </trkpt>
      <trkpt lat="44.72536" lon="6.53781">
        <ele>2068</ele>
        <time>2010-01-01T00:56:05Z</time>
      </trkpt>
      <trkpt lat="44.72547" lon="6.53786">
        <ele>2068</ele>
        <time>2010-01-01T00:56:08Z</time>
      </trkpt>
      <trkpt lat="44.72552" lon="6.53785">
        <ele>2068</ele>
        <time>2010-01-01T00:56:09Z</time>
      </trkpt>
      <trkpt lat="44.72567" lon="6.53784">
        <ele>2067</ele>
        <time>2010-01-01T00:56:13Z</time>
      </trkpt>
      <trkpt lat="44.72575" lon="6.53783">
        <ele>2067</ele>
        <time>2010-01-01T00:56:15Z</time>
      </trkpt>
      <trkpt lat="44.7258" lon="6.53784">
        <ele>2067</ele>
        <time>2010-01-01T00:56:16Z</time>
      </trkpt>
      <trkpt lat="44.72584" lon="6.53785">
        <ele>2067</ele>
        <time>2010-01-01T00:56:18Z</time>
      </trkpt>
      <trkpt lat="44.72598" lon="6.53791">
        <ele>2065</ele>
        <time>2010-01-01T00:56:22Z</time>
      </trkpt>
      <trkpt lat="44.72603" lon="6.53794">
        <ele>2064</ele>
        <time>2010-01-01T00:56:23Z</time>
      </trkpt>
      <trkpt lat="44.72607" lon="6.53794">
        <ele>2063</ele>
        <time>2010-01-01T00:56:24Z</time>
      </trkpt>
      <trkpt lat="44.72614" lon="6.53791">
        <ele>2062</ele>
        <time>2010-01-01T00:56:26Z</time>
      </trkpt>
      <trkpt lat="44.7262" lon="6.5379">
        <ele>2060</ele>
        <time>2010-01-01T00:56:28Z</time>
      </trkpt>
      <trkpt lat="44.72626" lon="6.53791">
        <ele>2059</ele>
        <time>2010-01-01T00:56:29Z</time>
      </trkpt>
      <trkpt lat="44.72636" lon="6.53793">
        <ele>2057</ele>
        <time>2010-01-01T00:56:32Z</time>
      </trkpt>
      <trkpt lat="44.72642" lon="6.53797">
        <ele>2057</ele>
        <time>2010-01-01T00:56:34Z</time>
      </trkpt>
      <trkpt lat="44.72649" lon="6.53805">
        <ele>2056</ele>
        <time>2010-01-01T00:56:36Z</time>
      </trkpt>
      <trkpt lat="44.72658" lon="6.53807">
        <ele>2054</ele>
        <time>2010-01-01T00:56:38Z</time>
      </trkpt>
      <trkpt lat="44.72662" lon="6.53807">
        <ele>2053</ele>
        <time>2010-01-01T00:56:40Z</time>
      </trkpt>
      <trkpt lat="44.72667" lon="6.53806">
        <ele>2052</ele>
        <time>2010-01-01T00:56:41Z</time>
      </trkpt>
      <trkpt lat="44.72676" lon="6.53802">
        <ele>2051</ele>
        <time>2010-01-01T00:56:44Z</time>
      </trkpt>
      <trkpt lat="44.72682" lon="6.53801">
        <ele>2050</ele>
        <time>2010-01-01T00:56:45Z</time>
      </trkpt>
      <trkpt lat="44.72684" lon="6.53802">
        <ele>2050</ele>
        <time>2010-01-01T00:56:46Z</time>
      </trkpt>
      <trkpt lat="44.72696" lon="6.53806">
        <ele>2049</ele>
        <time>2010-01-01T00:56:49Z</time>
      </trkpt>
      <trkpt lat="44.72701" lon="6.53808">
        <ele>2049</ele>
        <time>2010-01-01T00:56:50Z</time>
      </trkpt>
      <trkpt lat="44.72705" lon="6.53808">
        <ele>2049</ele>
        <time>2010-01-01T00:56:51Z</time>
      </trkpt>
      <trkpt lat="44.72708" lon="6.53804">
        <ele>2049</ele>
        <time>2010-01-01T00:56:52Z</time>
      </trkpt>
      <trkpt lat="44.72718" lon="6.53799">
        <ele>2051</ele>
        <time>2010-01-01T00:56:55Z</time>
      </trkpt>
      <trkpt lat="44.72721" lon="6.538">
        <ele>2051</ele>
        <time>2010-01-01T00:56:56Z</time>
      </trkpt>
      <trkpt lat="44.72731" lon="6.53809">
        <ele>2052</ele>
        <time>2010-01-01T00:56:59Z</time>
      </trkpt>
      <trkpt lat="44.72744" lon="6.53818">
        <ele>2055</ele>
        <time>2010-01-01T00:57:03Z</time>
      </trkpt>
      <trkpt lat="44.72755" lon="6.53831">
        <ele>2056</ele>
        <time>2010-01-01T00:57:07Z</time>
      </trkpt>
      <trkpt lat="44.72765" lon="6.53843">
        <ele>2055</ele>
        <time>2010-01-01T00:57:10Z</time>
      </trkpt>
      <trkpt lat="44.7277" lon="6.53849">
        <ele>2055</ele>
        <time>2010-01-01T00:57:12Z</time>
      </trkpt>
      <trkpt lat="44.72774" lon="6.53854">
        <ele>2055</ele>
        <time>2010-01-01T00:57:14Z</time>
      </trkpt>
      <trkpt lat="44.72776" lon="6.53856">
        <ele>2055</ele>
        <time>2010-01-01T00:57:14Z</time>
      </trkpt>
      <trkpt lat="44.72782" lon="6.53863">
        <ele>2054</ele>
        <time>2010-01-01T00:57:16Z</time>
      </trkpt>
      <trkpt lat="44.72783" lon="6.53863">
        <ele>2054</ele>
        <time>2010-01-01T00:57:17Z</time>
      </trkpt>
      <trkpt lat="44.72784" lon="6.53863">
        <ele>2053</ele>
        <time>2010-01-01T00:57:17Z</time>
      </trkpt>
      <trkpt lat="44.72786" lon="6.53864">
        <ele>2053</ele>
        <time>2010-01-01T00:57:17Z</time>
      </trkpt>
      <trkpt lat="44.72791" lon="6.53866">
        <ele>2053</ele>
        <time>2010-01-01T00:57:19Z</time>
      </trkpt>
      <trkpt lat="44.72798" lon="6.53868">
        <ele>2052</ele>
        <time>2010-01-01T00:57:21Z</time>
      </trkpt>
      <trkpt lat="44.72808" lon="6.53871">
        <ele>2050</ele>
        <time>2010-01-01T00:57:23Z</time>
      </trkpt>
      <trkpt lat="44.72812" lon="6.5387">
        <ele>2050</ele>
        <time>2010-01-01T00:57:24Z</time>
      </trkpt>
      <trkpt lat="44.72816" lon="6.53861">
        <ele>2052</ele>
        <time>2010-01-01T00:57:26Z</time>
      </trkpt>
      <trkpt lat="44.72819" lon="6.53856">
        <ele>2053</ele>
        <time>2010-01-01T00:57:28Z</time>
      </trkpt>
      <trkpt lat="44.72825" lon="6.53846">
        <ele>2054</ele>
        <time>2010-01-01T00:57:30Z</time>
      </trkpt>
      <trkpt lat="44.72829" lon="6.53843">
        <ele>2055</ele>
        <time>2010-01-01T00:57:31Z</time>
      </trkpt>
      <trkpt lat="44.72834" lon="6.53842">
        <ele>2055</ele>
        <time>2010-01-01T00:57:33Z</time>
      </trkpt>
      <trkpt lat="44.72839" lon="6.5384">
        <ele>2055</ele>
        <time>2010-01-01T00:57:34Z</time>
      </trkpt>
      <trkpt lat="44.72845" lon="6.53838">
        <ele>2056</ele>
        <time>2010-01-01T00:57:36Z</time>
      </trkpt>
      <trkpt lat="44.72847" lon="6.53839">
        <ele>2056</ele>
        <time>2010-01-01T00:57:36Z</time>
      </trkpt>
      <trkpt lat="44.72855" lon="6.53837">
        <ele>2056</ele>
        <time>2010-01-01T00:57:38Z</time>
      </trkpt>
      <trkpt lat="44.72857" lon="6.53839">
        <ele>2056</ele>
        <time>2010-01-01T00:57:39Z</time>
      </trkpt>
      <trkpt lat="44.72861" lon="6.53842">
        <ele>2055</ele>
        <time>2010-01-01T00:57:40Z</time>
      </trkpt>
      <trkpt lat="44.72866" lon="6.53842">
        <ele>2055</ele>
        <time>2010-01-01T00:57:42Z</time>
      </trkpt>
      <trkpt lat="44.72873" lon="6.5383">
        <ele>2058</ele>
        <time>2010-01-01T00:57:45Z</time>
      </trkpt>
      <trkpt lat="44.72876" lon="6.53819">
        <ele>2062</ele>
        <time>2010-01-01T00:57:47Z</time>
      </trkpt>
      <trkpt lat="44.7288" lon="6.53814">
        <ele>2064</ele>
        <time>2010-01-01T00:57:48Z</time>
      </trkpt>
      <trkpt lat="44.72887" lon="6.53812">
        <ele>2065</ele>
        <time>2010-01-01T00:57:50Z</time>
      </trkpt>
      <trkpt lat="44.72892" lon="6.53812">
        <ele>2065</ele>
        <time>2010-01-01T00:57:52Z</time>
      </trkpt>
      <trkpt lat="44.72894" lon="6.53812">
        <ele>2066</ele>
        <time>2010-01-01T00:57:52Z</time>
      </trkpt>
      <trkpt lat="44.72903" lon="6.5381">
        <ele>2067</ele>
        <time>2010-01-01T00:57:55Z</time>
      </trkpt>
      <trkpt lat="44.72909" lon="6.53809">
        <ele>2068</ele>
        <time>2010-01-01T00:57:56Z</time>
      </trkpt>
      <trkpt lat="44.72918" lon="6.53809">
        <ele>2069</ele>
        <time>2010-01-01T00:57:59Z</time>
      </trkpt>
      <trkpt lat="44.72922" lon="6.53808">
        <ele>2069</ele>
        <time>2010-01-01T00:58:00Z</time>
      </trkpt>
      <trkpt lat="44.72929" lon="6.53809">
        <ele>2070</ele>
        <time>2010-01-01T00:58:02Z</time>
      </trkpt>
      <trkpt lat="44.72932" lon="6.53809">
        <ele>2070</ele>
        <time>2010-01-01T00:58:02Z</time>
      </trkpt>
      <trkpt lat="44.72938" lon="6.53811">
        <ele>2070</ele>
        <time>2010-01-01T00:58:04Z</time>
      </trkpt>
      <trkpt lat="44.72945" lon="6.53812">
        <ele>2071</ele>
        <time>2010-01-01T00:58:06Z</time>
      </trkpt>
      <trkpt lat="44.7295" lon="6.53815">
        <ele>2071</ele>
        <time>2010-01-01T00:58:07Z</time>
      </trkpt>
      <trkpt lat="44.72958" lon="6.53819">
        <ele>2071</ele>
        <time>2010-01-01T00:58:10Z</time>
      </trkpt>
      <trkpt lat="44.72963" lon="6.53821">
        <ele>2071</ele>
        <time>2010-01-01T00:58:11Z</time>
      </trkpt>
      <trkpt lat="44.72968" lon="6.53823">
        <ele>2072</ele>
        <time>2010-01-01T00:58:12Z</time>
      </trkpt>
      <trkpt lat="44.72971" lon="6.53826">
        <ele>2071</ele>
        <time>2010-01-01T00:58:13Z</time>
      </trkpt>
      <trkpt lat="44.72972" lon="6.53827">
        <ele>2071</ele>
        <time>2010-01-01T00:58:14Z</time>
      </trkpt>
      <trkpt lat="44.72973" lon="6.53829">
        <ele>2070</ele>
        <time>2010-01-01T00:58:14Z</time>
      </trkpt>
      <trkpt lat="44.72976" lon="6.53832">
        <ele>2070</ele>
        <time>2010-01-01T00:58:15Z</time>
      </trkpt>
      <trkpt lat="44.72978" lon="6.53836">
        <ele>2069</ele>
        <time>2010-01-01T00:58:16Z</time>
      </trkpt>
      <trkpt lat="44.7298" lon="6.53837">
        <ele>2069</ele>
        <time>2010-01-01T00:58:16Z</time>
      </trkpt>
      <trkpt lat="44.7298" lon="6.53838">
        <ele>2069</ele>
        <time>2010-01-01T00:58:17Z</time>
      </trkpt>
      <trkpt lat="44.72984" lon="6.53844">
        <ele>2067</ele>
        <time>2010-01-01T00:58:18Z</time>
      </trkpt>
      <trkpt lat="44.72987" lon="6.53849">
        <ele>2066</ele>
        <time>2010-01-01T00:58:19Z</time>
      </trkpt>
      <trkpt lat="44.72987" lon="6.53849">
        <ele>2066</ele>
        <time>2010-01-01T00:58:20Z</time>
      </trkpt>
      <trkpt lat="44.72988" lon="6.53849">
        <ele>2067</ele>
        <time>2010-01-01T00:58:20Z</time>
      </trkpt>
      <trkpt lat="44.72989" lon="6.53848">
        <ele>2067</ele>
        <time>2010-01-01T00:58:20Z</time>
      </trkpt>
      <trkpt lat="44.7299" lon="6.53845">
        <ele>2068</ele>
        <time>2010-01-01T00:58:21Z</time>
      </trkpt>
      <trkpt lat="44.72992" lon="6.53845">
        <ele>2068</ele>
        <time>2010-01-01T00:58:21Z</time>
      </trkpt>
      <trkpt lat="44.72998" lon="6.53839">
        <ele>2071</ele>
        <time>2010-01-01T00:58:23Z</time>
      </trkpt>
      <trkpt lat="44.73009" lon="6.53828">
        <ele>2073</ele>
        <time>2010-01-01T00:58:27Z</time>
      </trkpt>
      <trkpt lat="44.73012" lon="6.53824">
        <ele>2073</ele>
        <time>2010-01-01T00:58:28Z</time>
      </trkpt>
      <trkpt lat="44.73013" lon="6.53824">
        <ele>2073</ele>
        <time>2010-01-01T00:58:28Z</time>
      </trkpt>
      <trkpt lat="44.7302" lon="6.53816">
        <ele>2073</ele>
        <time>2010-01-01T00:58:31Z</time>
      </trkpt>
      <trkpt lat="44.73024" lon="6.53805">
        <ele>2075</ele>
        <time>2010-01-01T00:58:33Z</time>
      </trkpt>
      <trkpt lat="44.73026" lon="6.53798">
        <ele>2076</ele>
        <time>2010-01-01T00:58:34Z</time>
      </trkpt>
      <trkpt lat="44.73028" lon="6.53792">
        <ele>2076</ele>
        <time>2010-01-01T00:58:36Z</time>
      </trkpt>
      <trkpt lat="44.73032" lon="6.53786">
        <ele>2076</ele>
        <time>2010-01-01T00:58:37Z</time>
      </trkpt>
      <trkpt lat="44.73036" lon="6.53783">
        <ele>2075</ele>
        <time>2010-01-01T00:58:38Z</time>
      </trkpt>
      <trkpt lat="44.73042" lon="6.53778">
        <ele>2075</ele>
        <time>2010-01-01T00:58:40Z</time>
      </trkpt>
      <trkpt lat="44.73049" lon="6.53773">
        <ele>2074</ele>
        <time>2010-01-01T00:58:42Z</time>
      </trkpt>
      <trkpt lat="44.73055" lon="6.5377">
        <ele>2072</ele>
        <time>2010-01-01T00:58:44Z</time>
      </trkpt>
      <trkpt lat="44.73067" lon="6.53764">
        <ele>2068</ele>
        <time>2010-01-01T00:58:48Z</time>
      </trkpt>
      <trkpt lat="44.73071" lon="6.53761">
        <ele>2067</ele>
        <time>2010-01-01T00:58:48Z</time>
      </trkpt>
      <trkpt lat="44.73077" lon="6.53754">
        <ele>2067</ele>
        <time>2010-01-01T00:58:51Z</time>
      </trkpt>
      <trkpt lat="44.73084" lon="6.53746">
        <ele>2066</ele>
        <time>2010-01-01T00:58:53Z</time>
      </trkpt>
      <trkpt lat="44.731" lon="6.53743">
        <ele>2060</ele>
        <time>2010-01-01T00:58:58Z</time>
      </trkpt>
      <trkpt lat="44.73103" lon="6.53743">
        <ele>2059</ele>
        <time>2010-01-01T00:58:58Z</time>
      </trkpt>
      <trkpt lat="44.73106" lon="6.53741">
        <ele>2059</ele>
        <time>2010-01-01T00:58:59Z</time>
      </trkpt>
      <trkpt lat="44.73111" lon="6.53734">
        <ele>2059</ele>
        <time>2010-01-01T00:59:01Z</time>
      </trkpt>
      <trkpt lat="44.73119" lon="6.53713">
        <ele>2064</ele>
        <time>2010-01-01T00:59:06Z</time>
      </trkpt>
      <trkpt lat="44.73125" lon="6.537">
        <ele>2066</ele>
        <time>2010-01-01T00:59:08Z</time>
      </trkpt>
      <trkpt lat="44.73128" lon="6.53692">
        <ele>2068</ele>
        <time>2010-01-01T00:59:10Z</time>
      </trkpt>
      <trkpt lat="44.7313" lon="6.53686">
        <ele>2068</ele>
        <time>2010-01-01T00:59:11Z</time>
      </trkpt>
      <trkpt lat="44.73135" lon="6.5368">
        <ele>2068</ele>
        <time>2010-01-01T00:59:13Z</time>
      </trkpt>
      <trkpt lat="44.73137" lon="6.53678">
        <ele>2067</ele>
        <time>2010-01-01T00:59:14Z</time>
      </trkpt>
      <trkpt lat="44.73139" lon="6.53675">
        <ele>2067</ele>
        <time>2010-01-01T00:59:15Z</time>
      </trkpt>
      <trkpt lat="44.73142" lon="6.53672">
        <ele>2066</ele>
        <time>2010-01-01T00:59:16Z</time>
      </trkpt>
      <trkpt lat="44.73146" lon="6.53668">
        <ele>2065</ele>
        <time>2010-01-01T00:59:17Z</time>
      </trkpt>
      <trkpt lat="44.73148" lon="6.53664">
        <ele>2064</ele>
        <time>2010-01-01T00:59:18Z</time>
      </trkpt>
      <trkpt lat="44.73151" lon="6.53663">
        <ele>2063</ele>
        <time>2010-01-01T00:59:19Z</time>
      </trkpt>
      <trkpt lat="44.73155" lon="6.53661">
        <ele>2061</ele>
        <time>2010-01-01T00:59:20Z</time>
      </trkpt>
      <trkpt lat="44.7316" lon="6.53659">
        <ele>2059</ele>
        <time>2010-01-01T00:59:21Z</time>
      </trkpt>
      <trkpt lat="44.73164" lon="6.53655">
        <ele>2057</ele>
        <time>2010-01-01T00:59:22Z</time>
      </trkpt>
      <trkpt lat="44.73169" lon="6.53651">
        <ele>2055</ele>
        <time>2010-01-01T00:59:24Z</time>
      </trkpt>
      <trkpt lat="44.73174" lon="6.53647">
        <ele>2053</ele>
        <time>2010-01-01T00:59:25Z</time>
      </trkpt>
      <trkpt lat="44.73178" lon="6.53645">
        <ele>2051</ele>
        <time>2010-01-01T00:59:27Z</time>
      </trkpt>
      <trkpt lat="44.73184" lon="6.53642">
        <ele>2048</ele>
        <time>2010-01-01T00:59:28Z</time>
      </trkpt>
      <trkpt lat="44.73193" lon="6.53638">
        <ele>2044</ele>
        <time>2010-01-01T00:59:31Z</time>
      </trkpt>
      <trkpt lat="44.73196" lon="6.53633">
        <ele>2043</ele>
        <time>2010-01-01T00:59:32Z</time>
      </trkpt>
      <trkpt lat="44.732" lon="6.53623">
        <ele>2045</ele>
        <time>2010-01-01T00:59:34Z</time>
      </trkpt>
      <trkpt lat="44.73203" lon="6.53617">
        <ele>2046</ele>
        <time>2010-01-01T00:59:36Z</time>
      </trkpt>
      <trkpt lat="44.73206" lon="6.53615">
        <ele>2045</ele>
        <time>2010-01-01T00:59:37Z</time>
      </trkpt>
      <trkpt lat="44.73214" lon="6.53615">
        <ele>2042</ele>
        <time>2010-01-01T00:59:39Z</time>
      </trkpt>
      <trkpt lat="44.73218" lon="6.53614">
        <ele>2041</ele>
        <time>2010-01-01T00:59:40Z</time>
      </trkpt>
      <trkpt lat="44.73228" lon="6.53609">
        <ele>2041</ele>
        <time>2010-01-01T00:59:43Z</time>
      </trkpt>
      <trkpt lat="44.73231" lon="6.5361">
        <ele>2040</ele>
        <time>2010-01-01T00:59:43Z</time>
      </trkpt>
      <trkpt lat="44.73236" lon="6.53605">
        <ele>2041</ele>
        <time>2010-01-01T00:59:45Z</time>
      </trkpt>
      <trkpt lat="44.7324" lon="6.53603">
        <ele>2041</ele>
        <time>2010-01-01T00:59:46Z</time>
      </trkpt>
      <trkpt lat="44.73244" lon="6.53602">
        <ele>2040</ele>
        <time>2010-01-01T00:59:47Z</time>
      </trkpt>
      <trkpt lat="44.73249" lon="6.53605">
        <ele>2039</ele>
        <time>2010-01-01T00:59:49Z</time>
      </trkpt>
      <trkpt lat="44.73252" lon="6.53608">
        <ele>2037</ele>
        <time>2010-01-01T00:59:50Z</time>
      </trkpt>
      <trkpt lat="44.73257" lon="6.53607">
        <ele>2038</ele>
        <time>2010-01-01T00:59:51Z</time>
      </trkpt>
      <trkpt lat="44.73262" lon="6.53605">
        <ele>2038</ele>
        <time>2010-01-01T00:59:52Z</time>
      </trkpt>
      <trkpt lat="44.73267" lon="6.53603">
        <ele>2039</ele>
        <time>2010-01-01T00:59:54Z</time>
      </trkpt>
      <trkpt lat="44.73271" lon="6.53604">
        <ele>2039</ele>
        <time>2010-01-01T00:59:55Z</time>
      </trkpt>
      <trkpt lat="44.73274" lon="6.53607">
        <ele>2038</ele>
        <time>2010-01-01T00:59:56Z</time>
      </trkpt>
      <trkpt lat="44.73277" lon="6.53613">
        <ele>2036</ele>
        <time>2010-01-01T00:59:57Z</time>
      </trkpt>
      <trkpt lat="44.73279" lon="6.53617">
        <ele>2035</ele>
        <time>2010-01-01T00:59:58Z</time>
      </trkpt>
      <trkpt lat="44.73285" lon="6.53617">
        <ele>2035</ele>
        <time>2010-01-01T01:00:00Z</time>
      </trkpt>
      <trkpt lat="44.73294" lon="6.53618">
        <ele>2034</ele>
        <time>2010-01-01T01:00:02Z</time>
      </trkpt>
      <trkpt lat="44.73299" lon="6.53616">
        <ele>2035</ele>
        <time>2010-01-01T01:00:04Z</time>
      </trkpt>
      <trkpt lat="44.73308" lon="6.53608">
        <ele>2036</ele>
        <time>2010-01-01T01:00:06Z</time>
      </trkpt>
      <trkpt lat="44.73315" lon="6.53607">
        <ele>2035</ele>
        <time>2010-01-01T01:00:08Z</time>
      </trkpt>
      <trkpt lat="44.73319" lon="6.53609">
        <ele>2034</ele>
        <time>2010-01-01T01:00:09Z</time>
      </trkpt>
      <trkpt lat="44.73322" lon="6.5361">
        <ele>2033</ele>
        <time>2010-01-01T01:00:10Z</time>
      </trkpt>
      <trkpt lat="44.73328" lon="6.53608">
        <ele>2032</ele>
        <time>2010-01-01T01:00:12Z</time>
      </trkpt>
      <trkpt lat="44.7333" lon="6.53606">
        <ele>2032</ele>
        <time>2010-01-01T01:00:13Z</time>
      </trkpt>
      <trkpt lat="44.73333" lon="6.53604">
        <ele>2032</ele>
        <time>2010-01-01T01:00:13Z</time>
      </trkpt>
      <trkpt lat="44.73342" lon="6.536">
        <ele>2031</ele>
        <time>2010-01-01T01:00:16Z</time>
      </trkpt>
      <trkpt lat="44.73346" lon="6.53598">
        <ele>2030</ele>
        <time>2010-01-01T01:00:17Z</time>
      </trkpt>
      <trkpt lat="44.73354" lon="6.53591">
        <ele>2029</ele>
        <time>2010-01-01T01:00:20Z</time>
      </trkpt>
      <trkpt lat="44.73356" lon="6.5359">
        <ele>2029</ele>
        <time>2010-01-01T01:00:20Z</time>
      </trkpt>
      <trkpt lat="44.73366" lon="6.53586">
        <ele>2027</ele>
        <time>2010-01-01T01:00:23Z</time>
      </trkpt>
      <trkpt lat="44.73368" lon="6.53587">
        <ele>2027</ele>
        <time>2010-01-01T01:00:24Z</time>
      </trkpt>
      <trkpt lat="44.73371" lon="6.53589">
        <ele>2026</ele>
        <time>2010-01-01T01:00:24Z</time>
      </trkpt>
      <trkpt lat="44.73375" lon="6.53594">
        <ele>2025</ele>
        <time>2010-01-01T01:00:26Z</time>
      </trkpt>
      <trkpt lat="44.73383" lon="6.53592">
        <ele>2024</ele>
        <time>2010-01-01T01:00:28Z</time>
      </trkpt>
      <trkpt lat="44.73394" lon="6.53596">
        <ele>2022</ele>
        <time>2010-01-01T01:00:31Z</time>
      </trkpt>
      <trkpt lat="44.73398" lon="6.53602">
        <ele>2021</ele>
        <time>2010-01-01T01:00:33Z</time>
      </trkpt>
      <trkpt lat="44.73401" lon="6.53606">
        <ele>2020</ele>
        <time>2010-01-01T01:00:34Z</time>
      </trkpt>
      <trkpt lat="44.73404" lon="6.53608">
        <ele>2019</ele>
        <time>2010-01-01T01:00:35Z</time>
      </trkpt>
      <trkpt lat="44.73407" lon="6.53608">
        <ele>2019</ele>
        <time>2010-01-01T01:00:36Z</time>
      </trkpt>
      <trkpt lat="44.73414" lon="6.5361">
        <ele>2018</ele>
        <time>2010-01-01T01:00:37Z</time>
      </trkpt>
      <trkpt lat="44.73419" lon="6.53618">
        <ele>2017</ele>
        <time>2010-01-01T01:00:39Z</time>
      </trkpt>
      <trkpt lat="44.7343" lon="6.53625">
        <ele>2015</ele>
        <time>2010-01-01T01:00:43Z</time>
      </trkpt>
      <trkpt lat="44.73431" lon="6.53627">
        <ele>2015</ele>
        <time>2010-01-01T01:00:43Z</time>
      </trkpt>
      <trkpt lat="44.73436" lon="6.53631">
        <ele>2014</ele>
        <time>2010-01-01T01:00:44Z</time>
      </trkpt>
      <trkpt lat="44.73441" lon="6.53632">
        <ele>2014</ele>
        <time>2010-01-01T01:00:46Z</time>
      </trkpt>
      <trkpt lat="44.73452" lon="6.53634">
        <ele>2013</ele>
        <time>2010-01-01T01:00:49Z</time>
      </trkpt>
      <trkpt lat="44.73461" lon="6.53635">
        <ele>2013</ele>
        <time>2010-01-01T01:00:51Z</time>
      </trkpt>
      <trkpt lat="44.73469" lon="6.53626">
        <ele>2014</ele>
        <time>2010-01-01T01:00:54Z</time>
      </trkpt>
      <trkpt lat="44.73473" lon="6.53619">
        <ele>2015</ele>
        <time>2010-01-01T01:00:56Z</time>
      </trkpt>
      <trkpt lat="44.73479" lon="6.53613">
        <ele>2015</ele>
        <time>2010-01-01T01:00:58Z</time>
      </trkpt>
      <trkpt lat="44.73486" lon="6.53607">
        <ele>2015</ele>
        <time>2010-01-01T01:01:00Z</time>
      </trkpt>
      <trkpt lat="44.73497" lon="6.5359">
        <ele>2015</ele>
        <time>2010-01-01T01:01:04Z</time>
      </trkpt>
      <trkpt lat="44.735" lon="6.53585">
        <ele>2015</ele>
        <time>2010-01-01T01:01:05Z</time>
      </trkpt>
      <trkpt lat="44.73508" lon="6.53572">
        <ele>2014</ele>
        <time>2010-01-01T01:01:09Z</time>
      </trkpt>
      <trkpt lat="44.73515" lon="6.53563">
        <ele>2012</ele>
        <time>2010-01-01T01:01:11Z</time>
      </trkpt>
      <trkpt lat="44.73519" lon="6.53557">
        <ele>2012</ele>
        <time>2010-01-01T01:01:13Z</time>
      </trkpt>
      <trkpt lat="44.73523" lon="6.53552">
        <ele>2011</ele>
        <time>2010-01-01T01:01:14Z</time>
      </trkpt>
      <trkpt lat="44.73528" lon="6.53548">
        <ele>2010</ele>
        <time>2010-01-01T01:01:16Z</time>
      </trkpt>
      <trkpt lat="44.73533" lon="6.53542">
        <ele>2009</ele>
        <time>2010-01-01T01:01:17Z</time>
      </trkpt>
      <trkpt lat="44.73537" lon="6.53537">
        <ele>2008</ele>
        <time>2010-01-01T01:01:19Z</time>
      </trkpt>
      <trkpt lat="44.7354" lon="6.53531">
        <ele>2007</ele>
        <time>2010-01-01T01:01:20Z</time>
      </trkpt>
      <trkpt lat="44.73541" lon="6.53531">
        <ele>2007</ele>
        <time>2010-01-01T01:01:21Z</time>
      </trkpt>
      <trkpt lat="44.73541" lon="6.5353">
        <ele>2007</ele>
        <time>2010-01-01T01:01:21Z</time>
      </trkpt>
      <trkpt lat="44.73547" lon="6.53521">
        <ele>2005</ele>
        <time>2010-01-01T01:01:23Z</time>
      </trkpt>
      <trkpt lat="44.73549" lon="6.53515">
        <ele>2005</ele>
        <time>2010-01-01T01:01:24Z</time>
      </trkpt>
      <trkpt lat="44.73559" lon="6.53506">
        <ele>2002</ele>
        <time>2010-01-01T01:01:27Z</time>
      </trkpt>
      <trkpt lat="44.73564" lon="6.53501">
        <ele>2001</ele>
        <time>2010-01-01T01:01:29Z</time>
      </trkpt>
      <trkpt lat="44.73568" lon="6.53496">
        <ele>2000</ele>
        <time>2010-01-01T01:01:30Z</time>
      </trkpt>
      <trkpt lat="44.7357" lon="6.53491">
        <ele>1999</ele>
        <time>2010-01-01T01:01:32Z</time>
      </trkpt>
      <trkpt lat="44.73572" lon="6.53486">
        <ele>1998</ele>
        <time>2010-01-01T01:01:33Z</time>
      </trkpt>
      <trkpt lat="44.73574" lon="6.53483">
        <ele>1997</ele>
        <time>2010-01-01T01:01:33Z</time>
      </trkpt>
      <trkpt lat="44.7358" lon="6.53479">
        <ele>1996</ele>
        <time>2010-01-01T01:01:35Z</time>
      </trkpt>
      <trkpt lat="44.73585" lon="6.53476">
        <ele>1994</ele>
        <time>2010-01-01T01:01:37Z</time>
      </trkpt>
      <trkpt lat="44.73586" lon="6.53474">
        <ele>1994</ele>
        <time>2010-01-01T01:01:37Z</time>
      </trkpt>
      <trkpt lat="44.73584" lon="6.53472">
        <ele>1994</ele>
        <time>2010-01-01T01:01:38Z</time>
      </trkpt>
      <trkpt lat="44.73579" lon="6.53462">
        <ele>1994</ele>
        <time>2010-01-01T01:01:40Z</time>
      </trkpt>
      <trkpt lat="44.73575" lon="6.53455">
        <ele>1995</ele>
        <time>2010-01-01T01:01:42Z</time>
      </trkpt>
      <trkpt lat="44.73573" lon="6.53447">
        <ele>1995</ele>
        <time>2010-01-01T01:01:43Z</time>
      </trkpt>
      <trkpt lat="44.73572" lon="6.53443">
        <ele>1994</ele>
        <time>2010-01-01T01:01:44Z</time>
      </trkpt>
      <trkpt lat="44.73573" lon="6.53443">
        <ele>1994</ele>
        <time>2010-01-01T01:01:44Z</time>
      </trkpt>
      <trkpt lat="44.73577" lon="6.53446">
        <ele>1993</ele>
        <time>2010-01-01T01:01:46Z</time>
      </trkpt>
      <trkpt lat="44.7358" lon="6.53445">
        <ele>1992</ele>
        <time>2010-01-01T01:01:46Z</time>
      </trkpt>
      <trkpt lat="44.7358" lon="6.53442">
        <ele>1991</ele>
        <time>2010-01-01T01:01:47Z</time>
      </trkpt>
      <trkpt lat="44.73581" lon="6.53437">
        <ele>1990</ele>
        <time>2010-01-01T01:01:48Z</time>
      </trkpt>
      <trkpt lat="44.73581" lon="6.53432">
        <ele>1990</ele>
        <time>2010-01-01T01:01:49Z</time>
      </trkpt>
      <trkpt lat="44.73582" lon="6.53427">
        <ele>1989</ele>
        <time>2010-01-01T01:01:50Z</time>
      </trkpt>
      <trkpt lat="44.73584" lon="6.53424">
        <ele>1987</ele>
        <time>2010-01-01T01:01:51Z</time>
      </trkpt>
      <trkpt lat="44.73586" lon="6.53426">
        <ele>1987</ele>
        <time>2010-01-01T01:01:51Z</time>
      </trkpt>
      <trkpt lat="44.73586" lon="6.53424">
        <ele>1987</ele>
        <time>2010-01-01T01:01:52Z</time>
      </trkpt>
      <trkpt lat="44.73589" lon="6.53415">
        <ele>1985</ele>
        <time>2010-01-01T01:01:54Z</time>
      </trkpt>
      <trkpt lat="44.73591" lon="6.53409">
        <ele>1984</ele>
        <time>2010-01-01T01:01:55Z</time>
      </trkpt>
      <trkpt lat="44.73592" lon="6.53404">
        <ele>1983</ele>
        <time>2010-01-01T01:01:56Z</time>
      </trkpt>
      <trkpt lat="44.73593" lon="6.53393">
        <ele>1983</ele>
        <time>2010-01-01T01:01:58Z</time>
      </trkpt>
      <trkpt lat="44.73594" lon="6.5339">
        <ele>1982</ele>
        <time>2010-01-01T01:01:58Z</time>
      </trkpt>
      <trkpt lat="44.73598" lon="6.53389">
        <ele>1981</ele>
        <time>2010-01-01T01:01:59Z</time>
      </trkpt>
      <trkpt lat="44.73598" lon="6.5339">
        <ele>1981</ele>
        <time>2010-01-01T01:02:00Z</time>
      </trkpt>
      <trkpt lat="44.73601" lon="6.53395">
        <ele>1980</ele>
        <time>2010-01-01T01:02:01Z</time>
      </trkpt>
      <trkpt lat="44.73603" lon="6.53394">
        <ele>1980</ele>
        <time>2010-01-01T01:02:02Z</time>
      </trkpt>
      <trkpt lat="44.73606" lon="6.53397">
        <ele>1979</ele>
        <time>2010-01-01T01:02:03Z</time>
      </trkpt>
      <trkpt lat="44.73609" lon="6.534">
        <ele>1978</ele>
        <time>2010-01-01T01:02:04Z</time>
      </trkpt>
      <trkpt lat="44.73612" lon="6.53398">
        <ele>1977</ele>
        <time>2010-01-01T01:02:04Z</time>
      </trkpt>
      <trkpt lat="44.73614" lon="6.53394">
        <ele>1976</ele>
        <time>2010-01-01T01:02:05Z</time>
      </trkpt>
      <trkpt lat="44.73619" lon="6.53384">
        <ele>1974</ele>
        <time>2010-01-01T01:02:08Z</time>
      </trkpt>
      <trkpt lat="44.73622" lon="6.53384">
        <ele>1972</ele>
        <time>2010-01-01T01:02:09Z</time>
      </trkpt>
      <trkpt lat="44.73625" lon="6.53388">
        <ele>1971</ele>
        <time>2010-01-01T01:02:10Z</time>
      </trkpt>
      <trkpt lat="44.73628" lon="6.53395">
        <ele>1969</ele>
        <time>2010-01-01T01:02:11Z</time>
      </trkpt>
      <trkpt lat="44.73629" lon="6.53406">
        <ele>1968</ele>
        <time>2010-01-01T01:02:13Z</time>
      </trkpt>
      <trkpt lat="44.73629" lon="6.53414">
        <ele>1968</ele>
        <time>2010-01-01T01:02:15Z</time>
      </trkpt>
      <trkpt lat="44.73628" lon="6.53419">
        <ele>1968</ele>
        <time>2010-01-01T01:02:16Z</time>
      </trkpt>
      <trkpt lat="44.7363" lon="6.53423">
        <ele>1967</ele>
        <time>2010-01-01T01:02:17Z</time>
      </trkpt>
      <trkpt lat="44.73635" lon="6.53422">
        <ele>1964</ele>
        <time>2010-01-01T01:02:18Z</time>
      </trkpt>
      <trkpt lat="44.73638" lon="6.53422">
        <ele>1963</ele>
        <time>2010-01-01T01:02:19Z</time>
      </trkpt>
      <trkpt lat="44.73638" lon="6.53423">
        <ele>1962</ele>
        <time>2010-01-01T01:02:19Z</time>
      </trkpt>
      <trkpt lat="44.73639" lon="6.5343">
        <ele>1961</ele>
        <time>2010-01-01T01:02:20Z</time>
      </trkpt>
      <trkpt lat="44.7364" lon="6.53431">
        <ele>1960</ele>
        <time>2010-01-01T01:02:21Z</time>
      </trkpt>
      <trkpt lat="44.73643" lon="6.5343">
        <ele>1959</ele>
        <time>2010-01-01T01:02:22Z</time>
      </trkpt>
      <trkpt lat="44.73648" lon="6.53422">
        <ele>1957</ele>
        <time>2010-01-01T01:02:24Z</time>
      </trkpt>
      <trkpt lat="44.73651" lon="6.53422">
        <ele>1955</ele>
        <time>2010-01-01T01:02:24Z</time>
      </trkpt>
      <trkpt lat="44.73651" lon="6.53423">
        <ele>1955</ele>
        <time>2010-01-01T01:02:24Z</time>
      </trkpt>
      <trkpt lat="44.73652" lon="6.53428">
        <ele>1954</ele>
        <time>2010-01-01T01:02:26Z</time>
      </trkpt>
      <trkpt lat="44.73653" lon="6.53433">
        <ele>1953</ele>
        <time>2010-01-01T01:02:27Z</time>
      </trkpt>
      <trkpt lat="44.73654" lon="6.53439">
        <ele>1952</ele>
        <time>2010-01-01T01:02:28Z</time>
      </trkpt>
      <trkpt lat="44.73655" lon="6.53444">
        <ele>1950</ele>
        <time>2010-01-01T01:02:29Z</time>
      </trkpt>
      <trkpt lat="44.73658" lon="6.53444">
        <ele>1949</ele>
        <time>2010-01-01T01:02:29Z</time>
      </trkpt>
      <trkpt lat="44.73661" lon="6.53444">
        <ele>1947</ele>
        <time>2010-01-01T01:02:30Z</time>
      </trkpt>
      <trkpt lat="44.73661" lon="6.53446">
        <ele>1946</ele>
        <time>2010-01-01T01:02:31Z</time>
      </trkpt>
      <trkpt lat="44.73661" lon="6.53452">
        <ele>1946</ele>
        <time>2010-01-01T01:02:32Z</time>
      </trkpt>
      <trkpt lat="44.7366" lon="6.53462">
        <ele>1945</ele>
        <time>2010-01-01T01:02:34Z</time>
      </trkpt>
      <trkpt lat="44.73662" lon="6.53465">
        <ele>1943</ele>
        <time>2010-01-01T01:02:34Z</time>
      </trkpt>
      <trkpt lat="44.73663" lon="6.53465">
        <ele>1942</ele>
        <time>2010-01-01T01:02:35Z</time>
      </trkpt>
      <trkpt lat="44.73665" lon="6.53466">
        <ele>1941</ele>
        <time>2010-01-01T01:02:35Z</time>
      </trkpt>
      <trkpt lat="44.73667" lon="6.53468">
        <ele>1939</ele>
        <time>2010-01-01T01:02:36Z</time>
      </trkpt>
      <trkpt lat="44.73666" lon="6.53471">
        <ele>1939</ele>
        <time>2010-01-01T01:02:36Z</time>
      </trkpt>
      <trkpt lat="44.73668" lon="6.53473">
        <ele>1938</ele>
        <time>2010-01-01T01:02:37Z</time>
      </trkpt>
      <trkpt lat="44.73669" lon="6.53478">
        <ele>1936</ele>
        <time>2010-01-01T01:02:38Z</time>
      </trkpt>
      <trkpt lat="44.73671" lon="6.53477">
        <ele>1936</ele>
        <time>2010-01-01T01:02:38Z</time>
      </trkpt>
      <trkpt lat="44.73673" lon="6.53475">
        <ele>1935</ele>
        <time>2010-01-01T01:02:39Z</time>
      </trkpt>
      <trkpt lat="44.73678" lon="6.53467">
        <ele>1935</ele>
        <time>2010-01-01T01:02:41Z</time>
      </trkpt>
      <trkpt lat="44.7368" lon="6.53465">
        <ele>1934</ele>
        <time>2010-01-01T01:02:42Z</time>
      </trkpt>
      <trkpt lat="44.73682" lon="6.53468">
        <ele>1933</ele>
        <time>2010-01-01T01:02:43Z</time>
      </trkpt>
      <trkpt lat="44.73684" lon="6.53472">
        <ele>1931</ele>
        <time>2010-01-01T01:02:43Z</time>
      </trkpt>
      <trkpt lat="44.73684" lon="6.53477">
        <ele>1930</ele>
        <time>2010-01-01T01:02:44Z</time>
      </trkpt>
      <trkpt lat="44.73685" lon="6.53482">
        <ele>1929</ele>
        <time>2010-01-01T01:02:45Z</time>
      </trkpt>
      <trkpt lat="44.73689" lon="6.53474">
        <ele>1928</ele>
        <time>2010-01-01T01:02:47Z</time>
      </trkpt>
      <trkpt lat="44.73693" lon="6.53467">
        <ele>1928</ele>
        <time>2010-01-01T01:02:49Z</time>
      </trkpt>
      <trkpt lat="44.73697" lon="6.53465">
        <ele>1927</ele>
        <time>2010-01-01T01:02:50Z</time>
      </trkpt>
      <trkpt lat="44.73697" lon="6.53465">
        <ele>1927</ele>
        <time>2010-01-01T01:02:50Z</time>
      </trkpt>
      <trkpt lat="44.737" lon="6.53463">
        <ele>1926</ele>
        <time>2010-01-01T01:02:51Z</time>
      </trkpt>
      <trkpt lat="44.73702" lon="6.53465">
        <ele>1925</ele>
        <time>2010-01-01T01:02:52Z</time>
      </trkpt>
      <trkpt lat="44.73703" lon="6.53468">
        <ele>1924</ele>
        <time>2010-01-01T01:02:52Z</time>
      </trkpt>
      <trkpt lat="44.73704" lon="6.53472">
        <ele>1923</ele>
        <time>2010-01-01T01:02:53Z</time>
      </trkpt>
      <trkpt lat="44.73706" lon="6.53474">
        <ele>1921</ele>
        <time>2010-01-01T01:02:54Z</time>
      </trkpt>
      <trkpt lat="44.73709" lon="6.53473">
        <ele>1920</ele>
        <time>2010-01-01T01:02:55Z</time>
      </trkpt>
      <trkpt lat="44.73712" lon="6.53476">
        <ele>1918</ele>
        <time>2010-01-01T01:02:56Z</time>
      </trkpt>
      <trkpt lat="44.73712" lon="6.53479">
        <ele>1918</ele>
        <time>2010-01-01T01:02:56Z</time>
      </trkpt>
      <trkpt lat="44.73712" lon="6.53482">
        <ele>1917</ele>
        <time>2010-01-01T01:02:57Z</time>
      </trkpt>
      <trkpt lat="44.73717" lon="6.5348">
        <ele>1915</ele>
        <time>2010-01-01T01:02:58Z</time>
      </trkpt>
      <trkpt lat="44.73719" lon="6.53481">
        <ele>1914</ele>
        <time>2010-01-01T01:02:59Z</time>
      </trkpt>
      <trkpt lat="44.73719" lon="6.53483">
        <ele>1914</ele>
        <time>2010-01-01T01:02:59Z</time>
      </trkpt>
      <trkpt lat="44.73721" lon="6.53489">
        <ele>1912</ele>
        <time>2010-01-01T01:03:00Z</time>
      </trkpt>
      <trkpt lat="44.73722" lon="6.53489">
        <ele>1912</ele>
        <time>2010-01-01T01:03:01Z</time>
      </trkpt>
      <trkpt lat="44.73721" lon="6.53492">
        <ele>1911</ele>
        <time>2010-01-01T01:03:01Z</time>
      </trkpt>
      <trkpt lat="44.73723" lon="6.53496">
        <ele>1910</ele>
        <time>2010-01-01T01:03:02Z</time>
      </trkpt>
      <trkpt lat="44.73724" lon="6.53496">
        <ele>1909</ele>
        <time>2010-01-01T01:03:02Z</time>
      </trkpt>
      <trkpt lat="44.73726" lon="6.53498">
        <ele>1909</ele>
        <time>2010-01-01T01:03:03Z</time>
      </trkpt>
      <trkpt lat="44.73726" lon="6.53501">
        <ele>1908</ele>
        <time>2010-01-01T01:03:04Z</time>
      </trkpt>
      <trkpt lat="44.73725" lon="6.53507">
        <ele>1907</ele>
        <time>2010-01-01T01:03:05Z</time>
      </trkpt>
      <trkpt lat="44.73727" lon="6.5351">
        <ele>1905</ele>
        <time>2010-01-01T01:03:05Z</time>
      </trkpt>
      <trkpt lat="44.73725" lon="6.53519">
        <ele>1904</ele>
        <time>2010-01-01T01:03:07Z</time>
      </trkpt>
      <trkpt lat="44.73724" lon="6.53522">
        <ele>1903</ele>
        <time>2010-01-01T01:03:08Z</time>
      </trkpt>
      <trkpt lat="44.73724" lon="6.53524">
        <ele>1903</ele>
        <time>2010-01-01T01:03:08Z</time>
      </trkpt>
      <trkpt lat="44.7373" lon="6.53525">
        <ele>1901</ele>
        <time>2010-01-01T01:03:10Z</time>
      </trkpt>
      <trkpt lat="44.73735" lon="6.53525">
        <ele>1899</ele>
        <time>2010-01-01T01:03:11Z</time>
      </trkpt>
      <trkpt lat="44.73742" lon="6.53525">
        <ele>1897</ele>
        <time>2010-01-01T01:03:13Z</time>
      </trkpt>
      <trkpt lat="44.73747" lon="6.53524">
        <ele>1895</ele>
        <time>2010-01-01T01:03:14Z</time>
      </trkpt>
      <trkpt lat="44.73752" lon="6.53524">
        <ele>1894</ele>
        <time>2010-01-01T01:03:16Z</time>
      </trkpt>
      <trkpt lat="44.73756" lon="6.53526">
        <ele>1892</ele>
        <time>2010-01-01T01:03:17Z</time>
      </trkpt>
      <trkpt lat="44.73767" lon="6.5353">
        <ele>1887</ele>
        <time>2010-01-01T01:03:20Z</time>
      </trkpt>
      <trkpt lat="44.73773" lon="6.53529">
        <ele>1886</ele>
        <time>2010-01-01T01:03:21Z</time>
      </trkpt>
      <trkpt lat="44.73778" lon="6.53528">
        <ele>1884</ele>
        <time>2010-01-01T01:03:23Z</time>
      </trkpt>
      <trkpt lat="44.73782" lon="6.53526">
        <ele>1884</ele>
        <time>2010-01-01T01:03:24Z</time>
      </trkpt>
      <trkpt lat="44.7379" lon="6.53529">
        <ele>1882</ele>
        <time>2010-01-01T01:03:26Z</time>
      </trkpt>
      <trkpt lat="44.73796" lon="6.5353">
        <ele>1880</ele>
        <time>2010-01-01T01:03:28Z</time>
      </trkpt>
      <trkpt lat="44.73803" lon="6.5353">
        <ele>1879</ele>
        <time>2010-01-01T01:03:30Z</time>
      </trkpt>
      <trkpt lat="44.73808" lon="6.5353">
        <ele>1879</ele>
        <time>2010-01-01T01:03:31Z</time>
      </trkpt>
      <trkpt lat="44.73819" lon="6.53532">
        <ele>1880</ele>
        <time>2010-01-01T01:03:34Z</time>
      </trkpt>
      <trkpt lat="44.73824" lon="6.53533">
        <ele>1879</ele>
        <time>2010-01-01T01:03:35Z</time>
      </trkpt>
      <trkpt lat="44.73833" lon="6.53535">
        <ele>1880</ele>
        <time>2010-01-01T01:03:38Z</time>
      </trkpt>
      <trkpt lat="44.73843" lon="6.53536">
        <ele>1880</ele>
        <time>2010-01-01T01:03:40Z</time>
      </trkpt>
      <trkpt lat="44.73853" lon="6.53545">
        <ele>1876</ele>
        <time>2010-01-01T01:03:44Z</time>
      </trkpt>
      <trkpt lat="44.73857" lon="6.5355">
        <ele>1874</ele>
        <time>2010-01-01T01:03:45Z</time>
      </trkpt>
      <trkpt lat="44.73861" lon="6.53556">
        <ele>1872</ele>
        <time>2010-01-01T01:03:47Z</time>
      </trkpt>
      <trkpt lat="44.73866" lon="6.5356">
        <ele>1869</ele>
        <time>2010-01-01T01:03:48Z</time>
      </trkpt>
      <trkpt lat="44.7387" lon="6.53562">
        <ele>1867</ele>
        <time>2010-01-01T01:03:49Z</time>
      </trkpt>
      <trkpt lat="44.73881" lon="6.53563">
        <ele>1864</ele>
        <time>2010-01-01T01:03:52Z</time>
      </trkpt>
      <trkpt lat="44.73883" lon="6.53568">
        <ele>1862</ele>
        <time>2010-01-01T01:03:53Z</time>
      </trkpt>
      <trkpt lat="44.73887" lon="6.53569">
        <ele>1861</ele>
        <time>2010-01-01T01:03:54Z</time>
      </trkpt>
      <trkpt lat="44.73892" lon="6.53571">
        <ele>1859</ele>
        <time>2010-01-01T01:03:56Z</time>
      </trkpt>
      <trkpt lat="44.73898" lon="6.53575">
        <ele>1858</ele>
        <time>2010-01-01T01:03:57Z</time>
      </trkpt>
      <trkpt lat="44.73903" lon="6.53578">
        <ele>1857</ele>
        <time>2010-01-01T01:03:59Z</time>
      </trkpt>
      <trkpt lat="44.73909" lon="6.5358">
        <ele>1856</ele>
        <time>2010-01-01T01:04:00Z</time>
      </trkpt>
      <trkpt lat="44.73917" lon="6.53583">
        <ele>1855</ele>
        <time>2010-01-01T01:04:03Z</time>
      </trkpt>
      <trkpt lat="44.73923" lon="6.53587">
        <ele>1855</ele>
        <time>2010-01-01T01:04:04Z</time>
      </trkpt>
      <trkpt lat="44.73928" lon="6.53589">
        <ele>1855</ele>
        <time>2010-01-01T01:04:06Z</time>
      </trkpt>
      <trkpt lat="44.73934" lon="6.53592">
        <ele>1855</ele>
        <time>2010-01-01T01:04:08Z</time>
      </trkpt>
      <trkpt lat="44.73939" lon="6.53595">
        <ele>1855</ele>
        <time>2010-01-01T01:04:09Z</time>
      </trkpt>
      <trkpt lat="44.73943" lon="6.53595">
        <ele>1856</ele>
        <time>2010-01-01T01:04:10Z</time>
      </trkpt>
      <trkpt lat="44.73949" lon="6.53601">
        <ele>1855</ele>
        <time>2010-01-01T01:04:12Z</time>
      </trkpt>
      <trkpt lat="44.73951" lon="6.53608">
        <ele>1853</ele>
        <time>2010-01-01T01:04:13Z</time>
      </trkpt>
      <trkpt lat="44.73951" lon="6.53615">
        <ele>1850</ele>
        <time>2010-01-01T01:04:15Z</time>
      </trkpt>
      <trkpt lat="44.73952" lon="6.53624">
        <ele>1846</ele>
        <time>2010-01-01T01:04:17Z</time>
      </trkpt>
      <trkpt lat="44.73952" lon="6.53634">
        <ele>1842</ele>
        <time>2010-01-01T01:04:18Z</time>
      </trkpt>
      <trkpt lat="44.73952" lon="6.53641">
        <ele>1839</ele>
        <time>2010-01-01T01:04:20Z</time>
      </trkpt>
      <trkpt lat="44.73955" lon="6.53644">
        <ele>1838</ele>
        <time>2010-01-01T01:04:21Z</time>
      </trkpt>
      <trkpt lat="44.73957" lon="6.53646">
        <ele>1837</ele>
        <time>2010-01-01T01:04:21Z</time>
      </trkpt>
      <trkpt lat="44.73963" lon="6.53657">
        <ele>1833</ele>
        <time>2010-01-01T01:04:24Z</time>
      </trkpt>
      <trkpt lat="44.73966" lon="6.53658">
        <ele>1833</ele>
        <time>2010-01-01T01:04:25Z</time>
      </trkpt>
      <trkpt lat="44.7397" lon="6.53659">
        <ele>1833</ele>
        <time>2010-01-01T01:04:26Z</time>
      </trkpt>
      <trkpt lat="44.73978" lon="6.53659">
        <ele>1834</ele>
        <time>2010-01-01T01:04:28Z</time>
      </trkpt>
      <trkpt lat="44.73988" lon="6.53664">
        <ele>1833</ele>
        <time>2010-01-01T01:04:31Z</time>
      </trkpt>
      <trkpt lat="44.73997" lon="6.53672">
        <ele>1831</ele>
        <time>2010-01-01T01:04:34Z</time>
      </trkpt>
      <trkpt lat="44.74" lon="6.53676">
        <ele>1831</ele>
        <time>2010-01-01T01:04:35Z</time>
      </trkpt>
      <trkpt lat="44.74" lon="6.53677">
        <ele>1830</ele>
        <time>2010-01-01T01:04:35Z</time>
      </trkpt>
      <trkpt lat="44.73998" lon="6.53677">
        <ele>1830</ele>
        <time>2010-01-01T01:04:35Z</time>
      </trkpt>
      <trkpt lat="44.73996" lon="6.53677">
        <ele>1829</ele>
        <time>2010-01-01T01:04:36Z</time>
      </trkpt>
      <trkpt lat="44.73991" lon="6.53678">
        <ele>1828</ele>
        <time>2010-01-01T01:04:37Z</time>
      </trkpt>
      <trkpt lat="44.73993" lon="6.53687">
        <ele>1826</ele>
        <time>2010-01-01T01:04:39Z</time>
      </trkpt>
      <trkpt lat="44.73996" lon="6.53693">
        <ele>1824</ele>
        <time>2010-01-01T01:04:40Z</time>
      </trkpt>
      <trkpt lat="44.73998" lon="6.53699">
        <ele>1823</ele>
        <time>2010-01-01T01:04:42Z</time>
      </trkpt>
      <trkpt lat="44.73997" lon="6.53704">
        <ele>1821</ele>
        <time>2010-01-01T01:04:43Z</time>
      </trkpt>
      <trkpt lat="44.73995" lon="6.53707">
        <ele>1820</ele>
        <time>2010-01-01T01:04:43Z</time>
      </trkpt>
      <trkpt lat="44.73993" lon="6.53705">
        <ele>1820</ele>
        <time>2010-01-01T01:04:44Z</time>
      </trkpt>
      <trkpt lat="44.73988" lon="6.53703">
        <ele>1820</ele>
        <time>2010-01-01T01:04:45Z</time>
      </trkpt>
      <trkpt lat="44.73983" lon="6.53708">
        <ele>1817</ele>
        <time>2010-01-01T01:04:47Z</time>
      </trkpt>
      <trkpt lat="44.73985" lon="6.5372">
        <ele>1814</ele>
        <time>2010-01-01T01:04:49Z</time>
      </trkpt>
      <trkpt lat="44.73983" lon="6.53722">
        <ele>1813</ele>
        <time>2010-01-01T01:04:50Z</time>
      </trkpt>
      <trkpt lat="44.73981" lon="6.5372">
        <ele>1813</ele>
        <time>2010-01-01T01:04:51Z</time>
      </trkpt>
      <trkpt lat="44.73979" lon="6.53716">
        <ele>1814</ele>
        <time>2010-01-01T01:04:51Z</time>
      </trkpt>
      <trkpt lat="44.73973" lon="6.53719">
        <ele>1812</ele>
        <time>2010-01-01T01:04:53Z</time>
      </trkpt>
      <trkpt lat="44.73972" lon="6.53724">
        <ele>1810</ele>
        <time>2010-01-01T01:04:54Z</time>
      </trkpt>
      <trkpt lat="44.73968" lon="6.53727">
        <ele>1808</ele>
        <time>2010-01-01T01:04:55Z</time>
      </trkpt>
      <trkpt lat="44.73964" lon="6.53726">
        <ele>1808</ele>
        <time>2010-01-01T01:04:56Z</time>
      </trkpt>
      <trkpt lat="44.7396" lon="6.53724">
        <ele>1808</ele>
        <time>2010-01-01T01:04:57Z</time>
      </trkpt>
      <trkpt lat="44.73955" lon="6.53723">
        <ele>1808</ele>
        <time>2010-01-01T01:04:59Z</time>
      </trkpt>
      <trkpt lat="44.73944" lon="6.53723">
        <ele>1806</ele>
        <time>2010-01-01T01:05:02Z</time>
      </trkpt>
      <trkpt lat="44.73939" lon="6.53721">
        <ele>1806</ele>
        <time>2010-01-01T01:05:03Z</time>
      </trkpt>
      <trkpt lat="44.73933" lon="6.53718">
        <ele>1806</ele>
        <time>2010-01-01T01:05:05Z</time>
      </trkpt>
      <trkpt lat="44.73925" lon="6.53719">
        <ele>1805</ele>
        <time>2010-01-01T01:05:07Z</time>
      </trkpt>
      <trkpt lat="44.73926" lon="6.53729">
        <ele>1802</ele>
        <time>2010-01-01T01:05:09Z</time>
      </trkpt>
      <trkpt lat="44.73928" lon="6.53736">
        <ele>1800</ele>
        <time>2010-01-01T01:05:10Z</time>
      </trkpt>
      <trkpt lat="44.73929" lon="6.53745">
        <ele>1797</ele>
        <time>2010-01-01T01:05:12Z</time>
      </trkpt>
      <trkpt lat="44.7393" lon="6.53753">
        <ele>1795</ele>
        <time>2010-01-01T01:05:13Z</time>
      </trkpt>
      <trkpt lat="44.73933" lon="6.53758">
        <ele>1793</ele>
        <time>2010-01-01T01:05:15Z</time>
      </trkpt>
      <trkpt lat="44.73941" lon="6.53766">
        <ele>1792</ele>
        <time>2010-01-01T01:05:17Z</time>
      </trkpt>
      <trkpt lat="44.73945" lon="6.53771">
        <ele>1791</ele>
        <time>2010-01-01T01:05:19Z</time>
      </trkpt>
      <trkpt lat="44.73952" lon="6.53784">
        <ele>1788</ele>
        <time>2010-01-01T01:05:22Z</time>
      </trkpt>
      <trkpt lat="44.73956" lon="6.53788">
        <ele>1787</ele>
        <time>2010-01-01T01:05:23Z</time>
      </trkpt>
      <trkpt lat="44.73965" lon="6.53793">
        <ele>1786</ele>
        <time>2010-01-01T01:05:26Z</time>
      </trkpt>
      <trkpt lat="44.73972" lon="6.53798">
        <ele>1785</ele>
        <time>2010-01-01T01:05:28Z</time>
      </trkpt>
      <trkpt lat="44.73977" lon="6.53811">
        <ele>1781</ele>
        <time>2010-01-01T01:05:30Z</time>
      </trkpt>
      <trkpt lat="44.73979" lon="6.53814">
        <ele>1780</ele>
        <time>2010-01-01T01:05:31Z</time>
      </trkpt>
      <trkpt lat="44.73982" lon="6.53818">
        <ele>1779</ele>
        <time>2010-01-01T01:05:32Z</time>
      </trkpt>
      <trkpt lat="44.73986" lon="6.5382">
        <ele>1779</ele>
        <time>2010-01-01T01:05:34Z</time>
      </trkpt>
      <trkpt lat="44.73987" lon="6.53822">
        <ele>1778</ele>
        <time>2010-01-01T01:05:34Z</time>
      </trkpt>
      <trkpt lat="44.73986" lon="6.53822">
        <ele>1778</ele>
        <time>2010-01-01T01:05:34Z</time>
      </trkpt>
      <trkpt lat="44.73986" lon="6.53825">
        <ele>1777</ele>
        <time>2010-01-01T01:05:35Z</time>
      </trkpt>
      <trkpt lat="44.73987" lon="6.5383">
        <ele>1775</ele>
        <time>2010-01-01T01:05:36Z</time>
      </trkpt>
      <trkpt lat="44.73981" lon="6.53833">
        <ele>1775</ele>
        <time>2010-01-01T01:05:37Z</time>
      </trkpt>
      <trkpt lat="44.73979" lon="6.53837">
        <ele>1773</ele>
        <time>2010-01-01T01:05:38Z</time>
      </trkpt>
      <trkpt lat="44.73976" lon="6.5384">
        <ele>1773</ele>
        <time>2010-01-01T01:05:39Z</time>
      </trkpt>
      <trkpt lat="44.73972" lon="6.5384">
        <ele>1773</ele>
        <time>2010-01-01T01:05:41Z</time>
      </trkpt>
      <trkpt lat="44.73967" lon="6.53843">
        <ele>1771</ele>
        <time>2010-01-01T01:05:42Z</time>
      </trkpt>
      <trkpt lat="44.73961" lon="6.53843">
        <ele>1770</ele>
        <time>2010-01-01T01:05:43Z</time>
      </trkpt>
      <trkpt lat="44.73956" lon="6.53846">
        <ele>1768</ele>
        <time>2010-01-01T01:05:45Z</time>
      </trkpt>
      <trkpt lat="44.73951" lon="6.5385">
        <ele>1766</ele>
        <time>2010-01-01T01:05:46Z</time>
      </trkpt>
      <trkpt lat="44.73946" lon="6.53854">
        <ele>1764</ele>
        <time>2010-01-01T01:05:48Z</time>
      </trkpt>
      <trkpt lat="44.73939" lon="6.53857">
        <ele>1761</ele>
        <time>2010-01-01T01:05:50Z</time>
      </trkpt>
      <trkpt lat="44.73933" lon="6.53859">
        <ele>1759</ele>
        <time>2010-01-01T01:05:51Z</time>
      </trkpt>
      <trkpt lat="44.7393" lon="6.53858">
        <ele>1758</ele>
        <time>2010-01-01T01:05:52Z</time>
      </trkpt>
      <trkpt lat="44.73926" lon="6.53855">
        <ele>1758</ele>
        <time>2010-01-01T01:05:54Z</time>
      </trkpt>
      <trkpt lat="44.73922" lon="6.53853">
        <ele>1758</ele>
        <time>2010-01-01T01:05:55Z</time>
      </trkpt>
      <trkpt lat="44.73917" lon="6.53851">
        <ele>1757</ele>
        <time>2010-01-01T01:05:56Z</time>
      </trkpt>
      <trkpt lat="44.73913" lon="6.5385">
        <ele>1757</ele>
        <time>2010-01-01T01:05:57Z</time>
      </trkpt>
      <trkpt lat="44.73909" lon="6.5385">
        <ele>1757</ele>
        <time>2010-01-01T01:05:58Z</time>
      </trkpt>
      <trkpt lat="44.73906" lon="6.53853">
        <ele>1756</ele>
        <time>2010-01-01T01:05:59Z</time>
      </trkpt>
      <trkpt lat="44.73902" lon="6.53855">
        <ele>1755</ele>
        <time>2010-01-01T01:06:00Z</time>
      </trkpt>
      <trkpt lat="44.73897" lon="6.53856">
        <ele>1755</ele>
        <time>2010-01-01T01:06:02Z</time>
      </trkpt>
      <trkpt lat="44.73892" lon="6.53857">
        <ele>1754</ele>
        <time>2010-01-01T01:06:03Z</time>
      </trkpt>
      <trkpt lat="44.73886" lon="6.53859">
        <ele>1753</ele>
        <time>2010-01-01T01:06:05Z</time>
      </trkpt>
      <trkpt lat="44.7388" lon="6.5386">
        <ele>1753</ele>
        <time>2010-01-01T01:06:06Z</time>
      </trkpt>
      <trkpt lat="44.73875" lon="6.53861">
        <ele>1753</ele>
        <time>2010-01-01T01:06:08Z</time>
      </trkpt>
      <trkpt lat="44.7387" lon="6.53864">
        <ele>1751</ele>
        <time>2010-01-01T01:06:09Z</time>
      </trkpt>
      <trkpt lat="44.73866" lon="6.53868">
        <ele>1750</ele>
        <time>2010-01-01T01:06:10Z</time>
      </trkpt>
      <trkpt lat="44.73863" lon="6.53874">
        <ele>1748</ele>
        <time>2010-01-01T01:06:12Z</time>
      </trkpt>
      <trkpt lat="44.73859" lon="6.53878">
        <ele>1746</ele>
        <time>2010-01-01T01:06:13Z</time>
      </trkpt>
      <trkpt lat="44.73853" lon="6.53882">
        <ele>1745</ele>
        <time>2010-01-01T01:06:15Z</time>
      </trkpt>
      <trkpt lat="44.73851" lon="6.53887">
        <ele>1743</ele>
        <time>2010-01-01T01:06:16Z</time>
      </trkpt>
      <trkpt lat="44.7385" lon="6.53891">
        <ele>1742</ele>
        <time>2010-01-01T01:06:17Z</time>
      </trkpt>
      <trkpt lat="44.73846" lon="6.53896">
        <ele>1740</ele>
        <time>2010-01-01T01:06:18Z</time>
      </trkpt>
      <trkpt lat="44.73845" lon="6.539">
        <ele>1738</ele>
        <time>2010-01-01T01:06:19Z</time>
      </trkpt>
      <trkpt lat="44.73845" lon="6.53905">
        <ele>1736</ele>
        <time>2010-01-01T01:06:20Z</time>
      </trkpt>
      <trkpt lat="44.73843" lon="6.5391">
        <ele>1734</ele>
        <time>2010-01-01T01:06:21Z</time>
      </trkpt>
      <trkpt lat="44.73841" lon="6.53916">
        <ele>1732</ele>
        <time>2010-01-01T01:06:22Z</time>
      </trkpt>
      <trkpt lat="44.73839" lon="6.5392">
        <ele>1730</ele>
        <time>2010-01-01T01:06:23Z</time>
      </trkpt>
      <trkpt lat="44.73838" lon="6.53924">
        <ele>1729</ele>
        <time>2010-01-01T01:06:24Z</time>
      </trkpt>
      <trkpt lat="44.73838" lon="6.53923">
        <ele>1729</ele>
        <time>2010-01-01T01:06:24Z</time>
      </trkpt>
      <trkpt lat="44.73838" lon="6.53924">
        <ele>1729</ele>
        <time>2010-01-01T01:06:24Z</time>
      </trkpt>
      <trkpt lat="44.73839" lon="6.53924">
        <ele>1729</ele>
        <time>2010-01-01T01:06:24Z</time>
      </trkpt>
      <trkpt lat="44.7384" lon="6.53924">
        <ele>1728</ele>
        <time>2010-01-01T01:06:25Z</time>
      </trkpt>
      <trkpt lat="44.73842" lon="6.53923">
        <ele>1729</ele>
        <time>2010-01-01T01:06:25Z</time>
      </trkpt>
      <trkpt lat="44.73845" lon="6.53922">
        <ele>1730</ele>
        <time>2010-01-01T01:06:26Z</time>
      </trkpt>
      <trkpt lat="44.73851" lon="6.53921">
        <ele>1730</ele>
        <time>2010-01-01T01:06:28Z</time>
      </trkpt>
      <trkpt lat="44.73856" lon="6.53927">
        <ele>1728</ele>
        <time>2010-01-01T01:06:30Z</time>
      </trkpt>
      <trkpt lat="44.7386" lon="6.53931">
        <ele>1727</ele>
        <time>2010-01-01T01:06:31Z</time>
      </trkpt>
      <trkpt lat="44.73865" lon="6.53935">
        <ele>1725</ele>
        <time>2010-01-01T01:06:32Z</time>
      </trkpt>
      <trkpt lat="44.7387" lon="6.53938">
        <ele>1724</ele>
        <time>2010-01-01T01:06:34Z</time>
      </trkpt>
      <trkpt lat="44.73875" lon="6.53943">
        <ele>1722</ele>
        <time>2010-01-01T01:06:35Z</time>
      </trkpt>
      <trkpt lat="44.7388" lon="6.53947">
        <ele>1721</ele>
        <time>2010-01-01T01:06:37Z</time>
      </trkpt>
      <trkpt lat="44.73886" lon="6.53957">
        <ele>1717</ele>
        <time>2010-01-01T01:06:39Z</time>
      </trkpt>
      <trkpt lat="44.73888" lon="6.53965">
        <ele>1715</ele>
        <time>2010-01-01T01:06:41Z</time>
      </trkpt>
      <trkpt lat="44.73891" lon="6.53973">
        <ele>1712</ele>
        <time>2010-01-01T01:06:43Z</time>
      </trkpt>
      <trkpt lat="44.73893" lon="6.53979">
        <ele>1710</ele>
        <time>2010-01-01T01:06:44Z</time>
      </trkpt>
      <trkpt lat="44.73893" lon="6.53985">
        <ele>1708</ele>
        <time>2010-01-01T01:06:45Z</time>
      </trkpt>
      <trkpt lat="44.73893" lon="6.53992">
        <ele>1705</ele>
        <time>2010-01-01T01:06:46Z</time>
      </trkpt>
      <trkpt lat="44.73891" lon="6.53998">
        <ele>1703</ele>
        <time>2010-01-01T01:06:48Z</time>
      </trkpt>
      <trkpt lat="44.7389" lon="6.54005">
        <ele>1700</ele>
        <time>2010-01-01T01:06:49Z</time>
      </trkpt>
      <trkpt lat="44.73891" lon="6.54011">
        <ele>1698</ele>
        <time>2010-01-01T01:06:50Z</time>
      </trkpt>
      <trkpt lat="44.73896" lon="6.54015">
        <ele>1697</ele>
        <time>2010-01-01T01:06:52Z</time>
      </trkpt>
      <trkpt lat="44.73899" lon="6.54016">
        <ele>1696</ele>
        <time>2010-01-01T01:06:53Z</time>
      </trkpt>
      <trkpt lat="44.73903" lon="6.54017">
        <ele>1696</ele>
        <time>2010-01-01T01:06:54Z</time>
      </trkpt>
      <trkpt lat="44.73914" lon="6.54017">
        <ele>1696</ele>
        <time>2010-01-01T01:06:56Z</time>
      </trkpt>
      <trkpt lat="44.7392" lon="6.54019">
        <ele>1695</ele>
        <time>2010-01-01T01:06:58Z</time>
      </trkpt>
      <trkpt lat="44.73925" lon="6.54022">
        <ele>1693</ele>
        <time>2010-01-01T01:07:00Z</time>
      </trkpt>
      <trkpt lat="44.73935" lon="6.54027">
        <ele>1690</ele>
        <time>2010-01-01T01:07:03Z</time>
      </trkpt>
      <trkpt lat="44.73941" lon="6.54032">
        <ele>1688</ele>
        <time>2010-01-01T01:07:04Z</time>
      </trkpt>
      <trkpt lat="44.73946" lon="6.54035">
        <ele>1686</ele>
        <time>2010-01-01T01:07:06Z</time>
      </trkpt>
      <trkpt lat="44.7395" lon="6.54041">
        <ele>1684</ele>
        <time>2010-01-01T01:07:07Z</time>
      </trkpt>
      <trkpt lat="44.73955" lon="6.54045">
        <ele>1682</ele>
        <time>2010-01-01T01:07:09Z</time>
      </trkpt>
      <trkpt lat="44.73959" lon="6.5405">
        <ele>1680</ele>
        <time>2010-01-01T01:07:10Z</time>
      </trkpt>
      <trkpt lat="44.73962" lon="6.54053">
        <ele>1679</ele>
        <time>2010-01-01T01:07:11Z</time>
      </trkpt>
      <trkpt lat="44.73966" lon="6.54058">
        <ele>1676</ele>
        <time>2010-01-01T01:07:13Z</time>
      </trkpt>
      <trkpt lat="44.73971" lon="6.54061">
        <ele>1675</ele>
        <time>2010-01-01T01:07:14Z</time>
      </trkpt>
      <trkpt lat="44.73977" lon="6.54065">
        <ele>1673</ele>
        <time>2010-01-01T01:07:16Z</time>
      </trkpt>
      <trkpt lat="44.73982" lon="6.54072">
        <ele>1670</ele>
        <time>2010-01-01T01:07:18Z</time>
      </trkpt>
      <trkpt lat="44.73987" lon="6.54077">
        <ele>1668</ele>
        <time>2010-01-01T01:07:19Z</time>
      </trkpt>
      <trkpt lat="44.73992" lon="6.54081">
        <ele>1666</ele>
        <time>2010-01-01T01:07:21Z</time>
      </trkpt>
      <trkpt lat="44.74" lon="6.54087">
        <ele>1665</ele>
        <time>2010-01-01T01:07:23Z</time>
      </trkpt>
      <trkpt lat="44.74005" lon="6.5409">
        <ele>1664</ele>
        <time>2010-01-01T01:07:25Z</time>
      </trkpt>
      <trkpt lat="44.74011" lon="6.54092">
        <ele>1663</ele>
        <time>2010-01-01T01:07:26Z</time>
      </trkpt>
      <trkpt lat="44.74022" lon="6.54093">
        <ele>1662</ele>
        <time>2010-01-01T01:07:29Z</time>
      </trkpt>
      <trkpt lat="44.74033" lon="6.54095">
        <ele>1661</ele>
        <time>2010-01-01T01:07:32Z</time>
      </trkpt>
      <trkpt lat="44.74038" lon="6.54096">
        <ele>1660</ele>
        <time>2010-01-01T01:07:34Z</time>
      </trkpt>
      <trkpt lat="44.74047" lon="6.54097">
        <ele>1660</ele>
        <time>2010-01-01T01:07:36Z</time>
      </trkpt>
      <trkpt lat="44.74052" lon="6.54096">
        <ele>1659</ele>
        <time>2010-01-01T01:07:37Z</time>
      </trkpt>
      <trkpt lat="44.74059" lon="6.54092">
        <ele>1659</ele>
        <time>2010-01-01T01:07:39Z</time>
      </trkpt>
      <trkpt lat="44.74063" lon="6.5409">
        <ele>1658</ele>
        <time>2010-01-01T01:07:41Z</time>
      </trkpt>
      <trkpt lat="44.74066" lon="6.54088">
        <ele>1658</ele>
        <time>2010-01-01T01:07:42Z</time>
      </trkpt>
      <trkpt lat="44.74067" lon="6.54087">
        <ele>1658</ele>
        <time>2010-01-01T01:07:42Z</time>
      </trkpt>
      <trkpt lat="44.74067" lon="6.54087">
        <ele>1658</ele>
        <time>2010-01-01T01:07:42Z</time>
      </trkpt>
      <trkpt lat="44.74068" lon="6.54087">
        <ele>1657</ele>
        <time>2010-01-01T01:07:42Z</time>
      </trkpt>
      <trkpt lat="44.74076" lon="6.54083">
        <ele>1657</ele>
        <time>2010-01-01T01:07:44Z</time>
      </trkpt>
      <trkpt lat="44.74089" lon="6.54078">
        <ele>1656</ele>
        <time>2010-01-01T01:07:48Z</time>
      </trkpt>
      <trkpt lat="44.74092" lon="6.54077">
        <ele>1656</ele>
        <time>2010-01-01T01:07:49Z</time>
      </trkpt>
      <trkpt lat="44.74106" lon="6.54068">
        <ele>1656</ele>
        <time>2010-01-01T01:07:53Z</time>
      </trkpt>
      <trkpt lat="44.74111" lon="6.54064">
        <ele>1657</ele>
        <time>2010-01-01T01:07:54Z</time>
      </trkpt>
      <trkpt lat="44.74117" lon="6.54061">
        <ele>1657</ele>
        <time>2010-01-01T01:07:56Z</time>
      </trkpt>
      <trkpt lat="44.74121" lon="6.54061">
        <ele>1657</ele>
        <time>2010-01-01T01:07:57Z</time>
      </trkpt>
      <trkpt lat="44.74128" lon="6.54058">
        <ele>1656</ele>
        <time>2010-01-01T01:07:59Z</time>
      </trkpt>
      <trkpt lat="44.74136" lon="6.54055">
        <ele>1656</ele>
        <time>2010-01-01T01:08:01Z</time>
      </trkpt>
      <trkpt lat="44.74141" lon="6.54054">
        <ele>1655</ele>
        <time>2010-01-01T01:08:03Z</time>
      </trkpt>
      <trkpt lat="44.74146" lon="6.54052">
        <ele>1655</ele>
        <time>2010-01-01T01:08:04Z</time>
      </trkpt>
      <trkpt lat="44.74152" lon="6.54049">
        <ele>1654</ele>
        <time>2010-01-01T01:08:06Z</time>
      </trkpt>
      <trkpt lat="44.74157" lon="6.54048">
        <ele>1654</ele>
        <time>2010-01-01T01:08:07Z</time>
      </trkpt>
      <trkpt lat="44.7417" lon="6.54044">
        <ele>1652</ele>
        <time>2010-01-01T01:08:11Z</time>
      </trkpt>
      <trkpt lat="44.74177" lon="6.54041">
        <ele>1651</ele>
        <time>2010-01-01T01:08:12Z</time>
      </trkpt>
      <trkpt lat="44.74184" lon="6.5404">
        <ele>1650</ele>
        <time>2010-01-01T01:08:14Z</time>
      </trkpt>
      <trkpt lat="44.74192" lon="6.54037">
        <ele>1649</ele>
        <time>2010-01-01T01:08:17Z</time>
      </trkpt>
      <trkpt lat="44.74201" lon="6.54034">
        <ele>1648</ele>
        <time>2010-01-01T01:08:19Z</time>
      </trkpt>
      <trkpt lat="44.74219" lon="6.54029">
        <ele>1646</ele>
        <time>2010-01-01T01:08:24Z</time>
      </trkpt>
      <trkpt lat="44.74221" lon="6.54037">
        <ele>1644</ele>
        <time>2010-01-01T01:08:26Z</time>
      </trkpt>
      <trkpt lat="44.74217" lon="6.54058">
        <ele>1642</ele>
        <time>2010-01-01T01:08:30Z</time>
      </trkpt>
      <trkpt lat="44.74216" lon="6.54062">
        <ele>1641</ele>
        <time>2010-01-01T01:08:31Z</time>
      </trkpt>
      <trkpt lat="44.74214" lon="6.54068">
        <ele>1641</ele>
        <time>2010-01-01T01:08:32Z</time>
      </trkpt>
      <trkpt lat="44.74215" lon="6.54069">
        <ele>1641</ele>
        <time>2010-01-01T01:08:32Z</time>
      </trkpt>
      <trkpt lat="44.74216" lon="6.54071">
        <ele>1640</ele>
        <time>2010-01-01T01:08:33Z</time>
      </trkpt>
      <trkpt lat="44.74216" lon="6.54071">
        <ele>1640</ele>
        <time>2010-01-01T01:08:33Z</time>
      </trkpt>
      <trkpt lat="44.74216" lon="6.54073">
        <ele>1640</ele>
        <time>2010-01-01T01:08:33Z</time>
      </trkpt>
      <trkpt lat="44.74216" lon="6.54074">
        <ele>1639</ele>
        <time>2010-01-01T01:08:33Z</time>
      </trkpt>
      <trkpt lat="44.74215" lon="6.54075">
        <ele>1640</ele>
        <time>2010-01-01T01:08:34Z</time>
      </trkpt>
      <trkpt lat="44.74208" lon="6.5408">
        <ele>1640</ele>
        <time>2010-01-01T01:08:36Z</time>
      </trkpt>
      <trkpt lat="44.74206" lon="6.54083">
        <ele>1639</ele>
        <time>2010-01-01T01:08:37Z</time>
      </trkpt>
      <trkpt lat="44.74203" lon="6.54087">
        <ele>1639</ele>
        <time>2010-01-01T01:08:38Z</time>
      </trkpt>
      <trkpt lat="44.742" lon="6.54096">
        <ele>1638</ele>
        <time>2010-01-01T01:08:40Z</time>
      </trkpt>
      <trkpt lat="44.74195" lon="6.54109">
        <ele>1636</ele>
        <time>2010-01-01T01:08:42Z</time>
      </trkpt>
      <trkpt lat="44.74192" lon="6.54118">
        <ele>1635</ele>
        <time>2010-01-01T01:08:44Z</time>
      </trkpt>
      <trkpt lat="44.7419" lon="6.54126">
        <ele>1634</ele>
        <time>2010-01-01T01:08:46Z</time>
      </trkpt>
      <trkpt lat="44.74193" lon="6.54138">
        <ele>1633</ele>
        <time>2010-01-01T01:08:48Z</time>
      </trkpt>
      <trkpt lat="44.74198" lon="6.54139">
        <ele>1633</ele>
        <time>2010-01-01T01:08:50Z</time>
      </trkpt>
      <trkpt lat="44.74208" lon="6.54134">
        <ele>1634</ele>
        <time>2010-01-01T01:08:52Z</time>
      </trkpt>
      <trkpt lat="44.74212" lon="6.54133">
        <ele>1634</ele>
        <time>2010-01-01T01:08:53Z</time>
      </trkpt>
      <trkpt lat="44.7421" lon="6.54133">
        <ele>1634</ele>
        <time>2010-01-01T01:08:54Z</time>
      </trkpt>
      <trkpt lat="44.74212" lon="6.54132">
        <ele>1634</ele>
        <time>2010-01-01T01:08:54Z</time>
      </trkpt>
      <trkpt lat="44.7422" lon="6.54127">
        <ele>1635</ele>
        <time>2010-01-01T01:08:56Z</time>
      </trkpt>
      <trkpt lat="44.74227" lon="6.5412">
        <ele>1635</ele>
        <time>2010-01-01T01:08:59Z</time>
      </trkpt>
      <trkpt lat="44.74231" lon="6.54117">
        <ele>1635</ele>
        <time>2010-01-01T01:09:00Z</time>
      </trkpt>
      <trkpt lat="44.74234" lon="6.54114">
        <ele>1635</ele>
        <time>2010-01-01T01:09:01Z</time>
      </trkpt>
      <trkpt lat="44.74248" lon="6.54099">
        <ele>1635</ele>
        <time>2010-01-01T01:09:06Z</time>
      </trkpt>
      <trkpt lat="44.74256" lon="6.54088">
        <ele>1635</ele>
        <time>2010-01-01T01:09:09Z</time>
      </trkpt>
      <trkpt lat="44.74266" lon="6.5408">
        <ele>1635</ele>
        <time>2010-01-01T01:09:12Z</time>
      </trkpt>
      <trkpt lat="44.74277" lon="6.5407">
        <ele>1635</ele>
        <time>2010-01-01T01:09:15Z</time>
      </trkpt>
      <trkpt lat="44.74285" lon="6.54063">
        <ele>1634</ele>
        <time>2010-01-01T01:09:18Z</time>
      </trkpt>
      <trkpt lat="44.74295" lon="6.54058">
        <ele>1633</ele>
        <time>2010-01-01T01:09:21Z</time>
      </trkpt>
      <trkpt lat="44.743" lon="6.54056">
        <ele>1632</ele>
        <time>2010-01-01T01:09:22Z</time>
      </trkpt>
      <trkpt lat="44.74304" lon="6.54053">
        <ele>1632</ele>
        <time>2010-01-01T01:09:23Z</time>
      </trkpt>
      <trkpt lat="44.74308" lon="6.5405">
        <ele>1632</ele>
        <time>2010-01-01T01:09:24Z</time>
      </trkpt>
      <trkpt lat="44.74313" lon="6.54046">
        <ele>1631</ele>
        <time>2010-01-01T01:09:26Z</time>
      </trkpt>
      <trkpt lat="44.74317" lon="6.54043">
        <ele>1631</ele>
        <time>2010-01-01T01:09:27Z</time>
      </trkpt>
      <trkpt lat="44.74321" lon="6.54039">
        <ele>1631</ele>
        <time>2010-01-01T01:09:29Z</time>
      </trkpt>
      <trkpt lat="44.74326" lon="6.54036">
        <ele>1630</ele>
        <time>2010-01-01T01:09:30Z</time>
      </trkpt>
      <trkpt lat="44.74332" lon="6.54034">
        <ele>1630</ele>
        <time>2010-01-01T01:09:32Z</time>
      </trkpt>
      <trkpt lat="44.7434" lon="6.54033">
        <ele>1629</ele>
        <time>2010-01-01T01:09:34Z</time>
      </trkpt>
      <trkpt lat="44.74347" lon="6.54032">
        <ele>1628</ele>
        <time>2010-01-01T01:09:35Z</time>
      </trkpt>
      <trkpt lat="44.74361" lon="6.54028">
        <ele>1626</ele>
        <time>2010-01-01T01:09:40Z</time>
      </trkpt>
      <trkpt lat="44.74369" lon="6.54025">
        <ele>1624</ele>
        <time>2010-01-01T01:09:42Z</time>
      </trkpt>
      <trkpt lat="44.74375" lon="6.54022">
        <ele>1622</ele>
        <time>2010-01-01T01:09:43Z</time>
      </trkpt>
      <trkpt lat="44.74385" lon="6.54008">
        <ele>1617</ele>
        <time>2010-01-01T01:09:47Z</time>
      </trkpt>
      <trkpt lat="44.74389" lon="6.53988">
        <ele>1614</ele>
        <time>2010-01-01T01:09:51Z</time>
      </trkpt>
      <trkpt lat="44.74392" lon="6.53977">
        <ele>1612</ele>
        <time>2010-01-01T01:09:53Z</time>
      </trkpt>
      <trkpt lat="44.74396" lon="6.53967">
        <ele>1609</ele>
        <time>2010-01-01T01:09:55Z</time>
      </trkpt>
      <trkpt lat="44.744" lon="6.53956">
        <ele>1606</ele>
        <time>2010-01-01T01:09:58Z</time>
      </trkpt>
      <trkpt lat="44.74404" lon="6.53948">
        <ele>1603</ele>
        <time>2010-01-01T01:10:00Z</time>
      </trkpt>
      <trkpt lat="44.74407" lon="6.5394">
        <ele>1601</ele>
        <time>2010-01-01T01:10:01Z</time>
      </trkpt>
      <trkpt lat="44.7441" lon="6.53926">
        <ele>1597</ele>
        <time>2010-01-01T01:10:04Z</time>
      </trkpt>
      <trkpt lat="44.74408" lon="6.53919">
        <ele>1597</ele>
        <time>2010-01-01T01:10:06Z</time>
      </trkpt>
      <trkpt lat="44.74406" lon="6.5391">
        <ele>1597</ele>
        <time>2010-01-01T01:10:07Z</time>
      </trkpt>
      <trkpt lat="44.74407" lon="6.53903">
        <ele>1597</ele>
        <time>2010-01-01T01:10:09Z</time>
      </trkpt>
      <trkpt lat="44.7441" lon="6.53898">
        <ele>1595</ele>
        <time>2010-01-01T01:10:10Z</time>
      </trkpt>
      <trkpt lat="44.74413" lon="6.53892">
        <ele>1593</ele>
        <time>2010-01-01T01:10:11Z</time>
      </trkpt>
      <trkpt lat="44.74417" lon="6.53887">
        <ele>1591</ele>
        <time>2010-01-01T01:10:13Z</time>
      </trkpt>
      <trkpt lat="44.74421" lon="6.53872">
        <ele>1591</ele>
        <time>2010-01-01T01:10:16Z</time>
      </trkpt>
      <trkpt lat="44.74424" lon="6.53856">
        <ele>1591</ele>
        <time>2010-01-01T01:10:19Z</time>
      </trkpt>
      <trkpt lat="44.74429" lon="6.53861">
        <ele>1588</ele>
        <time>2010-01-01T01:10:20Z</time>
      </trkpt>
      <trkpt lat="44.74429" lon="6.53861">
        <ele>1588</ele>
        <time>2010-01-01T01:10:21Z</time>
      </trkpt>
      <trkpt lat="44.74429" lon="6.53862">
        <ele>1588</ele>
        <time>2010-01-01T01:10:21Z</time>
      </trkpt>
      <trkpt lat="44.74429" lon="6.53864">
        <ele>1588</ele>
        <time>2010-01-01T01:10:21Z</time>
      </trkpt>
      <trkpt lat="44.74431" lon="6.53872">
        <ele>1587</ele>
        <time>2010-01-01T01:10:23Z</time>
      </trkpt>
      <trkpt lat="44.74432" lon="6.53877">
        <ele>1587</ele>
        <time>2010-01-01T01:10:24Z</time>
      </trkpt>
      <trkpt lat="44.74434" lon="6.53889">
        <ele>1585</ele>
        <time>2010-01-01T01:10:26Z</time>
      </trkpt>
      <trkpt lat="44.74435" lon="6.53893">
        <ele>1585</ele>
        <time>2010-01-01T01:10:27Z</time>
      </trkpt>
      <trkpt lat="44.74436" lon="6.53896">
        <ele>1585</ele>
        <time>2010-01-01T01:10:27Z</time>
      </trkpt>
      <trkpt lat="44.74436" lon="6.53894">
        <ele>1585</ele>
        <time>2010-01-01T01:10:28Z</time>
      </trkpt>
      <trkpt lat="44.74436" lon="6.53901">
        <ele>1585</ele>
        <time>2010-01-01T01:10:29Z</time>
      </trkpt>
      <trkpt lat="44.74436" lon="6.53906">
        <ele>1585</ele>
        <time>2010-01-01T01:10:30Z</time>
      </trkpt>
      <trkpt lat="44.74437" lon="6.53907">
        <ele>1585</ele>
        <time>2010-01-01T01:10:31Z</time>
      </trkpt>
      <trkpt lat="44.74438" lon="6.53905">
        <ele>1585</ele>
        <time>2010-01-01T01:10:31Z</time>
      </trkpt>
      <trkpt lat="44.74439" lon="6.53903">
        <ele>1584</ele>
        <time>2010-01-01T01:10:31Z</time>
      </trkpt>
      <trkpt lat="44.74445" lon="6.53898">
        <ele>1582</ele>
        <time>2010-01-01T01:10:33Z</time>
      </trkpt>
      <trkpt lat="44.74447" lon="6.53896">
        <ele>1580</ele>
        <time>2010-01-01T01:10:34Z</time>
      </trkpt>
      <trkpt lat="44.74451" lon="6.53893">
        <ele>1578</ele>
        <time>2010-01-01T01:10:35Z</time>
      </trkpt>
      <trkpt lat="44.74454" lon="6.53891">
        <ele>1576</ele>
        <time>2010-01-01T01:10:36Z</time>
      </trkpt>
      <trkpt lat="44.74458" lon="6.53889">
        <ele>1574</ele>
        <time>2010-01-01T01:10:37Z</time>
      </trkpt>
      <trkpt lat="44.74458" lon="6.53891">
        <ele>1574</ele>
        <time>2010-01-01T01:10:38Z</time>
      </trkpt>
      <trkpt lat="44.74457" lon="6.53898">
        <ele>1575</ele>
        <time>2010-01-01T01:10:39Z</time>
      </trkpt>
      <trkpt lat="44.74456" lon="6.53898">
        <ele>1575</ele>
        <time>2010-01-01T01:10:39Z</time>
      </trkpt>
      <trkpt lat="44.74456" lon="6.539">
        <ele>1576</ele>
        <time>2010-01-01T01:10:39Z</time>
      </trkpt>
      <trkpt lat="44.74456" lon="6.53901">
        <ele>1575</ele>
        <time>2010-01-01T01:10:40Z</time>
      </trkpt>
      <trkpt lat="44.74459" lon="6.53902">
        <ele>1574</ele>
        <time>2010-01-01T01:10:40Z</time>
      </trkpt>
      <trkpt lat="44.74462" lon="6.53903">
        <ele>1572</ele>
        <time>2010-01-01T01:10:41Z</time>
      </trkpt>
      <trkpt lat="44.74464" lon="6.53901">
        <ele>1571</ele>
        <time>2010-01-01T01:10:42Z</time>
      </trkpt>
      <trkpt lat="44.74466" lon="6.539">
        <ele>1570</ele>
        <time>2010-01-01T01:10:42Z</time>
      </trkpt>
      <trkpt lat="44.74466" lon="6.53902">
        <ele>1569</ele>
        <time>2010-01-01T01:10:43Z</time>
      </trkpt>
      <trkpt lat="44.74467" lon="6.53906">
        <ele>1569</ele>
        <time>2010-01-01T01:10:44Z</time>
      </trkpt>
      <trkpt lat="44.74467" lon="6.5391">
        <ele>1569</ele>
        <time>2010-01-01T01:10:44Z</time>
      </trkpt>
      <trkpt lat="44.74468" lon="6.5391">
        <ele>1568</ele>
        <time>2010-01-01T01:10:45Z</time>
      </trkpt>
      <trkpt lat="44.74469" lon="6.53909">
        <ele>1567</ele>
        <time>2010-01-01T01:10:45Z</time>
      </trkpt>
      <trkpt lat="44.74472" lon="6.53908">
        <ele>1566</ele>
        <time>2010-01-01T01:10:46Z</time>
      </trkpt>
      <trkpt lat="44.74478" lon="6.53902">
        <ele>1562</ele>
        <time>2010-01-01T01:10:48Z</time>
      </trkpt>
      <trkpt lat="44.74479" lon="6.53899">
        <ele>1562</ele>
        <time>2010-01-01T01:10:49Z</time>
      </trkpt>
      <trkpt lat="44.74479" lon="6.53894">
        <ele>1562</ele>
        <time>2010-01-01T01:10:49Z</time>
      </trkpt>
      <trkpt lat="44.74481" lon="6.53898">
        <ele>1561</ele>
        <time>2010-01-01T01:10:50Z</time>
      </trkpt>
      <trkpt lat="44.74481" lon="6.53902">
        <ele>1560</ele>
        <time>2010-01-01T01:10:51Z</time>
      </trkpt>
      <trkpt lat="44.7448" lon="6.53907">
        <ele>1561</ele>
        <time>2010-01-01T01:10:52Z</time>
      </trkpt>
      <trkpt lat="44.74482" lon="6.53909">
        <ele>1560</ele>
        <time>2010-01-01T01:10:52Z</time>
      </trkpt>
      <trkpt lat="44.74483" lon="6.53909">
        <ele>1559</ele>
        <time>2010-01-01T01:10:53Z</time>
      </trkpt>
      <trkpt lat="44.74485" lon="6.53908">
        <ele>1558</ele>
        <time>2010-01-01T01:10:53Z</time>
      </trkpt>
      <trkpt lat="44.74488" lon="6.53907">
        <ele>1556</ele>
        <time>2010-01-01T01:10:54Z</time>
      </trkpt>
      <trkpt lat="44.74492" lon="6.53903">
        <ele>1553</ele>
        <time>2010-01-01T01:10:55Z</time>
      </trkpt>
      <trkpt lat="44.74495" lon="6.53901">
        <ele>1551</ele>
        <time>2010-01-01T01:10:56Z</time>
      </trkpt>
      <trkpt lat="44.74498" lon="6.53902">
        <ele>1549</ele>
        <time>2010-01-01T01:10:57Z</time>
      </trkpt>
      <trkpt lat="44.74499" lon="6.53904">
        <ele>1549</ele>
        <time>2010-01-01T01:10:58Z</time>
      </trkpt>
      <trkpt lat="44.745" lon="6.53912">
        <ele>1547</ele>
        <time>2010-01-01T01:10:59Z</time>
      </trkpt>
      <trkpt lat="44.74501" lon="6.53915">
        <ele>1547</ele>
        <time>2010-01-01T01:11:00Z</time>
      </trkpt>
      <trkpt lat="44.74506" lon="6.53914">
        <ele>1544</ele>
        <time>2010-01-01T01:11:01Z</time>
      </trkpt>
      <trkpt lat="44.74508" lon="6.5391">
        <ele>1543</ele>
        <time>2010-01-01T01:11:02Z</time>
      </trkpt>
      <trkpt lat="44.74511" lon="6.53905">
        <ele>1542</ele>
        <time>2010-01-01T01:11:03Z</time>
      </trkpt>
      <trkpt lat="44.74514" lon="6.539">
        <ele>1540</ele>
        <time>2010-01-01T01:11:04Z</time>
      </trkpt>
      <trkpt lat="44.74519" lon="6.53898">
        <ele>1537</ele>
        <time>2010-01-01T01:11:06Z</time>
      </trkpt>
      <trkpt lat="44.74524" lon="6.53901">
        <ele>1534</ele>
        <time>2010-01-01T01:11:07Z</time>
      </trkpt>
      <trkpt lat="44.74527" lon="6.53901">
        <ele>1532</ele>
        <time>2010-01-01T01:11:08Z</time>
      </trkpt>
      <trkpt lat="44.74532" lon="6.53904">
        <ele>1529</ele>
        <time>2010-01-01T01:11:10Z</time>
      </trkpt>
      <trkpt lat="44.74532" lon="6.53909">
        <ele>1530</ele>
        <time>2010-01-01T01:11:11Z</time>
      </trkpt>
      <trkpt lat="44.74528" lon="6.53919">
        <ele>1532</ele>
        <time>2010-01-01T01:11:13Z</time>
      </trkpt>
      <trkpt lat="44.74527" lon="6.53924">
        <ele>1532</ele>
        <time>2010-01-01T01:11:14Z</time>
      </trkpt>
      <trkpt lat="44.74527" lon="6.53931">
        <ele>1532</ele>
        <time>2010-01-01T01:11:15Z</time>
      </trkpt>
      <trkpt lat="44.74527" lon="6.53947">
        <ele>1532</ele>
        <time>2010-01-01T01:11:18Z</time>
      </trkpt>
      <trkpt lat="44.74523" lon="6.53956">
        <ele>1535</ele>
        <time>2010-01-01T01:11:20Z</time>
      </trkpt>
      <trkpt lat="44.74519" lon="6.53961">
        <ele>1538</ele>
        <time>2010-01-01T01:11:22Z</time>
      </trkpt>
      <trkpt lat="44.74517" lon="6.53972">
        <ele>1539</ele>
        <time>2010-01-01T01:11:24Z</time>
      </trkpt>
      <trkpt lat="44.74517" lon="6.53976">
        <ele>1539</ele>
        <time>2010-01-01T01:11:24Z</time>
      </trkpt>
      <trkpt lat="44.74523" lon="6.53974">
        <ele>1536</ele>
        <time>2010-01-01T01:11:26Z</time>
      </trkpt>
      <trkpt lat="44.74527" lon="6.53974">
        <ele>1534</ele>
        <time>2010-01-01T01:11:27Z</time>
      </trkpt>
      <trkpt lat="44.74532" lon="6.53973">
        <ele>1531</ele>
        <time>2010-01-01T01:11:28Z</time>
      </trkpt>
      <trkpt lat="44.74536" lon="6.53973">
        <ele>1529</ele>
        <time>2010-01-01T01:11:29Z</time>
      </trkpt>
      <trkpt lat="44.74541" lon="6.5397">
        <ele>1526</ele>
        <time>2010-01-01T01:11:31Z</time>
      </trkpt>
      <trkpt lat="44.74549" lon="6.53963">
        <ele>1521</ele>
        <time>2010-01-01T01:11:33Z</time>
      </trkpt>
      <trkpt lat="44.74553" lon="6.53958">
        <ele>1519</ele>
        <time>2010-01-01T01:11:35Z</time>
      </trkpt>
      <trkpt lat="44.74558" lon="6.53953">
        <ele>1516</ele>
        <time>2010-01-01T01:11:37Z</time>
      </trkpt>
      <trkpt lat="44.74569" lon="6.53946">
        <ele>1510</ele>
        <time>2010-01-01T01:11:40Z</time>
      </trkpt>
      <trkpt lat="44.74577" lon="6.5395">
        <ele>1505</ele>
        <time>2010-01-01T01:11:42Z</time>
      </trkpt>
      <trkpt lat="44.74577" lon="6.53957">
        <ele>1505</ele>
        <time>2010-01-01T01:11:43Z</time>
      </trkpt>
      <trkpt lat="44.74575" lon="6.53961">
        <ele>1506</ele>
        <time>2010-01-01T01:11:44Z</time>
      </trkpt>
      <trkpt lat="44.74572" lon="6.53968">
        <ele>1507</ele>
        <time>2010-01-01T01:11:46Z</time>
      </trkpt>
      <trkpt lat="44.74574" lon="6.53971">
        <ele>1507</ele>
        <time>2010-01-01T01:11:46Z</time>
      </trkpt>
      <trkpt lat="44.74577" lon="6.53974">
        <ele>1505</ele>
        <time>2010-01-01T01:11:47Z</time>
      </trkpt>
      <trkpt lat="44.74582" lon="6.53973">
        <ele>1502</ele>
        <time>2010-01-01T01:11:49Z</time>
      </trkpt>
      <trkpt lat="44.74585" lon="6.53973">
        <ele>1500</ele>
        <time>2010-01-01T01:11:49Z</time>
      </trkpt>
      <trkpt lat="44.7459" lon="6.53972">
        <ele>1497</ele>
        <time>2010-01-01T01:11:51Z</time>
      </trkpt>
      <trkpt lat="44.74594" lon="6.53971">
        <ele>1495</ele>
        <time>2010-01-01T01:11:52Z</time>
      </trkpt>
      <trkpt lat="44.74597" lon="6.53973">
        <ele>1493</ele>
        <time>2010-01-01T01:11:53Z</time>
      </trkpt>
      <trkpt lat="44.746" lon="6.53976">
        <ele>1492</ele>
        <time>2010-01-01T01:11:54Z</time>
      </trkpt>
      <trkpt lat="44.74603" lon="6.53978">
        <ele>1490</ele>
        <time>2010-01-01T01:11:55Z</time>
      </trkpt>
      <trkpt lat="44.74604" lon="6.53981">
        <ele>1489</ele>
        <time>2010-01-01T01:11:55Z</time>
      </trkpt>
      <trkpt lat="44.74606" lon="6.53983">
        <ele>1488</ele>
        <time>2010-01-01T01:11:56Z</time>
      </trkpt>
      <trkpt lat="44.74609" lon="6.5398">
        <ele>1487</ele>
        <time>2010-01-01T01:11:57Z</time>
      </trkpt>
      <trkpt lat="44.7461" lon="6.53979">
        <ele>1486</ele>
        <time>2010-01-01T01:11:57Z</time>
      </trkpt>
      <trkpt lat="44.74611" lon="6.53978">
        <ele>1486</ele>
        <time>2010-01-01T01:11:57Z</time>
      </trkpt>
      <trkpt lat="44.74613" lon="6.53978">
        <ele>1485</ele>
        <time>2010-01-01T01:11:58Z</time>
      </trkpt>
      <trkpt lat="44.74613" lon="6.53979">
        <ele>1484</ele>
        <time>2010-01-01T01:11:58Z</time>
      </trkpt>
      <trkpt lat="44.74614" lon="6.53982">
        <ele>1484</ele>
        <time>2010-01-01T01:11:59Z</time>
      </trkpt>
      <trkpt lat="44.74614" lon="6.53989">
        <ele>1483</ele>
        <time>2010-01-01T01:12:00Z</time>
      </trkpt>
      <trkpt lat="44.74614" lon="6.53997">
        <ele>1482</ele>
        <time>2010-01-01T01:12:01Z</time>
      </trkpt>
      <trkpt lat="44.74612" lon="6.53999">
        <ele>1483</ele>
        <time>2010-01-01T01:12:02Z</time>
      </trkpt>
      <trkpt lat="44.74609" lon="6.54003">
        <ele>1484</ele>
        <time>2010-01-01T01:12:03Z</time>
      </trkpt>
      <trkpt lat="44.74606" lon="6.54007">
        <ele>1486</ele>
        <time>2010-01-01T01:12:04Z</time>
      </trkpt>
      <trkpt lat="44.74604" lon="6.54017">
        <ele>1486</ele>
        <time>2010-01-01T01:12:06Z</time>
      </trkpt>
      <trkpt lat="44.74603" lon="6.54029">
        <ele>1486</ele>
        <time>2010-01-01T01:12:09Z</time>
      </trkpt>
      <trkpt lat="44.74602" lon="6.54034">
        <ele>1486</ele>
        <time>2010-01-01T01:12:09Z</time>
      </trkpt>
      <trkpt lat="44.74602" lon="6.54039">
        <ele>1485</ele>
        <time>2010-01-01T01:12:11Z</time>
      </trkpt>
      <trkpt lat="44.74603" lon="6.54043">
        <ele>1485</ele>
        <time>2010-01-01T01:12:11Z</time>
      </trkpt>
      <trkpt lat="44.74602" lon="6.54047">
        <ele>1484</ele>
        <time>2010-01-01T01:12:12Z</time>
      </trkpt>
      <trkpt lat="44.74603" lon="6.54051">
        <ele>1483</ele>
        <time>2010-01-01T01:12:13Z</time>
      </trkpt>
      <trkpt lat="44.74604" lon="6.54055">
        <ele>1482</ele>
        <time>2010-01-01T01:12:14Z</time>
      </trkpt>
      <trkpt lat="44.74607" lon="6.5406">
        <ele>1479</ele>
        <time>2010-01-01T01:12:15Z</time>
      </trkpt>
      <trkpt lat="44.7461" lon="6.54064">
        <ele>1476</ele>
        <time>2010-01-01T01:12:16Z</time>
      </trkpt>
      <trkpt lat="44.74612" lon="6.5407">
        <ele>1473</ele>
        <time>2010-01-01T01:12:17Z</time>
      </trkpt>
      <trkpt lat="44.74613" lon="6.54075">
        <ele>1471</ele>
        <time>2010-01-01T01:12:18Z</time>
      </trkpt>
      <trkpt lat="44.74615" lon="6.54078">
        <ele>1469</ele>
        <time>2010-01-01T01:12:19Z</time>
      </trkpt>
      <trkpt lat="44.74617" lon="6.54075">
        <ele>1469</ele>
        <time>2010-01-01T01:12:20Z</time>
      </trkpt>
      <trkpt lat="44.74617" lon="6.54073">
        <ele>1469</ele>
        <time>2010-01-01T01:12:20Z</time>
      </trkpt>
      <trkpt lat="44.7462" lon="6.54067">
        <ele>1468</ele>
        <time>2010-01-01T01:12:21Z</time>
      </trkpt>
      <trkpt lat="44.74622" lon="6.5406">
        <ele>1468</ele>
        <time>2010-01-01T01:12:23Z</time>
      </trkpt>
      <trkpt lat="44.74625" lon="6.5405">
        <ele>1468</ele>
        <time>2010-01-01T01:12:25Z</time>
      </trkpt>
      <trkpt lat="44.74627" lon="6.54042">
        <ele>1468</ele>
        <time>2010-01-01T01:12:26Z</time>
      </trkpt>
      <trkpt lat="44.74628" lon="6.54039">
        <ele>1467</ele>
        <time>2010-01-01T01:12:27Z</time>
      </trkpt>
      <trkpt lat="44.74635" lon="6.54033">
        <ele>1463</ele>
        <time>2010-01-01T01:12:29Z</time>
      </trkpt>
      <trkpt lat="44.74639" lon="6.54032">
        <ele>1461</ele>
        <time>2010-01-01T01:12:30Z</time>
      </trkpt>
      <trkpt lat="44.74644" lon="6.5403">
        <ele>1458</ele>
        <time>2010-01-01T01:12:32Z</time>
      </trkpt>
      <trkpt lat="44.74649" lon="6.54028">
        <ele>1454</ele>
        <time>2010-01-01T01:12:33Z</time>
      </trkpt>
      <trkpt lat="44.74654" lon="6.54024">
        <ele>1451</ele>
        <time>2010-01-01T01:12:35Z</time>
      </trkpt>
      <trkpt lat="44.74658" lon="6.5402">
        <ele>1448</ele>
        <time>2010-01-01T01:12:36Z</time>
      </trkpt>
      <trkpt lat="44.74661" lon="6.54014">
        <ele>1446</ele>
        <time>2010-01-01T01:12:37Z</time>
      </trkpt>
      <trkpt lat="44.74663" lon="6.54007">
        <ele>1446</ele>
        <time>2010-01-01T01:12:39Z</time>
      </trkpt>
      <trkpt lat="44.74665" lon="6.54001">
        <ele>1445</ele>
        <time>2010-01-01T01:12:40Z</time>
      </trkpt>
      <trkpt lat="44.74668" lon="6.53993">
        <ele>1442</ele>
        <time>2010-01-01T01:12:42Z</time>
      </trkpt>
      <trkpt lat="44.74669" lon="6.5399">
        <ele>1441</ele>
        <time>2010-01-01T01:12:42Z</time>
      </trkpt>
      <trkpt lat="44.7467" lon="6.53988">
        <ele>1441</ele>
        <time>2010-01-01T01:12:43Z</time>
      </trkpt>
      <trkpt lat="44.7467" lon="6.53989">
        <ele>1441</ele>
        <time>2010-01-01T01:12:43Z</time>
      </trkpt>
      <trkpt lat="44.7467" lon="6.53989">
        <ele>1441</ele>
        <time>2010-01-01T01:12:43Z</time>
      </trkpt>
      <trkpt lat="44.7467" lon="6.5399">
        <ele>1441</ele>
        <time>2010-01-01T01:12:43Z</time>
      </trkpt>
      <trkpt lat="44.7467" lon="6.53991">
        <ele>1441</ele>
        <time>2010-01-01T01:12:44Z</time>
      </trkpt>
      <trkpt lat="44.74671" lon="6.53993">
        <ele>1440</ele>
        <time>2010-01-01T01:12:44Z</time>
      </trkpt>
      <trkpt lat="44.74672" lon="6.53996">
        <ele>1440</ele>
        <time>2010-01-01T01:12:45Z</time>
      </trkpt>
      <trkpt lat="44.74671" lon="6.54002">
        <ele>1440</ele>
        <time>2010-01-01T01:12:46Z</time>
      </trkpt>
      <trkpt lat="44.74668" lon="6.54026">
        <ele>1441</ele>
        <time>2010-01-01T01:12:50Z</time>
      </trkpt>
      <trkpt lat="44.74667" lon="6.54028">
        <ele>1442</ele>
        <time>2010-01-01T01:12:51Z</time>
      </trkpt>
      <trkpt lat="44.74656" lon="6.54041">
        <ele>1447</ele>
        <time>2010-01-01T01:12:55Z</time>
      </trkpt>
      <trkpt lat="44.74649" lon="6.54053">
        <ele>1450</ele>
        <time>2010-01-01T01:12:57Z</time>
      </trkpt>
      <trkpt lat="44.74647" lon="6.54066">
        <ele>1449</ele>
        <time>2010-01-01T01:13:00Z</time>
      </trkpt>
      <trkpt lat="44.74646" lon="6.54073">
        <ele>1448</ele>
        <time>2010-01-01T01:13:01Z</time>
      </trkpt>
      <trkpt lat="44.74644" lon="6.54097">
        <ele>1445</ele>
        <time>2010-01-01T01:13:06Z</time>
      </trkpt>
      <trkpt lat="44.7464" lon="6.54119">
        <ele>1446</ele>
        <time>2010-01-01T01:13:10Z</time>
      </trkpt>
      <trkpt lat="44.74637" lon="6.54135">
        <ele>1450</ele>
        <time>2010-01-01T01:13:14Z</time>
      </trkpt>
      <trkpt lat="44.74635" lon="6.54153">
        <ele>1452</ele>
        <time>2010-01-01T01:13:17Z</time>
      </trkpt>
      <trkpt lat="44.74635" lon="6.54172">
        <ele>1450</ele>
        <time>2010-01-01T01:13:21Z</time>
      </trkpt>
      <trkpt lat="44.74636" lon="6.54177">
        <ele>1449</ele>
        <time>2010-01-01T01:13:22Z</time>
      </trkpt>
      <trkpt lat="44.74639" lon="6.54205">
        <ele>1439</ele>
        <time>2010-01-01T01:13:27Z</time>
      </trkpt>
      <trkpt lat="44.74639" lon="6.54223">
        <ele>1435</ele>
        <time>2010-01-01T01:13:30Z</time>
      </trkpt>
      <trkpt lat="44.74637" lon="6.5423">
        <ele>1436</ele>
        <time>2010-01-01T01:13:32Z</time>
      </trkpt>
      <trkpt lat="44.74629" lon="6.5426">
        <ele>1437</ele>
        <time>2010-01-01T01:13:38Z</time>
      </trkpt>
      <trkpt lat="44.74625" lon="6.54281">
        <ele>1438</ele>
        <time>2010-01-01T01:13:42Z</time>
      </trkpt>
      <trkpt lat="44.74625" lon="6.54293">
        <ele>1437</ele>
        <time>2010-01-01T01:13:44Z</time>
      </trkpt>
      <trkpt lat="44.74626" lon="6.54332">
        <ele>1433</ele>
        <time>2010-01-01T01:13:52Z</time>
      </trkpt>
      <trkpt lat="44.74626" lon="6.54344">
        <ele>1431</ele>
        <time>2010-01-01T01:13:54Z</time>
      </trkpt>
      <trkpt lat="44.74625" lon="6.54356">
        <ele>1430</ele>
        <time>2010-01-01T01:13:56Z</time>
      </trkpt>
      <trkpt lat="44.74624" lon="6.54361">
        <ele>1430</ele>
        <time>2010-01-01T01:13:57Z</time>
      </trkpt>
      <trkpt lat="44.74623" lon="6.54368">
        <ele>1430</ele>
        <time>2010-01-01T01:13:59Z</time>
      </trkpt>
      <trkpt lat="44.74623" lon="6.54367">
        <ele>1430</ele>
        <time>2010-01-01T01:13:59Z</time>
      </trkpt>
      <trkpt lat="44.74623" lon="6.54368">
        <ele>1430</ele>
        <time>2010-01-01T01:13:59Z</time>
      </trkpt>
      <trkpt lat="44.74623" lon="6.54377">
        <ele>1429</ele>
        <time>2010-01-01T01:14:01Z</time>
      </trkpt>
      <trkpt lat="44.74624" lon="6.54385">
        <ele>1427</ele>
        <time>2010-01-01T01:14:02Z</time>
      </trkpt>
      <trkpt lat="44.74625" lon="6.54391">
        <ele>1426</ele>
        <time>2010-01-01T01:14:03Z</time>
      </trkpt>
      <trkpt lat="44.74628" lon="6.54399">
        <ele>1424</ele>
        <time>2010-01-01T01:14:05Z</time>
      </trkpt>
      <trkpt lat="44.74627" lon="6.54404">
        <ele>1424</ele>
        <time>2010-01-01T01:14:06Z</time>
      </trkpt>
      <trkpt lat="44.74627" lon="6.54409">
        <ele>1424</ele>
        <time>2010-01-01T01:14:07Z</time>
      </trkpt>
      <trkpt lat="44.74628" lon="6.54417">
        <ele>1423</ele>
        <time>2010-01-01T01:14:08Z</time>
      </trkpt>
      <trkpt lat="44.74631" lon="6.54425">
        <ele>1420</ele>
        <time>2010-01-01T01:14:10Z</time>
      </trkpt>
      <trkpt lat="44.74633" lon="6.54432">
        <ele>1418</ele>
        <time>2010-01-01T01:14:12Z</time>
      </trkpt>
      <trkpt lat="44.74635" lon="6.54437">
        <ele>1416</ele>
        <time>2010-01-01T01:14:13Z</time>
      </trkpt>
      <trkpt lat="44.74638" lon="6.54442">
        <ele>1414</ele>
        <time>2010-01-01T01:14:14Z</time>
      </trkpt>
      <trkpt lat="44.7464" lon="6.54447">
        <ele>1411</ele>
        <time>2010-01-01T01:14:15Z</time>
      </trkpt>
      <trkpt lat="44.74641" lon="6.54451">
        <ele>1410</ele>
        <time>2010-01-01T01:14:16Z</time>
      </trkpt>
      <trkpt lat="44.7464" lon="6.54457">
        <ele>1409</ele>
        <time>2010-01-01T01:14:17Z</time>
      </trkpt>
      <trkpt lat="44.7464" lon="6.54463">
        <ele>1408</ele>
        <time>2010-01-01T01:14:18Z</time>
      </trkpt>
      <trkpt lat="44.7464" lon="6.5447">
        <ele>1407</ele>
        <time>2010-01-01T01:14:19Z</time>
      </trkpt>
      <trkpt lat="44.7464" lon="6.54476">
        <ele>1405</ele>
        <time>2010-01-01T01:14:20Z</time>
      </trkpt>
      <trkpt lat="44.7464" lon="6.54482">
        <ele>1404</ele>
        <time>2010-01-01T01:14:22Z</time>
      </trkpt>
      <trkpt lat="44.74638" lon="6.54487">
        <ele>1404</ele>
        <time>2010-01-01T01:14:23Z</time>
      </trkpt>
      <trkpt lat="44.74639" lon="6.54493">
        <ele>1403</ele>
        <time>2010-01-01T01:14:24Z</time>
      </trkpt>
      <trkpt lat="44.74639" lon="6.54498">
        <ele>1402</ele>
        <time>2010-01-01T01:14:25Z</time>
      </trkpt>
      <trkpt lat="44.74638" lon="6.54504">
        <ele>1401</ele>
        <time>2010-01-01T01:14:26Z</time>
      </trkpt>
      <trkpt lat="44.74638" lon="6.54511">
        <ele>1401</ele>
        <time>2010-01-01T01:14:27Z</time>
      </trkpt>
      <trkpt lat="44.74639" lon="6.54517">
        <ele>1400</ele>
        <time>2010-01-01T01:14:28Z</time>
      </trkpt>
      <trkpt lat="44.74642" lon="6.54527">
        <ele>1398</ele>
        <time>2010-01-01T01:14:30Z</time>
      </trkpt>
      <trkpt lat="44.74644" lon="6.54533">
        <ele>1396</ele>
        <time>2010-01-01T01:14:32Z</time>
      </trkpt>
      <trkpt lat="44.74647" lon="6.54538">
        <ele>1393</ele>
        <time>2010-01-01T01:14:33Z</time>
      </trkpt>
      <trkpt lat="44.74652" lon="6.54547">
        <ele>1388</ele>
        <time>2010-01-01T01:14:35Z</time>
      </trkpt>
      <trkpt lat="44.74656" lon="6.54553">
        <ele>1385</ele>
        <time>2010-01-01T01:14:37Z</time>
      </trkpt>
      <trkpt lat="44.74658" lon="6.54558">
        <ele>1383</ele>
        <time>2010-01-01T01:14:38Z</time>
      </trkpt>
      <trkpt lat="44.74661" lon="6.54562">
        <ele>1380</ele>
        <time>2010-01-01T01:14:39Z</time>
      </trkpt>
      <trkpt lat="44.74665" lon="6.5457">
        <ele>1376</ele>
        <time>2010-01-01T01:14:41Z</time>
      </trkpt>
      <trkpt lat="44.74666" lon="6.54575">
        <ele>1375</ele>
        <time>2010-01-01T01:14:42Z</time>
      </trkpt>
      <trkpt lat="44.74667" lon="6.5458">
        <ele>1373</ele>
        <time>2010-01-01T01:14:43Z</time>
      </trkpt>
      <trkpt lat="44.74667" lon="6.54584">
        <ele>1372</ele>
        <time>2010-01-01T01:14:43Z</time>
      </trkpt>
      <trkpt lat="44.74667" lon="6.54589">
        <ele>1372</ele>
        <time>2010-01-01T01:14:44Z</time>
      </trkpt>
      <trkpt lat="44.74668" lon="6.54593">
        <ele>1372</ele>
        <time>2010-01-01T01:14:45Z</time>
      </trkpt>
      <trkpt lat="44.74668" lon="6.54599">
        <ele>1372</ele>
        <time>2010-01-01T01:14:46Z</time>
      </trkpt>
      <trkpt lat="44.74668" lon="6.54604">
        <ele>1372</ele>
        <time>2010-01-01T01:14:47Z</time>
      </trkpt>
      <trkpt lat="44.74669" lon="6.54609">
        <ele>1371</ele>
        <time>2010-01-01T01:14:48Z</time>
      </trkpt>
      <trkpt lat="44.74669" lon="6.54615">
        <ele>1371</ele>
        <time>2010-01-01T01:14:49Z</time>
      </trkpt>
      <trkpt lat="44.74669" lon="6.5462">
        <ele>1369</ele>
        <time>2010-01-01T01:14:50Z</time>
      </trkpt>
      <trkpt lat="44.74671" lon="6.54627">
        <ele>1367</ele>
        <time>2010-01-01T01:14:52Z</time>
      </trkpt>
      <trkpt lat="44.74673" lon="6.54631">
        <ele>1365</ele>
        <time>2010-01-01T01:14:53Z</time>
      </trkpt>
      <trkpt lat="44.74676" lon="6.54635">
        <ele>1363</ele>
        <time>2010-01-01T01:14:54Z</time>
      </trkpt>
      <trkpt lat="44.74683" lon="6.54639">
        <ele>1359</ele>
        <time>2010-01-01T01:14:56Z</time>
      </trkpt>
      <trkpt lat="44.74686" lon="6.54637">
        <ele>1358</ele>
        <time>2010-01-01T01:14:56Z</time>
      </trkpt>
      <trkpt lat="44.74687" lon="6.54636">
        <ele>1357</ele>
        <time>2010-01-01T01:14:57Z</time>
      </trkpt>
      <trkpt lat="44.74688" lon="6.54635">
        <ele>1357</ele>
        <time>2010-01-01T01:14:57Z</time>
      </trkpt>
      <trkpt lat="44.7469" lon="6.54632">
        <ele>1356</ele>
        <time>2010-01-01T01:14:58Z</time>
      </trkpt>
      <trkpt lat="44.74691" lon="6.5463">
        <ele>1356</ele>
        <time>2010-01-01T01:14:58Z</time>
      </trkpt>
      <trkpt lat="44.74692" lon="6.54629">
        <ele>1356</ele>
        <time>2010-01-01T01:14:59Z</time>
      </trkpt>
      <trkpt lat="44.74693" lon="6.54626">
        <ele>1355</ele>
        <time>2010-01-01T01:14:59Z</time>
      </trkpt>
      <trkpt lat="44.74697" lon="6.54621">
        <ele>1354</ele>
        <time>2010-01-01T01:15:01Z</time>
      </trkpt>
      <trkpt lat="44.74701" lon="6.54616">
        <ele>1352</ele>
        <time>2010-01-01T01:15:02Z</time>
      </trkpt>
      <trkpt lat="44.74703" lon="6.54612">
        <ele>1351</ele>
        <time>2010-01-01T01:15:03Z</time>
      </trkpt>
      <trkpt lat="44.74707" lon="6.54607">
        <ele>1349</ele>
        <time>2010-01-01T01:15:05Z</time>
      </trkpt>
      <trkpt lat="44.74711" lon="6.54603">
        <ele>1346</ele>
        <time>2010-01-01T01:15:06Z</time>
      </trkpt>
      <trkpt lat="44.74715" lon="6.546">
        <ele>1344</ele>
        <time>2010-01-01T01:15:07Z</time>
      </trkpt>
      <trkpt lat="44.74717" lon="6.54595">
        <ele>1343</ele>
        <time>2010-01-01T01:15:08Z</time>
      </trkpt>
      <trkpt lat="44.74718" lon="6.54589">
        <ele>1343</ele>
        <time>2010-01-01T01:15:09Z</time>
      </trkpt>
      <trkpt lat="44.74721" lon="6.5458">
        <ele>1343</ele>
        <time>2010-01-01T01:15:11Z</time>
      </trkpt>
      <trkpt lat="44.74722" lon="6.54575">
        <ele>1342</ele>
        <time>2010-01-01T01:15:12Z</time>
      </trkpt>
      <trkpt lat="44.74724" lon="6.54577">
        <ele>1341</ele>
        <time>2010-01-01T01:15:13Z</time>
      </trkpt>
      <trkpt lat="44.74724" lon="6.5458">
        <ele>1340</ele>
        <time>2010-01-01T01:15:13Z</time>
      </trkpt>
      <trkpt lat="44.74723" lon="6.54596">
        <ele>1340</ele>
        <time>2010-01-01T01:15:16Z</time>
      </trkpt>
      <trkpt lat="44.74725" lon="6.54603">
        <ele>1338</ele>
        <time>2010-01-01T01:15:18Z</time>
      </trkpt>
      <trkpt lat="44.74727" lon="6.54617">
        <ele>1335</ele>
        <time>2010-01-01T01:15:21Z</time>
      </trkpt>
      <trkpt lat="44.74727" lon="6.5463">
        <ele>1334</ele>
        <time>2010-01-01T01:15:23Z</time>
      </trkpt>
      <trkpt lat="44.74725" lon="6.5464">
        <ele>1333</ele>
        <time>2010-01-01T01:15:25Z</time>
      </trkpt>
      <trkpt lat="44.74726" lon="6.54647">
        <ele>1332</ele>
        <time>2010-01-01T01:15:26Z</time>
      </trkpt>
      <trkpt lat="44.74726" lon="6.54652">
        <ele>1331</ele>
        <time>2010-01-01T01:15:27Z</time>
      </trkpt>
      <trkpt lat="44.74728" lon="6.5466">
        <ele>1328</ele>
        <time>2010-01-01T01:15:29Z</time>
      </trkpt>
      <trkpt lat="44.7473" lon="6.54658">
        <ele>1327</ele>
        <time>2010-01-01T01:15:30Z</time>
      </trkpt>
      <trkpt lat="44.74732" lon="6.54654">
        <ele>1327</ele>
        <time>2010-01-01T01:15:30Z</time>
      </trkpt>
      <trkpt lat="44.74734" lon="6.54648">
        <ele>1327</ele>
        <time>2010-01-01T01:15:32Z</time>
      </trkpt>
      <trkpt lat="44.74735" lon="6.54642">
        <ele>1327</ele>
        <time>2010-01-01T01:15:33Z</time>
      </trkpt>
      <trkpt lat="44.74738" lon="6.5463">
        <ele>1328</ele>
        <time>2010-01-01T01:15:35Z</time>
      </trkpt>
      <trkpt lat="44.74741" lon="6.54625">
        <ele>1327</ele>
        <time>2010-01-01T01:15:36Z</time>
      </trkpt>
      <trkpt lat="44.74741" lon="6.54619">
        <ele>1327</ele>
        <time>2010-01-01T01:15:38Z</time>
      </trkpt>
      <trkpt lat="44.74742" lon="6.54619">
        <ele>1327</ele>
        <time>2010-01-01T01:15:38Z</time>
      </trkpt>
      <trkpt lat="44.74743" lon="6.54617">
        <ele>1327</ele>
        <time>2010-01-01T01:15:38Z</time>
      </trkpt>
      <trkpt lat="44.74743" lon="6.54619">
        <ele>1327</ele>
        <time>2010-01-01T01:15:38Z</time>
      </trkpt>
      <trkpt lat="44.74741" lon="6.54627">
        <ele>1326</ele>
        <time>2010-01-01T01:15:40Z</time>
      </trkpt>
      <trkpt lat="44.74742" lon="6.54632">
        <ele>1325</ele>
        <time>2010-01-01T01:15:41Z</time>
      </trkpt>
      <trkpt lat="44.74741" lon="6.54639">
        <ele>1325</ele>
        <time>2010-01-01T01:15:42Z</time>
      </trkpt>
      <trkpt lat="44.74741" lon="6.54649">
        <ele>1322</ele>
        <time>2010-01-01T01:15:44Z</time>
      </trkpt>
      <trkpt lat="44.74741" lon="6.54658">
        <ele>1320</ele>
        <time>2010-01-01T01:15:46Z</time>
      </trkpt>
      <trkpt lat="44.7474" lon="6.54671">
        <ele>1317</ele>
        <time>2010-01-01T01:15:48Z</time>
      </trkpt>
      <trkpt lat="44.74739" lon="6.54677">
        <ele>1316</ele>
        <time>2010-01-01T01:15:50Z</time>
      </trkpt>
      <trkpt lat="44.74738" lon="6.54689">
        <ele>1313</ele>
        <time>2010-01-01T01:15:52Z</time>
      </trkpt>
      <trkpt lat="44.74738" lon="6.547">
        <ele>1310</ele>
        <time>2010-01-01T01:15:54Z</time>
      </trkpt>
      <trkpt lat="44.74736" lon="6.54704">
        <ele>1310</ele>
        <time>2010-01-01T01:15:55Z</time>
      </trkpt>
      <trkpt lat="44.74735" lon="6.54708">
        <ele>1310</ele>
        <time>2010-01-01T01:15:56Z</time>
      </trkpt>
      <trkpt lat="44.74734" lon="6.54717">
        <ele>1308</ele>
        <time>2010-01-01T01:15:57Z</time>
      </trkpt>
      <trkpt lat="44.74734" lon="6.54723">
        <ele>1306</ele>
        <time>2010-01-01T01:15:59Z</time>
      </trkpt>
      <trkpt lat="44.74732" lon="6.54734">
        <ele>1305</ele>
        <time>2010-01-01T01:16:01Z</time>
      </trkpt>
      <trkpt lat="44.74731" lon="6.5474">
        <ele>1304</ele>
        <time>2010-01-01T01:16:02Z</time>
      </trkpt>
      <trkpt lat="44.7473" lon="6.54747">
        <ele>1304</ele>
        <time>2010-01-01T01:16:03Z</time>
      </trkpt>
      <trkpt lat="44.74728" lon="6.54755">
        <ele>1303</ele>
        <time>2010-01-01T01:16:05Z</time>
      </trkpt>
      <trkpt lat="44.74723" lon="6.54766">
        <ele>1305</ele>
        <time>2010-01-01T01:16:07Z</time>
      </trkpt>
      <trkpt lat="44.7472" lon="6.54778">
        <ele>1305</ele>
        <time>2010-01-01T01:16:10Z</time>
      </trkpt>
      <trkpt lat="44.74719" lon="6.54782">
        <ele>1303</ele>
        <time>2010-01-01T01:16:11Z</time>
      </trkpt>
      <trkpt lat="44.74718" lon="6.54787">
        <ele>1303</ele>
        <time>2010-01-01T01:16:12Z</time>
      </trkpt>
      <trkpt lat="44.74716" lon="6.54795">
        <ele>1301</ele>
        <time>2010-01-01T01:16:13Z</time>
      </trkpt>
      <trkpt lat="44.74715" lon="6.54802">
        <ele>1300</ele>
        <time>2010-01-01T01:16:14Z</time>
      </trkpt>
      <trkpt lat="44.74715" lon="6.5481">
        <ele>1298</ele>
        <time>2010-01-01T01:16:16Z</time>
      </trkpt>
      <trkpt lat="44.74713" lon="6.5482">
        <ele>1297</ele>
        <time>2010-01-01T01:16:18Z</time>
      </trkpt>
      <trkpt lat="44.74713" lon="6.54828">
        <ele>1295</ele>
        <time>2010-01-01T01:16:19Z</time>
      </trkpt>
      <trkpt lat="44.7471" lon="6.54838">
        <ele>1295</ele>
        <time>2010-01-01T01:16:21Z</time>
      </trkpt>
      <trkpt lat="44.7471" lon="6.54845">
        <ele>1294</ele>
        <time>2010-01-01T01:16:23Z</time>
      </trkpt>
      <trkpt lat="44.74707" lon="6.54863">
        <ele>1293</ele>
        <time>2010-01-01T01:16:26Z</time>
      </trkpt>
      <trkpt lat="44.74706" lon="6.54875">
        <ele>1291</ele>
        <time>2010-01-01T01:16:29Z</time>
      </trkpt>
      <trkpt lat="44.74706" lon="6.54884">
        <ele>1290</ele>
        <time>2010-01-01T01:16:30Z</time>
      </trkpt>
      <trkpt lat="44.74706" lon="6.54889">
        <ele>1289</ele>
        <time>2010-01-01T01:16:31Z</time>
      </trkpt>
      <trkpt lat="44.74707" lon="6.54895">
        <ele>1287</ele>
        <time>2010-01-01T01:16:32Z</time>
      </trkpt>
      <trkpt lat="44.74708" lon="6.54896">
        <ele>1286</ele>
        <time>2010-01-01T01:16:33Z</time>
      </trkpt>
      <trkpt lat="44.74709" lon="6.54893">
        <ele>1285</ele>
        <time>2010-01-01T01:16:33Z</time>
      </trkpt>
      <trkpt lat="44.7471" lon="6.54891">
        <ele>1284</ele>
        <time>2010-01-01T01:16:34Z</time>
      </trkpt>
      <trkpt lat="44.74712" lon="6.54888">
        <ele>1283</ele>
        <time>2010-01-01T01:16:35Z</time>
      </trkpt>
      <trkpt lat="44.74714" lon="6.54881">
        <ele>1282</ele>
        <time>2010-01-01T01:16:36Z</time>
      </trkpt>
      <trkpt lat="44.74715" lon="6.54875">
        <ele>1282</ele>
        <time>2010-01-01T01:16:37Z</time>
      </trkpt>
      <trkpt lat="44.74718" lon="6.54867">
        <ele>1281</ele>
        <time>2010-01-01T01:16:39Z</time>
      </trkpt>
      <trkpt lat="44.7472" lon="6.54861">
        <ele>1280</ele>
        <time>2010-01-01T01:16:40Z</time>
      </trkpt>
      <trkpt lat="44.74723" lon="6.54853">
        <ele>1280</ele>
        <time>2010-01-01T01:16:42Z</time>
      </trkpt>
      <trkpt lat="44.74729" lon="6.54839">
        <ele>1278</ele>
        <time>2010-01-01T01:16:45Z</time>
      </trkpt>
      <trkpt lat="44.74736" lon="6.54827">
        <ele>1274</ele>
        <time>2010-01-01T01:16:48Z</time>
      </trkpt>
      <trkpt lat="44.74739" lon="6.54822">
        <ele>1273</ele>
        <time>2010-01-01T01:16:49Z</time>
      </trkpt>
      <trkpt lat="44.74743" lon="6.54817">
        <ele>1270</ele>
        <time>2010-01-01T01:16:51Z</time>
      </trkpt>
      <trkpt lat="44.74744" lon="6.54818">
        <ele>1269</ele>
        <time>2010-01-01T01:16:51Z</time>
      </trkpt>
      <trkpt lat="44.74744" lon="6.54824">
        <ele>1268</ele>
        <time>2010-01-01T01:16:52Z</time>
      </trkpt>
      <trkpt lat="44.74741" lon="6.54835">
        <ele>1267</ele>
        <time>2010-01-01T01:16:54Z</time>
      </trkpt>
      <trkpt lat="44.7474" lon="6.54842">
        <ele>1267</ele>
        <time>2010-01-01T01:16:56Z</time>
      </trkpt>
      <trkpt lat="44.74739" lon="6.54852">
        <ele>1266</ele>
        <time>2010-01-01T01:16:57Z</time>
      </trkpt>
      <trkpt lat="44.74738" lon="6.5486">
        <ele>1265</ele>
        <time>2010-01-01T01:16:59Z</time>
      </trkpt>
      <trkpt lat="44.74735" lon="6.54879">
        <ele>1264</ele>
        <time>2010-01-01T01:17:03Z</time>
      </trkpt>
      <trkpt lat="44.74735" lon="6.5489">
        <ele>1262</ele>
        <time>2010-01-01T01:17:05Z</time>
      </trkpt>
      <trkpt lat="44.74735" lon="6.54899">
        <ele>1261</ele>
        <time>2010-01-01T01:17:06Z</time>
      </trkpt>
      <trkpt lat="44.74734" lon="6.54909">
        <ele>1259</ele>
        <time>2010-01-01T01:17:08Z</time>
      </trkpt>
      <trkpt lat="44.74734" lon="6.54917">
        <ele>1258</ele>
        <time>2010-01-01T01:17:10Z</time>
      </trkpt>
      <trkpt lat="44.74732" lon="6.54937">
        <ele>1254</ele>
        <time>2010-01-01T01:17:14Z</time>
      </trkpt>
      <trkpt lat="44.7473" lon="6.54944">
        <ele>1253</ele>
        <time>2010-01-01T01:17:15Z</time>
      </trkpt>
      <trkpt lat="44.74727" lon="6.54947">
        <ele>1254</ele>
        <time>2010-01-01T01:17:16Z</time>
      </trkpt>
      <trkpt lat="44.74725" lon="6.54952">
        <ele>1253</ele>
        <time>2010-01-01T01:17:17Z</time>
      </trkpt>
      <trkpt lat="44.74724" lon="6.54961">
        <ele>1249</ele>
        <time>2010-01-01T01:17:19Z</time>
      </trkpt>
      <trkpt lat="44.74722" lon="6.54967">
        <ele>1248</ele>
        <time>2010-01-01T01:17:20Z</time>
      </trkpt>
      <trkpt lat="44.7472" lon="6.54973">
        <ele>1247</ele>
        <time>2010-01-01T01:17:21Z</time>
      </trkpt>
      <trkpt lat="44.74719" lon="6.54983">
        <ele>1243</ele>
        <time>2010-01-01T01:17:23Z</time>
      </trkpt>
      <trkpt lat="44.74718" lon="6.54991">
        <ele>1239</ele>
        <time>2010-01-01T01:17:25Z</time>
      </trkpt>
      <trkpt lat="44.74718" lon="6.54998">
        <ele>1236</ele>
        <time>2010-01-01T01:17:26Z</time>
      </trkpt>
      <trkpt lat="44.74718" lon="6.55004">
        <ele>1233</ele>
        <time>2010-01-01T01:17:27Z</time>
      </trkpt>
      <trkpt lat="44.74719" lon="6.55011">
        <ele>1230</ele>
        <time>2010-01-01T01:17:29Z</time>
      </trkpt>
      <trkpt lat="44.74718" lon="6.55013">
        <ele>1230</ele>
        <time>2010-01-01T01:17:29Z</time>
      </trkpt>
      <trkpt lat="44.74716" lon="6.55024">
        <ele>1227</ele>
        <time>2010-01-01T01:17:31Z</time>
      </trkpt>
      <trkpt lat="44.74715" lon="6.5503">
        <ele>1225</ele>
        <time>2010-01-01T01:17:32Z</time>
      </trkpt>
      <trkpt lat="44.74713" lon="6.55036">
        <ele>1224</ele>
        <time>2010-01-01T01:17:34Z</time>
      </trkpt>
      <trkpt lat="44.7471" lon="6.55043">
        <ele>1223</ele>
        <time>2010-01-01T01:17:35Z</time>
      </trkpt>
      <trkpt lat="44.74709" lon="6.55048">
        <ele>1222</ele>
        <time>2010-01-01T01:17:36Z</time>
      </trkpt>
      <trkpt lat="44.74702" lon="6.55055">
        <ele>1224</ele>
        <time>2010-01-01T01:17:38Z</time>
      </trkpt>
      <trkpt lat="44.747" lon="6.55059">
        <ele>1224</ele>
        <time>2010-01-01T01:17:39Z</time>
      </trkpt>
      <trkpt lat="44.74699" lon="6.55064">
        <ele>1222</ele>
        <time>2010-01-01T01:17:40Z</time>
      </trkpt>
      <trkpt lat="44.74695" lon="6.55077">
        <ele>1220</ele>
        <time>2010-01-01T01:17:43Z</time>
      </trkpt>
      <trkpt lat="44.74692" lon="6.55084">
        <ele>1219</ele>
        <time>2010-01-01T01:17:45Z</time>
      </trkpt>
      <trkpt lat="44.74689" lon="6.55093">
        <ele>1217</ele>
        <time>2010-01-01T01:17:46Z</time>
      </trkpt>
      <trkpt lat="44.74688" lon="6.551">
        <ele>1216</ele>
        <time>2010-01-01T01:17:48Z</time>
      </trkpt>
      <trkpt lat="44.74684" lon="6.55116">
        <ele>1213</ele>
        <time>2010-01-01T01:17:51Z</time>
      </trkpt>
      <trkpt lat="44.74681" lon="6.55124">
        <ele>1212</ele>
        <time>2010-01-01T01:17:53Z</time>
      </trkpt>
      <trkpt lat="44.74679" lon="6.55131">
        <ele>1211</ele>
        <time>2010-01-01T01:17:54Z</time>
      </trkpt>
      <trkpt lat="44.74677" lon="6.55138">
        <ele>1211</ele>
        <time>2010-01-01T01:17:56Z</time>
      </trkpt>
      <trkpt lat="44.74677" lon="6.55137">
        <ele>1211</ele>
        <time>2010-01-01T01:17:56Z</time>
      </trkpt>
      <trkpt lat="44.74675" lon="6.55141">
        <ele>1210</ele>
        <time>2010-01-01T01:17:56Z</time>
      </trkpt>
      <trkpt lat="44.74676" lon="6.5514">
        <ele>1210</ele>
        <time>2010-01-01T01:17:57Z</time>
      </trkpt>
      <trkpt lat="44.74679" lon="6.55136">
        <ele>1210</ele>
        <time>2010-01-01T01:17:58Z</time>
      </trkpt>
      <trkpt lat="44.74681" lon="6.55134">
        <ele>1209</ele>
        <time>2010-01-01T01:17:58Z</time>
      </trkpt>
      <trkpt lat="44.74684" lon="6.5513">
        <ele>1208</ele>
        <time>2010-01-01T01:17:59Z</time>
      </trkpt>
      <trkpt lat="44.74686" lon="6.55128">
        <ele>1208</ele>
        <time>2010-01-01T01:18:00Z</time>
      </trkpt>
      <trkpt lat="44.74689" lon="6.55125">
        <ele>1207</ele>
        <time>2010-01-01T01:18:01Z</time>
      </trkpt>
      <trkpt lat="44.74691" lon="6.55122">
        <ele>1206</ele>
        <time>2010-01-01T01:18:02Z</time>
      </trkpt>
      <trkpt lat="44.74695" lon="6.55119">
        <ele>1205</ele>
        <time>2010-01-01T01:18:03Z</time>
      </trkpt>
      <trkpt lat="44.74698" lon="6.55117">
        <ele>1203</ele>
        <time>2010-01-01T01:18:04Z</time>
      </trkpt>
      <trkpt lat="44.74702" lon="6.55116">
        <ele>1201</ele>
        <time>2010-01-01T01:18:05Z</time>
      </trkpt>
      <trkpt lat="44.7471" lon="6.55112">
        <ele>1198</ele>
        <time>2010-01-01T01:18:07Z</time>
      </trkpt>
      <trkpt lat="44.74713" lon="6.55111">
        <ele>1196</ele>
        <time>2010-01-01T01:18:08Z</time>
      </trkpt>
      <trkpt lat="44.74717" lon="6.5511">
        <ele>1194</ele>
        <time>2010-01-01T01:18:09Z</time>
      </trkpt>
      <trkpt lat="44.74721" lon="6.55108">
        <ele>1192</ele>
        <time>2010-01-01T01:18:10Z</time>
      </trkpt>
      <trkpt lat="44.74725" lon="6.55106">
        <ele>1191</ele>
        <time>2010-01-01T01:18:12Z</time>
      </trkpt>
      <trkpt lat="44.74729" lon="6.55103">
        <ele>1190</ele>
        <time>2010-01-01T01:18:13Z</time>
      </trkpt>
      <trkpt lat="44.74732" lon="6.55101">
        <ele>1189</ele>
        <time>2010-01-01T01:18:14Z</time>
      </trkpt>
      <trkpt lat="44.74734" lon="6.55099">
        <ele>1188</ele>
        <time>2010-01-01T01:18:15Z</time>
      </trkpt>
      <trkpt lat="44.74737" lon="6.55097">
        <ele>1187</ele>
        <time>2010-01-01T01:18:15Z</time>
      </trkpt>
      <trkpt lat="44.7474" lon="6.55098">
        <ele>1185</ele>
        <time>2010-01-01T01:18:16Z</time>
      </trkpt>
      <trkpt lat="44.74741" lon="6.55099">
        <ele>1185</ele>
        <time>2010-01-01T01:18:16Z</time>
      </trkpt>
      <trkpt lat="44.7474" lon="6.55104">
        <ele>1183</ele>
        <time>2010-01-01T01:18:17Z</time>
      </trkpt>
      <trkpt lat="44.74739" lon="6.55109">
        <ele>1182</ele>
        <time>2010-01-01T01:18:18Z</time>
      </trkpt>
      <trkpt lat="44.74738" lon="6.55114">
        <ele>1182</ele>
        <time>2010-01-01T01:18:19Z</time>
      </trkpt>
      <trkpt lat="44.74736" lon="6.55118">
        <ele>1181</ele>
        <time>2010-01-01T01:18:20Z</time>
      </trkpt>
      <trkpt lat="44.74734" lon="6.55123">
        <ele>1181</ele>
        <time>2010-01-01T01:18:21Z</time>
      </trkpt>
      <trkpt lat="44.74731" lon="6.55127">
        <ele>1181</ele>
        <time>2010-01-01T01:18:22Z</time>
      </trkpt>
      <trkpt lat="44.74728" lon="6.55131">
        <ele>1181</ele>
        <time>2010-01-01T01:18:23Z</time>
      </trkpt>
      <trkpt lat="44.74725" lon="6.55135">
        <ele>1181</ele>
        <time>2010-01-01T01:18:24Z</time>
      </trkpt>
      <trkpt lat="44.74723" lon="6.55139">
        <ele>1180</ele>
        <time>2010-01-01T01:18:25Z</time>
      </trkpt>
      <trkpt lat="44.7472" lon="6.55145">
        <ele>1180</ele>
        <time>2010-01-01T01:18:27Z</time>
      </trkpt>
      <trkpt lat="44.74718" lon="6.55152">
        <ele>1180</ele>
        <time>2010-01-01T01:18:28Z</time>
      </trkpt>
      <trkpt lat="44.74717" lon="6.55156">
        <ele>1179</ele>
        <time>2010-01-01T01:18:29Z</time>
      </trkpt>
      <trkpt lat="44.74715" lon="6.55161">
        <ele>1179</ele>
        <time>2010-01-01T01:18:30Z</time>
      </trkpt>
      <trkpt lat="44.74714" lon="6.55167">
        <ele>1177</ele>
        <time>2010-01-01T01:18:31Z</time>
      </trkpt>
      <trkpt lat="44.74712" lon="6.55175">
        <ele>1175</ele>
        <time>2010-01-01T01:18:33Z</time>
      </trkpt>
      <trkpt lat="44.74712" lon="6.55182">
        <ele>1173</ele>
        <time>2010-01-01T01:18:34Z</time>
      </trkpt>
      <trkpt lat="44.74712" lon="6.55188">
        <ele>1170</ele>
        <time>2010-01-01T01:18:35Z</time>
      </trkpt>
      <trkpt lat="44.74712" lon="6.55195">
        <ele>1168</ele>
        <time>2010-01-01T01:18:37Z</time>
      </trkpt>
      <trkpt lat="44.74711" lon="6.55202">
        <ele>1166</ele>
        <time>2010-01-01T01:18:38Z</time>
      </trkpt>
      <trkpt lat="44.74711" lon="6.55209">
        <ele>1164</ele>
        <time>2010-01-01T01:18:39Z</time>
      </trkpt>
      <trkpt lat="44.74711" lon="6.55215">
        <ele>1162</ele>
        <time>2010-01-01T01:18:40Z</time>
      </trkpt>
      <trkpt lat="44.74711" lon="6.55219">
        <ele>1161</ele>
        <time>2010-01-01T01:18:41Z</time>
      </trkpt>
      <trkpt lat="44.74712" lon="6.55225">
        <ele>1160</ele>
        <time>2010-01-01T01:18:42Z</time>
      </trkpt>
      <trkpt lat="44.74715" lon="6.55224">
        <ele>1159</ele>
        <time>2010-01-01T01:18:43Z</time>
      </trkpt>
      <trkpt lat="44.7472" lon="6.55218">
        <ele>1158</ele>
        <time>2010-01-01T01:18:45Z</time>
      </trkpt>
      <trkpt lat="44.74723" lon="6.55214">
        <ele>1158</ele>
        <time>2010-01-01T01:18:46Z</time>
      </trkpt>
      <trkpt lat="44.74726" lon="6.5521">
        <ele>1159</ele>
        <time>2010-01-01T01:18:47Z</time>
      </trkpt>
      <trkpt lat="44.74732" lon="6.55204">
        <ele>1159</ele>
        <time>2010-01-01T01:18:49Z</time>
      </trkpt>
      <trkpt lat="44.74735" lon="6.55201">
        <ele>1159</ele>
        <time>2010-01-01T01:18:50Z</time>
      </trkpt>
      <trkpt lat="44.74739" lon="6.55197">
        <ele>1160</ele>
        <time>2010-01-01T01:18:51Z</time>
      </trkpt>
      <trkpt lat="44.74743" lon="6.55195">
        <ele>1159</ele>
        <time>2010-01-01T01:18:52Z</time>
      </trkpt>
      <trkpt lat="44.74744" lon="6.55196">
        <ele>1159</ele>
        <time>2010-01-01T01:18:53Z</time>
      </trkpt>
      <trkpt lat="44.74814" lon="6.55101">
        <ele>1156</ele>
        <time>2010-01-01T01:19:19Z</time>
      </trkpt>
      <trkpt lat="44.74871" lon="6.54965">
        <ele>1158</ele>
        <time>2010-01-01T01:19:49Z</time>
      </trkpt>
      <trkpt lat="44.74981" lon="6.54723">
        <ele>1159</ele>
        <time>2010-01-01T01:20:43Z</time>
      </trkpt>
      <trkpt lat="44.74971" lon="6.54644">
        <ele>1171</ele>
        <time>2010-01-01T01:20:58Z</time>
      </trkpt>
      <trkpt lat="44.7496" lon="6.54433">
        <ele>1191</ele>
        <time>2010-01-01T01:21:38Z</time>
      </trkpt>
      <trkpt lat="44.74968" lon="6.5433">
        <ele>1199</ele>
        <time>2010-01-01T01:21:58Z</time>
      </trkpt>
      <trkpt lat="44.74982" lon="6.54246">
        <ele>1202</ele>
        <time>2010-01-01T01:22:14Z</time>
      </trkpt>
      <trkpt lat="44.7498" lon="6.5423">
        <ele>1203</ele>
        <time>2010-01-01T01:22:17Z</time>
      </trkpt>
      <trkpt lat="44.7498" lon="6.54217">
        <ele>1203</ele>
        <time>2010-01-01T01:22:20Z</time>
      </trkpt>
      <trkpt lat="44.74977" lon="6.54199">
        <ele>1203</ele>
        <time>2010-01-01T01:22:23Z</time>
      </trkpt>
      <trkpt lat="44.74977" lon="6.54184">
        <ele>1203</ele>
        <time>2010-01-01T01:22:26Z</time>
      </trkpt>
      <trkpt lat="44.74975" lon="6.5417">
        <ele>1205</ele>
        <time>2010-01-01T01:22:29Z</time>
      </trkpt>
      <trkpt lat="44.74974" lon="6.54156">
        <ele>1206</ele>
        <time>2010-01-01T01:22:32Z</time>
      </trkpt>
      <trkpt lat="44.74973" lon="6.54145">
        <ele>1206</ele>
        <time>2010-01-01T01:22:34Z</time>
      </trkpt>
      <trkpt lat="44.74968" lon="6.54132">
        <ele>1210</ele>
        <time>2010-01-01T01:22:37Z</time>
      </trkpt>
      <trkpt lat="44.74965" lon="6.54115">
        <ele>1211</ele>
        <time>2010-01-01T01:22:40Z</time>
      </trkpt>
      <trkpt lat="44.74959" lon="6.54093">
        <ele>1218</ele>
        <time>2010-01-01T01:22:44Z</time>
      </trkpt>
      <trkpt lat="44.74958" lon="6.5408">
        <ele>1220</ele>
        <time>2010-01-01T01:22:47Z</time>
      </trkpt>
      <trkpt lat="44.74958" lon="6.54074">
        <ele>1221</ele>
        <time>2010-01-01T01:22:48Z</time>
      </trkpt>
      <trkpt lat="44.7496" lon="6.54066">
        <ele>1221</ele>
        <time>2010-01-01T01:22:50Z</time>
      </trkpt>
      <trkpt lat="44.74956" lon="6.5405">
        <ele>1226</ele>
        <time>2010-01-01T01:22:53Z</time>
      </trkpt>
      <trkpt lat="44.74957" lon="6.54043">
        <ele>1226</ele>
        <time>2010-01-01T01:22:54Z</time>
      </trkpt>
      <trkpt lat="44.74958" lon="6.54029">
        <ele>1228</ele>
        <time>2010-01-01T01:22:57Z</time>
      </trkpt>
      <trkpt lat="44.74959" lon="6.54013">
        <ele>1230</ele>
        <time>2010-01-01T01:23:00Z</time>
      </trkpt>
      <trkpt lat="44.74962" lon="6.53994">
        <ele>1230</ele>
        <time>2010-01-01T01:23:03Z</time>
      </trkpt>
      <trkpt lat="44.74966" lon="6.53987">
        <ele>1230</ele>
        <time>2010-01-01T01:23:05Z</time>
      </trkpt>
      <trkpt lat="44.74967" lon="6.53982">
        <ele>1230</ele>
        <time>2010-01-01T01:23:06Z</time>
      </trkpt>
      <trkpt lat="44.74971" lon="6.53977">
        <ele>1228</ele>
        <time>2010-01-01T01:23:08Z</time>
      </trkpt>
      <trkpt lat="44.74975" lon="6.5397">
        <ele>1228</ele>
        <time>2010-01-01T01:23:09Z</time>
      </trkpt>
      <trkpt lat="44.74976" lon="6.53953">
        <ele>1230</ele>
        <time>2010-01-01T01:23:13Z</time>
      </trkpt>
      <trkpt lat="44.74981" lon="6.53936">
        <ele>1229</ele>
        <time>2010-01-01T01:23:16Z</time>
      </trkpt>
      <trkpt lat="44.74982" lon="6.53927">
        <ele>1230</ele>
        <time>2010-01-01T01:23:18Z</time>
      </trkpt>
      <trkpt lat="44.74983" lon="6.5392">
        <ele>1230</ele>
        <time>2010-01-01T01:23:19Z</time>
      </trkpt>
      <trkpt lat="44.7498" lon="6.53909">
        <ele>1232</ele>
        <time>2010-01-01T01:23:21Z</time>
      </trkpt>
      <trkpt lat="44.74977" lon="6.53904">
        <ele>1234</ele>
        <time>2010-01-01T01:23:23Z</time>
      </trkpt>
      <trkpt lat="44.74976" lon="6.53898">
        <ele>1234</ele>
        <time>2010-01-01T01:23:24Z</time>
      </trkpt>
      <trkpt lat="44.74973" lon="6.5389">
        <ele>1236</ele>
        <time>2010-01-01T01:23:26Z</time>
      </trkpt>
      <trkpt lat="44.74971" lon="6.53874">
        <ele>1237</ele>
        <time>2010-01-01T01:23:29Z</time>
      </trkpt>
      <trkpt lat="44.7497" lon="6.53866">
        <ele>1238</ele>
        <time>2010-01-01T01:23:30Z</time>
      </trkpt>
      <trkpt lat="44.74969" lon="6.53858">
        <ele>1239</ele>
        <time>2010-01-01T01:23:32Z</time>
      </trkpt>
      <trkpt lat="44.74964" lon="6.53857">
        <ele>1242</ele>
        <time>2010-01-01T01:23:33Z</time>
      </trkpt>
      <trkpt lat="44.74964" lon="6.5386">
        <ele>1242</ele>
        <time>2010-01-01T01:23:34Z</time>
      </trkpt>
      <trkpt lat="44.74958" lon="6.53872">
        <ele>1244</ele>
        <time>2010-01-01T01:23:36Z</time>
      </trkpt>
      <trkpt lat="44.74957" lon="6.53878">
        <ele>1244</ele>
        <time>2010-01-01T01:23:38Z</time>
      </trkpt>
      <trkpt lat="44.74949" lon="6.53888">
        <ele>1248</ele>
        <time>2010-01-01T01:23:40Z</time>
      </trkpt>
      <trkpt lat="44.74944" lon="6.53902">
        <ele>1248</ele>
        <time>2010-01-01T01:23:43Z</time>
      </trkpt>
      <trkpt lat="44.74937" lon="6.53912">
        <ele>1250</ele>
        <time>2010-01-01T01:23:46Z</time>
      </trkpt>
      <trkpt lat="44.74933" lon="6.53922">
        <ele>1251</ele>
        <time>2010-01-01T01:23:48Z</time>
      </trkpt>
      <trkpt lat="44.7493" lon="6.5393">
        <ele>1251</ele>
        <time>2010-01-01T01:23:50Z</time>
      </trkpt>
      <trkpt lat="44.74927" lon="6.53937">
        <ele>1251</ele>
        <time>2010-01-01T01:23:51Z</time>
      </trkpt>
      <trkpt lat="44.74922" lon="6.53949">
        <ele>1252</ele>
        <time>2010-01-01T01:23:54Z</time>
      </trkpt>
      <trkpt lat="44.74921" lon="6.5395">
        <ele>1252</ele>
        <time>2010-01-01T01:23:54Z</time>
      </trkpt>
      <trkpt lat="44.74916" lon="6.5396">
        <ele>1253</ele>
        <time>2010-01-01T01:23:57Z</time>
      </trkpt>
      <trkpt lat="44.74911" lon="6.53968">
        <ele>1254</ele>
        <time>2010-01-01T01:23:59Z</time>
      </trkpt>
      <trkpt lat="44.74907" lon="6.53978">
        <ele>1255</ele>
        <time>2010-01-01T01:24:01Z</time>
      </trkpt>
      <trkpt lat="44.74904" lon="6.53984">
        <ele>1256</ele>
        <time>2010-01-01T01:24:02Z</time>
      </trkpt>
      <trkpt lat="44.74903" lon="6.53986">
        <ele>1257</ele>
        <time>2010-01-01T01:24:03Z</time>
      </trkpt>
      <trkpt lat="44.74895" lon="6.53994">
        <ele>1260</ele>
        <time>2010-01-01T01:24:05Z</time>
      </trkpt>
      <trkpt lat="44.74896" lon="6.53993">
        <ele>1260</ele>
        <time>2010-01-01T01:24:06Z</time>
      </trkpt>
      <trkpt lat="44.74896" lon="6.53984">
        <ele>1261</ele>
        <time>2010-01-01T01:24:07Z</time>
      </trkpt>
      <trkpt lat="44.74898" lon="6.53974">
        <ele>1261</ele>
        <time>2010-01-01T01:24:09Z</time>
      </trkpt>
      <trkpt lat="44.74898" lon="6.53969">
        <ele>1262</ele>
        <time>2010-01-01T01:24:10Z</time>
      </trkpt>
      <trkpt lat="44.749" lon="6.53955">
        <ele>1262</ele>
        <time>2010-01-01T01:24:13Z</time>
      </trkpt>
      <trkpt lat="44.74903" lon="6.53939">
        <ele>1262</ele>
        <time>2010-01-01T01:24:16Z</time>
      </trkpt>
      <trkpt lat="44.74903" lon="6.53927">
        <ele>1265</ele>
        <time>2010-01-01T01:24:18Z</time>
      </trkpt>
      <trkpt lat="44.74903" lon="6.53923">
        <ele>1265</ele>
        <time>2010-01-01T01:24:19Z</time>
      </trkpt>
      <trkpt lat="44.74901" lon="6.53911">
        <ele>1268</ele>
        <time>2010-01-01T01:24:22Z</time>
      </trkpt>
      <trkpt lat="44.74899" lon="6.53904">
        <ele>1270</ele>
        <time>2010-01-01T01:24:23Z</time>
      </trkpt>
      <trkpt lat="44.74899" lon="6.53882">
        <ele>1273</ele>
        <time>2010-01-01T01:24:27Z</time>
      </trkpt>
      <trkpt lat="44.74899" lon="6.53868">
        <ele>1276</ele>
        <time>2010-01-01T01:24:30Z</time>
      </trkpt>
      <trkpt lat="44.74898" lon="6.53864">
        <ele>1277</ele>
        <time>2010-01-01T01:24:31Z</time>
      </trkpt>
      <trkpt lat="44.74893" lon="6.53853">
        <ele>1281</ele>
        <time>2010-01-01T01:24:33Z</time>
      </trkpt>
      <trkpt lat="44.74892" lon="6.53838">
        <ele>1282</ele>
        <time>2010-01-01T01:24:36Z</time>
      </trkpt>
      <trkpt lat="44.74893" lon="6.53823">
        <ele>1282</ele>
        <time>2010-01-01T01:24:39Z</time>
      </trkpt>
      <trkpt lat="44.74889" lon="6.5381">
        <ele>1283</ele>
        <time>2010-01-01T01:24:41Z</time>
      </trkpt>
      <trkpt lat="44.74891" lon="6.53808">
        <ele>1282</ele>
        <time>2010-01-01T01:24:42Z</time>
      </trkpt>
      <trkpt lat="44.74892" lon="6.53792">
        <ele>1279</ele>
        <time>2010-01-01T01:24:45Z</time>
      </trkpt>
      <trkpt lat="44.74891" lon="6.53778">
        <ele>1279</ele>
        <time>2010-01-01T01:24:48Z</time>
      </trkpt>
      <trkpt lat="44.7489" lon="6.53776">
        <ele>1279</ele>
        <time>2010-01-01T01:24:48Z</time>
      </trkpt>
      <trkpt lat="44.7489" lon="6.53759">
        <ele>1278</ele>
        <time>2010-01-01T01:24:51Z</time>
      </trkpt>
      <trkpt lat="44.74887" lon="6.53744">
        <ele>1279</ele>
        <time>2010-01-01T01:24:54Z</time>
      </trkpt>
      <trkpt lat="44.74887" lon="6.53742">
        <ele>1279</ele>
        <time>2010-01-01T01:24:55Z</time>
      </trkpt>
      <trkpt lat="44.74882" lon="6.53737">
        <ele>1282</ele>
        <time>2010-01-01T01:24:56Z</time>
      </trkpt>
      <trkpt lat="44.74881" lon="6.53743">
        <ele>1282</ele>
        <time>2010-01-01T01:24:57Z</time>
      </trkpt>
      <trkpt lat="44.74878" lon="6.5375">
        <ele>1284</ele>
        <time>2010-01-01T01:24:59Z</time>
      </trkpt>
      <trkpt lat="44.74875" lon="6.53769">
        <ele>1286</ele>
        <time>2010-01-01T01:25:03Z</time>
      </trkpt>
      <trkpt lat="44.74874" lon="6.53772">
        <ele>1286</ele>
        <time>2010-01-01T01:25:03Z</time>
      </trkpt>
      <trkpt lat="44.74872" lon="6.53788">
        <ele>1289</ele>
        <time>2010-01-01T01:25:06Z</time>
      </trkpt>
      <trkpt lat="44.74866" lon="6.53796">
        <ele>1292</ele>
        <time>2010-01-01T01:25:09Z</time>
      </trkpt>
      <trkpt lat="44.74865" lon="6.53798">
        <ele>1292</ele>
        <time>2010-01-01T01:25:09Z</time>
      </trkpt>
      <trkpt lat="44.74863" lon="6.53809">
        <ele>1294</ele>
        <time>2010-01-01T01:25:11Z</time>
      </trkpt>
      <trkpt lat="44.74862" lon="6.53814">
        <ele>1295</ele>
        <time>2010-01-01T01:25:12Z</time>
      </trkpt>
      <trkpt lat="44.7486" lon="6.53825">
        <ele>1296</ele>
        <time>2010-01-01T01:25:14Z</time>
      </trkpt>
      <trkpt lat="44.7486" lon="6.53837">
        <ele>1297</ele>
        <time>2010-01-01T01:25:17Z</time>
      </trkpt>
      <trkpt lat="44.7486" lon="6.53852">
        <ele>1295</ele>
        <time>2010-01-01T01:25:19Z</time>
      </trkpt>
      <trkpt lat="44.74859" lon="6.53854">
        <ele>1296</ele>
        <time>2010-01-01T01:25:20Z</time>
      </trkpt>
      <trkpt lat="44.74857" lon="6.53866">
        <ele>1296</ele>
        <time>2010-01-01T01:25:22Z</time>
      </trkpt>
      <trkpt lat="44.74854" lon="6.53877">
        <ele>1295</ele>
        <time>2010-01-01T01:25:25Z</time>
      </trkpt>
      <trkpt lat="44.74852" lon="6.53894">
        <ele>1294</ele>
        <time>2010-01-01T01:25:28Z</time>
      </trkpt>
      <trkpt lat="44.7485" lon="6.53907">
        <ele>1294</ele>
        <time>2010-01-01T01:25:30Z</time>
      </trkpt>
      <trkpt lat="44.74849" lon="6.53916">
        <ele>1294</ele>
        <time>2010-01-01T01:25:32Z</time>
      </trkpt>
      <trkpt lat="44.7485" lon="6.53904">
        <ele>1294</ele>
        <time>2010-01-01T01:25:34Z</time>
      </trkpt>
      <trkpt lat="44.74852" lon="6.53902">
        <ele>1294</ele>
        <time>2010-01-01T01:25:35Z</time>
      </trkpt>
      <trkpt lat="44.74855" lon="6.5389">
        <ele>1294</ele>
        <time>2010-01-01T01:25:37Z</time>
      </trkpt>
      <trkpt lat="44.74852" lon="6.53871">
        <ele>1297</ele>
        <time>2010-01-01T01:25:41Z</time>
      </trkpt>
      <trkpt lat="44.74849" lon="6.53857">
        <ele>1300</ele>
        <time>2010-01-01T01:25:44Z</time>
      </trkpt>
      <trkpt lat="44.74845" lon="6.53835">
        <ele>1303</ele>
        <time>2010-01-01T01:25:48Z</time>
      </trkpt>
      <trkpt lat="44.74839" lon="6.53819">
        <ele>1306</ele>
        <time>2010-01-01T01:25:51Z</time>
      </trkpt>
      <trkpt lat="44.74829" lon="6.538">
        <ele>1311</ele>
        <time>2010-01-01T01:25:56Z</time>
      </trkpt>
      <trkpt lat="44.7483" lon="6.53782">
        <ele>1310</ele>
        <time>2010-01-01T01:25:59Z</time>
      </trkpt>
      <trkpt lat="44.74831" lon="6.53768">
        <ele>1310</ele>
        <time>2010-01-01T01:26:02Z</time>
      </trkpt>
      <trkpt lat="44.74837" lon="6.5375">
        <ele>1308</ele>
        <time>2010-01-01T01:26:06Z</time>
      </trkpt>
      <trkpt lat="44.74834" lon="6.53732">
        <ele>1310</ele>
        <time>2010-01-01T01:26:09Z</time>
      </trkpt>
      <trkpt lat="44.74831" lon="6.53713">
        <ele>1312</ele>
        <time>2010-01-01T01:26:13Z</time>
      </trkpt>
      <trkpt lat="44.74831" lon="6.53708">
        <ele>1312</ele>
        <time>2010-01-01T01:26:14Z</time>
      </trkpt>
      <trkpt lat="44.74822" lon="6.53687">
        <ele>1318</ele>
        <time>2010-01-01T01:26:18Z</time>
      </trkpt>
      <trkpt lat="44.74812" lon="6.53669">
        <ele>1324</ele>
        <time>2010-01-01T01:26:23Z</time>
      </trkpt>
      <trkpt lat="44.74805" lon="6.53652">
        <ele>1327</ele>
        <time>2010-01-01T01:26:26Z</time>
      </trkpt>
      <trkpt lat="44.74796" lon="6.53636">
        <ele>1332</ele>
        <time>2010-01-01T01:26:30Z</time>
      </trkpt>
      <trkpt lat="44.74794" lon="6.53633">
        <ele>1334</ele>
        <time>2010-01-01T01:26:31Z</time>
      </trkpt>
      <trkpt lat="44.74788" lon="6.53624">
        <ele>1337</ele>
        <time>2010-01-01T01:26:33Z</time>
      </trkpt>
      <trkpt lat="44.74778" lon="6.53609">
        <ele>1342</ele>
        <time>2010-01-01T01:26:37Z</time>
      </trkpt>
      <trkpt lat="44.74771" lon="6.53598">
        <ele>1347</ele>
        <time>2010-01-01T01:26:40Z</time>
      </trkpt>
      <trkpt lat="44.74768" lon="6.53586">
        <ele>1349</ele>
        <time>2010-01-01T01:26:42Z</time>
      </trkpt>
      <trkpt lat="44.74763" lon="6.5357">
        <ele>1351</ele>
        <time>2010-01-01T01:26:46Z</time>
      </trkpt>
      <trkpt lat="44.74755" lon="6.5356">
        <ele>1356</ele>
        <time>2010-01-01T01:26:49Z</time>
      </trkpt>
      <trkpt lat="44.74747" lon="6.53548">
        <ele>1361</ele>
        <time>2010-01-01T01:26:52Z</time>
      </trkpt>
      <trkpt lat="44.74747" lon="6.53546">
        <ele>1361</ele>
        <time>2010-01-01T01:26:52Z</time>
      </trkpt>
      <trkpt lat="44.74742" lon="6.53528">
        <ele>1366</ele>
        <time>2010-01-01T01:26:56Z</time>
      </trkpt>
      <trkpt lat="44.74738" lon="6.53517">
        <ele>1369</ele>
        <time>2010-01-01T01:26:58Z</time>
      </trkpt>
      <trkpt lat="44.74739" lon="6.53505">
        <ele>1368</ele>
        <time>2010-01-01T01:27:00Z</time>
      </trkpt>
      <trkpt lat="44.74735" lon="6.53491">
        <ele>1371</ele>
        <time>2010-01-01T01:27:03Z</time>
      </trkpt>
      <trkpt lat="44.74737" lon="6.53473">
        <ele>1372</ele>
        <time>2010-01-01T01:27:07Z</time>
      </trkpt>
      <trkpt lat="44.74737" lon="6.53471">
        <ele>1372</ele>
        <time>2010-01-01T01:27:07Z</time>
      </trkpt>
      <trkpt lat="44.74753" lon="6.5346">
        <ele>1368</ele>
        <time>2010-01-01T01:27:12Z</time>
      </trkpt>
      <trkpt lat="44.7478" lon="6.53457">
        <ele>1357</ele>
        <time>2010-01-01T01:27:19Z</time>
      </trkpt>
      <trkpt lat="44.74784" lon="6.53455">
        <ele>1355</ele>
        <time>2010-01-01T01:27:20Z</time>
      </trkpt>
      <trkpt lat="44.748" lon="6.53439">
        <ele>1351</ele>
        <time>2010-01-01T01:27:25Z</time>
      </trkpt>
      <trkpt lat="44.74811" lon="6.53433">
        <ele>1347</ele>
        <time>2010-01-01T01:27:28Z</time>
      </trkpt>
      <trkpt lat="44.74814" lon="6.53423">
        <ele>1348</ele>
        <time>2010-01-01T01:27:31Z</time>
      </trkpt>
      <trkpt lat="44.74815" lon="6.53412">
        <ele>1350</ele>
        <time>2010-01-01T01:27:33Z</time>
      </trkpt>
      <trkpt lat="44.74818" lon="6.53405">
        <ele>1350</ele>
        <time>2010-01-01T01:27:34Z</time>
      </trkpt>
      <trkpt lat="44.74818" lon="6.53391">
        <ele>1351</ele>
        <time>2010-01-01T01:27:37Z</time>
      </trkpt>
      <trkpt lat="44.74815" lon="6.53379">
        <ele>1354</ele>
        <time>2010-01-01T01:27:39Z</time>
      </trkpt>
      <trkpt lat="44.74815" lon="6.53377">
        <ele>1354</ele>
        <time>2010-01-01T01:27:40Z</time>
      </trkpt>
      <trkpt lat="44.74813" lon="6.53367">
        <ele>1356</ele>
        <time>2010-01-01T01:27:42Z</time>
      </trkpt>
      <trkpt lat="44.7481" lon="6.53351">
        <ele>1358</ele>
        <time>2010-01-01T01:27:45Z</time>
      </trkpt>
      <trkpt lat="44.7481" lon="6.53344">
        <ele>1359</ele>
        <time>2010-01-01T01:27:46Z</time>
      </trkpt>
      <trkpt lat="44.74809" lon="6.5333">
        <ele>1360</ele>
        <time>2010-01-01T01:27:49Z</time>
      </trkpt>
      <trkpt lat="44.74807" lon="6.53314">
        <ele>1361</ele>
        <time>2010-01-01T01:27:52Z</time>
      </trkpt>
      <trkpt lat="44.74804" lon="6.53305">
        <ele>1362</ele>
        <time>2010-01-01T01:27:54Z</time>
      </trkpt>
      <trkpt lat="44.74802" lon="6.53288">
        <ele>1362</ele>
        <time>2010-01-01T01:27:57Z</time>
      </trkpt>
      <trkpt lat="44.748" lon="6.53274">
        <ele>1362</ele>
        <time>2010-01-01T01:28:00Z</time>
      </trkpt>
      <trkpt lat="44.74802" lon="6.53271">
        <ele>1362</ele>
        <time>2010-01-01T01:28:00Z</time>
      </trkpt>
      <trkpt lat="44.74806" lon="6.53261">
        <ele>1359</ele>
        <time>2010-01-01T01:28:03Z</time>
      </trkpt>
      <trkpt lat="44.74807" lon="6.53252">
        <ele>1358</ele>
        <time>2010-01-01T01:28:04Z</time>
      </trkpt>
      <trkpt lat="44.74807" lon="6.53239">
        <ele>1357</ele>
        <time>2010-01-01T01:28:07Z</time>
      </trkpt>
      <trkpt lat="44.74809" lon="6.53237">
        <ele>1356</ele>
        <time>2010-01-01T01:28:07Z</time>
      </trkpt>
      <trkpt lat="44.74817" lon="6.53222">
        <ele>1352</ele>
        <time>2010-01-01T01:28:11Z</time>
      </trkpt>
      <trkpt lat="44.74814" lon="6.53211">
        <ele>1355</ele>
        <time>2010-01-01T01:28:13Z</time>
      </trkpt>
      <trkpt lat="44.74812" lon="6.53208">
        <ele>1357</ele>
        <time>2010-01-01T01:28:14Z</time>
      </trkpt>
      <trkpt lat="44.74803" lon="6.53215">
        <ele>1361</ele>
        <time>2010-01-01T01:28:17Z</time>
      </trkpt>
      <trkpt lat="44.748" lon="6.53219">
        <ele>1362</ele>
        <time>2010-01-01T01:28:18Z</time>
      </trkpt>
      <trkpt lat="44.74799" lon="6.53228">
        <ele>1363</ele>
        <time>2010-01-01T01:28:20Z</time>
      </trkpt>
      <trkpt lat="44.74788" lon="6.5324">
        <ele>1369</ele>
        <time>2010-01-01T01:28:23Z</time>
      </trkpt>
      <trkpt lat="44.74781" lon="6.53248">
        <ele>1374</ele>
        <time>2010-01-01T01:28:26Z</time>
      </trkpt>
      <trkpt lat="44.74776" lon="6.53256">
        <ele>1376</ele>
        <time>2010-01-01T01:28:28Z</time>
      </trkpt>
      <trkpt lat="44.74771" lon="6.53268">
        <ele>1378</ele>
        <time>2010-01-01T01:28:30Z</time>
      </trkpt>
      <trkpt lat="44.74769" lon="6.53274">
        <ele>1379</ele>
        <time>2010-01-01T01:28:32Z</time>
      </trkpt>
      <trkpt lat="44.74767" lon="6.5329">
        <ele>1379</ele>
        <time>2010-01-01T01:28:35Z</time>
      </trkpt>
      <trkpt lat="44.74766" lon="6.53298">
        <ele>1380</ele>
        <time>2010-01-01T01:28:36Z</time>
      </trkpt>
      <trkpt lat="44.74763" lon="6.53305">
        <ele>1381</ele>
        <time>2010-01-01T01:28:38Z</time>
      </trkpt>
      <trkpt lat="44.74759" lon="6.53313">
        <ele>1382</ele>
        <time>2010-01-01T01:28:39Z</time>
      </trkpt>
      <trkpt lat="44.74749" lon="6.53323">
        <ele>1385</ele>
        <time>2010-01-01T01:28:43Z</time>
      </trkpt>
      <trkpt lat="44.74747" lon="6.53324">
        <ele>1386</ele>
        <time>2010-01-01T01:28:43Z</time>
      </trkpt>
      <trkpt lat="44.74739" lon="6.53336">
        <ele>1388</ele>
        <time>2010-01-01T01:28:46Z</time>
      </trkpt>
      <trkpt lat="44.74735" lon="6.53345">
        <ele>1388</ele>
        <time>2010-01-01T01:28:49Z</time>
      </trkpt>
      <trkpt lat="44.74732" lon="6.53352">
        <ele>1388</ele>
        <time>2010-01-01T01:28:50Z</time>
      </trkpt>
      <trkpt lat="44.74731" lon="6.53355">
        <ele>1388</ele>
        <time>2010-01-01T01:28:51Z</time>
      </trkpt>
      <trkpt lat="44.74727" lon="6.53368">
        <ele>1387</ele>
        <time>2010-01-01T01:28:53Z</time>
      </trkpt>
      <trkpt lat="44.74715" lon="6.53379">
        <ele>1391</ele>
        <time>2010-01-01T01:28:57Z</time>
      </trkpt>
      <trkpt lat="44.74709" lon="6.5339">
        <ele>1393</ele>
        <time>2010-01-01T01:29:00Z</time>
      </trkpt>
      <trkpt lat="44.74708" lon="6.53401">
        <ele>1392</ele>
        <time>2010-01-01T01:29:02Z</time>
      </trkpt>
      <trkpt lat="44.74708" lon="6.53403">
        <ele>1392</ele>
        <time>2010-01-01T01:29:02Z</time>
      </trkpt>
      <trkpt lat="44.74711" lon="6.53417">
        <ele>1389</ele>
        <time>2010-01-01T01:29:05Z</time>
      </trkpt>
      <trkpt lat="44.74711" lon="6.5342">
        <ele>1389</ele>
        <time>2010-01-01T01:29:06Z</time>
      </trkpt>
      <trkpt lat="44.74711" lon="6.53425">
        <ele>1388</ele>
        <time>2010-01-01T01:29:07Z</time>
      </trkpt>
      <trkpt lat="44.74714" lon="6.53437">
        <ele>1386</ele>
        <time>2010-01-01T01:29:09Z</time>
      </trkpt>
      <trkpt lat="44.74715" lon="6.53442">
        <ele>1385</ele>
        <time>2010-01-01T01:29:10Z</time>
      </trkpt>
      <trkpt lat="44.74711" lon="6.53454">
        <ele>1386</ele>
        <time>2010-01-01T01:29:13Z</time>
      </trkpt>
      <trkpt lat="44.74708" lon="6.53458">
        <ele>1387</ele>
        <time>2010-01-01T01:29:14Z</time>
      </trkpt>
      <trkpt lat="44.74697" lon="6.53468">
        <ele>1392</ele>
        <time>2010-01-01T01:29:17Z</time>
      </trkpt>
      <trkpt lat="44.74693" lon="6.53478">
        <ele>1395</ele>
        <time>2010-01-01T01:29:19Z</time>
      </trkpt>
      <trkpt lat="44.74687" lon="6.5349">
        <ele>1399</ele>
        <time>2010-01-01T01:29:22Z</time>
      </trkpt>
      <trkpt lat="44.74683" lon="6.53498">
        <ele>1401</ele>
        <time>2010-01-01T01:29:24Z</time>
      </trkpt>
      <trkpt lat="44.74678" lon="6.53496">
        <ele>1404</ele>
        <time>2010-01-01T01:29:25Z</time>
      </trkpt>
      <trkpt lat="44.74676" lon="6.53486">
        <ele>1406</ele>
        <time>2010-01-01T01:29:27Z</time>
      </trkpt>
      <trkpt lat="44.74675" lon="6.53459">
        <ele>1406</ele>
        <time>2010-01-01T01:29:32Z</time>
      </trkpt>
      <trkpt lat="44.74675" lon="6.53451">
        <ele>1407</ele>
        <time>2010-01-01T01:29:34Z</time>
      </trkpt>
      <trkpt lat="44.74672" lon="6.53438">
        <ele>1408</ele>
        <time>2010-01-01T01:29:37Z</time>
      </trkpt>
      <trkpt lat="44.74667" lon="6.5343">
        <ele>1411</ele>
        <time>2010-01-01T01:29:39Z</time>
      </trkpt>
      <trkpt lat="44.74655" lon="6.53415">
        <ele>1418</ele>
        <time>2010-01-01T01:29:43Z</time>
      </trkpt>
      <trkpt lat="44.74654" lon="6.53413">
        <ele>1419</ele>
        <time>2010-01-01T01:29:43Z</time>
      </trkpt>
      <trkpt lat="44.74646" lon="6.53403">
        <ele>1423</ele>
        <time>2010-01-01T01:29:46Z</time>
      </trkpt>
      <trkpt lat="44.74644" lon="6.53398">
        <ele>1424</ele>
        <time>2010-01-01T01:29:47Z</time>
      </trkpt>
      <trkpt lat="44.74632" lon="6.53384">
        <ele>1431</ele>
        <time>2010-01-01T01:29:51Z</time>
      </trkpt>
      <trkpt lat="44.74629" lon="6.5338">
        <ele>1434</ele>
        <time>2010-01-01T01:29:53Z</time>
      </trkpt>
      <trkpt lat="44.74623" lon="6.53365">
        <ele>1438</ele>
        <time>2010-01-01T01:29:56Z</time>
      </trkpt>
      <trkpt lat="44.74628" lon="6.53348">
        <ele>1437</ele>
        <time>2010-01-01T01:29:59Z</time>
      </trkpt>
      <trkpt lat="44.74629" lon="6.53346">
        <ele>1436</ele>
        <time>2010-01-01T01:30:00Z</time>
      </trkpt>
      <trkpt lat="44.74635" lon="6.53332">
        <ele>1433</ele>
        <time>2010-01-01T01:30:03Z</time>
      </trkpt>
      <trkpt lat="44.74636" lon="6.5332">
        <ele>1433</ele>
        <time>2010-01-01T01:30:05Z</time>
      </trkpt>
      <trkpt lat="44.74654" lon="6.53307">
        <ele>1426</ele>
        <time>2010-01-01T01:30:11Z</time>
      </trkpt>
      <trkpt lat="44.74669" lon="6.53292">
        <ele>1423</ele>
        <time>2010-01-01T01:30:15Z</time>
      </trkpt>
      <trkpt lat="44.74668" lon="6.53282">
        <ele>1425</ele>
        <time>2010-01-01T01:30:17Z</time>
      </trkpt>
      <trkpt lat="44.74672" lon="6.5327">
        <ele>1424</ele>
        <time>2010-01-01T01:30:20Z</time>
      </trkpt>
      <trkpt lat="44.74671" lon="6.53256">
        <ele>1426</ele>
        <time>2010-01-01T01:30:22Z</time>
      </trkpt>
      <trkpt lat="44.74668" lon="6.53247">
        <ele>1428</ele>
        <time>2010-01-01T01:30:24Z</time>
      </trkpt>
      <trkpt lat="44.74662" lon="6.53241">
        <ele>1430</ele>
        <time>2010-01-01T01:30:26Z</time>
      </trkpt>
      <trkpt lat="44.74661" lon="6.53218">
        <ele>1432</ele>
        <time>2010-01-01T01:30:31Z</time>
      </trkpt>
      <trkpt lat="44.74662" lon="6.53202">
        <ele>1433</ele>
        <time>2010-01-01T01:30:34Z</time>
      </trkpt>
      <trkpt lat="44.74662" lon="6.53184">
        <ele>1434</ele>
        <time>2010-01-01T01:30:37Z</time>
      </trkpt>
      <trkpt lat="44.74664" lon="6.5317">
        <ele>1434</ele>
        <time>2010-01-01T01:30:40Z</time>
      </trkpt>
      <trkpt lat="44.74663" lon="6.53151">
        <ele>1434</ele>
        <time>2010-01-01T01:30:43Z</time>
      </trkpt>
      <trkpt lat="44.74657" lon="6.53135">
        <ele>1437</ele>
        <time>2010-01-01T01:30:47Z</time>
      </trkpt>
      <trkpt lat="44.74657" lon="6.53122">
        <ele>1436</ele>
        <time>2010-01-01T01:30:49Z</time>
      </trkpt>
      <trkpt lat="44.74648" lon="6.53105">
        <ele>1439</ele>
        <time>2010-01-01T01:30:53Z</time>
      </trkpt>
      <trkpt lat="44.74646" lon="6.53094">
        <ele>1439</ele>
        <time>2010-01-01T01:30:55Z</time>
      </trkpt>
      <trkpt lat="44.7464" lon="6.53087">
        <ele>1440</ele>
        <time>2010-01-01T01:30:58Z</time>
      </trkpt>
      <trkpt lat="44.74638" lon="6.5309">
        <ele>1441</ele>
        <time>2010-01-01T01:30:58Z</time>
      </trkpt>
      <trkpt lat="44.74636" lon="6.53094">
        <ele>1443</ele>
        <time>2010-01-01T01:30:59Z</time>
      </trkpt>
      <trkpt lat="44.74636" lon="6.53105">
        <ele>1444</ele>
        <time>2010-01-01T01:31:01Z</time>
      </trkpt>
      <trkpt lat="44.74633" lon="6.53113">
        <ele>1446</ele>
        <time>2010-01-01T01:31:03Z</time>
      </trkpt>
      <trkpt lat="44.74632" lon="6.53135">
        <ele>1447</ele>
        <time>2010-01-01T01:31:07Z</time>
      </trkpt>
      <trkpt lat="44.74631" lon="6.53145">
        <ele>1448</ele>
        <time>2010-01-01T01:31:09Z</time>
      </trkpt>
      <trkpt lat="44.74628" lon="6.53162">
        <ele>1449</ele>
        <time>2010-01-01T01:31:12Z</time>
      </trkpt>
      <trkpt lat="44.74626" lon="6.53166">
        <ele>1450</ele>
        <time>2010-01-01T01:31:13Z</time>
      </trkpt>
      <trkpt lat="44.74623" lon="6.53183">
        <ele>1450</ele>
        <time>2010-01-01T01:31:17Z</time>
      </trkpt>
      <trkpt lat="44.74615" lon="6.53192">
        <ele>1453</ele>
        <time>2010-01-01T01:31:19Z</time>
      </trkpt>
      <trkpt lat="44.74607" lon="6.53202">
        <ele>1456</ele>
        <time>2010-01-01T01:31:22Z</time>
      </trkpt>
      <trkpt lat="44.74607" lon="6.53204">
        <ele>1455</ele>
        <time>2010-01-01T01:31:22Z</time>
      </trkpt>
      <trkpt lat="44.74603" lon="6.53205">
        <ele>1457</ele>
        <time>2010-01-01T01:31:23Z</time>
      </trkpt>
      <trkpt lat="44.74603" lon="6.53201">
        <ele>1457</ele>
        <time>2010-01-01T01:31:24Z</time>
      </trkpt>
      <trkpt lat="44.74604" lon="6.53198">
        <ele>1457</ele>
        <time>2010-01-01T01:31:25Z</time>
      </trkpt>
      <trkpt lat="44.74611" lon="6.53181">
        <ele>1455</ele>
        <time>2010-01-01T01:31:28Z</time>
      </trkpt>
      <trkpt lat="44.74603" lon="6.53161">
        <ele>1459</ele>
        <time>2010-01-01T01:31:33Z</time>
      </trkpt>
      <trkpt lat="44.74601" lon="6.53143">
        <ele>1459</ele>
        <time>2010-01-01T01:31:36Z</time>
      </trkpt>
      <trkpt lat="44.74607" lon="6.53131">
        <ele>1457</ele>
        <time>2010-01-01T01:31:39Z</time>
      </trkpt>
      <trkpt lat="44.74604" lon="6.53127">
        <ele>1457</ele>
        <time>2010-01-01T01:31:40Z</time>
      </trkpt>
      <trkpt lat="44.74606" lon="6.53119">
        <ele>1456</ele>
        <time>2010-01-01T01:31:41Z</time>
      </trkpt>
      <trkpt lat="44.74603" lon="6.53114">
        <ele>1457</ele>
        <time>2010-01-01T01:31:43Z</time>
      </trkpt>
      <trkpt lat="44.74602" lon="6.53105">
        <ele>1457</ele>
        <time>2010-01-01T01:31:44Z</time>
      </trkpt>
      <trkpt lat="44.74594" lon="6.53098">
        <ele>1460</ele>
        <time>2010-01-01T01:31:47Z</time>
      </trkpt>
      <trkpt lat="44.7459" lon="6.53088">
        <ele>1461</ele>
        <time>2010-01-01T01:31:49Z</time>
      </trkpt>
      <trkpt lat="44.74587" lon="6.53084">
        <ele>1461</ele>
        <time>2010-01-01T01:31:50Z</time>
      </trkpt>
      <trkpt lat="44.74575" lon="6.53082">
        <ele>1466</ele>
        <time>2010-01-01T01:31:53Z</time>
      </trkpt>
      <trkpt lat="44.74571" lon="6.53086">
        <ele>1468</ele>
        <time>2010-01-01T01:31:55Z</time>
      </trkpt>
      <trkpt lat="44.74569" lon="6.53095">
        <ele>1469</ele>
        <time>2010-01-01T01:31:56Z</time>
      </trkpt>
      <trkpt lat="44.74569" lon="6.53113">
        <ele>1471</ele>
        <time>2010-01-01T01:32:00Z</time>
      </trkpt>
      <trkpt lat="44.74567" lon="6.53124">
        <ele>1473</ele>
        <time>2010-01-01T01:32:02Z</time>
      </trkpt>
      <trkpt lat="44.74551" lon="6.53135">
        <ele>1479</ele>
        <time>2010-01-01T01:32:07Z</time>
      </trkpt>
      <trkpt lat="44.7454" lon="6.53144">
        <ele>1482</ele>
        <time>2010-01-01T01:32:10Z</time>
      </trkpt>
      <trkpt lat="44.74528" lon="6.53158">
        <ele>1485</ele>
        <time>2010-01-01T01:32:14Z</time>
      </trkpt>
      <trkpt lat="44.74521" lon="6.53167">
        <ele>1488</ele>
        <time>2010-01-01T01:32:17Z</time>
      </trkpt>
      <trkpt lat="44.74519" lon="6.53167">
        <ele>1489</ele>
        <time>2010-01-01T01:32:17Z</time>
      </trkpt>
      <trkpt lat="44.74516" lon="6.53165">
        <ele>1490</ele>
        <time>2010-01-01T01:32:18Z</time>
      </trkpt>
      <trkpt lat="44.74517" lon="6.5315">
        <ele>1490</ele>
        <time>2010-01-01T01:32:21Z</time>
      </trkpt>
      <trkpt lat="44.74522" lon="6.53135">
        <ele>1488</ele>
        <time>2010-01-01T01:32:24Z</time>
      </trkpt>
      <trkpt lat="44.74522" lon="6.5312">
        <ele>1489</ele>
        <time>2010-01-01T01:32:27Z</time>
      </trkpt>
      <trkpt lat="44.74515" lon="6.53108">
        <ele>1493</ele>
        <time>2010-01-01T01:32:30Z</time>
      </trkpt>
      <trkpt lat="44.74507" lon="6.53098">
        <ele>1498</ele>
        <time>2010-01-01T01:32:33Z</time>
      </trkpt>
      <trkpt lat="44.74499" lon="6.53092">
        <ele>1502</ele>
        <time>2010-01-01T01:32:35Z</time>
      </trkpt>
      <trkpt lat="44.74496" lon="6.53086">
        <ele>1503</ele>
        <time>2010-01-01T01:32:37Z</time>
      </trkpt>
      <trkpt lat="44.74488" lon="6.53072">
        <ele>1508</ele>
        <time>2010-01-01T01:32:40Z</time>
      </trkpt>
      <trkpt lat="44.74488" lon="6.5307">
        <ele>1508</ele>
        <time>2010-01-01T01:32:40Z</time>
      </trkpt>
      <trkpt lat="44.74494" lon="6.53057">
        <ele>1507</ele>
        <time>2010-01-01T01:32:43Z</time>
      </trkpt>
      <trkpt lat="44.745" lon="6.53035">
        <ele>1505</ele>
        <time>2010-01-01T01:32:48Z</time>
      </trkpt>
      <trkpt lat="44.74505" lon="6.53023">
        <ele>1501</ele>
        <time>2010-01-01T01:32:50Z</time>
      </trkpt>
      <trkpt lat="44.74502" lon="6.53009">
        <ele>1503</ele>
        <time>2010-01-01T01:32:53Z</time>
      </trkpt>
      <trkpt lat="44.74498" lon="6.52995">
        <ele>1504</ele>
        <time>2010-01-01T01:32:56Z</time>
      </trkpt>
      <trkpt lat="44.74492" lon="6.52983">
        <ele>1506</ele>
        <time>2010-01-01T01:32:59Z</time>
      </trkpt>
      <trkpt lat="44.74486" lon="6.52972">
        <ele>1508</ele>
        <time>2010-01-01T01:33:01Z</time>
      </trkpt>
      <trkpt lat="44.74481" lon="6.5296">
        <ele>1509</ele>
        <time>2010-01-01T01:33:04Z</time>
      </trkpt>
      <trkpt lat="44.74474" lon="6.5295">
        <ele>1511</ele>
        <time>2010-01-01T01:33:07Z</time>
      </trkpt>
      <trkpt lat="44.74474" lon="6.52941">
        <ele>1511</ele>
        <time>2010-01-01T01:33:08Z</time>
      </trkpt>
      <trkpt lat="44.74474" lon="6.52935">
        <ele>1510</ele>
        <time>2010-01-01T01:33:10Z</time>
      </trkpt>
      <trkpt lat="44.7448" lon="6.52931">
        <ele>1508</ele>
        <time>2010-01-01T01:33:11Z</time>
      </trkpt>
      <trkpt lat="44.74481" lon="6.52929">
        <ele>1507</ele>
        <time>2010-01-01T01:33:12Z</time>
      </trkpt>
      <trkpt lat="44.74483" lon="6.52918">
        <ele>1507</ele>
        <time>2010-01-01T01:33:14Z</time>
      </trkpt>
      <trkpt lat="44.74485" lon="6.52902">
        <ele>1509</ele>
        <time>2010-01-01T01:33:17Z</time>
      </trkpt>
      <trkpt lat="44.74487" lon="6.52889">
        <ele>1511</ele>
        <time>2010-01-01T01:33:20Z</time>
      </trkpt>
      <trkpt lat="44.74492" lon="6.52877">
        <ele>1511</ele>
        <time>2010-01-01T01:33:22Z</time>
      </trkpt>
      <trkpt lat="44.74498" lon="6.52866">
        <ele>1511</ele>
        <time>2010-01-01T01:33:25Z</time>
      </trkpt>
      <trkpt lat="44.74504" lon="6.52856">
        <ele>1511</ele>
        <time>2010-01-01T01:33:27Z</time>
      </trkpt>
      <trkpt lat="44.74509" lon="6.52845">
        <ele>1512</ele>
        <time>2010-01-01T01:33:30Z</time>
      </trkpt>
      <trkpt lat="44.74516" lon="6.52829">
        <ele>1513</ele>
        <time>2010-01-01T01:33:33Z</time>
      </trkpt>
      <trkpt lat="44.74521" lon="6.52814">
        <ele>1514</ele>
        <time>2010-01-01T01:33:36Z</time>
      </trkpt>
      <trkpt lat="44.74527" lon="6.52804">
        <ele>1514</ele>
        <time>2010-01-01T01:33:39Z</time>
      </trkpt>
      <trkpt lat="44.74531" lon="6.52786">
        <ele>1517</ele>
        <time>2010-01-01T01:33:42Z</time>
      </trkpt>
      <trkpt lat="44.74537" lon="6.52771">
        <ele>1519</ele>
        <time>2010-01-01T01:33:46Z</time>
      </trkpt>
      <trkpt lat="44.74548" lon="6.52752">
        <ele>1521</ele>
        <time>2010-01-01T01:33:50Z</time>
      </trkpt>
      <trkpt lat="44.74553" lon="6.52739">
        <ele>1523</ele>
        <time>2010-01-01T01:33:53Z</time>
      </trkpt>
      <trkpt lat="44.74553" lon="6.52729">
        <ele>1525</ele>
        <time>2010-01-01T01:33:55Z</time>
      </trkpt>
      <trkpt lat="44.74557" lon="6.52715">
        <ele>1527</ele>
        <time>2010-01-01T01:33:58Z</time>
      </trkpt>
      <trkpt lat="44.74561" lon="6.52699">
        <ele>1529</ele>
        <time>2010-01-01T01:34:01Z</time>
      </trkpt>
      <trkpt lat="44.74569" lon="6.52683">
        <ele>1531</ele>
        <time>2010-01-01T01:34:05Z</time>
      </trkpt>
      <trkpt lat="44.74578" lon="6.52669">
        <ele>1532</ele>
        <time>2010-01-01T01:34:08Z</time>
      </trkpt>
      <trkpt lat="44.74578" lon="6.52665">
        <ele>1534</ele>
        <time>2010-01-01T01:34:09Z</time>
      </trkpt>
      <trkpt lat="44.74574" lon="6.52659">
        <ele>1537</ele>
        <time>2010-01-01T01:34:11Z</time>
      </trkpt>
      <trkpt lat="44.74566" lon="6.52659">
        <ele>1538</ele>
        <time>2010-01-01T01:34:13Z</time>
      </trkpt>
      <trkpt lat="44.74556" lon="6.52669">
        <ele>1538</ele>
        <time>2010-01-01T01:34:16Z</time>
      </trkpt>
      <trkpt lat="44.74553" lon="6.52677">
        <ele>1536</ele>
        <time>2010-01-01T01:34:18Z</time>
      </trkpt>
      <trkpt lat="44.7455" lon="6.52687">
        <ele>1534</ele>
        <time>2010-01-01T01:34:20Z</time>
      </trkpt>
      <trkpt lat="44.74541" lon="6.52694">
        <ele>1534</ele>
        <time>2010-01-01T01:34:23Z</time>
      </trkpt>
      <trkpt lat="44.74533" lon="6.52701">
        <ele>1535</ele>
        <time>2010-01-01T01:34:25Z</time>
      </trkpt>
      <trkpt lat="44.74522" lon="6.52707">
        <ele>1536</ele>
        <time>2010-01-01T01:34:29Z</time>
      </trkpt>
      <trkpt lat="44.74512" lon="6.52711">
        <ele>1537</ele>
        <time>2010-01-01T01:34:31Z</time>
      </trkpt>
      <trkpt lat="44.74504" lon="6.52715">
        <ele>1538</ele>
        <time>2010-01-01T01:34:34Z</time>
      </trkpt>
      <trkpt lat="44.74486" lon="6.52715">
        <ele>1543</ele>
        <time>2010-01-01T01:34:38Z</time>
      </trkpt>
      <trkpt lat="44.74475" lon="6.52719">
        <ele>1545</ele>
        <time>2010-01-01T01:34:41Z</time>
      </trkpt>
      <trkpt lat="44.74466" lon="6.52731">
        <ele>1545</ele>
        <time>2010-01-01T01:34:45Z</time>
      </trkpt>
      <trkpt lat="44.74459" lon="6.52738">
        <ele>1546</ele>
        <time>2010-01-01T01:34:47Z</time>
      </trkpt>
      <trkpt lat="44.74452" lon="6.52751">
        <ele>1547</ele>
        <time>2010-01-01T01:34:50Z</time>
      </trkpt>
      <trkpt lat="44.74445" lon="6.52764">
        <ele>1549</ele>
        <time>2010-01-01T01:34:53Z</time>
      </trkpt>
      <trkpt lat="44.74438" lon="6.52769">
        <ele>1552</ele>
        <time>2010-01-01T01:34:55Z</time>
      </trkpt>
      <trkpt lat="44.74423" lon="6.52776">
        <ele>1558</ele>
        <time>2010-01-01T01:34:59Z</time>
      </trkpt>
      <trkpt lat="44.74416" lon="6.52786">
        <ele>1562</ele>
        <time>2010-01-01T01:35:02Z</time>
      </trkpt>
      <trkpt lat="44.74416" lon="6.52792">
        <ele>1561</ele>
        <time>2010-01-01T01:35:03Z</time>
      </trkpt>
      <trkpt lat="44.74417" lon="6.5279">
        <ele>1560</ele>
        <time>2010-01-01T01:35:04Z</time>
      </trkpt>
      <trkpt lat="44.7442" lon="6.5278">
        <ele>1560</ele>
        <time>2010-01-01T01:35:06Z</time>
      </trkpt>
      <trkpt lat="44.74426" lon="6.52759">
        <ele>1559</ele>
        <time>2010-01-01T01:35:10Z</time>
      </trkpt>
      <trkpt lat="44.74432" lon="6.52737">
        <ele>1560</ele>
        <time>2010-01-01T01:35:15Z</time>
      </trkpt>
      <trkpt lat="44.74436" lon="6.52717">
        <ele>1561</ele>
        <time>2010-01-01T01:35:19Z</time>
      </trkpt>
      <trkpt lat="44.74442" lon="6.52696">
        <ele>1563</ele>
        <time>2010-01-01T01:35:23Z</time>
      </trkpt>
      <trkpt lat="44.74451" lon="6.52679">
        <ele>1566</ele>
        <time>2010-01-01T01:35:27Z</time>
      </trkpt>
      <trkpt lat="44.74458" lon="6.52663">
        <ele>1569</ele>
        <time>2010-01-01T01:35:30Z</time>
      </trkpt>
      <trkpt lat="44.74464" lon="6.52643">
        <ele>1573</ele>
        <time>2010-01-01T01:35:34Z</time>
      </trkpt>
      <trkpt lat="44.74472" lon="6.5263">
        <ele>1574</ele>
        <time>2010-01-01T01:35:38Z</time>
      </trkpt>
      <trkpt lat="44.74477" lon="6.5263">
        <ele>1573</ele>
        <time>2010-01-01T01:35:39Z</time>
      </trkpt>
      <trkpt lat="44.74492" lon="6.52617">
        <ele>1573</ele>
        <time>2010-01-01T01:35:44Z</time>
      </trkpt>
      <trkpt lat="44.74498" lon="6.52604">
        <ele>1574</ele>
        <time>2010-01-01T01:35:47Z</time>
      </trkpt>
      <trkpt lat="44.74508" lon="6.52593">
        <ele>1575</ele>
        <time>2010-01-01T01:35:50Z</time>
      </trkpt>
      <trkpt lat="44.74512" lon="6.52592">
        <ele>1574</ele>
        <time>2010-01-01T01:35:51Z</time>
      </trkpt>
      <trkpt lat="44.74519" lon="6.52587">
        <ele>1574</ele>
        <time>2010-01-01T01:35:53Z</time>
      </trkpt>
      <trkpt lat="44.74525" lon="6.52578">
        <ele>1576</ele>
        <time>2010-01-01T01:35:56Z</time>
      </trkpt>
      <trkpt lat="44.74535" lon="6.52565">
        <ele>1579</ele>
        <time>2010-01-01T01:35:59Z</time>
      </trkpt>
      <trkpt lat="44.74543" lon="6.52544">
        <ele>1584</ele>
        <time>2010-01-01T01:36:04Z</time>
      </trkpt>
      <trkpt lat="44.74552" lon="6.52526">
        <ele>1589</ele>
        <time>2010-01-01T01:36:08Z</time>
      </trkpt>
      <trkpt lat="44.74562" lon="6.5251">
        <ele>1589</ele>
        <time>2010-01-01T01:36:12Z</time>
      </trkpt>
      <trkpt lat="44.7457" lon="6.52502">
        <ele>1588</ele>
        <time>2010-01-01T01:36:15Z</time>
      </trkpt>
      <trkpt lat="44.74576" lon="6.52492">
        <ele>1588</ele>
        <time>2010-01-01T01:36:17Z</time>
      </trkpt>
      <trkpt lat="44.74569" lon="6.52485">
        <ele>1593</ele>
        <time>2010-01-01T01:36:19Z</time>
      </trkpt>
      <trkpt lat="44.74559" lon="6.5249">
        <ele>1596</ele>
        <time>2010-01-01T01:36:22Z</time>
      </trkpt>
      <trkpt lat="44.74555" lon="6.52503">
        <ele>1594</ele>
        <time>2010-01-01T01:36:25Z</time>
      </trkpt>
      <trkpt lat="44.74549" lon="6.52513">
        <ele>1593</ele>
        <time>2010-01-01T01:36:27Z</time>
      </trkpt>
      <trkpt lat="44.74543" lon="6.52525">
        <ele>1590</ele>
        <time>2010-01-01T01:36:30Z</time>
      </trkpt>
      <trkpt lat="44.74537" lon="6.52532">
        <ele>1589</ele>
        <time>2010-01-01T01:36:32Z</time>
      </trkpt>
      <trkpt lat="44.7453" lon="6.52537">
        <ele>1589</ele>
        <time>2010-01-01T01:36:34Z</time>
      </trkpt>
      <trkpt lat="44.74519" lon="6.52542">
        <ele>1590</ele>
        <time>2010-01-01T01:36:37Z</time>
      </trkpt>
      <trkpt lat="44.7451" lon="6.52544">
        <ele>1591</ele>
        <time>2010-01-01T01:36:40Z</time>
      </trkpt>
      <trkpt lat="44.74507" lon="6.5254">
        <ele>1593</ele>
        <time>2010-01-01T01:36:41Z</time>
      </trkpt>
      <trkpt lat="44.74509" lon="6.52533">
        <ele>1595</ele>
        <time>2010-01-01T01:36:43Z</time>
      </trkpt>
      <trkpt lat="44.74518" lon="6.5253">
        <ele>1594</ele>
        <time>2010-01-01T01:36:45Z</time>
      </trkpt>
      <trkpt lat="44.74522" lon="6.52522">
        <ele>1596</ele>
        <time>2010-01-01T01:36:47Z</time>
      </trkpt>
      <trkpt lat="44.74528" lon="6.52516">
        <ele>1596</ele>
        <time>2010-01-01T01:36:49Z</time>
      </trkpt>
      <trkpt lat="44.74534" lon="6.52505">
        <ele>1599</ele>
        <time>2010-01-01T01:36:52Z</time>
      </trkpt>
      <trkpt lat="44.74539" lon="6.52495">
        <ele>1601</ele>
        <time>2010-01-01T01:36:54Z</time>
      </trkpt>
      <trkpt lat="44.74544" lon="6.52478">
        <ele>1604</ele>
        <time>2010-01-01T01:36:57Z</time>
      </trkpt>
      <trkpt lat="44.74546" lon="6.5247">
        <ele>1606</ele>
        <time>2010-01-01T01:36:59Z</time>
      </trkpt>
      <trkpt lat="44.74566" lon="6.5248">
        <ele>1596</ele>
        <time>2010-01-01T01:37:05Z</time>
      </trkpt>
      <trkpt lat="44.7459" lon="6.52491">
        <ele>1579</ele>
        <time>2010-01-01T01:37:11Z</time>
      </trkpt>
      <trkpt lat="44.74575" lon="6.52485">
        <ele>1590</ele>
        <time>2010-01-01T01:37:16Z</time>
      </trkpt>
      <trkpt lat="44.74565" lon="6.52481">
        <ele>1596</ele>
        <time>2010-01-01T01:37:18Z</time>
      </trkpt>
      <trkpt lat="44.74557" lon="6.52482">
        <ele>1599</ele>
        <time>2010-01-01T01:37:20Z</time>
      </trkpt>
      <trkpt lat="44.74554" lon="6.52481">
        <ele>1601</ele>
        <time>2010-01-01T01:37:21Z</time>
      </trkpt>
      <trkpt lat="44.74554" lon="6.52473">
        <ele>1604</ele>
        <time>2010-01-01T01:37:23Z</time>
      </trkpt>
      <trkpt lat="44.74556" lon="6.52462">
        <ele>1606</ele>
        <time>2010-01-01T01:37:25Z</time>
      </trkpt>
      <trkpt lat="44.74556" lon="6.52459">
        <ele>1606</ele>
        <time>2010-01-01T01:37:26Z</time>
      </trkpt>
      <trkpt lat="44.7456" lon="6.52448">
        <ele>1606</ele>
        <time>2010-01-01T01:37:28Z</time>
      </trkpt>
      <trkpt lat="44.74565" lon="6.52433">
        <ele>1607</ele>
        <time>2010-01-01T01:37:31Z</time>
      </trkpt>
      <trkpt lat="44.74569" lon="6.52415">
        <ele>1609</ele>
        <time>2010-01-01T01:37:35Z</time>
      </trkpt>
      <trkpt lat="44.74572" lon="6.524">
        <ele>1610</ele>
        <time>2010-01-01T01:37:38Z</time>
      </trkpt>
      <trkpt lat="44.74575" lon="6.52388">
        <ele>1612</ele>
        <time>2010-01-01T01:37:40Z</time>
      </trkpt>
      <trkpt lat="44.74567" lon="6.52385">
        <ele>1617</ele>
        <time>2010-01-01T01:37:42Z</time>
      </trkpt>
      <trkpt lat="44.74562" lon="6.52391">
        <ele>1619</ele>
        <time>2010-01-01T01:37:44Z</time>
      </trkpt>
      <trkpt lat="44.74556" lon="6.524">
        <ele>1620</ele>
        <time>2010-01-01T01:37:46Z</time>
      </trkpt>
      <trkpt lat="44.74553" lon="6.52418">
        <ele>1616</ele>
        <time>2010-01-01T01:37:50Z</time>
      </trkpt>
      <trkpt lat="44.74545" lon="6.52433">
        <ele>1616</ele>
        <time>2010-01-01T01:37:53Z</time>
      </trkpt>
      <trkpt lat="44.74535" lon="6.52443">
        <ele>1618</ele>
        <time>2010-01-01T01:37:57Z</time>
      </trkpt>
      <trkpt lat="44.74531" lon="6.52451">
        <ele>1617</ele>
        <time>2010-01-01T01:37:59Z</time>
      </trkpt>
      <trkpt lat="44.74521" lon="6.52467">
        <ele>1615</ele>
        <time>2010-01-01T01:38:03Z</time>
      </trkpt>
      <trkpt lat="44.74517" lon="6.52469">
        <ele>1616</ele>
        <time>2010-01-01T01:38:04Z</time>
      </trkpt>
      <trkpt lat="44.74513" lon="6.52462">
        <ele>1621</ele>
        <time>2010-01-01T01:38:05Z</time>
      </trkpt>
      <trkpt lat="44.74514" lon="6.52458">
        <ele>1622</ele>
        <time>2010-01-01T01:38:06Z</time>
      </trkpt>
      <trkpt lat="44.74524" lon="6.5244">
        <ele>1624</ele>
        <time>2010-01-01T01:38:11Z</time>
      </trkpt>
      <trkpt lat="44.74527" lon="6.52435">
        <ele>1624</ele>
        <time>2010-01-01T01:38:12Z</time>
      </trkpt>
      <trkpt lat="44.74533" lon="6.52418">
        <ele>1626</ele>
        <time>2010-01-01T01:38:15Z</time>
      </trkpt>
      <trkpt lat="44.74533" lon="6.52417">
        <ele>1627</ele>
        <time>2010-01-01T01:38:16Z</time>
      </trkpt>
      <trkpt lat="44.74529" lon="6.5241">
        <ele>1631</ele>
        <time>2010-01-01T01:38:17Z</time>
      </trkpt>
      <trkpt lat="44.74522" lon="6.5241">
        <ele>1633</ele>
        <time>2010-01-01T01:38:19Z</time>
      </trkpt>
      <trkpt lat="44.74517" lon="6.52423">
        <ele>1632</ele>
        <time>2010-01-01T01:38:22Z</time>
      </trkpt>
      <trkpt lat="44.74515" lon="6.52439">
        <ele>1628</ele>
        <time>2010-01-01T01:38:25Z</time>
      </trkpt>
      <trkpt lat="44.74506" lon="6.52451">
        <ele>1628</ele>
        <time>2010-01-01T01:38:29Z</time>
      </trkpt>
      <trkpt lat="44.74501" lon="6.52455">
        <ele>1629</ele>
        <time>2010-01-01T01:38:30Z</time>
      </trkpt>
      <trkpt lat="44.74494" lon="6.52448">
        <ele>1635</ele>
        <time>2010-01-01T01:38:32Z</time>
      </trkpt>
      <trkpt lat="44.745" lon="6.52433">
        <ele>1636</ele>
        <time>2010-01-01T01:38:35Z</time>
      </trkpt>
      <trkpt lat="44.74504" lon="6.52424">
        <ele>1637</ele>
        <time>2010-01-01T01:38:37Z</time>
      </trkpt>
      <trkpt lat="44.74508" lon="6.52412">
        <ele>1638</ele>
        <time>2010-01-01T01:38:40Z</time>
      </trkpt>
      <trkpt lat="44.74511" lon="6.52397">
        <ele>1641</ele>
        <time>2010-01-01T01:38:43Z</time>
      </trkpt>
      <trkpt lat="44.74514" lon="6.52387">
        <ele>1642</ele>
        <time>2010-01-01T01:38:45Z</time>
      </trkpt>
      <trkpt lat="44.74519" lon="6.52378">
        <ele>1641</ele>
        <time>2010-01-01T01:38:47Z</time>
      </trkpt>
      <trkpt lat="44.74525" lon="6.52366">
        <ele>1640</ele>
        <time>2010-01-01T01:38:50Z</time>
      </trkpt>
      <trkpt lat="44.74529" lon="6.5235">
        <ele>1641</ele>
        <time>2010-01-01T01:38:53Z</time>
      </trkpt>
      <trkpt lat="44.74528" lon="6.52344">
        <ele>1642</ele>
        <time>2010-01-01T01:38:54Z</time>
      </trkpt>
      <trkpt lat="44.74521" lon="6.52343">
        <ele>1645</ele>
        <time>2010-01-01T01:38:56Z</time>
      </trkpt>
      <trkpt lat="44.74519" lon="6.52348">
        <ele>1646</ele>
        <time>2010-01-01T01:38:57Z</time>
      </trkpt>
      <trkpt lat="44.74511" lon="6.52363">
        <ele>1646</ele>
        <time>2010-01-01T01:39:01Z</time>
      </trkpt>
      <trkpt lat="44.74504" lon="6.52373">
        <ele>1647</ele>
        <time>2010-01-01T01:39:03Z</time>
      </trkpt>
      <trkpt lat="44.74496" lon="6.52385">
        <ele>1650</ele>
        <time>2010-01-01T01:39:07Z</time>
      </trkpt>
      <trkpt lat="44.74491" lon="6.52392">
        <ele>1651</ele>
        <time>2010-01-01T01:39:08Z</time>
      </trkpt>
      <trkpt lat="44.74483" lon="6.52389">
        <ele>1657</ele>
        <time>2010-01-01T01:39:11Z</time>
      </trkpt>
      <trkpt lat="44.74487" lon="6.5238">
        <ele>1656</ele>
        <time>2010-01-01T01:39:13Z</time>
      </trkpt>
      <trkpt lat="44.74493" lon="6.52371">
        <ele>1654</ele>
        <time>2010-01-01T01:39:15Z</time>
      </trkpt>
      <trkpt lat="44.74497" lon="6.5236">
        <ele>1653</ele>
        <time>2010-01-01T01:39:17Z</time>
      </trkpt>
      <trkpt lat="44.74498" lon="6.52344">
        <ele>1655</ele>
        <time>2010-01-01T01:39:20Z</time>
      </trkpt>
      <trkpt lat="44.745" lon="6.52329">
        <ele>1657</ele>
        <time>2010-01-01T01:39:23Z</time>
      </trkpt>
      <trkpt lat="44.745" lon="6.52315">
        <ele>1661</ele>
        <time>2010-01-01T01:39:26Z</time>
      </trkpt>
      <trkpt lat="44.74493" lon="6.52315">
        <ele>1665</ele>
        <time>2010-01-01T01:39:28Z</time>
      </trkpt>
      <trkpt lat="44.74493" lon="6.52318">
        <ele>1665</ele>
        <time>2010-01-01T01:39:28Z</time>
      </trkpt>
      <trkpt lat="44.7449" lon="6.52325">
        <ele>1665</ele>
        <time>2010-01-01T01:39:30Z</time>
      </trkpt>
      <trkpt lat="44.74484" lon="6.52335">
        <ele>1668</ele>
        <time>2010-01-01T01:39:32Z</time>
      </trkpt>
      <trkpt lat="44.7448" lon="6.52351">
        <ele>1668</ele>
        <time>2010-01-01T01:39:36Z</time>
      </trkpt>
      <trkpt lat="44.74478" lon="6.52364">
        <ele>1666</ele>
        <time>2010-01-01T01:39:38Z</time>
      </trkpt>
      <trkpt lat="44.74476" lon="6.52367">
        <ele>1667</ele>
        <time>2010-01-01T01:39:39Z</time>
      </trkpt>
      <trkpt lat="44.7447" lon="6.52374">
        <ele>1669</ele>
        <time>2010-01-01T01:39:41Z</time>
      </trkpt>
      <trkpt lat="44.7446" lon="6.52387">
        <ele>1670</ele>
        <time>2010-01-01T01:39:45Z</time>
      </trkpt>
      <trkpt lat="44.74457" lon="6.52397">
        <ele>1668</ele>
        <time>2010-01-01T01:39:47Z</time>
      </trkpt>
      <trkpt lat="44.74446" lon="6.5241">
        <ele>1670</ele>
        <time>2010-01-01T01:39:50Z</time>
      </trkpt>
      <trkpt lat="44.74436" lon="6.52425">
        <ele>1669</ele>
        <time>2010-01-01T01:39:54Z</time>
      </trkpt>
      <trkpt lat="44.7443" lon="6.52433">
        <ele>1669</ele>
        <time>2010-01-01T01:39:57Z</time>
      </trkpt>
      <trkpt lat="44.74427" lon="6.52436">
        <ele>1670</ele>
        <time>2010-01-01T01:39:57Z</time>
      </trkpt>
      <trkpt lat="44.74412" lon="6.52439">
        <ele>1675</ele>
        <time>2010-01-01T01:40:02Z</time>
      </trkpt>
      <trkpt lat="44.74404" lon="6.5244">
        <ele>1677</ele>
        <time>2010-01-01T01:40:04Z</time>
      </trkpt>
      <trkpt lat="44.74388" lon="6.52434">
        <ele>1682</ele>
        <time>2010-01-01T01:40:08Z</time>
      </trkpt>
      <trkpt lat="44.74376" lon="6.52437">
        <ele>1683</ele>
        <time>2010-01-01T01:40:11Z</time>
      </trkpt>
      <trkpt lat="44.74366" lon="6.52443">
        <ele>1684</ele>
        <time>2010-01-01T01:40:14Z</time>
      </trkpt>
      <trkpt lat="44.74352" lon="6.52446">
        <ele>1686</ele>
        <time>2010-01-01T01:40:18Z</time>
      </trkpt>
      <trkpt lat="44.74337" lon="6.52448">
        <ele>1687</ele>
        <time>2010-01-01T01:40:22Z</time>
      </trkpt>
      <trkpt lat="44.74327" lon="6.52451">
        <ele>1689</ele>
        <time>2010-01-01T01:40:25Z</time>
      </trkpt>
      <trkpt lat="44.74318" lon="6.52453">
        <ele>1690</ele>
        <time>2010-01-01T01:40:27Z</time>
      </trkpt>
      <trkpt lat="44.74305" lon="6.52425">
        <ele>1698</ele>
        <time>2010-01-01T01:40:34Z</time>
      </trkpt>
      <trkpt lat="44.74313" lon="6.52431">
        <ele>1695</ele>
        <time>2010-01-01T01:40:36Z</time>
      </trkpt>
      <trkpt lat="44.74313" lon="6.5243">
        <ele>1695</ele>
        <time>2010-01-01T01:40:36Z</time>
      </trkpt>
      <trkpt lat="44.74313" lon="6.52426">
        <ele>1696</ele>
        <time>2010-01-01T01:40:37Z</time>
      </trkpt>
      <trkpt lat="44.74313" lon="6.52428">
        <ele>1696</ele>
        <time>2010-01-01T01:40:38Z</time>
      </trkpt>
      <trkpt lat="44.74314" lon="6.52424">
        <ele>1696</ele>
        <time>2010-01-01T01:40:38Z</time>
      </trkpt>
      <trkpt lat="44.7432" lon="6.52418">
        <ele>1696</ele>
        <time>2010-01-01T01:40:40Z</time>
      </trkpt>
      <trkpt lat="44.7433" lon="6.52411">
        <ele>1694</ele>
        <time>2010-01-01T01:40:43Z</time>
      </trkpt>
      <trkpt lat="44.7434" lon="6.524">
        <ele>1694</ele>
        <time>2010-01-01T01:40:47Z</time>
      </trkpt>
      <trkpt lat="44.74343" lon="6.52394">
        <ele>1695</ele>
        <time>2010-01-01T01:40:48Z</time>
      </trkpt>
      <trkpt lat="44.74347" lon="6.52379">
        <ele>1697</ele>
        <time>2010-01-01T01:40:51Z</time>
      </trkpt>
      <trkpt lat="44.7435" lon="6.52364">
        <ele>1699</ele>
        <time>2010-01-01T01:40:54Z</time>
      </trkpt>
      <trkpt lat="44.7435" lon="6.52349">
        <ele>1702</ele>
        <time>2010-01-01T01:40:57Z</time>
      </trkpt>
      <trkpt lat="44.7435" lon="6.52344">
        <ele>1703</ele>
        <time>2010-01-01T01:40:58Z</time>
      </trkpt>
      <trkpt lat="44.74353" lon="6.52329">
        <ele>1706</ele>
        <time>2010-01-01T01:41:01Z</time>
      </trkpt>
      <trkpt lat="44.74355" lon="6.52321">
        <ele>1707</ele>
        <time>2010-01-01T01:41:02Z</time>
      </trkpt>
      <trkpt lat="44.74357" lon="6.52318">
        <ele>1708</ele>
        <time>2010-01-01T01:41:03Z</time>
      </trkpt>
      <trkpt lat="44.7436" lon="6.52311">
        <ele>1709</ele>
        <time>2010-01-01T01:41:05Z</time>
      </trkpt>
      <trkpt lat="44.74365" lon="6.52302">
        <ele>1711</ele>
        <time>2010-01-01T01:41:07Z</time>
      </trkpt>
      <trkpt lat="44.74374" lon="6.5229">
        <ele>1712</ele>
        <time>2010-01-01T01:41:10Z</time>
      </trkpt>
      <trkpt lat="44.74377" lon="6.52287">
        <ele>1713</ele>
        <time>2010-01-01T01:41:11Z</time>
      </trkpt>
      <trkpt lat="44.74382" lon="6.52275">
        <ele>1715</ele>
        <time>2010-01-01T01:41:14Z</time>
      </trkpt>
      <trkpt lat="44.74388" lon="6.52271">
        <ele>1715</ele>
        <time>2010-01-01T01:41:15Z</time>
      </trkpt>
      <trkpt lat="44.74399" lon="6.52264">
        <ele>1713</ele>
        <time>2010-01-01T01:41:19Z</time>
      </trkpt>
      <trkpt lat="44.74408" lon="6.5226">
        <ele>1712</ele>
        <time>2010-01-01T01:41:21Z</time>
      </trkpt>
      <trkpt lat="44.74412" lon="6.52257">
        <ele>1712</ele>
        <time>2010-01-01T01:41:23Z</time>
      </trkpt>
      <trkpt lat="44.74414" lon="6.52227">
        <ele>1720</ele>
        <time>2010-01-01T01:41:28Z</time>
      </trkpt>
      <trkpt lat="44.74414" lon="6.52208">
        <ele>1724</ele>
        <time>2010-01-01T01:41:32Z</time>
      </trkpt>
      <trkpt lat="44.74415" lon="6.52193">
        <ele>1726</ele>
        <time>2010-01-01T01:41:35Z</time>
      </trkpt>
      <trkpt lat="44.74417" lon="6.5218">
        <ele>1728</ele>
        <time>2010-01-01T01:41:37Z</time>
      </trkpt>
      <trkpt lat="44.74419" lon="6.5216">
        <ele>1730</ele>
        <time>2010-01-01T01:41:41Z</time>
      </trkpt>
      <trkpt lat="44.7442" lon="6.52145">
        <ele>1731</ele>
        <time>2010-01-01T01:41:44Z</time>
      </trkpt>
      <trkpt lat="44.74423" lon="6.5213">
        <ele>1731</ele>
        <time>2010-01-01T01:41:47Z</time>
      </trkpt>
      <trkpt lat="44.74424" lon="6.52119">
        <ele>1730</ele>
        <time>2010-01-01T01:41:49Z</time>
      </trkpt>
      <trkpt lat="44.74428" lon="6.5211">
        <ele>1729</ele>
        <time>2010-01-01T01:41:51Z</time>
      </trkpt>
      <trkpt lat="44.74431" lon="6.52094">
        <ele>1727</ele>
        <time>2010-01-01T01:41:54Z</time>
      </trkpt>
      <trkpt lat="44.74431" lon="6.52081">
        <ele>1728</ele>
        <time>2010-01-01T01:41:56Z</time>
      </trkpt>
      <trkpt lat="44.74425" lon="6.5208">
        <ele>1731</ele>
        <time>2010-01-01T01:41:58Z</time>
      </trkpt>
      <trkpt lat="44.74421" lon="6.52091">
        <ele>1734</ele>
        <time>2010-01-01T01:42:00Z</time>
      </trkpt>
      <trkpt lat="44.7442" lon="6.52105">
        <ele>1734</ele>
        <time>2010-01-01T01:42:03Z</time>
      </trkpt>
      <trkpt lat="44.74418" lon="6.52118">
        <ele>1734</ele>
        <time>2010-01-01T01:42:05Z</time>
      </trkpt>
      <trkpt lat="44.74415" lon="6.52131">
        <ele>1735</ele>
        <time>2010-01-01T01:42:08Z</time>
      </trkpt>
      <trkpt lat="44.74412" lon="6.52152">
        <ele>1734</ele>
        <time>2010-01-01T01:42:12Z</time>
      </trkpt>
      <trkpt lat="44.74409" lon="6.5216">
        <ele>1734</ele>
        <time>2010-01-01T01:42:14Z</time>
      </trkpt>
      <trkpt lat="44.74402" lon="6.52175">
        <ele>1735</ele>
        <time>2010-01-01T01:42:17Z</time>
      </trkpt>
      <trkpt lat="44.74397" lon="6.52191">
        <ele>1734</ele>
        <time>2010-01-01T01:42:21Z</time>
      </trkpt>
      <trkpt lat="44.74394" lon="6.52195">
        <ele>1734</ele>
        <time>2010-01-01T01:42:21Z</time>
      </trkpt>
      <trkpt lat="44.74387" lon="6.52196">
        <ele>1737</ele>
        <time>2010-01-01T01:42:23Z</time>
      </trkpt>
      <trkpt lat="44.74375" lon="6.52197">
        <ele>1740</ele>
        <time>2010-01-01T01:42:27Z</time>
      </trkpt>
      <trkpt lat="44.74363" lon="6.52195">
        <ele>1744</ele>
        <time>2010-01-01T01:42:30Z</time>
      </trkpt>
      <trkpt lat="44.74352" lon="6.52197">
        <ele>1747</ele>
        <time>2010-01-01T01:42:33Z</time>
      </trkpt>
      <trkpt lat="44.74343" lon="6.52201">
        <ele>1750</ele>
        <time>2010-01-01T01:42:35Z</time>
      </trkpt>
      <trkpt lat="44.74332" lon="6.52206">
        <ele>1752</ele>
        <time>2010-01-01T01:42:38Z</time>
      </trkpt>
      <trkpt lat="44.74323" lon="6.52214">
        <ele>1751</ele>
        <time>2010-01-01T01:42:41Z</time>
      </trkpt>
      <trkpt lat="44.7431" lon="6.52224">
        <ele>1751</ele>
        <time>2010-01-01T01:42:45Z</time>
      </trkpt>
      <trkpt lat="44.74299" lon="6.5223">
        <ele>1751</ele>
        <time>2010-01-01T01:42:48Z</time>
      </trkpt>
      <trkpt lat="44.74297" lon="6.52229">
        <ele>1752</ele>
        <time>2010-01-01T01:42:49Z</time>
      </trkpt>
      <trkpt lat="44.74294" lon="6.52223">
        <ele>1756</ele>
        <time>2010-01-01T01:42:50Z</time>
      </trkpt>
      <trkpt lat="44.743" lon="6.52215">
        <ele>1757</ele>
        <time>2010-01-01T01:42:53Z</time>
      </trkpt>
      <trkpt lat="44.7431" lon="6.52209">
        <ele>1757</ele>
        <time>2010-01-01T01:42:56Z</time>
      </trkpt>
      <trkpt lat="44.74325" lon="6.52198">
        <ele>1757</ele>
        <time>2010-01-01T01:43:00Z</time>
      </trkpt>
      <trkpt lat="44.74334" lon="6.52184">
        <ele>1759</ele>
        <time>2010-01-01T01:43:04Z</time>
      </trkpt>
      <trkpt lat="44.74343" lon="6.52174">
        <ele>1758</ele>
        <time>2010-01-01T01:43:07Z</time>
      </trkpt>
      <trkpt lat="44.74352" lon="6.52162">
        <ele>1759</ele>
        <time>2010-01-01T01:43:10Z</time>
      </trkpt>
      <trkpt lat="44.74362" lon="6.52147">
        <ele>1760</ele>
        <time>2010-01-01T01:43:14Z</time>
      </trkpt>
      <trkpt lat="44.74371" lon="6.52134">
        <ele>1760</ele>
        <time>2010-01-01T01:43:17Z</time>
      </trkpt>
      <trkpt lat="44.74375" lon="6.52117">
        <ele>1762</ele>
        <time>2010-01-01T01:43:21Z</time>
      </trkpt>
      <trkpt lat="44.74374" lon="6.52102">
        <ele>1765</ele>
        <time>2010-01-01T01:43:24Z</time>
      </trkpt>
      <trkpt lat="44.74372" lon="6.52086">
        <ele>1768</ele>
        <time>2010-01-01T01:43:27Z</time>
      </trkpt>
      <trkpt lat="44.7437" lon="6.52077">
        <ele>1770</ele>
        <time>2010-01-01T01:43:29Z</time>
      </trkpt>
      <trkpt lat="44.74369" lon="6.52065">
        <ele>1771</ele>
        <time>2010-01-01T01:43:31Z</time>
      </trkpt>
      <trkpt lat="44.74369" lon="6.52062">
        <ele>1772</ele>
        <time>2010-01-01T01:43:31Z</time>
      </trkpt>
      <trkpt lat="44.74366" lon="6.52048">
        <ele>1775</ele>
        <time>2010-01-01T01:43:34Z</time>
      </trkpt>
      <trkpt lat="44.74361" lon="6.52033">
        <ele>1777</ele>
        <time>2010-01-01T01:43:37Z</time>
      </trkpt>
      <trkpt lat="44.74359" lon="6.52029">
        <ele>1778</ele>
        <time>2010-01-01T01:43:38Z</time>
      </trkpt>
      <trkpt lat="44.74357" lon="6.52017">
        <ele>1780</ele>
        <time>2010-01-01T01:43:40Z</time>
      </trkpt>
      <trkpt lat="44.74356" lon="6.52007">
        <ele>1782</ele>
        <time>2010-01-01T01:43:43Z</time>
      </trkpt>
      <trkpt lat="44.74355" lon="6.52005">
        <ele>1783</ele>
        <time>2010-01-01T01:43:43Z</time>
      </trkpt>
      <trkpt lat="44.7435" lon="6.51992">
        <ele>1785</ele>
        <time>2010-01-01T01:43:46Z</time>
      </trkpt>
      <trkpt lat="44.74349" lon="6.51987">
        <ele>1786</ele>
        <time>2010-01-01T01:43:47Z</time>
      </trkpt>
      <trkpt lat="44.74344" lon="6.51976">
        <ele>1788</ele>
        <time>2010-01-01T01:43:49Z</time>
      </trkpt>
      <trkpt lat="44.74342" lon="6.51971">
        <ele>1789</ele>
        <time>2010-01-01T01:43:50Z</time>
      </trkpt>
      <trkpt lat="44.74337" lon="6.51951">
        <ele>1792</ele>
        <time>2010-01-01T01:43:54Z</time>
      </trkpt>
      <trkpt lat="44.74339" lon="6.5194">
        <ele>1792</ele>
        <time>2010-01-01T01:43:56Z</time>
      </trkpt>
      <trkpt lat="44.74337" lon="6.51917">
        <ele>1792</ele>
        <time>2010-01-01T01:44:01Z</time>
      </trkpt>
      <trkpt lat="44.74337" lon="6.519">
        <ele>1794</ele>
        <time>2010-01-01T01:44:04Z</time>
      </trkpt>
      <trkpt lat="44.74336" lon="6.51891">
        <ele>1795</ele>
        <time>2010-01-01T01:44:06Z</time>
      </trkpt>
      <trkpt lat="44.74339" lon="6.51873">
        <ele>1796</ele>
        <time>2010-01-01T01:44:09Z</time>
      </trkpt>
      <trkpt lat="44.74339" lon="6.51871">
        <ele>1796</ele>
        <time>2010-01-01T01:44:10Z</time>
      </trkpt>
      <trkpt lat="44.74339" lon="6.51854">
        <ele>1797</ele>
        <time>2010-01-01T01:44:13Z</time>
      </trkpt>
      <trkpt lat="44.7434" lon="6.51852">
        <ele>1797</ele>
        <time>2010-01-01T01:44:13Z</time>
      </trkpt>
      <trkpt lat="44.74336" lon="6.51839">
        <ele>1800</ele>
        <time>2010-01-01T01:44:16Z</time>
      </trkpt>
      <trkpt lat="44.74337" lon="6.51836">
        <ele>1800</ele>
        <time>2010-01-01T01:44:17Z</time>
      </trkpt>
      <trkpt lat="44.74335" lon="6.5183">
        <ele>1801</ele>
        <time>2010-01-01T01:44:18Z</time>
      </trkpt>
      <trkpt lat="44.74335" lon="6.51821">
        <ele>1801</ele>
        <time>2010-01-01T01:44:20Z</time>
      </trkpt>
      <trkpt lat="44.74331" lon="6.51804">
        <ele>1804</ele>
        <time>2010-01-01T01:44:23Z</time>
      </trkpt>
      <trkpt lat="44.74329" lon="6.51799">
        <ele>1805</ele>
        <time>2010-01-01T01:44:24Z</time>
      </trkpt>
      <trkpt lat="44.74332" lon="6.51777">
        <ele>1802</ele>
        <time>2010-01-01T01:44:28Z</time>
      </trkpt>
      <trkpt lat="44.74335" lon="6.51762">
        <ele>1800</ele>
        <time>2010-01-01T01:44:31Z</time>
      </trkpt>
      <trkpt lat="44.74333" lon="6.51748">
        <ele>1801</ele>
        <time>2010-01-01T01:44:34Z</time>
      </trkpt>
      <trkpt lat="44.74332" lon="6.51747">
        <ele>1801</ele>
        <time>2010-01-01T01:44:34Z</time>
      </trkpt>
      <trkpt lat="44.74329" lon="6.51735">
        <ele>1803</ele>
        <time>2010-01-01T01:44:37Z</time>
      </trkpt>
      <trkpt lat="44.74325" lon="6.51715">
        <ele>1805</ele>
        <time>2010-01-01T01:44:40Z</time>
      </trkpt>
      <trkpt lat="44.74324" lon="6.51712">
        <ele>1806</ele>
        <time>2010-01-01T01:44:41Z</time>
      </trkpt>
      <trkpt lat="44.74327" lon="6.51694">
        <ele>1805</ele>
        <time>2010-01-01T01:44:45Z</time>
      </trkpt>
      <trkpt lat="44.74325" lon="6.51673">
        <ele>1806</ele>
        <time>2010-01-01T01:44:48Z</time>
      </trkpt>
      <trkpt lat="44.74323" lon="6.51657">
        <ele>1806</ele>
        <time>2010-01-01T01:44:51Z</time>
      </trkpt>
      <trkpt lat="44.74323" lon="6.51655">
        <ele>1806</ele>
        <time>2010-01-01T01:44:52Z</time>
      </trkpt>
      <trkpt lat="44.74323" lon="6.51629">
        <ele>1803</ele>
        <time>2010-01-01T01:44:57Z</time>
      </trkpt>
      <trkpt lat="44.74327" lon="6.51619">
        <ele>1799</ele>
        <time>2010-01-01T01:44:59Z</time>
      </trkpt>
      <trkpt lat="44.74327" lon="6.51603">
        <ele>1797</ele>
        <time>2010-01-01T01:45:02Z</time>
      </trkpt>
      <trkpt lat="44.74325" lon="6.51597">
        <ele>1798</ele>
        <time>2010-01-01T01:45:03Z</time>
      </trkpt>
      <trkpt lat="44.74319" lon="6.51604">
        <ele>1803</ele>
        <time>2010-01-01T01:45:05Z</time>
      </trkpt>
      <trkpt lat="44.74318" lon="6.51608">
        <ele>1804</ele>
        <time>2010-01-01T01:45:06Z</time>
      </trkpt>
      <trkpt lat="44.74317" lon="6.51626">
        <ele>1807</ele>
        <time>2010-01-01T01:45:10Z</time>
      </trkpt>
      <trkpt lat="44.74314" lon="6.51647">
        <ele>1811</ele>
        <time>2010-01-01T01:45:14Z</time>
      </trkpt>
      <trkpt lat="44.74311" lon="6.51663">
        <ele>1814</ele>
        <time>2010-01-01T01:45:17Z</time>
      </trkpt>
      <trkpt lat="44.74306" lon="6.51678">
        <ele>1819</ele>
        <time>2010-01-01T01:45:20Z</time>
      </trkpt>
      <trkpt lat="44.74304" lon="6.51694">
        <ele>1820</ele>
        <time>2010-01-01T01:45:23Z</time>
      </trkpt>
      <trkpt lat="44.74302" lon="6.51708">
        <ele>1821</ele>
        <time>2010-01-01T01:45:26Z</time>
      </trkpt>
      <trkpt lat="44.74298" lon="6.51716">
        <ele>1823</ele>
        <time>2010-01-01T01:45:28Z</time>
      </trkpt>
      <trkpt lat="44.74297" lon="6.51733">
        <ele>1825</ele>
        <time>2010-01-01T01:45:31Z</time>
      </trkpt>
      <trkpt lat="44.74294" lon="6.51754">
        <ele>1828</ele>
        <time>2010-01-01T01:45:35Z</time>
      </trkpt>
      <trkpt lat="44.74293" lon="6.51768">
        <ele>1829</ele>
        <time>2010-01-01T01:45:38Z</time>
      </trkpt>
      <trkpt lat="44.74294" lon="6.51772">
        <ele>1829</ele>
        <time>2010-01-01T01:45:38Z</time>
      </trkpt>
      <trkpt lat="44.7429" lon="6.51789">
        <ele>1831</ele>
        <time>2010-01-01T01:45:42Z</time>
      </trkpt>
      <trkpt lat="44.74285" lon="6.51801">
        <ele>1834</ele>
        <time>2010-01-01T01:45:44Z</time>
      </trkpt>
      <trkpt lat="44.74282" lon="6.51818">
        <ele>1836</ele>
        <time>2010-01-01T01:45:47Z</time>
      </trkpt>
      <trkpt lat="44.74281" lon="6.51819">
        <ele>1837</ele>
        <time>2010-01-01T01:45:48Z</time>
      </trkpt>
      <trkpt lat="44.74279" lon="6.51842">
        <ele>1837</ele>
        <time>2010-01-01T01:45:52Z</time>
      </trkpt>
      <trkpt lat="44.74278" lon="6.5186">
        <ele>1836</ele>
        <time>2010-01-01T01:45:56Z</time>
      </trkpt>
      <trkpt lat="44.74274" lon="6.51881">
        <ele>1834</ele>
        <time>2010-01-01T01:46:00Z</time>
      </trkpt>
      <trkpt lat="44.74274" lon="6.51899">
        <ele>1831</ele>
        <time>2010-01-01T01:46:03Z</time>
      </trkpt>
      <trkpt lat="44.74275" lon="6.5191">
        <ele>1829</ele>
        <time>2010-01-01T01:46:05Z</time>
      </trkpt>
      <trkpt lat="44.7427" lon="6.51925">
        <ele>1829</ele>
        <time>2010-01-01T01:46:09Z</time>
      </trkpt>
      <trkpt lat="44.74263" lon="6.51931">
        <ele>1831</ele>
        <time>2010-01-01T01:46:11Z</time>
      </trkpt>
      <trkpt lat="44.74254" lon="6.51937">
        <ele>1832</ele>
        <time>2010-01-01T01:46:13Z</time>
      </trkpt>
      <trkpt lat="44.74238" lon="6.51947">
        <ele>1836</ele>
        <time>2010-01-01T01:46:18Z</time>
      </trkpt>
      <trkpt lat="44.74227" lon="6.51955">
        <ele>1839</ele>
        <time>2010-01-01T01:46:21Z</time>
      </trkpt>
      <trkpt lat="44.74218" lon="6.51964">
        <ele>1840</ele>
        <time>2010-01-01T01:46:24Z</time>
      </trkpt>
      <trkpt lat="44.74208" lon="6.5198">
        <ele>1840</ele>
        <time>2010-01-01T01:46:28Z</time>
      </trkpt>
      <trkpt lat="44.74195" lon="6.5199">
        <ele>1843</ele>
        <time>2010-01-01T01:46:32Z</time>
      </trkpt>
      <trkpt lat="44.74186" lon="6.52004">
        <ele>1842</ele>
        <time>2010-01-01T01:46:36Z</time>
      </trkpt>
      <trkpt lat="44.74178" lon="6.52024">
        <ele>1839</ele>
        <time>2010-01-01T01:46:40Z</time>
      </trkpt>
      <trkpt lat="44.74173" lon="6.52047">
        <ele>1838</ele>
        <time>2010-01-01T01:46:45Z</time>
      </trkpt>
      <trkpt lat="44.74166" lon="6.52069">
        <ele>1841</ele>
        <time>2010-01-01T01:46:49Z</time>
      </trkpt>
      <trkpt lat="44.74163" lon="6.52085">
        <ele>1844</ele>
        <time>2010-01-01T01:46:53Z</time>
      </trkpt>
      <trkpt lat="44.74163" lon="6.52098">
        <ele>1846</ele>
        <time>2010-01-01T01:46:55Z</time>
      </trkpt>
      <trkpt lat="44.74161" lon="6.52114">
        <ele>1849</ele>
        <time>2010-01-01T01:46:58Z</time>
      </trkpt>
      <trkpt lat="44.74161" lon="6.52116">
        <ele>1850</ele>
        <time>2010-01-01T01:46:59Z</time>
      </trkpt>
      <trkpt lat="44.74162" lon="6.52137">
        <ele>1852</ele>
        <time>2010-01-01T01:47:03Z</time>
      </trkpt>
      <trkpt lat="44.74155" lon="6.5215">
        <ele>1852</ele>
        <time>2010-01-01T01:47:06Z</time>
      </trkpt>
      <trkpt lat="44.74151" lon="6.52161">
        <ele>1853</ele>
        <time>2010-01-01T01:47:08Z</time>
      </trkpt>
      <trkpt lat="44.74145" lon="6.5216">
        <ele>1855</ele>
        <time>2010-01-01T01:47:10Z</time>
      </trkpt>
      <trkpt lat="44.74138" lon="6.52148">
        <ele>1857</ele>
        <time>2010-01-01T01:47:12Z</time>
      </trkpt>
      <trkpt lat="44.74133" lon="6.52132">
        <ele>1857</ele>
        <time>2010-01-01T01:47:16Z</time>
      </trkpt>
      <trkpt lat="44.74128" lon="6.5212">
        <ele>1856</ele>
        <time>2010-01-01T01:47:18Z</time>
      </trkpt>
      <trkpt lat="44.74117" lon="6.52107">
        <ele>1856</ele>
        <time>2010-01-01T01:47:22Z</time>
      </trkpt>
      <trkpt lat="44.74106" lon="6.52092">
        <ele>1857</ele>
        <time>2010-01-01T01:47:26Z</time>
      </trkpt>
      <trkpt lat="44.741" lon="6.52079">
        <ele>1858</ele>
        <time>2010-01-01T01:47:29Z</time>
      </trkpt>
      <trkpt lat="44.74061" lon="6.52251">
        <ele>1857</ele>
        <time>2010-01-01T01:48:04Z</time>
      </trkpt>
      <trkpt lat="44.74055" lon="6.52255">
        <ele>1858</ele>
        <time>2010-01-01T01:48:05Z</time>
      </trkpt>
      <trkpt lat="44.74048" lon="6.52263">
        <ele>1858</ele>
        <time>2010-01-01T01:48:08Z</time>
      </trkpt>
      <trkpt lat="44.74043" lon="6.52271">
        <ele>1858</ele>
        <time>2010-01-01T01:48:10Z</time>
      </trkpt>
      <trkpt lat="44.74036" lon="6.52275">
        <ele>1859</ele>
        <time>2010-01-01T01:48:12Z</time>
      </trkpt>
      <trkpt lat="44.74027" lon="6.52276">
        <ele>1861</ele>
        <time>2010-01-01T01:48:14Z</time>
      </trkpt>
      <trkpt lat="44.74022" lon="6.52278">
        <ele>1862</ele>
        <time>2010-01-01T01:48:15Z</time>
      </trkpt>
      <trkpt lat="44.74013" lon="6.52281">
        <ele>1865</ele>
        <time>2010-01-01T01:48:18Z</time>
      </trkpt>
      <trkpt lat="44.74006" lon="6.52292">
        <ele>1867</ele>
        <time>2010-01-01T01:48:21Z</time>
      </trkpt>
      <trkpt lat="44.74001" lon="6.52311">
        <ele>1867</ele>
        <time>2010-01-01T01:48:25Z</time>
      </trkpt>
      <trkpt lat="44.74001" lon="6.5233">
        <ele>1865</ele>
        <time>2010-01-01T01:48:28Z</time>
      </trkpt>
      <trkpt lat="44.73998" lon="6.52353">
        <ele>1867</ele>
        <time>2010-01-01T01:48:33Z</time>
      </trkpt>
      <trkpt lat="44.73997" lon="6.5236">
        <ele>1867</ele>
        <time>2010-01-01T01:48:34Z</time>
      </trkpt>
      <trkpt lat="44.73992" lon="6.52367">
        <ele>1869</ele>
        <time>2010-01-01T01:48:36Z</time>
      </trkpt>
      <trkpt lat="44.73983" lon="6.52378">
        <ele>1872</ele>
        <time>2010-01-01T01:48:39Z</time>
      </trkpt>
      <trkpt lat="44.73978" lon="6.52378">
        <ele>1874</ele>
        <time>2010-01-01T01:48:40Z</time>
      </trkpt>
      <trkpt lat="44.73971" lon="6.52385">
        <ele>1876</ele>
        <time>2010-01-01T01:48:43Z</time>
      </trkpt>
      <trkpt lat="44.73963" lon="6.52399">
        <ele>1877</ele>
        <time>2010-01-01T01:48:46Z</time>
      </trkpt>
      <trkpt lat="44.73959" lon="6.52412">
        <ele>1876</ele>
        <time>2010-01-01T01:48:49Z</time>
      </trkpt>
      <trkpt lat="44.73952" lon="6.52423">
        <ele>1875</ele>
        <time>2010-01-01T01:48:51Z</time>
      </trkpt>
      <trkpt lat="44.73947" lon="6.52431">
        <ele>1875</ele>
        <time>2010-01-01T01:48:54Z</time>
      </trkpt>
      <trkpt lat="44.73936" lon="6.5244">
        <ele>1877</ele>
        <time>2010-01-01T01:48:57Z</time>
      </trkpt>
      <trkpt lat="44.73931" lon="6.52452">
        <ele>1876</ele>
        <time>2010-01-01T01:49:00Z</time>
      </trkpt>
      <trkpt lat="44.73927" lon="6.52463">
        <ele>1875</ele>
        <time>2010-01-01T01:49:02Z</time>
      </trkpt>
      <trkpt lat="44.73916" lon="6.52474">
        <ele>1878</ele>
        <time>2010-01-01T01:49:06Z</time>
      </trkpt>
      <trkpt lat="44.7391" lon="6.52486">
        <ele>1878</ele>
        <time>2010-01-01T01:49:08Z</time>
      </trkpt>
      <trkpt lat="44.739" lon="6.52498">
        <ele>1880</ele>
        <time>2010-01-01T01:49:12Z</time>
      </trkpt>
      <trkpt lat="44.73893" lon="6.52513">
        <ele>1880</ele>
        <time>2010-01-01T01:49:15Z</time>
      </trkpt>
      <trkpt lat="44.73885" lon="6.52522">
        <ele>1881</ele>
        <time>2010-01-01T01:49:18Z</time>
      </trkpt>
      <trkpt lat="44.73881" lon="6.52533">
        <ele>1880</ele>
        <time>2010-01-01T01:49:20Z</time>
      </trkpt>
      <trkpt lat="44.73875" lon="6.52548">
        <ele>1879</ele>
        <time>2010-01-01T01:49:24Z</time>
      </trkpt>
      <trkpt lat="44.73869" lon="6.5256">
        <ele>1879</ele>
        <time>2010-01-01T01:49:26Z</time>
      </trkpt>
      <trkpt lat="44.73864" lon="6.5258">
        <ele>1877</ele>
        <time>2010-01-01T01:49:30Z</time>
      </trkpt>
      <trkpt lat="44.73858" lon="6.52588">
        <ele>1878</ele>
        <time>2010-01-01T01:49:33Z</time>
      </trkpt>
      <trkpt lat="44.73852" lon="6.526">
        <ele>1878</ele>
        <time>2010-01-01T01:49:35Z</time>
      </trkpt>
      <trkpt lat="44.73848" lon="6.52612">
        <ele>1878</ele>
        <time>2010-01-01T01:49:38Z</time>
      </trkpt>
      <trkpt lat="44.73842" lon="6.52618">
        <ele>1880</ele>
        <time>2010-01-01T01:49:40Z</time>
      </trkpt>
      <trkpt lat="44.7384" lon="6.52628">
        <ele>1879</ele>
        <time>2010-01-01T01:49:42Z</time>
      </trkpt>
      <trkpt lat="44.73841" lon="6.52635">
        <ele>1878</ele>
        <time>2010-01-01T01:49:43Z</time>
      </trkpt>
      <trkpt lat="44.73844" lon="6.52636">
        <ele>1876</ele>
        <time>2010-01-01T01:49:44Z</time>
      </trkpt>
      <trkpt lat="44.73756" lon="6.52777">
        <ele>1895</ele>
        <time>2010-01-01T01:50:20Z</time>
      </trkpt>
      <trkpt lat="44.73751" lon="6.52785">
        <ele>1895</ele>
        <time>2010-01-01T01:50:22Z</time>
      </trkpt>
      <trkpt lat="44.73748" lon="6.52791">
        <ele>1896</ele>
        <time>2010-01-01T01:50:23Z</time>
      </trkpt>
      <trkpt lat="44.7374" lon="6.52803">
        <ele>1897</ele>
        <time>2010-01-01T01:50:26Z</time>
      </trkpt>
      <trkpt lat="44.73737" lon="6.5281">
        <ele>1898</ele>
        <time>2010-01-01T01:50:28Z</time>
      </trkpt>
      <trkpt lat="44.73732" lon="6.52815">
        <ele>1899</ele>
        <time>2010-01-01T01:50:30Z</time>
      </trkpt>
      <trkpt lat="44.73727" lon="6.52824">
        <ele>1900</ele>
        <time>2010-01-01T01:50:32Z</time>
      </trkpt>
      <trkpt lat="44.73723" lon="6.52833">
        <ele>1901</ele>
        <time>2010-01-01T01:50:34Z</time>
      </trkpt>
      <trkpt lat="44.73721" lon="6.52845">
        <ele>1902</ele>
        <time>2010-01-01T01:50:36Z</time>
      </trkpt>
      <trkpt lat="44.73721" lon="6.52855">
        <ele>1902</ele>
        <time>2010-01-01T01:50:38Z</time>
      </trkpt>
      <trkpt lat="44.73722" lon="6.52867">
        <ele>1903</ele>
        <time>2010-01-01T01:50:40Z</time>
      </trkpt>
      <trkpt lat="44.73723" lon="6.52877">
        <ele>1904</ele>
        <time>2010-01-01T01:50:42Z</time>
      </trkpt>
      <trkpt lat="44.73716" lon="6.52884">
        <ele>1908</ele>
        <time>2010-01-01T01:50:44Z</time>
      </trkpt>
      <trkpt lat="44.73715" lon="6.52894">
        <ele>1910</ele>
        <time>2010-01-01T01:50:46Z</time>
      </trkpt>
      <trkpt lat="44.73715" lon="6.52904">
        <ele>1911</ele>
        <time>2010-01-01T01:50:48Z</time>
      </trkpt>
      <trkpt lat="44.73721" lon="6.52913">
        <ele>1910</ele>
        <time>2010-01-01T01:50:51Z</time>
      </trkpt>
      <trkpt lat="44.73724" lon="6.52922">
        <ele>1909</ele>
        <time>2010-01-01T01:50:52Z</time>
      </trkpt>
      <trkpt lat="44.73727" lon="6.5293">
        <ele>1908</ele>
        <time>2010-01-01T01:50:54Z</time>
      </trkpt>
      <trkpt lat="44.73733" lon="6.52946">
        <ele>1907</ele>
        <time>2010-01-01T01:50:58Z</time>
      </trkpt>
      <trkpt lat="44.73737" lon="6.52963">
        <ele>1907</ele>
        <time>2010-01-01T01:51:01Z</time>
      </trkpt>
      <trkpt lat="44.73746" lon="6.52976">
        <ele>1906</ele>
        <time>2010-01-01T01:51:04Z</time>
      </trkpt>
      <trkpt lat="44.73746" lon="6.52989">
        <ele>1908</ele>
        <time>2010-01-01T01:51:07Z</time>
      </trkpt>
      <trkpt lat="44.73752" lon="6.53004">
        <ele>1909</ele>
        <time>2010-01-01T01:51:10Z</time>
      </trkpt>
      <trkpt lat="44.73753" lon="6.53023">
        <ele>1913</ele>
        <time>2010-01-01T01:51:14Z</time>
      </trkpt>
      <trkpt lat="44.73753" lon="6.53044">
        <ele>1916</ele>
        <time>2010-01-01T01:51:17Z</time>
      </trkpt>
      <trkpt lat="44.73757" lon="6.53053">
        <ele>1917</ele>
        <time>2010-01-01T01:51:19Z</time>
      </trkpt>
      <trkpt lat="44.73761" lon="6.53061">
        <ele>1917</ele>
        <time>2010-01-01T01:51:21Z</time>
      </trkpt>
      <trkpt lat="44.73769" lon="6.53072">
        <ele>1916</ele>
        <time>2010-01-01T01:51:24Z</time>
      </trkpt>
      <trkpt lat="44.73776" lon="6.53086">
        <ele>1916</ele>
        <time>2010-01-01T01:51:28Z</time>
      </trkpt>
      <trkpt lat="44.73778" lon="6.53103">
        <ele>1915</ele>
        <time>2010-01-01T01:51:31Z</time>
      </trkpt>
      <trkpt lat="44.7378" lon="6.53115">
        <ele>1915</ele>
        <time>2010-01-01T01:51:33Z</time>
      </trkpt>
      <trkpt lat="44.73778" lon="6.53129">
        <ele>1917</ele>
        <time>2010-01-01T01:51:36Z</time>
      </trkpt>
      <trkpt lat="44.73782" lon="6.53142">
        <ele>1919</ele>
        <time>2010-01-01T01:51:39Z</time>
      </trkpt>
      <trkpt lat="44.73783" lon="6.53153">
        <ele>1920</ele>
        <time>2010-01-01T01:51:41Z</time>
      </trkpt>
      <trkpt lat="44.73786" lon="6.53166">
        <ele>1923</ele>
        <time>2010-01-01T01:51:43Z</time>
      </trkpt>
      <trkpt lat="44.7379" lon="6.53175">
        <ele>1924</ele>
        <time>2010-01-01T01:51:45Z</time>
      </trkpt>
      <trkpt lat="44.73795" lon="6.53187">
        <ele>1927</ele>
        <time>2010-01-01T01:51:48Z</time>
      </trkpt>
      <trkpt lat="44.73798" lon="6.53196">
        <ele>1928</ele>
        <time>2010-01-01T01:51:50Z</time>
      </trkpt>
      <trkpt lat="44.738" lon="6.5319">
        <ele>1927</ele>
        <time>2010-01-01T01:51:51Z</time>
      </trkpt>
      <trkpt lat="44.73796" lon="6.53207">
        <ele>1929</ele>
        <time>2010-01-01T01:51:54Z</time>
      </trkpt>
      <trkpt lat="44.73795" lon="6.53209">
        <ele>1929</ele>
        <time>2010-01-01T01:51:55Z</time>
      </trkpt>
      <trkpt lat="44.73795" lon="6.53209">
        <ele>1929</ele>
        <time>2010-01-01T01:51:55Z</time>
      </trkpt>
      <trkpt lat="44.73782" lon="6.53227">
        <ele>1931</ele>
        <time>2010-01-01T01:52:00Z</time>
      </trkpt>
      <trkpt lat="44.73778" lon="6.53246">
        <ele>1931</ele>
        <time>2010-01-01T01:52:04Z</time>
      </trkpt>
      <trkpt lat="44.73772" lon="6.5325">
        <ele>1931</ele>
        <time>2010-01-01T01:52:05Z</time>
      </trkpt>
      <trkpt lat="44.7377" lon="6.53257">
        <ele>1932</ele>
        <time>2010-01-01T01:52:07Z</time>
      </trkpt>
      <trkpt lat="44.73772" lon="6.53265">
        <ele>1932</ele>
        <time>2010-01-01T01:52:09Z</time>
      </trkpt>
      <trkpt lat="44.73771" lon="6.53274">
        <ele>1933</ele>
        <time>2010-01-01T01:52:10Z</time>
      </trkpt>
      <trkpt lat="44.73763" lon="6.53288">
        <ele>1935</ele>
        <time>2010-01-01T01:52:14Z</time>
      </trkpt>
      <trkpt lat="44.73749" lon="6.53292">
        <ele>1937</ele>
        <time>2010-01-01T01:52:17Z</time>
      </trkpt>
      <trkpt lat="44.73744" lon="6.53291">
        <ele>1938</ele>
        <time>2010-01-01T01:52:19Z</time>
      </trkpt>
      <trkpt lat="44.73743" lon="6.53306">
        <ele>1938</ele>
        <time>2010-01-01T01:52:22Z</time>
      </trkpt>
      <trkpt lat="44.73746" lon="6.53319">
        <ele>1937</ele>
        <time>2010-01-01T01:52:24Z</time>
      </trkpt>
      <trkpt lat="44.73745" lon="6.53329">
        <ele>1937</ele>
        <time>2010-01-01T01:52:26Z</time>
      </trkpt>
      <trkpt lat="44.73748" lon="6.53338">
        <ele>1936</ele>
        <time>2010-01-01T01:52:28Z</time>
      </trkpt>
      <trkpt lat="44.73744" lon="6.53336">
        <ele>1937</ele>
        <time>2010-01-01T01:52:29Z</time>
      </trkpt>
      <trkpt lat="44.73741" lon="6.53334">
        <ele>1937</ele>
        <time>2010-01-01T01:52:30Z</time>
      </trkpt>
      <trkpt lat="44.73742" lon="6.53335">
        <ele>1937</ele>
        <time>2010-01-01T01:52:30Z</time>
      </trkpt>
      <trkpt lat="44.73743" lon="6.53336">
        <ele>1937</ele>
        <time>2010-01-01T01:52:31Z</time>
      </trkpt>
      <trkpt lat="44.73744" lon="6.53337">
        <ele>1936</ele>
        <time>2010-01-01T01:52:31Z</time>
      </trkpt>
      <trkpt lat="44.73738" lon="6.53341">
        <ele>1936</ele>
        <time>2010-01-01T01:52:33Z</time>
      </trkpt>
      <trkpt lat="44.73737" lon="6.53338">
        <ele>1937</ele>
        <time>2010-01-01T01:52:34Z</time>
      </trkpt>
      <trkpt lat="44.73698" lon="6.53433">
        <ele>1932</ele>
        <time>2010-01-01T01:52:54Z</time>
      </trkpt>
      <trkpt lat="44.73699" lon="6.53413">
        <ele>1933</ele>
        <time>2010-01-01T01:52:58Z</time>
      </trkpt>
      <trkpt lat="44.73701" lon="6.53401">
        <ele>1934</ele>
        <time>2010-01-01T01:53:01Z</time>
      </trkpt>
      <trkpt lat="44.73703" lon="6.53388">
        <ele>1934</ele>
        <time>2010-01-01T01:53:03Z</time>
      </trkpt>
      <trkpt lat="44.73708" lon="6.53397">
        <ele>1932</ele>
        <time>2010-01-01T01:53:05Z</time>
      </trkpt>
      <trkpt lat="44.73709" lon="6.53392">
        <ele>1933</ele>
        <time>2010-01-01T01:53:06Z</time>
      </trkpt>
      <trkpt lat="44.73708" lon="6.53392">
        <ele>1933</ele>
        <time>2010-01-01T01:53:06Z</time>
      </trkpt>
      <trkpt lat="44.73703" lon="6.53391">
        <ele>1934</ele>
        <time>2010-01-01T01:53:08Z</time>
      </trkpt>
      <trkpt lat="44.73701" lon="6.53391">
        <ele>1935</ele>
        <time>2010-01-01T01:53:08Z</time>
      </trkpt>
      <trkpt lat="44.737" lon="6.53393">
        <ele>1935</ele>
        <time>2010-01-01T01:53:09Z</time>
      </trkpt>
      <trkpt lat="44.737" lon="6.53396">
        <ele>1934</ele>
        <time>2010-01-01T01:53:09Z</time>
      </trkpt>
      <trkpt lat="44.73701" lon="6.53398">
        <ele>1934</ele>
        <time>2010-01-01T01:53:10Z</time>
      </trkpt>
      <trkpt lat="44.73699" lon="6.53415">
        <ele>1933</ele>
        <time>2010-01-01T01:53:13Z</time>
      </trkpt>
      <trkpt lat="44.73695" lon="6.53415">
        <ele>1934</ele>
        <time>2010-01-01T01:53:14Z</time>
      </trkpt>
      <trkpt lat="44.73694" lon="6.53418">
        <ele>1934</ele>
        <time>2010-01-01T01:53:14Z</time>
      </trkpt>
      <trkpt lat="44.73695" lon="6.53426">
        <ele>1933</ele>
        <time>2010-01-01T01:53:16Z</time>
      </trkpt>
      <trkpt lat="44.73702" lon="6.53433">
        <ele>1930</ele>
        <time>2010-01-01T01:53:18Z</time>
      </trkpt>
      <trkpt lat="44.737" lon="6.53442">
        <ele>1930</ele>
        <time>2010-01-01T01:53:20Z</time>
      </trkpt>
      <trkpt lat="44.737" lon="6.53443">
        <ele>1930</ele>
        <time>2010-01-01T01:53:20Z</time>
      </trkpt>
      <trkpt lat="44.73708" lon="6.5348">
        <ele>1919</ele>
        <time>2010-01-01T01:53:28Z</time>
      </trkpt>
      <trkpt lat="44.73726" lon="6.53495">
        <ele>1909</ele>
        <time>2010-01-01T01:53:33Z</time>
      </trkpt>
      <trkpt lat="44.7373" lon="6.53498">
        <ele>1907</ele>
        <time>2010-01-01T01:53:34Z</time>
      </trkpt>
      <trkpt lat="44.73735" lon="6.53508">
        <ele>1903</ele>
        <time>2010-01-01T01:53:37Z</time>
      </trkpt>
      <trkpt lat="44.7373" lon="6.53512">
        <ele>1904</ele>
        <time>2010-01-01T01:53:38Z</time>
      </trkpt>
      <trkpt lat="44.73725" lon="6.53522">
        <ele>1903</ele>
        <time>2010-01-01T01:53:41Z</time>
      </trkpt>
      <trkpt lat="44.73733" lon="6.53514">
        <ele>1902</ele>
        <time>2010-01-01T01:53:43Z</time>
      </trkpt>
      <trkpt lat="44.73737" lon="6.53516">
        <ele>1901</ele>
        <time>2010-01-01T01:53:44Z</time>
      </trkpt>
      <trkpt lat="44.73862" lon="6.53511">
        <ele>1892</ele>
        <time>2010-01-01T01:54:18Z</time>
      </trkpt>
      <trkpt lat="44.74" lon="6.53643">
        <ele>1845</ele>
        <time>2010-01-01T01:55:02Z</time>
      </trkpt>
      <trkpt lat="44.73928" lon="6.5377">
        <ele>1788</ele>
        <time>2010-01-01T01:55:33Z</time>
      </trkpt>
      <trkpt lat="44.73958" lon="6.53807">
        <ele>1781</ele>
        <time>2010-01-01T01:55:44Z</time>
      </trkpt>
      <trkpt lat="44.73968" lon="6.53827">
        <ele>1776</ele>
        <time>2010-01-01T01:55:49Z</time>
      </trkpt>
      <trkpt lat="44.73977" lon="6.53839">
        <ele>1773</ele>
        <time>2010-01-01T01:55:52Z</time>
      </trkpt>
      <trkpt lat="44.7398" lon="6.53853">
        <ele>1769</ele>
        <time>2010-01-01T01:55:55Z</time>
      </trkpt>
      <trkpt lat="44.7396" lon="6.53865">
        <ele>1762</ele>
        <time>2010-01-01T01:56:00Z</time>
      </trkpt>
      <trkpt lat="44.73931" lon="6.53876">
        <ele>1749</ele>
        <time>2010-01-01T01:56:09Z</time>
      </trkpt>
      <trkpt lat="44.73926" lon="6.53874">
        <ele>1749</ele>
        <time>2010-01-01T01:56:10Z</time>
      </trkpt>
      <trkpt lat="44.73932" lon="6.53879">
        <ele>1747</ele>
        <time>2010-01-01T01:56:12Z</time>
      </trkpt>
      <trkpt lat="44.73908" lon="6.53863">
        <ele>1752</ele>
        <time>2010-01-01T01:56:19Z</time>
      </trkpt>
      <trkpt lat="44.739" lon="6.53869">
        <ele>1750</ele>
        <time>2010-01-01T01:56:21Z</time>
      </trkpt>
      <trkpt lat="44.73879" lon="6.53868">
        <ele>1750</ele>
        <time>2010-01-01T01:56:27Z</time>
      </trkpt>
      <trkpt lat="44.73866" lon="6.53857">
        <ele>1754</ele>
        <time>2010-01-01T01:56:31Z</time>
      </trkpt>
      <trkpt lat="44.73869" lon="6.53864">
        <ele>1751</ele>
        <time>2010-01-01T01:56:32Z</time>
      </trkpt>
      <trkpt lat="44.7387" lon="6.53868">
        <ele>1750</ele>
        <time>2010-01-01T01:56:33Z</time>
      </trkpt>
      <trkpt lat="44.73825" lon="6.53944">
        <ele>1721</ele>
        <time>2010-01-01T01:56:52Z</time>
      </trkpt>
      <trkpt lat="44.73798" lon="6.54">
        <ele>1706</ele>
        <time>2010-01-01T01:57:05Z</time>
      </trkpt>
      <trkpt lat="44.73781" lon="6.54105">
        <ele>1687</ele>
        <time>2010-01-01T01:57:25Z</time>
      </trkpt>
      <trkpt lat="44.73728" lon="6.54176">
        <ele>1675</ele>
        <time>2010-01-01T01:57:45Z</time>
      </trkpt>
      <trkpt lat="44.73714" lon="6.54186">
        <ele>1671</ele>
        <time>2010-01-01T01:57:49Z</time>
      </trkpt>
      <trkpt lat="44.73734" lon="6.54199">
        <ele>1667</ele>
        <time>2010-01-01T01:57:55Z</time>
      </trkpt>
      <trkpt lat="44.736" lon="6.54234">
        <ele>1652</ele>
        <time>2010-01-01T01:58:31Z</time>
      </trkpt>
      <trkpt lat="44.73483" lon="6.54288">
        <ele>1630</ele>
        <time>2010-01-01T01:59:04Z</time>
      </trkpt>
      <trkpt lat="44.73434" lon="6.54377">
        <ele>1623</ele>
        <time>2010-01-01T01:59:25Z</time>
      </trkpt>
      <trkpt lat="44.73404" lon="6.5439">
        <ele>1623</ele>
        <time>2010-01-01T01:59:33Z</time>
      </trkpt>
      <trkpt lat="44.73369" lon="6.54397">
        <ele>1620</ele>
        <time>2010-01-01T01:59:43Z</time>
      </trkpt>
      <trkpt lat="44.73363" lon="6.54395">
        <ele>1620</ele>
        <time>2010-01-01T01:59:45Z</time>
      </trkpt>
      <trkpt lat="44.73355" lon="6.54405">
        <ele>1617</ele>
        <time>2010-01-01T01:59:48Z</time>
      </trkpt>
      <trkpt lat="44.73334" lon="6.54402">
        <ele>1618</ele>
        <time>2010-01-01T01:59:53Z</time>
      </trkpt>
      <trkpt lat="44.73267" lon="6.54443">
        <ele>1607</ele>
        <time>2010-01-01T02:00:13Z</time>
      </trkpt>
      <trkpt lat="44.73252" lon="6.54487">
        <ele>1604</ele>
        <time>2010-01-01T02:00:22Z</time>
      </trkpt>
      <trkpt lat="44.73248" lon="6.54537">
        <ele>1601</ele>
        <time>2010-01-01T02:00:32Z</time>
      </trkpt>
      <trkpt lat="44.7325" lon="6.54565">
        <ele>1597</ele>
        <time>2010-01-01T02:00:37Z</time>
      </trkpt>
      <trkpt lat="44.7326" lon="6.54616">
        <ele>1584</ele>
        <time>2010-01-01T02:00:47Z</time>
      </trkpt>
      <trkpt lat="44.73252" lon="6.54658">
        <ele>1575</ele>
        <time>2010-01-01T02:00:55Z</time>
      </trkpt>
      <trkpt lat="44.73221" lon="6.54714">
        <ele>1558</ele>
        <time>2010-01-01T02:01:09Z</time>
      </trkpt>
      <trkpt lat="44.73198" lon="6.54726">
        <ele>1558</ele>
        <time>2010-01-01T02:01:15Z</time>
      </trkpt>
      <trkpt lat="44.73161" lon="6.54781">
        <ele>1550</ele>
        <time>2010-01-01T02:01:29Z</time>
      </trkpt>
      <trkpt lat="44.73141" lon="6.54817">
        <ele>1546</ele>
        <time>2010-01-01T02:01:38Z</time>
      </trkpt>
      <trkpt lat="44.73132" lon="6.54841">
        <ele>1544</ele>
        <time>2010-01-01T02:01:43Z</time>
      </trkpt>
      <trkpt lat="44.73128" lon="6.54851">
        <ele>1544</ele>
        <time>2010-01-01T02:01:45Z</time>
      </trkpt>
      <trkpt lat="44.73126" lon="6.54862">
        <ele>1544</ele>
        <time>2010-01-01T02:01:48Z</time>
      </trkpt>
      <trkpt lat="44.73122" lon="6.54874">
        <ele>1544</ele>
        <time>2010-01-01T02:01:50Z</time>
      </trkpt>
      <trkpt lat="44.7312" lon="6.54873">
        <ele>1544</ele>
        <time>2010-01-01T02:01:51Z</time>
      </trkpt>
      <trkpt lat="44.73064" lon="6.54928">
        <ele>1549</ele>
        <time>2010-01-01T02:02:09Z</time>
      </trkpt>
      <trkpt lat="44.73068" lon="6.54936">
        <ele>1547</ele>
        <time>2010-01-01T02:02:11Z</time>
      </trkpt>
      <trkpt lat="44.73061" lon="6.54969">
        <ele>1541</ele>
        <time>2010-01-01T02:02:17Z</time>
      </trkpt>
      <trkpt lat="44.73047" lon="6.54981">
        <ele>1539</ele>
        <time>2010-01-01T02:02:22Z</time>
      </trkpt>
      <trkpt lat="44.73021" lon="6.54995">
        <ele>1538</ele>
        <time>2010-01-01T02:02:29Z</time>
      </trkpt>
      <trkpt lat="44.72995" lon="6.55005">
        <ele>1539</ele>
        <time>2010-01-01T02:02:37Z</time>
      </trkpt>
      <trkpt lat="44.7297" lon="6.55026">
        <ele>1543</ele>
        <time>2010-01-01T02:02:44Z</time>
      </trkpt>
      <trkpt lat="44.72962" lon="6.55054">
        <ele>1543</ele>
        <time>2010-01-01T02:02:50Z</time>
      </trkpt>
      <trkpt lat="44.72979" lon="6.55075">
        <ele>1534</ele>
        <time>2010-01-01T02:02:56Z</time>
      </trkpt>
      <trkpt lat="44.72977" lon="6.55109">
        <ele>1532</ele>
        <time>2010-01-01T02:03:02Z</time>
      </trkpt>
      <trkpt lat="44.72982" lon="6.55139">
        <ele>1523</ele>
        <time>2010-01-01T02:03:08Z</time>
      </trkpt>
      <trkpt lat="44.72977" lon="6.55212">
        <ele>1525</ele>
        <time>2010-01-01T02:03:22Z</time>
      </trkpt>
      <trkpt lat="44.72979" lon="6.55225">
        <ele>1524</ele>
        <time>2010-01-01T02:03:25Z</time>
      </trkpt>
      <trkpt lat="44.72976" lon="6.55234">
        <ele>1524</ele>
        <time>2010-01-01T02:03:26Z</time>
      </trkpt>
      <trkpt lat="44.72968" lon="6.55233">
        <ele>1527</ele>
        <time>2010-01-01T02:03:29Z</time>
      </trkpt>
      <trkpt lat="44.72962" lon="6.55241">
        <ele>1529</ele>
        <time>2010-01-01T02:03:31Z</time>
      </trkpt>
      <trkpt lat="44.7297" lon="6.5525">
        <ele>1525</ele>
        <time>2010-01-01T02:03:34Z</time>
      </trkpt>
      <trkpt lat="44.72978" lon="6.55288">
        <ele>1519</ele>
        <time>2010-01-01T02:03:41Z</time>
      </trkpt>
      <trkpt lat="44.72988" lon="6.55312">
        <ele>1513</ele>
        <time>2010-01-01T02:03:46Z</time>
      </trkpt>
      <trkpt lat="44.72994" lon="6.55378">
        <ele>1507</ele>
        <time>2010-01-01T02:03:59Z</time>
      </trkpt>
      <trkpt lat="44.7301" lon="6.55387">
        <ele>1502</ele>
        <time>2010-01-01T02:04:04Z</time>
      </trkpt>
      <trkpt lat="44.73023" lon="6.55389">
        <ele>1496</ele>
        <time>2010-01-01T02:04:07Z</time>
      </trkpt>
      <trkpt lat="44.73039" lon="6.55398">
        <ele>1490</ele>
        <time>2010-01-01T02:04:12Z</time>
      </trkpt>
      <trkpt lat="44.73041" lon="6.55391">
        <ele>1490</ele>
        <time>2010-01-01T02:04:13Z</time>
      </trkpt>
      <trkpt lat="44.73048" lon="6.55389">
        <ele>1489</ele>
        <time>2010-01-01T02:04:15Z</time>
      </trkpt>
      <trkpt lat="44.73049" lon="6.55434">
        <ele>1478</ele>
        <time>2010-01-01T02:04:24Z</time>
      </trkpt>
      <trkpt lat="44.73046" lon="6.55477">
        <ele>1471</ele>
        <time>2010-01-01T02:04:32Z</time>
      </trkpt>
      <trkpt lat="44.73043" lon="6.55553">
        <ele>1458</ele>
        <time>2010-01-01T02:04:46Z</time>
      </trkpt>
      <trkpt lat="44.73041" lon="6.55574">
        <ele>1457</ele>
        <time>2010-01-01T02:04:50Z</time>
      </trkpt>
      <trkpt lat="44.73038" lon="6.5558">
        <ele>1457</ele>
        <time>2010-01-01T02:04:52Z</time>
      </trkpt>
      <trkpt lat="44.73015" lon="6.55607">
        <ele>1459</ele>
        <time>2010-01-01T02:05:00Z</time>
      </trkpt>
      <trkpt lat="44.73009" lon="6.55614">
        <ele>1459</ele>
        <time>2010-01-01T02:05:02Z</time>
      </trkpt>
      <trkpt lat="44.73017" lon="6.5567">
        <ele>1450</ele>
        <time>2010-01-01T02:05:13Z</time>
      </trkpt>
      <trkpt lat="44.73021" lon="6.55701">
        <ele>1440</ele>
        <time>2010-01-01T02:05:19Z</time>
      </trkpt>
      <trkpt lat="44.73021" lon="6.5572">
        <ele>1433</ele>
        <time>2010-01-01T02:05:22Z</time>
      </trkpt>
      <trkpt lat="44.73022" lon="6.55737">
        <ele>1427</ele>
        <time>2010-01-01T02:05:25Z</time>
      </trkpt>
      <trkpt lat="44.73035" lon="6.55737">
        <ele>1427</ele>
        <time>2010-01-01T02:05:29Z</time>
      </trkpt>
      <trkpt lat="44.73046" lon="6.5574">
        <ele>1425</ele>
        <time>2010-01-01T02:05:32Z</time>
      </trkpt>
      <trkpt lat="44.73053" lon="6.55737">
        <ele>1426</ele>
        <time>2010-01-01T02:05:34Z</time>
      </trkpt>
      <trkpt lat="44.73051" lon="6.55744">
        <ele>1424</ele>
        <time>2010-01-01T02:05:35Z</time>
      </trkpt>
      <trkpt lat="44.73052" lon="6.55744">
        <ele>1424</ele>
        <time>2010-01-01T02:05:35Z</time>
      </trkpt>
      <trkpt lat="44.73051" lon="6.55746">
        <ele>1423</ele>
        <time>2010-01-01T02:05:36Z</time>
      </trkpt>
      <trkpt lat="44.73063" lon="6.55761">
        <ele>1417</ele>
        <time>2010-01-01T02:05:40Z</time>
      </trkpt>
      <trkpt lat="44.73061" lon="6.55778">
        <ele>1411</ele>
        <time>2010-01-01T02:05:43Z</time>
      </trkpt>
      <trkpt lat="44.73066" lon="6.55791">
        <ele>1406</ele>
        <time>2010-01-01T02:05:46Z</time>
      </trkpt>
      <trkpt lat="44.73068" lon="6.55803">
        <ele>1402</ele>
        <time>2010-01-01T02:05:48Z</time>
      </trkpt>
      <trkpt lat="44.73073" lon="6.55802">
        <ele>1402</ele>
        <time>2010-01-01T02:05:50Z</time>
      </trkpt>
      <trkpt lat="44.73079" lon="6.55807">
        <ele>1400</ele>
        <time>2010-01-01T02:05:52Z</time>
      </trkpt>
      <trkpt lat="44.73089" lon="6.55816">
        <ele>1398</ele>
        <time>2010-01-01T02:05:55Z</time>
      </trkpt>
      <trkpt lat="44.731" lon="6.55812">
        <ele>1399</ele>
        <time>2010-01-01T02:05:58Z</time>
      </trkpt>
      <trkpt lat="44.73096" lon="6.55812">
        <ele>1399</ele>
        <time>2010-01-01T02:05:58Z</time>
      </trkpt>
      <trkpt lat="44.73144" lon="6.55808">
        <ele>1402</ele>
        <time>2010-01-01T02:06:11Z</time>
      </trkpt>
      <trkpt lat="44.73191" lon="6.55848">
        <ele>1390</ele>
        <time>2010-01-01T02:06:26Z</time>
      </trkpt>
      <trkpt lat="44.73216" lon="6.5589">
        <ele>1374</ele>
        <time>2010-01-01T02:06:36Z</time>
      </trkpt>
      <trkpt lat="44.73237" lon="6.55958">
        <ele>1352</ele>
        <time>2010-01-01T02:06:50Z</time>
      </trkpt>
      <trkpt lat="44.7332" lon="6.55829">
        <ele>1350</ele>
        <time>2010-01-01T02:07:23Z</time>
      </trkpt>
      <trkpt lat="44.733" lon="6.55955">
        <ele>1334</ele>
        <time>2010-01-01T02:07:47Z</time>
      </trkpt>
      <trkpt lat="44.73245" lon="6.56042">
        <ele>1323</ele>
        <time>2010-01-01T02:08:10Z</time>
      </trkpt>
      <trkpt lat="44.73229" lon="6.56146">
        <ele>1290</ele>
        <time>2010-01-01T02:08:30Z</time>
      </trkpt>
      <trkpt lat="44.73234" lon="6.56139">
        <ele>1291</ele>
        <time>2010-01-01T02:08:32Z</time>
      </trkpt>
      <trkpt lat="44.73239" lon="6.56139">
        <ele>1290</ele>
        <time>2010-01-01T02:08:33Z</time>
      </trkpt>
      <trkpt lat="44.73243" lon="6.56135">
        <ele>1290</ele>
        <time>2010-01-01T02:08:34Z</time>
      </trkpt>
      <trkpt lat="44.73255" lon="6.56135">
        <ele>1287</ele>
        <time>2010-01-01T02:08:38Z</time>
      </trkpt>
      <trkpt lat="44.73257" lon="6.56144">
        <ele>1284</ele>
        <time>2010-01-01T02:08:39Z</time>
      </trkpt>
      <trkpt lat="44.73258" lon="6.56136">
        <ele>1286</ele>
        <time>2010-01-01T02:08:41Z</time>
      </trkpt>
      <trkpt lat="44.73259" lon="6.56134">
        <ele>1286</ele>
        <time>2010-01-01T02:08:41Z</time>
      </trkpt>
      <trkpt lat="44.73259" lon="6.56135">
        <ele>1286</ele>
        <time>2010-01-01T02:08:42Z</time>
      </trkpt>
      <trkpt lat="44.73259" lon="6.56136">
        <ele>1286</ele>
        <time>2010-01-01T02:08:42Z</time>
      </trkpt>
      <trkpt lat="44.73259" lon="6.56138">
        <ele>1285</ele>
        <time>2010-01-01T02:08:42Z</time>
      </trkpt>
      <trkpt lat="44.7329" lon="6.5627">
        <ele>1233</ele>
        <time>2010-01-01T02:09:08Z</time>
      </trkpt>
      <trkpt lat="44.73298" lon="6.56255">
        <ele>1234</ele>
        <time>2010-01-01T02:09:12Z</time>
      </trkpt>
      <trkpt lat="44.73346" lon="6.56214">
        <ele>1231</ele>
        <time>2010-01-01T02:09:27Z</time>
      </trkpt>
      <trkpt lat="44.7337" lon="6.56198">
        <ele>1225</ele>
        <time>2010-01-01T02:09:34Z</time>
      </trkpt>
      <trkpt lat="44.73394" lon="6.56167">
        <ele>1221</ele>
        <time>2010-01-01T02:09:43Z</time>
      </trkpt>
      <trkpt lat="44.73411" lon="6.56177">
        <ele>1212</ele>
        <time>2010-01-01T02:09:48Z</time>
      </trkpt>
      <trkpt lat="44.73418" lon="6.5618">
        <ele>1209</ele>
        <time>2010-01-01T02:09:50Z</time>
      </trkpt>
      <trkpt lat="44.7342" lon="6.56187">
        <ele>1206</ele>
        <time>2010-01-01T02:09:51Z</time>
      </trkpt>
      <trkpt lat="44.73429" lon="6.56203">
        <ele>1200</ele>
        <time>2010-01-01T02:09:55Z</time>
      </trkpt>
      <trkpt lat="44.7344" lon="6.56236">
        <ele>1193</ele>
        <time>2010-01-01T02:10:02Z</time>
      </trkpt>
      <trkpt lat="44.7345" lon="6.56251">
        <ele>1190</ele>
        <time>2010-01-01T02:10:06Z</time>
      </trkpt>
      <trkpt lat="44.73452" lon="6.56262">
        <ele>1187</ele>
        <time>2010-01-01T02:10:08Z</time>
      </trkpt>
      <trkpt lat="44.73468" lon="6.56255">
        <ele>1186</ele>
        <time>2010-01-01T02:10:12Z</time>
      </trkpt>
      <trkpt lat="44.73481" lon="6.56246">
        <ele>1186</ele>
        <time>2010-01-01T02:10:16Z</time>
      </trkpt>
      <trkpt lat="44.73485" lon="6.56234">
        <ele>1188</ele>
        <time>2010-01-01T02:10:19Z</time>
      </trkpt>
      <trkpt lat="44.73493" lon="6.56218">
        <ele>1190</ele>
        <time>2010-01-01T02:10:23Z</time>
      </trkpt>
      <trkpt lat="44.73504" lon="6.56211">
        <ele>1190</ele>
        <time>2010-01-01T02:10:26Z</time>
      </trkpt>
      <trkpt lat="44.73511" lon="6.56207">
        <ele>1189</ele>
        <time>2010-01-01T02:10:28Z</time>
      </trkpt>
      <trkpt lat="44.73515" lon="6.56194">
        <ele>1192</ele>
        <time>2010-01-01T02:10:30Z</time>
      </trkpt>
      <trkpt lat="44.73529" lon="6.56184">
        <ele>1193</ele>
        <time>2010-01-01T02:10:35Z</time>
      </trkpt>
      <trkpt lat="44.73537" lon="6.56188">
        <ele>1192</ele>
        <time>2010-01-01T02:10:37Z</time>
      </trkpt>
      <trkpt lat="44.73549" lon="6.56187">
        <ele>1192</ele>
        <time>2010-01-01T02:10:40Z</time>
      </trkpt>
      <trkpt lat="44.73561" lon="6.56181">
        <ele>1194</ele>
        <time>2010-01-01T02:10:44Z</time>
      </trkpt>
      <trkpt lat="44.73578" lon="6.56169">
        <ele>1198</ele>
        <time>2010-01-01T02:10:49Z</time>
      </trkpt>
      <trkpt lat="44.7359" lon="6.56162">
        <ele>1200</ele>
        <time>2010-01-01T02:10:52Z</time>
      </trkpt>
      <trkpt lat="44.73594" lon="6.56151">
        <ele>1203</ele>
        <time>2010-01-01T02:10:54Z</time>
      </trkpt>
      <trkpt lat="44.73592" lon="6.56157">
        <ele>1201</ele>
        <time>2010-01-01T02:10:56Z</time>
      </trkpt>
      <trkpt lat="44.73595" lon="6.56162">
        <ele>1199</ele>
        <time>2010-01-01T02:10:57Z</time>
      </trkpt>
      <trkpt lat="44.73585" lon="6.56172">
        <ele>1197</ele>
        <time>2010-01-01T02:11:00Z</time>
      </trkpt>
      <trkpt lat="44.73589" lon="6.56164">
        <ele>1199</ele>
        <time>2010-01-01T02:11:02Z</time>
      </trkpt>
      <trkpt lat="44.73593" lon="6.56158">
        <ele>1201</ele>
        <time>2010-01-01T02:11:03Z</time>
      </trkpt>
      <trkpt lat="44.73594" lon="6.56158">
        <ele>1201</ele>
        <time>2010-01-01T02:11:03Z</time>
      </trkpt>
      <trkpt lat="44.73619" lon="6.56159">
        <ele>1201</ele>
        <time>2010-01-01T02:11:10Z</time>
      </trkpt>
      <trkpt lat="44.73595" lon="6.56157">
        <ele>1201</ele>
        <time>2010-01-01T02:11:17Z</time>
      </trkpt>
      <trkpt lat="44.73602" lon="6.56154">
        <ele>1202</ele>
        <time>2010-01-01T02:11:19Z</time>
      </trkpt>
      <trkpt lat="44.73618" lon="6.56154">
        <ele>1202</ele>
        <time>2010-01-01T02:11:23Z</time>
      </trkpt>
      <trkpt lat="44.73613" lon="6.56161">
        <ele>1200</ele>
        <time>2010-01-01T02:11:24Z</time>
      </trkpt>
      <trkpt lat="44.73633" lon="6.56169">
        <ele>1198</ele>
        <time>2010-01-01T02:11:30Z</time>
      </trkpt>
      <trkpt lat="44.73651" lon="6.56169">
        <ele>1197</ele>
        <time>2010-01-01T02:11:35Z</time>
      </trkpt>
      <trkpt lat="44.73672" lon="6.56165">
        <ele>1198</ele>
        <time>2010-01-01T02:11:40Z</time>
      </trkpt>
      <trkpt lat="44.73685" lon="6.56162">
        <ele>1198</ele>
        <time>2010-01-01T02:11:44Z</time>
      </trkpt>
      <trkpt lat="44.737" lon="6.56145">
        <ele>1201</ele>
        <time>2010-01-01T02:11:49Z</time>
      </trkpt>
      <trkpt lat="44.7371" lon="6.56135">
        <ele>1202</ele>
        <time>2010-01-01T02:11:52Z</time>
      </trkpt>
      <trkpt lat="44.73718" lon="6.56124">
        <ele>1204</ele>
        <time>2010-01-01T02:11:55Z</time>
      </trkpt>
      <trkpt lat="44.7372" lon="6.56119">
        <ele>1205</ele>
        <time>2010-01-01T02:11:56Z</time>
      </trkpt>
      <trkpt lat="44.73724" lon="6.56106">
        <ele>1207</ele>
        <time>2010-01-01T02:11:59Z</time>
      </trkpt>
      <trkpt lat="44.73729" lon="6.56093">
        <ele>1208</ele>
        <time>2010-01-01T02:12:02Z</time>
      </trkpt>
      <trkpt lat="44.7373" lon="6.56077">
        <ele>1209</ele>
        <time>2010-01-01T02:12:05Z</time>
      </trkpt>
      <trkpt lat="44.73733" lon="6.56062">
        <ele>1210</ele>
        <time>2010-01-01T02:12:08Z</time>
      </trkpt>
      <trkpt lat="44.7374" lon="6.56045">
        <ele>1211</ele>
        <time>2010-01-01T02:12:11Z</time>
      </trkpt>
      <trkpt lat="44.73742" lon="6.56036">
        <ele>1212</ele>
        <time>2010-01-01T02:12:13Z</time>
      </trkpt>
      <trkpt lat="44.73749" lon="6.56018">
        <ele>1212</ele>
        <time>2010-01-01T02:12:17Z</time>
      </trkpt>
      <trkpt lat="44.73754" lon="6.56004">
        <ele>1214</ele>
        <time>2010-01-01T02:12:20Z</time>
      </trkpt>
      <trkpt lat="44.73759" lon="6.55993">
        <ele>1215</ele>
        <time>2010-01-01T02:12:23Z</time>
      </trkpt>
      <trkpt lat="44.73767" lon="6.5598">
        <ele>1215</ele>
        <time>2010-01-01T02:12:26Z</time>
      </trkpt>
      <trkpt lat="44.73775" lon="6.55968">
        <ele>1215</ele>
        <time>2010-01-01T02:12:29Z</time>
      </trkpt>
      <trkpt lat="44.73782" lon="6.55962">
        <ele>1216</ele>
        <time>2010-01-01T02:12:31Z</time>
      </trkpt>
      <trkpt lat="44.73792" lon="6.55968">
        <ele>1216</ele>
        <time>2010-01-01T02:12:34Z</time>
      </trkpt>
      <trkpt lat="44.73803" lon="6.55978">
        <ele>1217</ele>
        <time>2010-01-01T02:12:37Z</time>
      </trkpt>
      <trkpt lat="44.73815" lon="6.55981">
        <ele>1217</ele>
        <time>2010-01-01T02:12:41Z</time>
      </trkpt>
      <trkpt lat="44.73829" lon="6.55974">
        <ele>1218</ele>
        <time>2010-01-01T02:12:45Z</time>
      </trkpt>
      <trkpt lat="44.73838" lon="6.55964">
        <ele>1219</ele>
        <time>2010-01-01T02:12:48Z</time>
      </trkpt>
      <trkpt lat="44.73844" lon="6.55956">
        <ele>1220</ele>
        <time>2010-01-01T02:12:50Z</time>
      </trkpt>
      <trkpt lat="44.73849" lon="6.55952">
        <ele>1220</ele>
        <time>2010-01-01T02:12:52Z</time>
      </trkpt>
      <trkpt lat="44.73857" lon="6.55937">
        <ele>1221</ele>
        <time>2010-01-01T02:12:55Z</time>
      </trkpt>
      <trkpt lat="44.73855" lon="6.55945">
        <ele>1220</ele>
        <time>2010-01-01T02:12:57Z</time>
      </trkpt>
      <trkpt lat="44.73851" lon="6.55925">
        <ele>1223</ele>
        <time>2010-01-01T02:13:01Z</time>
      </trkpt>
      <trkpt lat="44.73853" lon="6.5591">
        <ele>1225</ele>
        <time>2010-01-01T02:13:04Z</time>
      </trkpt>
      <trkpt lat="44.73842" lon="6.55904">
        <ele>1227</ele>
        <time>2010-01-01T02:13:07Z</time>
      </trkpt>
      <trkpt lat="44.73833" lon="6.55893">
        <ele>1228</ele>
        <time>2010-01-01T02:13:10Z</time>
      </trkpt>
      <trkpt lat="44.73826" lon="6.55888">
        <ele>1228</ele>
        <time>2010-01-01T02:13:12Z</time>
      </trkpt>
      <trkpt lat="44.73813" lon="6.55882">
        <ele>1228</ele>
        <time>2010-01-01T02:13:16Z</time>
      </trkpt>
      <trkpt lat="44.73801" lon="6.55873">
        <ele>1229</ele>
        <time>2010-01-01T02:13:19Z</time>
      </trkpt>
      <trkpt lat="44.7379" lon="6.55872">
        <ele>1229</ele>
        <time>2010-01-01T02:13:22Z</time>
      </trkpt>
      <trkpt lat="44.73782" lon="6.55876">
        <ele>1228</ele>
        <time>2010-01-01T02:13:25Z</time>
      </trkpt>
      <trkpt lat="44.7378" lon="6.55876">
        <ele>1228</ele>
        <time>2010-01-01T02:13:25Z</time>
      </trkpt>
      <trkpt lat="44.73835" lon="6.5592">
        <ele>1226</ele>
        <time>2010-01-01T02:13:42Z</time>
      </trkpt>
      <trkpt lat="44.73859" lon="6.55894">
        <ele>1226</ele>
        <time>2010-01-01T02:13:50Z</time>
      </trkpt>
      <trkpt lat="44.73868" lon="6.55892">
        <ele>1224</ele>
        <time>2010-01-01T02:13:52Z</time>
      </trkpt>
      <trkpt lat="44.73871" lon="6.55897">
        <ele>1223</ele>
        <time>2010-01-01T02:13:54Z</time>
      </trkpt>
      <trkpt lat="44.73885" lon="6.55889">
        <ele>1220</ele>
        <time>2010-01-01T02:13:58Z</time>
      </trkpt>
      <trkpt lat="44.73904" lon="6.55859">
        <ele>1215</ele>
        <time>2010-01-01T02:14:05Z</time>
      </trkpt>
      <trkpt lat="44.73916" lon="6.5584">
        <ele>1212</ele>
        <time>2010-01-01T02:14:10Z</time>
      </trkpt>
      <trkpt lat="44.73937" lon="6.55913">
        <ele>1203</ele>
        <time>2010-01-01T02:14:25Z</time>
      </trkpt>
      <trkpt lat="44.73956" lon="6.55926">
        <ele>1197</ele>
        <time>2010-01-01T02:14:31Z</time>
      </trkpt>
      <trkpt lat="44.73968" lon="6.55878">
        <ele>1193</ele>
        <time>2010-01-01T02:14:41Z</time>
      </trkpt>
      <trkpt lat="44.73986" lon="6.55833">
        <ele>1187</ele>
        <time>2010-01-01T02:14:50Z</time>
      </trkpt>
      <trkpt lat="44.73992" lon="6.55866">
        <ele>1183</ele>
        <time>2010-01-01T02:14:57Z</time>
      </trkpt>
      <trkpt lat="44.73997" lon="6.55877">
        <ele>1181</ele>
        <time>2010-01-01T02:14:59Z</time>
      </trkpt>
      <trkpt lat="44.74014" lon="6.55861">
        <ele>1172</ele>
        <time>2010-01-01T02:15:05Z</time>
      </trkpt>
      <trkpt lat="44.74002" lon="6.55875">
        <ele>1178</ele>
        <time>2010-01-01T02:15:09Z</time>
      </trkpt>
      <trkpt lat="44.74001" lon="6.55872">
        <ele>1179</ele>
        <time>2010-01-01T02:15:09Z</time>
      </trkpt>
      <trkpt lat="44.74067" lon="6.55773">
        <ele>1166</ele>
        <time>2010-01-01T02:15:35Z</time>
      </trkpt>
      <trkpt lat="44.74162" lon="6.5579">
        <ele>1141</ele>
        <time>2010-01-01T02:16:01Z</time>
      </trkpt>
      <trkpt lat="44.74095" lon="6.5594">
        <ele>1137</ele>
        <time>2010-01-01T02:16:34Z</time>
      </trkpt>
      <trkpt lat="44.74084" lon="6.56041">
        <ele>1136</ele>
        <time>2010-01-01T02:16:54Z</time>
      </trkpt>
      <trkpt lat="44.74082" lon="6.56047">
        <ele>1136</ele>
        <time>2010-01-01T02:16:55Z</time>
      </trkpt>
      <trkpt lat="44.74074" lon="6.56066">
        <ele>1137</ele>
        <time>2010-01-01T02:16:59Z</time>
      </trkpt>
      <trkpt lat="44.7407" lon="6.56071">
        <ele>1137</ele>
        <time>2010-01-01T02:17:00Z</time>
      </trkpt>
      <trkpt lat="44.74057" lon="6.56093">
        <ele>1139</ele>
        <time>2010-01-01T02:17:06Z</time>
      </trkpt>
      <trkpt lat="44.74058" lon="6.56122">
        <ele>1138</ele>
        <time>2010-01-01T02:17:11Z</time>
      </trkpt>
      <trkpt lat="44.74062" lon="6.56137">
        <ele>1137</ele>
        <time>2010-01-01T02:17:14Z</time>
      </trkpt>
      <trkpt lat="44.74065" lon="6.56146">
        <ele>1136</ele>
        <time>2010-01-01T02:17:16Z</time>
      </trkpt>
      <trkpt lat="44.74067" lon="6.5615">
        <ele>1135</ele>
        <time>2010-01-01T02:17:17Z</time>
      </trkpt>
      <trkpt lat="44.74067" lon="6.56151">
        <ele>1135</ele>
        <time>2010-01-01T02:17:17Z</time>
      </trkpt>
      <trkpt lat="44.74067" lon="6.56154">
        <ele>1135</ele>
        <time>2010-01-01T02:17:18Z</time>
      </trkpt>
      <trkpt lat="44.74066" lon="6.56156">
        <ele>1136</ele>
        <time>2010-01-01T02:17:18Z</time>
      </trkpt>
      <trkpt lat="44.74061" lon="6.5616">
        <ele>1137</ele>
        <time>2010-01-01T02:17:20Z</time>
      </trkpt>
      <trkpt lat="44.74059" lon="6.56163">
        <ele>1137</ele>
        <time>2010-01-01T02:17:21Z</time>
      </trkpt>
      <trkpt lat="44.74054" lon="6.56173">
        <ele>1139</ele>
        <time>2010-01-01T02:17:23Z</time>
      </trkpt>
      <trkpt lat="44.74046" lon="6.56184">
        <ele>1142</ele>
        <time>2010-01-01T02:17:26Z</time>
      </trkpt>
      <trkpt lat="44.74044" lon="6.56188">
        <ele>1142</ele>
        <time>2010-01-01T02:17:27Z</time>
      </trkpt>
      <trkpt lat="44.74037" lon="6.56212">
        <ele>1144</ele>
        <time>2010-01-01T02:17:32Z</time>
      </trkpt>
      <trkpt lat="44.74033" lon="6.56232">
        <ele>1144</ele>
        <time>2010-01-01T02:17:36Z</time>
      </trkpt>
      <trkpt lat="44.74033" lon="6.56237">
        <ele>1144</ele>
        <time>2010-01-01T02:17:37Z</time>
      </trkpt>
      <trkpt lat="44.74028" lon="6.56268">
        <ele>1142</ele>
        <time>2010-01-01T02:17:43Z</time>
      </trkpt>
      <trkpt lat="44.74018" lon="6.56303">
        <ele>1140</ele>
        <time>2010-01-01T02:17:50Z</time>
      </trkpt>
      <trkpt lat="44.74009" lon="6.56326">
        <ele>1138</ele>
        <time>2010-01-01T02:17:55Z</time>
      </trkpt>
      <trkpt lat="44.73997" lon="6.56356">
        <ele>1132</ele>
        <time>2010-01-01T02:18:02Z</time>
      </trkpt>
      <trkpt lat="44.73916" lon="6.56418">
        <ele>1137</ele>
        <time>2010-01-01T02:18:26Z</time>
      </trkpt>
    </trkseg>
  </trk>
</gpx>